<?xml version='1.0' encoding='UTF-8'?><gpx version="1.1" creator="JPX - https://github.com/jenetics/jpx" xmlns="http://www.topografix.com/GPX/1/1"><trk><trkseg><trkpt lat="40.00602482706242" lon="15.976002972326912"><ele>500.0</ele><time>2026-04-19T07:02:07Z</time></trkpt><trkpt lat="40.006113064380344" lon="15.976176926747051"><ele>500.0</ele><time>2026-04-19T07:02:21Z</time></trkpt><trkpt lat="40.00602424940624" lon="15.975997061123756"><ele>500.0</ele><time>2026-04-19T07:02:42.999Z</time></trkpt><trkpt lat="40.006062952168655" lon="15.976074111296455"><ele>500.0</ele><time>2026-04-19T07:02:58.999Z</time></trkpt><trkpt lat="40.00610932833054" lon="15.976219928545799"><ele>499.99999999999994</ele><time>2026-04-19T07:05:45Z</time></trkpt><trkpt lat="40.00613773750178" lon="15.97611985832778"><ele>500.0</ele><time>2026-04-19T07:10:37Z</time></trkpt><trkpt lat="40.006188947621766" lon="15.976060484977296"><ele>500.0</ele><time>2026-04-19T07:10:45Z</time></trkpt><trkpt lat="40.0062506137759" lon="15.975978444503049"><ele>500.0</ele><time>2026-04-19T07:10:47Z</time></trkpt><trkpt lat="40.006285280156135" lon="15.975847441974622"><ele>499.99999999999994</ele><time>2026-04-19T07:10:49Z</time></trkpt><trkpt lat="40.00630048689896" lon="15.975759316159008"><ele>500.0</ele><time>2026-04-19T07:10:50Z</time></trkpt><trkpt lat="40.006317746681" lon="15.975649644635594"><ele>500.1428571428571</ele><time>2026-04-19T07:10:51Z</time></trkpt><trkpt lat="40.006324981723566" lon="15.975542847457966"><ele>500.28571428571433</ele><time>2026-04-19T07:10:51.999Z</time></trkpt><trkpt lat="40.00633159416773" lon="15.975456973206779"><ele>500.42857142857144</ele><time>2026-04-19T07:10:52.999Z</time></trkpt><trkpt lat="40.006327554066914" lon="15.975370806558926"><ele>500.57142857142856</ele><time>2026-04-19T07:10:53.999Z</time></trkpt><trkpt lat="40.00631989306944" lon="15.975273377207476"><ele>500.71428571428567</ele><time>2026-04-19T07:10:54.999Z</time></trkpt><trkpt lat="40.00631141823675" lon="15.97517594084475"><ele>500.8571428571429</ele><time>2026-04-19T07:10:55.999Z</time></trkpt><trkpt lat="40.00630377994134" lon="15.975088122111933"><ele>501.0</ele><time>2026-04-19T07:10:56.999Z</time></trkpt><trkpt lat="40.00630607952471" lon="15.974978077136205"><ele>501.8</ele><time>2026-04-19T07:10:58.999Z</time></trkpt><trkpt lat="40.00642571020316" lon="15.974919723537445"><ele>502.6</ele><time>2026-04-19T07:11:00.999Z</time></trkpt><trkpt lat="40.00650405028086" lon="15.974879327900997"><ele>503.4</ele><time>2026-04-19T07:11:01.999Z</time></trkpt><trkpt lat="40.006577897347285" lon="15.974830428986499"><ele>504.2</ele><time>2026-04-19T07:11:02.999Z</time></trkpt><trkpt lat="40.006641590818774" lon="15.97478281842149"><ele>505.0</ele><time>2026-04-19T07:11:03.999Z</time></trkpt><trkpt lat="40.00671506298657" lon="15.974736700223424"><ele>508.00000000000006</ele><time>2026-04-19T07:11:04.999Z</time></trkpt><trkpt lat="40.00678318797827" lon="15.974682349664887"><ele>511.0</ele><time>2026-04-19T07:11:05.999Z</time></trkpt><trkpt lat="40.006851696962265" lon="15.974618148155335"><ele>514.0</ele><time>2026-04-19T07:11:06.999Z</time></trkpt><trkpt lat="40.00691011855148" lon="15.974546763349949"><ele>517.0</ele><time>2026-04-19T07:11:07.999Z</time></trkpt><trkpt lat="40.0069639209592" lon="15.974473137905678"><ele>520.0</ele><time>2026-04-19T07:11:08.999Z</time></trkpt><trkpt lat="40.007014526959054" lon="15.974404698257167"><ele>523.0</ele><time>2026-04-19T07:11:09.999Z</time></trkpt><trkpt lat="40.00706818384966" lon="15.974326222306388"><ele>523.0</ele><time>2026-04-19T07:11:10.999Z</time></trkpt><trkpt lat="40.00711107051091" lon="15.97422744154746"><ele>523.0</ele><time>2026-04-19T07:11:11.999Z</time></trkpt><trkpt lat="40.00716207472351" lon="15.97412060725374"><ele>523.0</ele><time>2026-04-19T07:11:12.999Z</time></trkpt><trkpt lat="40.00720723865486" lon="15.97399069205052"><ele>523.0</ele><time>2026-04-19T07:11:13.999Z</time></trkpt><trkpt lat="40.007253103909164" lon="15.973860601488537"><ele>523.0</ele><time>2026-04-19T07:11:14.999Z</time></trkpt><trkpt lat="40.00729583850918" lon="15.973731482191564"><ele>523.8</ele><time>2026-04-19T07:11:15.999Z</time></trkpt><trkpt lat="40.00733279526692" lon="15.973600240061813"><ele>524.5999999999999</ele><time>2026-04-19T07:11:16.999Z</time></trkpt><trkpt lat="40.007365585087186" lon="15.973479071823276"><ele>525.4000000000001</ele><time>2026-04-19T07:11:17.999Z</time></trkpt><trkpt lat="40.00739923505698" lon="15.973361618232492"><ele>526.2</ele><time>2026-04-19T07:11:18.999Z</time></trkpt><trkpt lat="40.00743080791358" lon="15.973238799488836"><ele>527.0</ele><time>2026-04-19T07:11:19.999Z</time></trkpt><trkpt lat="40.007488489230674" lon="15.973129068240292"><ele>535.25</ele><time>2026-04-19T07:11:20.999Z</time></trkpt><trkpt lat="40.007563587643844" lon="15.973024117444586"><ele>543.5</ele><time>2026-04-19T07:11:21.999Z</time></trkpt><trkpt lat="40.007634360681344" lon="15.972924242864226"><ele>551.75</ele><time>2026-04-19T07:11:22.999Z</time></trkpt><trkpt lat="40.00772333715186" lon="15.97279711143302"><ele>560.0</ele><time>2026-04-19T07:11:23.999Z</time></trkpt><trkpt lat="40.00782663473721" lon="15.972694359035032"><ele>560.0</ele><time>2026-04-19T07:11:24.999Z</time></trkpt><trkpt lat="40.007919129022476" lon="15.97258622353501"><ele>560.0</ele><time>2026-04-19T07:11:25.999Z</time></trkpt><trkpt lat="40.00802274053301" lon="15.97252788685805"><ele>560.0</ele><time>2026-04-19T07:11:26.999Z</time></trkpt><trkpt lat="40.008103288099335" lon="15.97247721487342"><ele>560.0</ele><time>2026-04-19T07:11:27.999Z</time></trkpt><trkpt lat="40.00819169217521" lon="15.972389582551587"><ele>560.0</ele><time>2026-04-19T07:11:28.999Z</time></trkpt><trkpt lat="40.0082474698483" lon="15.972280484392849"><ele>560.0</ele><time>2026-04-19T07:11:29.999Z</time></trkpt><trkpt lat="40.00828872451885" lon="15.972151563781788"><ele>560.0</ele><time>2026-04-19T07:11:30.999Z</time></trkpt><trkpt lat="40.00832376963369" lon="15.97200040235436"><ele>560.0</ele><time>2026-04-19T07:11:31.999Z</time></trkpt><trkpt lat="40.00835795219181" lon="15.971846450818695"><ele>560.0</ele><time>2026-04-19T07:11:32.999Z</time></trkpt><trkpt lat="40.0084009975356" lon="15.971693239161725"><ele>566.75</ele><time>2026-04-19T07:11:33.999Z</time></trkpt><trkpt lat="40.008457169195765" lon="15.971538548557263"><ele>573.5</ele><time>2026-04-19T07:11:34.999Z</time></trkpt><trkpt lat="40.00852996950017" lon="15.971381275471758"><ele>580.25</ele><time>2026-04-19T07:11:35.999Z</time></trkpt><trkpt lat="40.008625308771634" lon="15.971215412917259"><ele>587.0</ele><time>2026-04-19T07:11:36.999Z</time></trkpt><trkpt lat="40.008722406638434" lon="15.971060948249736"><ele>587.0</ele><time>2026-04-19T07:11:37.999Z</time></trkpt><trkpt lat="40.00881487476989" lon="15.970918249989234"><ele>587.0</ele><time>2026-04-19T07:11:38.999Z</time></trkpt><trkpt lat="40.00890385883595" lon="15.970792374604853"><ele>587.0</ele><time>2026-04-19T07:11:39.999Z</time></trkpt><trkpt lat="40.008985568401975" lon="15.970661427951292"><ele>587.0</ele><time>2026-04-19T07:11:40.999Z</time></trkpt><trkpt lat="40.00906755623369" lon="15.970544038126762"><ele>586.75</ele><time>2026-04-19T07:11:41.999Z</time></trkpt><trkpt lat="40.00912381475564" lon="15.970406777458964"><ele>586.5</ele><time>2026-04-19T07:11:42.999Z</time></trkpt><trkpt lat="40.00917949653714" lon="15.970261245583837"><ele>586.25</ele><time>2026-04-19T07:11:43.999Z</time></trkpt><trkpt lat="40.00926034630367" lon="15.970121658567257"><ele>586.0</ele><time>2026-04-19T07:11:44.999Z</time></trkpt><trkpt lat="40.00932436852039" lon="15.969966421154714"><ele>593.75</ele><time>2026-04-19T07:11:45.999Z</time></trkpt><trkpt lat="40.00939117932541" lon="15.969795766115194"><ele>601.5</ele><time>2026-04-19T07:11:46.999Z</time></trkpt><trkpt lat="40.00945993992135" lon="15.969637283303358"><ele>609.25</ele><time>2026-04-19T07:11:47.999Z</time></trkpt><trkpt lat="40.00953349923831" lon="15.969485597715282"><ele>617.0</ele><time>2026-04-19T07:11:48.999Z</time></trkpt><trkpt lat="40.009593986146456" lon="15.969372394756808"><ele>617.0</ele><time>2026-04-19T07:11:49.999Z</time></trkpt><trkpt lat="40.009646733710674" lon="15.969296628775467"><ele>617.0</ele><time>2026-04-19T07:11:50.999Z</time></trkpt><trkpt lat="40.0097036474558" lon="15.96923210915815"><ele>617.0</ele><time>2026-04-19T07:11:51.999Z</time></trkpt><trkpt lat="40.00980189455669" lon="15.969253902259775"><ele>617.0</ele><time>2026-04-19T07:11:52.999Z</time></trkpt><trkpt lat="40.00984013878739" lon="15.969371625626776"><ele>617.0</ele><time>2026-04-19T07:11:53.999Z</time></trkpt><trkpt lat="40.00983497245378" lon="15.969488647436405"><ele>617.0</ele><time>2026-04-19T07:11:54.999Z</time></trkpt><trkpt lat="40.00978268043454" lon="15.969623742624364"><ele>617.0</ele><time>2026-04-19T07:11:57Z</time></trkpt><trkpt lat="40.009842774169364" lon="15.969657350484749"><ele>617.0</ele><time>2026-04-19T07:11:59Z</time></trkpt><trkpt lat="40.0098834525121" lon="15.969541306589388"><ele>617.0</ele><time>2026-04-19T07:12:01Z</time></trkpt><trkpt lat="40.009907951669724" lon="15.969431767511225"><ele>617.0</ele><time>2026-04-19T07:12:04Z</time></trkpt><trkpt lat="40.00989821079003" lon="15.969273940917613"><ele>617.0</ele><time>2026-04-19T07:12:06Z</time></trkpt><trkpt lat="40.00990190744916" lon="15.969170045537162"><ele>616.4</ele><time>2026-04-19T07:12:07Z</time></trkpt><trkpt lat="40.00996602380506" lon="15.969060606200872"><ele>615.8000000000001</ele><time>2026-04-19T07:12:09Z</time></trkpt><trkpt lat="40.01000097893522" lon="15.968972207278702"><ele>615.2</ele><time>2026-04-19T07:12:10Z</time></trkpt><trkpt lat="40.0100388013146" lon="15.968865567316161"><ele>614.6</ele><time>2026-04-19T07:12:11Z</time></trkpt><trkpt lat="40.010087708757666" lon="15.968733464286561"><ele>614.0</ele><time>2026-04-19T07:12:12Z</time></trkpt><trkpt lat="40.01014873069514" lon="15.968598575469962"><ele>619.6</ele><time>2026-04-19T07:12:13Z</time></trkpt><trkpt lat="40.010186574711696" lon="15.968489294795777"><ele>625.2</ele><time>2026-04-19T07:12:14Z</time></trkpt><trkpt lat="40.01021796546014" lon="15.968390539755019"><ele>630.8000000000001</ele><time>2026-04-19T07:12:15Z</time></trkpt><trkpt lat="40.010226706014855" lon="15.968307687819545"><ele>636.4</ele><time>2026-04-19T07:12:16Z</time></trkpt><trkpt lat="40.01027325178188" lon="15.96821121200996"><ele>642.0</ele><time>2026-04-19T07:12:18Z</time></trkpt><trkpt lat="40.01024557180534" lon="15.968395346434713"><ele>643.0</ele><time>2026-04-19T07:12:29Z</time></trkpt><trkpt lat="40.010217040839365" lon="15.968530929388434"><ele>644.0</ele><time>2026-04-19T07:12:30Z</time></trkpt><trkpt lat="40.01019683161967" lon="15.96868121823172"><ele>645.0</ele><time>2026-04-19T07:12:31Z</time></trkpt><trkpt lat="40.01018728657471" lon="15.968840467450873"><ele>646.0</ele><time>2026-04-19T07:12:32Z</time></trkpt><trkpt lat="40.01019527903552" lon="15.968974879256727"><ele>646.0</ele><time>2026-04-19T07:12:33Z</time></trkpt><trkpt lat="40.01024011476414" lon="15.969094488339302"><ele>646.0</ele><time>2026-04-19T07:12:34Z</time></trkpt><trkpt lat="40.01030125986823" lon="15.969195835890169"><ele>646.0</ele><time>2026-04-19T07:12:35Z</time></trkpt><trkpt lat="40.01039502404763" lon="15.969290205900595"><ele>646.0</ele><time>2026-04-19T07:12:36Z</time></trkpt><trkpt lat="40.01049408365984" lon="15.969392879789734"><ele>646.0</ele><time>2026-04-19T07:12:37Z</time></trkpt><trkpt lat="40.010580665007744" lon="15.969493647934303"><ele>648.1999999999999</ele><time>2026-04-19T07:12:38Z</time></trkpt><trkpt lat="40.01064726496899" lon="15.969585526982966"><ele>650.4</ele><time>2026-04-19T07:12:39Z</time></trkpt><trkpt lat="40.010684212163376" lon="15.96970353065507"><ele>652.6</ele><time>2026-04-19T07:12:40Z</time></trkpt><trkpt lat="40.010788108778065" lon="15.969763395630128"><ele>654.8</ele><time>2026-04-19T07:12:41Z</time></trkpt><trkpt lat="40.01084442433495" lon="15.969838472210114"><ele>657.0</ele><time>2026-04-19T07:12:42Z</time></trkpt><trkpt lat="40.01082581608255" lon="15.969996419886469"><ele>657.0</ele><time>2026-04-19T07:12:44Z</time></trkpt><trkpt lat="40.010722254333125" lon="15.970017057071907"><ele>657.0</ele><time>2026-04-19T07:12:45Z</time></trkpt><trkpt lat="40.01064461302191" lon="15.97011419911175"><ele>657.0</ele><time>2026-04-19T07:12:46Z</time></trkpt><trkpt lat="40.010531127088306" lon="15.970180603500793"><ele>657.0</ele><time>2026-04-19T07:12:47Z</time></trkpt><trkpt lat="40.01044805758318" lon="15.970264645365141"><ele>657.0</ele><time>2026-04-19T07:12:48Z</time></trkpt><trkpt lat="40.01038472097489" lon="15.970326479248886"><ele>659.8</ele><time>2026-04-19T07:12:49Z</time></trkpt><trkpt lat="40.0103830779551" lon="15.970457669139037"><ele>662.6</ele><time>2026-04-19T07:12:51Z</time></trkpt><trkpt lat="40.010491981645394" lon="15.970480787689917"><ele>665.4</ele><time>2026-04-19T07:12:53Z</time></trkpt><trkpt lat="40.010550308385056" lon="15.970404460525383"><ele>668.1999999999999</ele><time>2026-04-19T07:12:54Z</time></trkpt><trkpt lat="40.010630480297245" lon="15.970349243544538"><ele>671.0</ele><time>2026-04-19T07:12:55Z</time></trkpt><trkpt lat="40.01073079301377" lon="15.970285653420241"><ele>671.0</ele><time>2026-04-19T07:12:56Z</time></trkpt><trkpt lat="40.01082734834559" lon="15.970217370752252"><ele>671.0</ele><time>2026-04-19T07:12:57Z</time></trkpt><trkpt lat="40.010886182524914" lon="15.970181909985412"><ele>671.0</ele><time>2026-04-19T07:12:58Z</time></trkpt><trkpt lat="40.010933119089245" lon="15.970239870871"><ele>671.0</ele><time>2026-04-19T07:12:59.999Z</time></trkpt><trkpt lat="40.010901148373364" lon="15.970316867421255"><ele>671.0</ele><time>2026-04-19T07:13:00.999Z</time></trkpt><trkpt lat="40.01083428931818" lon="15.970327857720154"><ele>671.0</ele><time>2026-04-19T07:13:01.999Z</time></trkpt><trkpt lat="40.01076811824452" lon="15.970370067751318"><ele>671.0</ele><time>2026-04-19T07:13:02.999Z</time></trkpt><trkpt lat="40.01068956029165" lon="15.970427656145366"><ele>671.0</ele><time>2026-04-19T07:13:03.999Z</time></trkpt><trkpt lat="40.01061955616668" lon="15.970536176741039"><ele>671.0</ele><time>2026-04-19T07:13:04.999Z</time></trkpt><trkpt lat="40.010570033568186" lon="15.970629015082208"><ele>671.0</ele><time>2026-04-19T07:13:05.999Z</time></trkpt><trkpt lat="40.01053297873694" lon="15.970701417257812"><ele>671.0</ele><time>2026-04-19T07:13:06.999Z</time></trkpt><trkpt lat="40.010495840725284" lon="15.9708184262817"><ele>671.0</ele><time>2026-04-19T07:13:08.999Z</time></trkpt><trkpt lat="40.01059695302375" lon="15.970884958936479"><ele>671.0</ele><time>2026-04-19T07:13:10.999Z</time></trkpt><trkpt lat="40.01066210489508" lon="15.9707814229422"><ele>671.0</ele><time>2026-04-19T07:13:11.999Z</time></trkpt><trkpt lat="40.01071085278894" lon="15.970693197690192"><ele>671.0</ele><time>2026-04-19T07:13:12.999Z</time></trkpt><trkpt lat="40.01078980311111" lon="15.970632369543726"><ele>671.0</ele><time>2026-04-19T07:13:13.999Z</time></trkpt><trkpt lat="40.010879939813314" lon="15.970579304559834"><ele>671.0</ele><time>2026-04-19T07:13:14.999Z</time></trkpt><trkpt lat="40.010957235064666" lon="15.970496617916128"><ele>671.0</ele><time>2026-04-19T07:13:15.999Z</time></trkpt><trkpt lat="40.011016038359955" lon="15.970444385791552"><ele>671.0</ele><time>2026-04-19T07:13:16.999Z</time></trkpt><trkpt lat="40.01108402629942" lon="15.970516568373156"><ele>671.0</ele><time>2026-04-19T07:13:19.999Z</time></trkpt><trkpt lat="40.01103697636675" lon="15.97058283825665"><ele>671.0</ele><time>2026-04-19T07:13:20.999Z</time></trkpt><trkpt lat="40.010973426449205" lon="15.970625356635004"><ele>671.0</ele><time>2026-04-19T07:13:21.999Z</time></trkpt><trkpt lat="40.01090734528297" lon="15.970674708982433"><ele>671.0</ele><time>2026-04-19T07:13:22.999Z</time></trkpt><trkpt lat="40.01082104023486" lon="15.97076252340001"><ele>675.25</ele><time>2026-04-19T07:13:23.999Z</time></trkpt><trkpt lat="40.01073639837444" lon="15.970891774991463"><ele>679.5</ele><time>2026-04-19T07:13:24.999Z</time></trkpt><trkpt lat="40.010654636708416" lon="15.971055072792824"><ele>683.75</ele><time>2026-04-19T07:13:25.999Z</time></trkpt><trkpt lat="40.010583749441594" lon="15.971232644724735"><ele>688.0</ele><time>2026-04-19T07:13:26.999Z</time></trkpt><trkpt lat="40.01052569326904" lon="15.971430263208452"><ele>688.0</ele><time>2026-04-19T07:13:27.999Z</time></trkpt><trkpt lat="40.0104918652999" lon="15.971648529502726"><ele>688.0</ele><time>2026-04-19T07:13:28.999Z</time></trkpt><trkpt lat="40.01048695791984" lon="15.971839948797198"><ele>688.0</ele><time>2026-04-19T07:13:29.999Z</time></trkpt><trkpt lat="40.01048112246982" lon="15.972005966448531"><ele>688.0</ele><time>2026-04-19T07:13:30.999Z</time></trkpt><trkpt lat="40.010474781674034" lon="15.972164130314335"><ele>687.25</ele><time>2026-04-19T07:13:31.999Z</time></trkpt><trkpt lat="40.01049279485942" lon="15.972320560452719"><ele>686.5</ele><time>2026-04-19T07:13:32.999Z</time></trkpt><trkpt lat="40.01050868520955" lon="15.972479880824489"><ele>685.75</ele><time>2026-04-19T07:13:33.999Z</time></trkpt><trkpt lat="40.01054068671582" lon="15.972620358128252"><ele>685.0</ele><time>2026-04-19T07:13:34.999Z</time></trkpt><trkpt lat="40.0106699265008" lon="15.972754065399139"><ele>684.25</ele><time>2026-04-19T07:13:35.999Z</time></trkpt><trkpt lat="40.01073272643731" lon="15.972897241521183"><ele>683.5</ele><time>2026-04-19T07:13:36.999Z</time></trkpt><trkpt lat="40.01080230625394" lon="15.973011924936346"><ele>682.75</ele><time>2026-04-19T07:13:37.999Z</time></trkpt><trkpt lat="40.01089903904782" lon="15.973126076493815"><ele>682.0</ele><time>2026-04-19T07:13:38.999Z</time></trkpt><trkpt lat="40.011017939939215" lon="15.973220768298427"><ele>696.0</ele><time>2026-04-19T07:13:39.999Z</time></trkpt><trkpt lat="40.01115411843709" lon="15.973282423831327"><ele>710.0</ele><time>2026-04-19T07:13:40.999Z</time></trkpt><trkpt lat="40.01130943174879" lon="15.973315181832072"><ele>724.0</ele><time>2026-04-19T07:13:41.999Z</time></trkpt><trkpt lat="40.01146904772183" lon="15.973332602372146"><ele>724.0</ele><time>2026-04-19T07:13:42.999Z</time></trkpt><trkpt lat="40.011596797877345" lon="15.973344300889925"><ele>724.0</ele><time>2026-04-19T07:13:43.999Z</time></trkpt><trkpt lat="40.0117227548486" lon="15.973345961649596"><ele>724.0</ele><time>2026-04-19T07:13:44.999Z</time></trkpt><trkpt lat="40.01180865794658" lon="15.973376142253631"><ele>724.0</ele><time>2026-04-19T07:13:45.999Z</time></trkpt><trkpt lat="40.01191162608819" lon="15.973445459720828"><ele>732.75</ele><time>2026-04-19T07:13:47.999Z</time></trkpt><trkpt lat="40.01187952948878" lon="15.973575361482691"><ele>741.5</ele><time>2026-04-19T07:13:48.999Z</time></trkpt><trkpt lat="40.01179962837465" lon="15.973667454997116"><ele>750.25</ele><time>2026-04-19T07:13:49.999Z</time></trkpt><trkpt lat="40.011750628741034" lon="15.973817042689396"><ele>759.0</ele><time>2026-04-19T07:13:50.999Z</time></trkpt><trkpt lat="40.01168547651092" lon="15.973976796548634"><ele>754.25</ele><time>2026-04-19T07:13:51.999Z</time></trkpt><trkpt lat="40.01158663196096" lon="15.974106345252828"><ele>749.5</ele><time>2026-04-19T07:13:52.999Z</time></trkpt><trkpt lat="40.011480511298885" lon="15.97424702662363"><ele>744.75</ele><time>2026-04-19T07:13:53.999Z</time></trkpt><trkpt lat="40.01136221561604" lon="15.974361137824177"><ele>740.0</ele><time>2026-04-19T07:13:54.999Z</time></trkpt><trkpt lat="40.01123261081056" lon="15.974466962506401"><ele>740.0</ele><time>2026-04-19T07:13:55.999Z</time></trkpt><trkpt lat="40.01112914067653" lon="15.974570926844851"><ele>740.0</ele><time>2026-04-19T07:13:56.999Z</time></trkpt><trkpt lat="40.011061086444755" lon="15.97467155481824"><ele>740.0</ele><time>2026-04-19T07:13:57.999Z</time></trkpt><trkpt lat="40.011008883723676" lon="15.974771852155065"><ele>740.0</ele><time>2026-04-19T07:13:58.999Z</time></trkpt><trkpt lat="40.010975148349665" lon="15.974904089919551"><ele>740.0</ele><time>2026-04-19T07:13:59.999Z</time></trkpt><trkpt lat="40.01097523533161" lon="15.975025746570804"><ele>742.0</ele><time>2026-04-19T07:14:00.999Z</time></trkpt><trkpt lat="40.01101613565287" lon="15.975152395369246"><ele>744.0</ele><time>2026-04-19T07:14:01.999Z</time></trkpt><trkpt lat="40.01107561627466" lon="15.975276441109312"><ele>746.0</ele><time>2026-04-19T07:14:03Z</time></trkpt><trkpt lat="40.011137679262966" lon="15.9754020067342"><ele>748.0</ele><time>2026-04-19T07:14:04Z</time></trkpt><trkpt lat="40.011190880621974" lon="15.975518170207481"><ele>750.0</ele><time>2026-04-19T07:14:05Z</time></trkpt><trkpt lat="40.0112457229279" lon="15.975636568690586"><ele>750.0</ele><time>2026-04-19T07:14:06Z</time></trkpt><trkpt lat="40.011328043546925" lon="15.9757445815063"><ele>750.0</ele><time>2026-04-19T07:14:07Z</time></trkpt><trkpt lat="40.01140858089936" lon="15.975823996010723"><ele>750.0</ele><time>2026-04-19T07:14:08Z</time></trkpt><trkpt lat="40.011479860135225" lon="15.975883700627968"><ele>750.0</ele><time>2026-04-19T07:14:09Z</time></trkpt><trkpt lat="40.01155292051863" lon="15.975956214629559"><ele>750.0</ele><time>2026-04-19T07:14:10Z</time></trkpt><trkpt lat="40.01160486468034" lon="15.97601479921534"><ele>751.1666666666666</ele><time>2026-04-19T07:14:11Z</time></trkpt><trkpt lat="40.0116545865093" lon="15.976073007098064"><ele>752.3333333333334</ele><time>2026-04-19T07:14:12Z</time></trkpt><trkpt lat="40.01172533286368" lon="15.976090707513027"><ele>753.5</ele><time>2026-04-19T07:14:13Z</time></trkpt><trkpt lat="40.01180868925005" lon="15.976065642151067"><ele>754.6666666666667</ele><time>2026-04-19T07:14:14Z</time></trkpt><trkpt lat="40.01189991034096" lon="15.976023786548229"><ele>755.8333333333334</ele><time>2026-04-19T07:14:15Z</time></trkpt><trkpt lat="40.01199631604016" lon="15.975972447786678"><ele>757.0</ele><time>2026-04-19T07:14:16Z</time></trkpt><trkpt lat="40.012085540637166" lon="15.975937022071724"><ele>757.0</ele><time>2026-04-19T07:14:17Z</time></trkpt><trkpt lat="40.01215026229977" lon="15.975904861050699"><ele>757.0</ele><time>2026-04-19T07:14:18Z</time></trkpt><trkpt lat="40.01221121395658" lon="15.975866767074749"><ele>757.0</ele><time>2026-04-19T07:14:20Z</time></trkpt><trkpt lat="40.01231472688602" lon="15.975823046192906"><ele>757.0</ele><time>2026-04-19T07:14:39Z</time></trkpt><trkpt lat="40.012397046680306" lon="15.975766517629093"><ele>757.0</ele><time>2026-04-19T07:14:40Z</time></trkpt><trkpt lat="40.01249795969003" lon="15.975701116408413"><ele>767.3333333333334</ele><time>2026-04-19T07:14:41Z</time></trkpt><trkpt lat="40.012624508013" lon="15.975624450258401"><ele>777.6666666666667</ele><time>2026-04-19T07:14:42Z</time></trkpt><trkpt lat="40.012762137194436" lon="15.975558562811388"><ele>788.0</ele><time>2026-04-19T07:14:43Z</time></trkpt><trkpt lat="40.012915818599474" lon="15.975484275503282"><ele>788.0</ele><time>2026-04-19T07:14:44Z</time></trkpt><trkpt lat="40.01307625622447" lon="15.975414522537191"><ele>788.0</ele><time>2026-04-19T07:14:45Z</time></trkpt><trkpt lat="40.013239459271624" lon="15.975380905435575"><ele>788.0</ele><time>2026-04-19T07:14:46Z</time></trkpt><trkpt lat="40.01340705896575" lon="15.975363387392225"><ele>785.5</ele><time>2026-04-19T07:14:47Z</time></trkpt><trkpt lat="40.01354667246439" lon="15.975335243003636"><ele>783.0</ele><time>2026-04-19T07:14:48Z</time></trkpt><trkpt lat="40.01366856252152" lon="15.975270595068249"><ele>780.5</ele><time>2026-04-19T07:14:49Z</time></trkpt><trkpt lat="40.01377515491475" lon="15.975181611140648"><ele>778.0</ele><time>2026-04-19T07:14:50Z</time></trkpt><trkpt lat="40.013864381484396" lon="15.975074536834482"><ele>785.0</ele><time>2026-04-19T07:14:51Z</time></trkpt><trkpt lat="40.013962214698225" lon="15.974991977286958"><ele>792.0</ele><time>2026-04-19T07:14:52Z</time></trkpt><trkpt lat="40.014088812049735" lon="15.975006163322774"><ele>799.0</ele><time>2026-04-19T07:14:53Z</time></trkpt><trkpt lat="40.014216120901025" lon="15.974987700371466"><ele>806.0</ele><time>2026-04-19T07:14:54Z</time></trkpt><trkpt lat="40.014303657098274" lon="15.974904607669423"><ele>806.0</ele><time>2026-04-19T07:14:55Z</time></trkpt><trkpt lat="40.01436985889291" lon="15.97485653627692"><ele>806.0</ele><time>2026-04-19T07:14:56Z</time></trkpt><trkpt lat="40.01447639946384" lon="15.974967130450825"><ele>806.0</ele><time>2026-04-19T07:14:58Z</time></trkpt><trkpt lat="40.01447748166904" lon="15.97507287074646"><ele>806.0</ele><time>2026-04-19T07:14:59Z</time></trkpt><trkpt lat="40.014449540721905" lon="15.975221778649823"><ele>806.0</ele><time>2026-04-19T07:15:00Z</time></trkpt><trkpt lat="40.014433389649355" lon="15.975391823442614"><ele>807.5</ele><time>2026-04-19T07:15:01Z</time></trkpt><trkpt lat="40.01440651160153" lon="15.975573070295503"><ele>809.0</ele><time>2026-04-19T07:15:02Z</time></trkpt><trkpt lat="40.01433719127208" lon="15.975747224856693"><ele>810.5</ele><time>2026-04-19T07:15:03Z</time></trkpt><trkpt lat="40.014265483527794" lon="15.975925985045256"><ele>812.0</ele><time>2026-04-19T07:15:03.999Z</time></trkpt><trkpt lat="40.01415167851425" lon="15.976092946006888"><ele>793.3333333333334</ele><time>2026-04-19T07:15:04.999Z</time></trkpt><trkpt lat="40.01406443721357" lon="15.976297915304876"><ele>774.6666666666667</ele><time>2026-04-19T07:15:05.999Z</time></trkpt><trkpt lat="40.013987005236075" lon="15.976484942927156"><ele>756.0</ele><time>2026-04-19T07:15:06.999Z</time></trkpt><trkpt lat="40.01393213349025" lon="15.976655900130861"><ele>758.0</ele><time>2026-04-19T07:15:07.999Z</time></trkpt><trkpt lat="40.01385911874915" lon="15.976787406825995"><ele>760.0</ele><time>2026-04-19T07:15:08.999Z</time></trkpt><trkpt lat="40.01384177817098" lon="15.976947140375133"><ele>762.0</ele><time>2026-04-19T07:15:09.999Z</time></trkpt><trkpt lat="40.0138552335035" lon="15.977107471256168"><ele>764.0</ele><time>2026-04-19T07:15:10.999Z</time></trkpt><trkpt lat="40.01391266825739" lon="15.97726946662832"><ele>764.0</ele><time>2026-04-19T07:15:11.999Z</time></trkpt><trkpt lat="40.01399253494795" lon="15.97742519290797"><ele>764.0</ele><time>2026-04-19T07:15:12.999Z</time></trkpt><trkpt lat="40.0140715869447" lon="15.977553843271847"><ele>764.0</ele><time>2026-04-19T07:15:13.999Z</time></trkpt><trkpt lat="40.014050224869436" lon="15.977698013597195"><ele>764.0</ele><time>2026-04-19T07:15:14.999Z</time></trkpt><trkpt lat="40.01402171614207" lon="15.97784005232256"><ele>766.0</ele><time>2026-04-19T07:15:15.999Z</time></trkpt><trkpt lat="40.01399037584853" lon="15.977993539052472"><ele>768.0</ele><time>2026-04-19T07:15:16.999Z</time></trkpt><trkpt lat="40.01397679600527" lon="15.978125713078606"><ele>770.0</ele><time>2026-04-19T07:15:17.999Z</time></trkpt><trkpt lat="40.01395094933316" lon="15.97821968415807"><ele>772.0</ele><time>2026-04-19T07:15:18.999Z</time></trkpt><trkpt lat="40.01403041011529" lon="15.978270386276789"><ele>774.0</ele><time>2026-04-19T07:15:22.999Z</time></trkpt><trkpt lat="40.014063490188974" lon="15.97816798915508"><ele>774.0</ele><time>2026-04-19T07:15:24.999Z</time></trkpt><trkpt lat="40.01408048859653" lon="15.978070943117263"><ele>774.0</ele><time>2026-04-19T07:15:25.999Z</time></trkpt><trkpt lat="40.014131322104" lon="15.977934699747486"><ele>774.0</ele><time>2026-04-19T07:15:26.999Z</time></trkpt><trkpt lat="40.01418423624702" lon="15.977770537478463"><ele>774.0</ele><time>2026-04-19T07:15:27.999Z</time></trkpt><trkpt lat="40.014237952970895" lon="15.977615506914665"><ele>785.25</ele><time>2026-04-19T07:15:28.999Z</time></trkpt><trkpt lat="40.01429564284214" lon="15.97744718697958"><ele>796.5</ele><time>2026-04-19T07:15:29.999Z</time></trkpt><trkpt lat="40.01433244499416" lon="15.977255681037649"><ele>807.75</ele><time>2026-04-19T07:15:30.999Z</time></trkpt><trkpt lat="40.01436449969657" lon="15.977061071914758"><ele>819.0</ele><time>2026-04-19T07:15:31.999Z</time></trkpt><trkpt lat="40.01438471052289" lon="15.976890428452903"><ele>819.0</ele><time>2026-04-19T07:15:32.999Z</time></trkpt><trkpt lat="40.01437826418246" lon="15.97673738164017"><ele>819.0</ele><time>2026-04-19T07:15:33.999Z</time></trkpt><trkpt lat="40.0144084662683" lon="15.976618419881277"><ele>819.0</ele><time>2026-04-19T07:15:34.999Z</time></trkpt><trkpt lat="40.01445830652485" lon="15.976513091187648"><ele>819.0</ele><time>2026-04-19T07:15:35.999Z</time></trkpt><trkpt lat="40.01454826712831" lon="15.976411943907284"><ele>819.0</ele><time>2026-04-19T07:15:36.999Z</time></trkpt><trkpt lat="40.01465347796743" lon="15.976314803056194"><ele>817.25</ele><time>2026-04-19T07:15:37.999Z</time></trkpt><trkpt lat="40.01475748545921" lon="15.976219702501393"><ele>815.5</ele><time>2026-04-19T07:15:38.999Z</time></trkpt><trkpt lat="40.01486305423849" lon="15.976078422081542"><ele>813.75</ele><time>2026-04-19T07:15:39.999Z</time></trkpt><trkpt lat="40.01496935349102" lon="15.975950634348873"><ele>812.0</ele><time>2026-04-19T07:15:40.999Z</time></trkpt><trkpt lat="40.015066665925566" lon="15.97579722500249"><ele>818.75</ele><time>2026-04-19T07:15:41.999Z</time></trkpt><trkpt lat="40.01518074267565" lon="15.975701310847915"><ele>825.5</ele><time>2026-04-19T07:15:42.999Z</time></trkpt><trkpt lat="40.01528848256038" lon="15.975632886850581"><ele>832.25</ele><time>2026-04-19T07:15:43.999Z</time></trkpt><trkpt lat="40.015422030295355" lon="15.975623670061283"><ele>839.0</ele><time>2026-04-19T07:15:44.999Z</time></trkpt><trkpt lat="40.01556175199586" lon="15.975549995203753"><ele>839.0</ele><time>2026-04-19T07:15:45.999Z</time></trkpt><trkpt lat="40.015651981609054" lon="15.975484857291322"><ele>839.0</ele><time>2026-04-19T07:15:46.999Z</time></trkpt><trkpt lat="40.01571382130413" lon="15.975357683531143"><ele>839.0</ele><time>2026-04-19T07:15:47.999Z</time></trkpt><trkpt lat="40.015784209306204" lon="15.975213453211436"><ele>839.0</ele><time>2026-04-19T07:15:48.999Z</time></trkpt><trkpt lat="40.01583792442847" lon="15.975091685098716"><ele>841.0</ele><time>2026-04-19T07:15:49.999Z</time></trkpt><trkpt lat="40.015908068736856" lon="15.975009515318247"><ele>843.0</ele><time>2026-04-19T07:15:50.999Z</time></trkpt><trkpt lat="40.01599368376136" lon="15.974984410526714"><ele>845.0</ele><time>2026-04-19T07:15:51.999Z</time></trkpt><trkpt lat="40.01607955232678" lon="15.975017464953224"><ele>847.0</ele><time>2026-04-19T07:15:52.999Z</time></trkpt><trkpt lat="40.01614774559773" lon="15.975128092263725"><ele>849.0</ele><time>2026-04-19T07:15:53.999Z</time></trkpt><trkpt lat="40.016240865669204" lon="15.975235098510192"><ele>851.75</ele><time>2026-04-19T07:15:54.999Z</time></trkpt><trkpt lat="40.01633373706348" lon="15.97533324261535"><ele>854.5</ele><time>2026-04-19T07:15:55.999Z</time></trkpt><trkpt lat="40.016415922092506" lon="15.975460782838363"><ele>857.25</ele><time>2026-04-19T07:15:56.999Z</time></trkpt><trkpt lat="40.01649481392137" lon="15.97559785553328"><ele>860.0</ele><time>2026-04-19T07:15:57.999Z</time></trkpt><trkpt lat="40.016581642898124" lon="15.975750262510296"><ele>863.6666666666667</ele><time>2026-04-19T07:15:58.999Z</time></trkpt><trkpt lat="40.01667893506492" lon="15.97591287405857"><ele>867.3333333333333</ele><time>2026-04-19T07:15:59.999Z</time></trkpt><trkpt lat="40.01677970762012" lon="15.976083684516635"><ele>871.0</ele><time>2026-04-19T07:16:00.999Z</time></trkpt><trkpt lat="40.01687940797592" lon="15.976263698532817"><ele>871.0</ele><time>2026-04-19T07:16:01.999Z</time></trkpt><trkpt lat="40.01697283681855" lon="15.976434825125036"><ele>871.0</ele><time>2026-04-19T07:16:02.999Z</time></trkpt><trkpt lat="40.01704191012504" lon="15.97659759630168"><ele>871.0</ele><time>2026-04-19T07:16:03.999Z</time></trkpt><trkpt lat="40.017137499339974" lon="15.976750337159308"><ele>871.25</ele><time>2026-04-19T07:16:04.999Z</time></trkpt><trkpt lat="40.01721390371432" lon="15.97693130277247"><ele>871.5</ele><time>2026-04-19T07:16:05.999Z</time></trkpt><trkpt lat="40.01730521875405" lon="15.977073123648763"><ele>871.75</ele><time>2026-04-19T07:16:06.999Z</time></trkpt><trkpt lat="40.01737379736348" lon="15.97722686647139"><ele>872.0</ele><time>2026-04-19T07:16:07.999Z</time></trkpt><trkpt lat="40.017428552981265" lon="15.97735549373923"><ele>874.0</ele><time>2026-04-19T07:16:09Z</time></trkpt><trkpt lat="40.01749189699169" lon="15.977447146153535"><ele>876.0</ele><time>2026-04-19T07:16:10Z</time></trkpt><trkpt lat="40.01756148324275" lon="15.97745975365823"><ele>878.0</ele><time>2026-04-19T07:16:11Z</time></trkpt><trkpt lat="40.017618819498075" lon="15.977385475864006"><ele>880.0</ele><time>2026-04-19T07:16:12Z</time></trkpt><trkpt lat="40.01765438148746" lon="15.977268355128937"><ele>882.0</ele><time>2026-04-19T07:16:13Z</time></trkpt><trkpt lat="40.017650582898334" lon="15.977127691599764"><ele>882.0</ele><time>2026-04-19T07:16:14Z</time></trkpt><trkpt lat="40.01761866983605" lon="15.976972193342808"><ele>882.0</ele><time>2026-04-19T07:16:15Z</time></trkpt><trkpt lat="40.01757410345801" lon="15.976817043030731"><ele>882.0</ele><time>2026-04-19T07:16:16Z</time></trkpt><trkpt lat="40.01752342398153" lon="15.976653155240019"><ele>882.0</ele><time>2026-04-19T07:16:17Z</time></trkpt><trkpt lat="40.01747510699216" lon="15.976507760712954"><ele>883.6</ele><time>2026-04-19T07:16:18Z</time></trkpt><trkpt lat="40.017451772181545" lon="15.976383147378613"><ele>885.2</ele><time>2026-04-19T07:16:19Z</time></trkpt><trkpt lat="40.017467305421256" lon="15.976277985378168"><ele>886.8</ele><time>2026-04-19T07:16:20Z</time></trkpt><trkpt lat="40.01752459793226" lon="15.976184195235906"><ele>888.4</ele><time>2026-04-19T07:16:21Z</time></trkpt><trkpt lat="40.01763972082608" lon="15.976149534040134"><ele>890.0</ele><time>2026-04-19T07:16:22Z</time></trkpt><trkpt lat="40.017739239735604" lon="15.97606593841905"><ele>890.0</ele><time>2026-04-19T07:16:23Z</time></trkpt><trkpt lat="40.017844248962426" lon="15.9759615491291"><ele>890.0</ele><time>2026-04-19T07:16:24Z</time></trkpt><trkpt lat="40.0179562313461" lon="15.975857244093907"><ele>890.0</ele><time>2026-04-19T07:16:25Z</time></trkpt><trkpt lat="40.018048377270624" lon="15.975705691813122"><ele>890.0</ele><time>2026-04-19T07:16:26Z</time></trkpt><trkpt lat="40.018134350423765" lon="15.975524212153578"><ele>891.0</ele><time>2026-04-19T07:16:27Z</time></trkpt><trkpt lat="40.01821002760132" lon="15.975355262094531"><ele>892.0</ele><time>2026-04-19T07:16:28Z</time></trkpt><trkpt lat="40.01827025197392" lon="15.975193200520053"><ele>893.0</ele><time>2026-04-19T07:16:29Z</time></trkpt><trkpt lat="40.01831852619509" lon="15.975047161449675"><ele>894.0</ele><time>2026-04-19T07:16:30Z</time></trkpt><trkpt lat="40.01834781692322" lon="15.974881559199096"><ele>893.5</ele><time>2026-04-19T07:16:31Z</time></trkpt><trkpt lat="40.01833089688507" lon="15.974719419323426"><ele>893.0</ele><time>2026-04-19T07:16:32Z</time></trkpt><trkpt lat="40.01830249495579" lon="15.974548039052014"><ele>892.5</ele><time>2026-04-19T07:16:33Z</time></trkpt><trkpt lat="40.018258063379946" lon="15.974352648752586"><ele>892.0</ele><time>2026-04-19T07:16:34Z</time></trkpt><trkpt lat="40.01821533089814" lon="15.974156613064332"><ele>892.0</ele><time>2026-04-19T07:16:35Z</time></trkpt><trkpt lat="40.01818600906901" lon="15.974007195801024"><ele>892.0</ele><time>2026-04-19T07:16:36Z</time></trkpt><trkpt lat="40.01817062580509" lon="15.973854790384255"><ele>892.0</ele><time>2026-04-19T07:16:37Z</time></trkpt><trkpt lat="40.01811302415188" lon="15.973719524967414"><ele>892.0</ele><time>2026-04-19T07:16:38Z</time></trkpt><trkpt lat="40.01805447834552" lon="15.973585033815556"><ele>892.0</ele><time>2026-04-19T07:16:39Z</time></trkpt><trkpt lat="40.01799001595607" lon="15.973479899806872"><ele>892.0</ele><time>2026-04-19T07:16:40Z</time></trkpt><trkpt lat="40.01795255201474" lon="15.973381820958563"><ele>892.0</ele><time>2026-04-19T07:16:41Z</time></trkpt><trkpt lat="40.0179493580832" lon="15.973265243888962"><ele>892.0</ele><time>2026-04-19T07:16:42Z</time></trkpt><trkpt lat="40.01798793086959" lon="15.973149817720069"><ele>892.0</ele><time>2026-04-19T07:16:43Z</time></trkpt><trkpt lat="40.018060727408404" lon="15.973045165358887"><ele>890.75</ele><time>2026-04-19T07:16:44Z</time></trkpt><trkpt lat="40.0181604273052" lon="15.972950288707342"><ele>889.5</ele><time>2026-04-19T07:16:45Z</time></trkpt><trkpt lat="40.01827560376285" lon="15.972858989173567"><ele>888.25</ele><time>2026-04-19T07:16:46Z</time></trkpt><trkpt lat="40.01840082129275" lon="15.972764583410106"><ele>887.0</ele><time>2026-04-19T07:16:47Z</time></trkpt><trkpt lat="40.018536448877455" lon="15.972653693966345"><ele>892.25</ele><time>2026-04-19T07:16:48Z</time></trkpt><trkpt lat="40.018669335562564" lon="15.972536927967496"><ele>897.5</ele><time>2026-04-19T07:16:49Z</time></trkpt><trkpt lat="40.018774603832554" lon="15.972432315395043"><ele>902.75</ele><time>2026-04-19T07:16:50Z</time></trkpt><trkpt lat="40.01885439475275" lon="15.972350817433497"><ele>908.0</ele><time>2026-04-19T07:16:51Z</time></trkpt><trkpt lat="40.018926780164094" lon="15.972295381584443"><ele>908.0</ele><time>2026-04-19T07:16:52Z</time></trkpt><trkpt lat="40.01901728205064" lon="15.97224467957992"><ele>908.0</ele><time>2026-04-19T07:16:54Z</time></trkpt><trkpt lat="40.01898962685561" lon="15.972018405249454"><ele>908.0</ele><time>2026-04-19T07:16:58Z</time></trkpt><trkpt lat="40.01894246444009" lon="15.971922919694865"><ele>908.0</ele><time>2026-04-19T07:16:59Z</time></trkpt><trkpt lat="40.01888892870494" lon="15.97184806576079"><ele>908.0</ele><time>2026-04-19T07:17:00Z</time></trkpt><trkpt lat="40.018852103125354" lon="15.9717403490009"><ele>907.8</ele><time>2026-04-19T07:17:02Z</time></trkpt><trkpt lat="40.01885435103306" lon="15.971584421249503"><ele>907.5999999999999</ele><time>2026-04-19T07:17:04Z</time></trkpt><trkpt lat="40.0188461602929" lon="15.971464890601489"><ele>907.4000000000001</ele><time>2026-04-19T07:17:06Z</time></trkpt><trkpt lat="40.018880902309725" lon="15.97138362945364"><ele>907.2</ele><time>2026-04-19T07:17:42.999Z</time></trkpt><trkpt lat="40.018964271038" lon="15.971447488923378"><ele>907.0</ele><time>2026-04-19T07:17:44.999Z</time></trkpt><trkpt lat="40.019030738901066" lon="15.97156440542784"><ele>906.9999999999999</ele><time>2026-04-19T07:17:46.999Z</time></trkpt><trkpt lat="40.01909204622364" lon="15.971593112717647"><ele>907.0</ele><time>2026-04-19T07:17:48.999Z</time></trkpt><trkpt lat="40.01914303282228" lon="15.971503494902525"><ele>907.0</ele><time>2026-04-19T07:17:50.999Z</time></trkpt><trkpt lat="40.01910767244979" lon="15.971380880718037"><ele>907.0</ele><time>2026-04-19T07:17:52.999Z</time></trkpt><trkpt lat="40.019074953306806" lon="15.97130829174626"><ele>906.9999999999999</ele><time>2026-04-19T07:17:53.999Z</time></trkpt><trkpt lat="40.019021114628075" lon="15.971156193747547"><ele>907.0</ele><time>2026-04-19T07:17:55.999Z</time></trkpt><trkpt lat="40.019019102633656" lon="15.97105171316947"><ele>906.9999999999999</ele><time>2026-04-19T07:17:56.999Z</time></trkpt><trkpt lat="40.019034477220906" lon="15.97094678735499"><ele>907.0</ele><time>2026-04-19T07:17:57.999Z</time></trkpt><trkpt lat="40.01903858698249" lon="15.970838258142006"><ele>907.0</ele><time>2026-04-19T07:17:58.999Z</time></trkpt><trkpt lat="40.019024252451246" lon="15.97073636025831"><ele>907.0</ele><time>2026-04-19T07:17:59.999Z</time></trkpt><trkpt lat="40.01900336366062" lon="15.970637842926239"><ele>906.9999999999999</ele><time>2026-04-19T07:18:00.999Z</time></trkpt><trkpt lat="40.01898402377734" lon="15.97052896705857"><ele>907.0</ele><time>2026-04-19T07:18:01.999Z</time></trkpt><trkpt lat="40.018994837695516" lon="15.970416915639586"><ele>911.6666666666666</ele><time>2026-04-19T07:18:02.999Z</time></trkpt><trkpt lat="40.019010458738045" lon="15.97033447935811"><ele>916.3333333333333</ele><time>2026-04-19T07:18:03.999Z</time></trkpt><trkpt lat="40.01904539491513" lon="15.970242355631074"><ele>921.0</ele><time>2026-04-19T07:18:04.999Z</time></trkpt><trkpt lat="40.01906273403005" lon="15.970140859269927"><ele>925.6666666666667</ele><time>2026-04-19T07:18:05.999Z</time></trkpt><trkpt lat="40.019046036233384" lon="15.970023427078782"><ele>930.3333333333334</ele><time>2026-04-19T07:18:06.999Z</time></trkpt><trkpt lat="40.019027464241496" lon="15.969895453412116"><ele>935.0</ele><time>2026-04-19T07:18:07.999Z</time></trkpt><trkpt lat="40.019077150212745" lon="15.969740088980558"><ele>940.5</ele><time>2026-04-19T07:18:09.999Z</time></trkpt><trkpt lat="40.019120615097485" lon="15.969630709093158"><ele>946.0</ele><time>2026-04-19T07:18:10.999Z</time></trkpt><trkpt lat="40.019150536930816" lon="15.969479243455387"><ele>951.5</ele><time>2026-04-19T07:18:11.999Z</time></trkpt><trkpt lat="40.01916286477209" lon="15.969314372182062"><ele>957.0</ele><time>2026-04-19T07:18:12.999Z</time></trkpt><trkpt lat="40.01915586520633" lon="15.969170309004697"><ele>957.6</ele><time>2026-04-19T07:18:13.999Z</time></trkpt><trkpt lat="40.019143336073256" lon="15.969023601234396"><ele>958.2</ele><time>2026-04-19T07:18:15Z</time></trkpt><trkpt lat="40.019133714536295" lon="15.968903390567817"><ele>958.8</ele><time>2026-04-19T07:18:16Z</time></trkpt><trkpt lat="40.01909664556775" lon="15.968805135748577"><ele>959.4</ele><time>2026-04-19T07:18:17Z</time></trkpt><trkpt lat="40.01914587903082" lon="15.96869735159184"><ele>960.0</ele><time>2026-04-19T07:18:20Z</time></trkpt><trkpt lat="40.019202427051404" lon="15.968655947851332"><ele>960.0</ele><time>2026-04-19T07:18:21Z</time></trkpt><trkpt lat="40.01925463640737" lon="15.968595007474933"><ele>960.0</ele><time>2026-04-19T07:18:22Z</time></trkpt><trkpt lat="40.019349810346306" lon="15.968534612123229"><ele>960.0</ele><time>2026-04-19T07:18:24Z</time></trkpt><trkpt lat="40.019392831775484" lon="15.968469499267659"><ele>960.0</ele><time>2026-04-19T07:18:25Z</time></trkpt><trkpt lat="40.01941344494882" lon="15.968385525236224"><ele>960.0</ele><time>2026-04-19T07:18:26Z</time></trkpt><trkpt lat="40.019441420166004" lon="15.968302677829636"><ele>960.0</ele><time>2026-04-19T07:18:27Z</time></trkpt><trkpt lat="40.01949577855987" lon="15.968228831806766"><ele>962.5</ele><time>2026-04-19T07:18:28Z</time></trkpt><trkpt lat="40.01955049452136" lon="15.968148285534422"><ele>965.0</ele><time>2026-04-19T07:18:29Z</time></trkpt><trkpt lat="40.019595234812485" lon="15.968052533565077"><ele>967.5</ele><time>2026-04-19T07:18:30Z</time></trkpt><trkpt lat="40.01962906144754" lon="15.96794105288027"><ele>970.0</ele><time>2026-04-19T07:18:31Z</time></trkpt><trkpt lat="40.01967865763812" lon="15.967838511728093"><ele>972.5</ele><time>2026-04-19T07:18:32Z</time></trkpt><trkpt lat="40.01973352667469" lon="15.967746687626773"><ele>975.0</ele><time>2026-04-19T07:18:33Z</time></trkpt><trkpt lat="40.01978185292943" lon="15.967650995401304"><ele>975.0</ele><time>2026-04-19T07:18:34Z</time></trkpt><trkpt lat="40.01980814636754" lon="15.967553353115894"><ele>975.0</ele><time>2026-04-19T07:18:35Z</time></trkpt><trkpt lat="40.01983931229749" lon="15.967437058804615"><ele>975.0</ele><time>2026-04-19T07:18:36Z</time></trkpt><trkpt lat="40.0198796680612" lon="15.967318019187324"><ele>975.0</ele><time>2026-04-19T07:18:37Z</time></trkpt><trkpt lat="40.01991416442734" lon="15.967192280798313"><ele>975.0</ele><time>2026-04-19T07:18:38Z</time></trkpt><trkpt lat="40.01993530851276" lon="15.967070715784798"><ele>980.8</ele><time>2026-04-19T07:18:39Z</time></trkpt><trkpt lat="40.01994419384352" lon="15.966937767720333"><ele>986.6</ele><time>2026-04-19T07:18:40Z</time></trkpt><trkpt lat="40.019977896573316" lon="15.966799919237038"><ele>992.4000000000001</ele><time>2026-04-19T07:18:41Z</time></trkpt><trkpt lat="40.02000654642942" lon="15.966676115783377"><ele>998.2</ele><time>2026-04-19T07:18:42Z</time></trkpt><trkpt lat="40.02004429931713" lon="15.966552254215264"><ele>1004.0</ele><time>2026-04-19T07:18:43Z</time></trkpt><trkpt lat="40.020085246263136" lon="15.966434563046253"><ele>1004.0</ele><time>2026-04-19T07:18:44Z</time></trkpt><trkpt lat="40.02009919840764" lon="15.966326106384214"><ele>1004.0000000000001</ele><time>2026-04-19T07:18:45Z</time></trkpt><trkpt lat="40.0200975544756" lon="15.96623617875584"><ele>1004.0000000000001</ele><time>2026-04-19T07:18:46Z</time></trkpt><trkpt lat="40.02009257173463" lon="15.966121266312673"><ele>1004.0</ele><time>2026-04-19T07:18:47Z</time></trkpt><trkpt lat="40.020090152067034" lon="15.96598547506844"><ele>1004.0</ele><time>2026-04-19T07:18:48Z</time></trkpt><trkpt lat="40.02005894350078" lon="15.96583755086745"><ele>1006.8000000000001</ele><time>2026-04-19T07:18:49Z</time></trkpt><trkpt lat="40.020065854102754" lon="15.965699071945082"><ele>1009.6000000000001</ele><time>2026-04-19T07:18:50Z</time></trkpt><trkpt lat="40.02006130745121" lon="15.965562810408999"><ele>1012.4</ele><time>2026-04-19T07:18:51Z</time></trkpt><trkpt lat="40.02005841948412" lon="15.965428921327685"><ele>1015.2</ele><time>2026-04-19T07:18:52Z</time></trkpt><trkpt lat="40.02005666951384" lon="15.965311091832856"><ele>1018.0</ele><time>2026-04-19T07:18:53Z</time></trkpt><trkpt lat="40.02008200092496" lon="15.965217499824043"><ele>1018.0</ele><time>2026-04-19T07:18:54Z</time></trkpt><trkpt lat="40.020135071589166" lon="15.965139836236219"><ele>1018.0</ele><time>2026-04-19T07:18:55Z</time></trkpt><trkpt lat="40.020189816900874" lon="15.965067509498564"><ele>1018.0</ele><time>2026-04-19T07:18:56Z</time></trkpt><trkpt lat="40.020261159619324" lon="15.964999441221693"><ele>1018.0</ele><time>2026-04-19T07:18:57Z</time></trkpt><trkpt lat="40.020331498406556" lon="15.964901681704337"><ele>1018.0</ele><time>2026-04-19T07:18:58Z</time></trkpt><trkpt lat="40.020381710922194" lon="15.964763998051508"><ele>1020.6666666666666</ele><time>2026-04-19T07:18:59Z</time></trkpt><trkpt lat="40.020399242649674" lon="15.9646435804073"><ele>1023.3333333333333</ele><time>2026-04-19T07:19:00Z</time></trkpt><trkpt lat="40.02040396605722" lon="15.964561596614754"><ele>1026.0</ele><time>2026-04-19T07:19:01Z</time></trkpt><trkpt lat="40.020473558250984" lon="15.964456770053113"><ele>1028.6666666666667</ele><time>2026-04-19T07:19:03Z</time></trkpt><trkpt lat="40.02054146132542" lon="15.964447646833843"><ele>1031.3333333333335</ele><time>2026-04-19T07:19:04Z</time></trkpt><trkpt lat="40.0206447919668" lon="15.96441596851324"><ele>1034.0</ele><time>2026-04-19T07:19:05Z</time></trkpt><trkpt lat="40.02075012064785" lon="15.964320837580397"><ele>1032.8</ele><time>2026-04-19T07:19:06Z</time></trkpt><trkpt lat="40.020845205669154" lon="15.964210719940423"><ele>1031.6000000000001</ele><time>2026-04-19T07:19:07Z</time></trkpt><trkpt lat="40.02090625465141" lon="15.964098905186118"><ele>1030.4</ele><time>2026-04-19T07:19:08Z</time></trkpt><trkpt lat="40.02094220463392" lon="15.96398852722054"><ele>1029.2</ele><time>2026-04-19T07:19:09Z</time></trkpt><trkpt lat="40.02098276176881" lon="15.963873244717954"><ele>1028.0</ele><time>2026-04-19T07:19:10Z</time></trkpt><trkpt lat="40.02103477284761" lon="15.963760607502156"><ele>1028.0</ele><time>2026-04-19T07:19:11Z</time></trkpt><trkpt lat="40.02107766991884" lon="15.963690046648745"><ele>1028.0</ele><time>2026-04-19T07:19:12Z</time></trkpt><trkpt lat="40.02112682103492" lon="15.96361987178508"><ele>1028.0</ele><time>2026-04-19T07:19:13Z</time></trkpt><trkpt lat="40.02118501129215" lon="15.963546556285497"><ele>1028.0</ele><time>2026-04-19T07:19:14Z</time></trkpt><trkpt lat="40.021238118496385" lon="15.96346576149638"><ele>1028.0</ele><time>2026-04-19T07:19:15Z</time></trkpt><trkpt lat="40.02128275708226" lon="15.96336754387358"><ele>1028.0</ele><time>2026-04-19T07:19:16Z</time></trkpt><trkpt lat="40.02131154891811" lon="15.963250041354893"><ele>1028.0</ele><time>2026-04-19T07:19:16.999Z</time></trkpt><trkpt lat="40.02137897045339" lon="15.963127627841537"><ele>1028.0</ele><time>2026-04-19T07:19:18.999Z</time></trkpt><trkpt lat="40.021497274571125" lon="15.963118539518627"><ele>1028.0</ele><time>2026-04-19T07:19:20.999Z</time></trkpt><trkpt lat="40.02158358895409" lon="15.96308716080651"><ele>1028.0</ele><time>2026-04-19T07:19:22.999Z</time></trkpt><trkpt lat="40.021647895963056" lon="15.962986073798696"><ele>1028.0</ele><time>2026-04-19T07:19:24.999Z</time></trkpt><trkpt lat="40.021680303306056" lon="15.962914684367703"><ele>1028.0</ele><time>2026-04-19T07:19:25.999Z</time></trkpt><trkpt lat="40.021714407733505" lon="15.962834784941514"><ele>1028.0</ele><time>2026-04-19T07:19:26.999Z</time></trkpt><trkpt lat="40.02174909007558" lon="15.962754869521936"><ele>1028.0</ele><time>2026-04-19T07:19:27.999Z</time></trkpt><trkpt lat="40.02178481209141" lon="15.96267730537013"><ele>1028.0</ele><time>2026-04-19T07:19:28.999Z</time></trkpt><trkpt lat="40.02183091582227" lon="15.962582460641677"><ele>1028.0</ele><time>2026-04-19T07:19:29.999Z</time></trkpt><trkpt lat="40.02187569266817" lon="15.962475418305969"><ele>1028.0</ele><time>2026-04-19T07:19:30.999Z</time></trkpt><trkpt lat="40.02190944584358" lon="15.962373928364155"><ele>1031.4</ele><time>2026-04-19T07:19:31.999Z</time></trkpt><trkpt lat="40.02198679267522" lon="15.962247555989101"><ele>1034.8</ele><time>2026-04-19T07:19:33.999Z</time></trkpt><trkpt lat="40.022049327579616" lon="15.962204384836365"><ele>1038.2</ele><time>2026-04-19T07:19:34.999Z</time></trkpt><trkpt lat="40.022116056980835" lon="15.962143827883406"><ele>1041.6</ele><time>2026-04-19T07:19:35.999Z</time></trkpt><trkpt lat="40.02217794085002" lon="15.962046376060472"><ele>1045.0</ele><time>2026-04-19T07:19:36.999Z</time></trkpt><trkpt lat="40.022216711094245" lon="15.96194832839392"><ele>1045.0</ele><time>2026-04-19T07:19:37.999Z</time></trkpt><trkpt lat="40.02224537702122" lon="15.961866757787766"><ele>1045.0</ele><time>2026-04-19T07:19:38.999Z</time></trkpt><trkpt lat="40.02226854041086" lon="15.961758875193386"><ele>1045.0</ele><time>2026-04-19T07:19:40.999Z</time></trkpt><trkpt lat="40.02227847927048" lon="15.961666447710634"><ele>1045.0</ele><time>2026-04-19T07:19:42.999Z</time></trkpt><trkpt lat="40.022325832826525" lon="15.961586509918739"><ele>1045.0</ele><time>2026-04-19T07:19:44.999Z</time></trkpt><trkpt lat="40.022388321662646" lon="15.96147976687619"><ele>1045.0</ele><time>2026-04-19T07:19:46.999Z</time></trkpt><trkpt lat="40.02247831287253" lon="15.961282419560424"><ele>1046.6</ele><time>2026-04-19T07:19:49.999Z</time></trkpt><trkpt lat="40.022498322115666" lon="15.961151233057201"><ele>1048.2</ele><time>2026-04-19T07:19:51.999Z</time></trkpt><trkpt lat="40.022547835788956" lon="15.961029971601246"><ele>1049.8</ele><time>2026-04-19T07:19:53.999Z</time></trkpt><trkpt lat="40.02260665947839" lon="15.960939751357655"><ele>1051.4</ele><time>2026-04-19T07:19:55.999Z</time></trkpt><trkpt lat="40.022665519975746" lon="15.960908105281511"><ele>1053.0</ele><time>2026-04-19T07:19:56.999Z</time></trkpt><trkpt lat="40.02278039497252" lon="15.960918748286412"><ele>1053.0</ele><time>2026-04-19T07:19:58.999Z</time></trkpt><trkpt lat="40.02289058933915" lon="15.960910066537904"><ele>1053.0</ele><time>2026-04-19T07:20:00.999Z</time></trkpt><trkpt lat="40.022948367226014" lon="15.960854692214857"><ele>1053.0</ele><time>2026-04-19T07:20:01.999Z</time></trkpt><trkpt lat="40.02299670677715" lon="15.960788184628255"><ele>1053.0</ele><time>2026-04-19T07:20:02.999Z</time></trkpt><trkpt lat="40.023054835677705" lon="15.960716696677975"><ele>1053.0</ele><time>2026-04-19T07:20:03.999Z</time></trkpt><trkpt lat="40.02310643649287" lon="15.96066656182673"><ele>1053.0</ele><time>2026-04-19T07:20:04.999Z</time></trkpt><trkpt lat="40.023173532714736" lon="15.960670418274743"><ele>1053.0</ele><time>2026-04-19T07:20:06.999Z</time></trkpt><trkpt lat="40.02316340108442" lon="15.960793070653025"><ele>1053.0</ele><time>2026-04-19T07:20:07.999Z</time></trkpt><trkpt lat="40.023150978284725" lon="15.960897729226007"><ele>1053.0</ele><time>2026-04-19T07:20:08.999Z</time></trkpt><trkpt lat="40.02312783237443" lon="15.961043022655272"><ele>1053.0</ele><time>2026-04-19T07:20:09.999Z</time></trkpt><trkpt lat="40.02310680273276" lon="15.961199852074634"><ele>1053.0</ele><time>2026-04-19T07:20:10.999Z</time></trkpt><trkpt lat="40.023096833239805" lon="15.961362358197876"><ele>1053.0</ele><time>2026-04-19T07:20:11.999Z</time></trkpt><trkpt lat="40.02309767980636" lon="15.961482031613086"><ele>1053.0</ele><time>2026-04-19T07:20:12.999Z</time></trkpt><trkpt lat="40.023088066905515" lon="15.961602304173143"><ele>1053.0</ele><time>2026-04-19T07:20:13.999Z</time></trkpt><trkpt lat="40.023090081042895" lon="15.961702809562441"><ele>1053.0</ele><time>2026-04-19T07:20:14.999Z</time></trkpt><trkpt lat="40.02310049334429" lon="15.961836786773423"><ele>1053.0</ele><time>2026-04-19T07:20:16.999Z</time></trkpt><trkpt lat="40.02311212055495" lon="15.961921982143398"><ele>1053.0</ele><time>2026-04-19T07:20:21Z</time></trkpt><trkpt lat="40.023131634923466" lon="15.962014504904024"><ele>1053.2</ele><time>2026-04-19T07:20:24Z</time></trkpt><trkpt lat="40.02320633970272" lon="15.962184030368276"><ele>1053.4</ele><time>2026-04-19T07:20:27Z</time></trkpt><trkpt lat="40.02324300140977" lon="15.96226179579761"><ele>1053.6000000000001</ele><time>2026-04-19T07:20:29Z</time></trkpt><trkpt lat="40.02328012968761" lon="15.962329828623671"><ele>1053.8</ele><time>2026-04-19T07:20:31Z</time></trkpt><trkpt lat="40.02334625620522" lon="15.96242903441357"><ele>1054.0</ele><time>2026-04-19T07:20:34Z</time></trkpt><trkpt lat="40.023435257934636" lon="15.962460097860957"><ele>1054.0</ele><time>2026-04-19T07:20:36Z</time></trkpt><trkpt lat="40.023645999572196" lon="15.96226279370859"><ele>1054.0</ele><time>2026-04-19T07:20:40Z</time></trkpt><trkpt lat="40.02368274233754" lon="15.962190460450561"><ele>1054.0</ele><time>2026-04-19T07:20:41Z</time></trkpt><trkpt lat="40.02372377660442" lon="15.962117692740625"><ele>1054.0</ele><time>2026-04-19T07:20:42Z</time></trkpt><trkpt lat="40.0237705543267" lon="15.962047368549822"><ele>1054.0</ele><time>2026-04-19T07:20:43Z</time></trkpt><trkpt lat="40.0238347873711" lon="15.961968752861994"><ele>1054.0</ele><time>2026-04-19T07:20:44Z</time></trkpt><trkpt lat="40.02392446748542" lon="15.961891762990064"><ele>1054.0</ele><time>2026-04-19T07:20:45Z</time></trkpt><trkpt lat="40.02403018981648" lon="15.961844675292497"><ele>1054.0</ele><time>2026-04-19T07:20:47Z</time></trkpt><trkpt lat="40.02410125201827" lon="15.961804968564763"><ele>1054.0</ele><time>2026-04-19T07:20:48Z</time></trkpt><trkpt lat="40.024155380294424" lon="15.961751916219262"><ele>1056.8333333333333</ele><time>2026-04-19T07:20:49Z</time></trkpt><trkpt lat="40.02424080881477" lon="15.961621219679385"><ele>1059.6666666666665</ele><time>2026-04-19T07:20:51Z</time></trkpt><trkpt lat="40.02427562989874" lon="15.961540285416618"><ele>1062.5</ele><time>2026-04-19T07:20:52Z</time></trkpt><trkpt lat="40.02429507764029" lon="15.961457096843144"><ele>1065.3333333333333</ele><time>2026-04-19T07:20:53Z</time></trkpt><trkpt lat="40.024312544935206" lon="15.961370311773498"><ele>1068.1666666666667</ele><time>2026-04-19T07:20:54Z</time></trkpt><trkpt lat="40.02433698165708" lon="15.96125134779869"><ele>1071.0</ele><time>2026-04-19T07:20:56Z</time></trkpt><trkpt lat="40.02437769393928" lon="15.961128207678405"><ele>1071.0</ele><time>2026-04-19T07:20:58Z</time></trkpt><trkpt lat="40.02444840757806" lon="15.960997639166942"><ele>1071.0</ele><time>2026-04-19T07:21:00Z</time></trkpt><trkpt lat="40.024490460982655" lon="15.960930532724182"><ele>1071.0</ele><time>2026-04-19T07:21:01Z</time></trkpt><trkpt lat="40.02452422601043" lon="15.960852238859438"><ele>1071.0</ele><time>2026-04-19T07:21:02Z</time></trkpt><trkpt lat="40.02455101196839" lon="15.960675845968122"><ele>1071.0</ele><time>2026-04-19T07:21:04Z</time></trkpt><trkpt lat="40.024572542006275" lon="15.960583287785703"><ele>1073.6</ele><time>2026-04-19T07:21:05Z</time></trkpt><trkpt lat="40.02455270445009" lon="15.960440770009422"><ele>1076.1999999999998</ele><time>2026-04-19T07:21:07Z</time></trkpt><trkpt lat="40.02457622144753" lon="15.960310216931457"><ele>1078.8000000000002</ele><time>2026-04-19T07:21:09Z</time></trkpt><trkpt lat="40.024614434899235" lon="15.960230495469528"><ele>1081.4</ele><time>2026-04-19T07:21:10Z</time></trkpt><trkpt lat="40.024652176731195" lon="15.960162598120998"><ele>1084.0</ele><time>2026-04-19T07:21:11Z</time></trkpt><trkpt lat="40.02471241787906" lon="15.960057209031243"><ele>1086.25</ele><time>2026-04-19T07:21:13Z</time></trkpt><trkpt lat="40.024819538091435" lon="15.959957266607427"><ele>1088.5</ele><time>2026-04-19T07:21:16Z</time></trkpt><trkpt lat="40.024904895190645" lon="15.95978186304638"><ele>1090.75</ele><time>2026-04-19T07:21:18Z</time></trkpt><trkpt lat="40.02495152641935" lon="15.959669895019742"><ele>1093.0</ele><time>2026-04-19T07:21:19Z</time></trkpt><trkpt lat="40.02499035941362" lon="15.959601640220875"><ele>1093.6</ele><time>2026-04-19T07:21:20Z</time></trkpt><trkpt lat="40.02504199754116" lon="15.959532233881045"><ele>1094.1999999999998</ele><time>2026-04-19T07:21:21Z</time></trkpt><trkpt lat="40.0250890373244" lon="15.959440411106952"><ele>1094.8</ele><time>2026-04-19T07:21:21.999Z</time></trkpt><trkpt lat="40.025116567093015" lon="15.959362660100854"><ele>1095.3999999999999</ele><time>2026-04-19T07:21:22.999Z</time></trkpt><trkpt lat="40.02514999551828" lon="15.959224587512857"><ele>1096.0</ele><time>2026-04-19T07:21:24.999Z</time></trkpt><trkpt lat="40.025264569782365" lon="15.959217137719897"><ele>1098.3333333333333</ele><time>2026-04-19T07:21:26.999Z</time></trkpt><trkpt lat="40.02533186157836" lon="15.9591957247525"><ele>1100.6666666666665</ele><time>2026-04-19T07:21:27.999Z</time></trkpt><trkpt lat="40.02539499406078" lon="15.959168405766988"><ele>1103.0</ele><time>2026-04-19T07:21:28.999Z</time></trkpt><trkpt lat="40.02543721285445" lon="15.959089439029297"><ele>1105.3333333333333</ele><time>2026-04-19T07:21:31.999Z</time></trkpt><trkpt lat="40.02539666911807" lon="15.958982636018211"><ele>1107.6666666666667</ele><time>2026-04-19T07:21:33.999Z</time></trkpt><trkpt lat="40.02539245333079" lon="15.95889886190316"><ele>1110.0</ele><time>2026-04-19T07:21:36.999Z</time></trkpt><trkpt lat="40.02545332588602" lon="15.958815996941452"><ele>1110.0</ele><time>2026-04-19T07:21:38.999Z</time></trkpt><trkpt lat="40.02549074824693" lon="15.958739874449508"><ele>1110.0</ele><time>2026-04-19T07:21:41.999Z</time></trkpt><trkpt lat="40.025540532449874" lon="15.958681382612568"><ele>1110.0</ele><time>2026-04-19T07:21:43.999Z</time></trkpt><trkpt lat="40.02564953568001" lon="15.958559105528684"><ele>1110.0</ele><time>2026-04-19T07:21:45.999Z</time></trkpt><trkpt lat="40.025733543623716" lon="15.958518840337891"><ele>1110.0</ele><time>2026-04-19T07:21:47.999Z</time></trkpt><trkpt lat="40.0258216230842" lon="15.958513845476713"><ele>1110.8</ele><time>2026-04-19T07:21:49.999Z</time></trkpt><trkpt lat="40.02591385339243" lon="15.958510389119528"><ele>1111.6</ele><time>2026-04-19T07:21:51.999Z</time></trkpt><trkpt lat="40.02597974069635" lon="15.958425666609315"><ele>1112.4</ele><time>2026-04-19T07:21:53.999Z</time></trkpt><trkpt lat="40.02600103068958" lon="15.958263932508142"><ele>1113.2</ele><time>2026-04-19T07:21:55.999Z</time></trkpt><trkpt lat="40.026006811023706" lon="15.958149531646278"><ele>1114.0</ele><time>2026-04-19T07:21:56.999Z</time></trkpt><trkpt lat="40.02602393943554" lon="15.958019916432406"><ele>1116.4</ele><time>2026-04-19T07:21:57.999Z</time></trkpt><trkpt lat="40.026028351018276" lon="15.957850009435145"><ele>1118.8000000000002</ele><time>2026-04-19T07:21:59.999Z</time></trkpt><trkpt lat="40.02600332807621" lon="15.957757389485153"><ele>1121.1999999999998</ele><time>2026-04-19T07:22:00.999Z</time></trkpt><trkpt lat="40.02588680166341" lon="15.957670864762719"><ele>1123.6</ele><time>2026-04-19T07:22:01.999Z</time></trkpt><trkpt lat="40.025861118076186" lon="15.957582642789967"><ele>1126.0</ele><time>2026-04-19T07:22:02.999Z</time></trkpt><trkpt lat="40.02582388784341" lon="15.957496455654825"><ele>1126.6</ele><time>2026-04-19T07:22:04.999Z</time></trkpt><trkpt lat="40.02588761138591" lon="15.957372780696849"><ele>1127.1999999999998</ele><time>2026-04-19T07:22:06.999Z</time></trkpt><trkpt lat="40.025985222687176" lon="15.95724752528987"><ele>1127.8000000000002</ele><time>2026-04-19T07:22:08.999Z</time></trkpt><trkpt lat="40.026061531249084" lon="15.957203197240043"><ele>1128.4</ele><time>2026-04-19T07:22:09.999Z</time></trkpt><trkpt lat="40.026136276018974" lon="15.957173915821935"><ele>1129.0</ele><time>2026-04-19T07:22:10.999Z</time></trkpt><trkpt lat="40.02621105823153" lon="15.957150104116517"><ele>1129.0</ele><time>2026-04-19T07:22:11.999Z</time></trkpt><trkpt lat="40.0262813401079" lon="15.957112546288327"><ele>1129.0</ele><time>2026-04-19T07:22:12.999Z</time></trkpt><trkpt lat="40.02634081686291" lon="15.957060849335766"><ele>1129.0</ele><time>2026-04-19T07:22:13.999Z</time></trkpt><trkpt lat="40.02641892491662" lon="15.957046428671424"><ele>1129.0</ele><time>2026-04-19T07:22:14.999Z</time></trkpt><trkpt lat="40.02649143747172" lon="15.957031316737277"><ele>1129.0</ele><time>2026-04-19T07:22:15.999Z</time></trkpt><trkpt lat="40.02656697267536" lon="15.957022774683526"><ele>1129.0</ele><time>2026-04-19T07:22:16.999Z</time></trkpt><trkpt lat="40.02664151139463" lon="15.956986623460137"><ele>1131.0</ele><time>2026-04-19T07:22:17.999Z</time></trkpt><trkpt lat="40.02673251930919" lon="15.95693364214651"><ele>1133.0</ele><time>2026-04-19T07:22:18.999Z</time></trkpt><trkpt lat="40.02681702419311" lon="15.95688338895106"><ele>1135.0</ele><time>2026-04-19T07:22:19.999Z</time></trkpt><trkpt lat="40.02689541607114" lon="15.95686339305612"><ele>1137.0</ele><time>2026-04-19T07:22:20.999Z</time></trkpt><trkpt lat="40.026994613614505" lon="15.956863172178517"><ele>1139.0</ele><time>2026-04-19T07:22:21.999Z</time></trkpt><trkpt lat="40.02708775584806" lon="15.956850220532887"><ele>1139.0</ele><time>2026-04-19T07:22:22.999Z</time></trkpt><trkpt lat="40.02716437256942" lon="15.956872875503606"><ele>1139.0</ele><time>2026-04-19T07:22:23.999Z</time></trkpt><trkpt lat="40.02725677804435" lon="15.95688418496666"><ele>1139.0</ele><time>2026-04-19T07:22:24.999Z</time></trkpt><trkpt lat="40.02733103586304" lon="15.95689197913078"><ele>1139.0</ele><time>2026-04-19T07:22:25.999Z</time></trkpt><trkpt lat="40.02743838578379" lon="15.956923113853328"><ele>1139.0</ele><time>2026-04-19T07:22:28Z</time></trkpt><trkpt lat="40.02756874677638" lon="15.956989879397783"><ele>1140.8333333333335</ele><time>2026-04-19T07:22:30Z</time></trkpt><trkpt lat="40.0276433259153" lon="15.957015952333613"><ele>1142.6666666666667</ele><time>2026-04-19T07:22:31Z</time></trkpt><trkpt lat="40.027721374926905" lon="15.957022324781132"><ele>1144.5</ele><time>2026-04-19T07:22:32Z</time></trkpt><trkpt lat="40.02780424690697" lon="15.957027400824385"><ele>1146.3333333333333</ele><time>2026-04-19T07:22:33Z</time></trkpt><trkpt lat="40.02787672586403" lon="15.95701366706589"><ele>1148.1666666666665</ele><time>2026-04-19T07:22:34Z</time></trkpt><trkpt lat="40.027954960316" lon="15.956984010099601"><ele>1150.0</ele><time>2026-04-19T07:22:35Z</time></trkpt><trkpt lat="40.02803008977351" lon="15.956965345570127"><ele>1150.0</ele><time>2026-04-19T07:22:36Z</time></trkpt><trkpt lat="40.028096440819304" lon="15.956947919367568"><ele>1150.0</ele><time>2026-04-19T07:22:37Z</time></trkpt><trkpt lat="40.02818247312369" lon="15.956926086637806"><ele>1150.0</ele><time>2026-04-19T07:22:38Z</time></trkpt><trkpt lat="40.02824714498849" lon="15.956888736283533"><ele>1150.0</ele><time>2026-04-19T07:22:39Z</time></trkpt><trkpt lat="40.02831089389867" lon="15.956820548934148"><ele>1150.0</ele><time>2026-04-19T07:22:40Z</time></trkpt><trkpt lat="40.02835130288158" lon="15.956731366783506"><ele>1150.0</ele><time>2026-04-19T07:22:41Z</time></trkpt><trkpt lat="40.028387381713166" lon="15.956618864966558"><ele>1152.5</ele><time>2026-04-19T07:22:42Z</time></trkpt><trkpt lat="40.028425744875356" lon="15.956531030066321"><ele>1155.0</ele><time>2026-04-19T07:22:43Z</time></trkpt><trkpt lat="40.02848094737091" lon="15.956456763026356"><ele>1157.5</ele><time>2026-04-19T07:22:44Z</time></trkpt><trkpt lat="40.02854979983879" lon="15.956383785955067"><ele>1160.0</ele><time>2026-04-19T07:22:45Z</time></trkpt><trkpt lat="40.02862673059613" lon="15.956301876155612"><ele>1162.5</ele><time>2026-04-19T07:22:46Z</time></trkpt><trkpt lat="40.02870233039554" lon="15.956218806107403"><ele>1165.0</ele><time>2026-04-19T07:22:47Z</time></trkpt><trkpt lat="40.02877118018366" lon="15.956139194440048"><ele>1165.0</ele><time>2026-04-19T07:22:48Z</time></trkpt><trkpt lat="40.02883801884953" lon="15.956071833963986"><ele>1165.0</ele><time>2026-04-19T07:22:49Z</time></trkpt><trkpt lat="40.028912850567814" lon="15.95599083893306"><ele>1165.0</ele><time>2026-04-19T07:22:50Z</time></trkpt><trkpt lat="40.02898600164572" lon="15.955929106037946"><ele>1165.0</ele><time>2026-04-19T07:22:51Z</time></trkpt><trkpt lat="40.029053209029286" lon="15.955880808963167"><ele>1165.0</ele><time>2026-04-19T07:22:52Z</time></trkpt><trkpt lat="40.029126398675054" lon="15.955836193037896"><ele>1165.0</ele><time>2026-04-19T07:22:53Z</time></trkpt><trkpt lat="40.02921282635273" lon="15.955776790103267"><ele>1169.0</ele><time>2026-04-19T07:22:54Z</time></trkpt><trkpt lat="40.029272675535836" lon="15.955736031808806"><ele>1173.0</ele><time>2026-04-19T07:22:55Z</time></trkpt><trkpt lat="40.02941873739965" lon="15.955702238521058"><ele>1177.0</ele><time>2026-04-19T07:22:57Z</time></trkpt><trkpt lat="40.02949674212344" lon="15.955677254839951"><ele>1181.0</ele><time>2026-04-19T07:22:58Z</time></trkpt><trkpt lat="40.02957357869951" lon="15.955628927305664"><ele>1185.0</ele><time>2026-04-19T07:22:59Z</time></trkpt><trkpt lat="40.029651227177716" lon="15.95558026284497"><ele>1185.0</ele><time>2026-04-19T07:23:00Z</time></trkpt><trkpt lat="40.02971532156784" lon="15.95552777494568"><ele>1185.0</ele><time>2026-04-19T07:23:01Z</time></trkpt><trkpt lat="40.029783954717416" lon="15.95548661928032"><ele>1185.0</ele><time>2026-04-19T07:23:02Z</time></trkpt><trkpt lat="40.02986531008417" lon="15.955459977802965"><ele>1185.0</ele><time>2026-04-19T07:23:03Z</time></trkpt><trkpt lat="40.029947024311326" lon="15.95544351284311"><ele>1185.0</ele><time>2026-04-19T07:23:04Z</time></trkpt><trkpt lat="40.03003376273322" lon="15.955420698203376"><ele>1185.0</ele><time>2026-04-19T07:23:05Z</time></trkpt><trkpt lat="40.03011046806808" lon="15.955397601585737"><ele>1185.8333333333333</ele><time>2026-04-19T07:23:06Z</time></trkpt><trkpt lat="40.030176622993736" lon="15.955370881135837"><ele>1186.6666666666667</ele><time>2026-04-19T07:23:07Z</time></trkpt><trkpt lat="40.03024091736364" lon="15.955362348957998"><ele>1187.5</ele><time>2026-04-19T07:23:08Z</time></trkpt><trkpt lat="40.03032043627649" lon="15.955385417548122"><ele>1188.3333333333335</ele><time>2026-04-19T07:23:09Z</time></trkpt><trkpt lat="40.03040220160769" lon="15.955422625529259"><ele>1189.1666666666667</ele><time>2026-04-19T07:23:10Z</time></trkpt><trkpt lat="40.03046962901121" lon="15.955437543929031"><ele>1190.0</ele><time>2026-04-19T07:23:11Z</time></trkpt><trkpt lat="40.03056447112489" lon="15.955460990214194"><ele>1190.0</ele><time>2026-04-19T07:23:13Z</time></trkpt><trkpt lat="40.030627367916495" lon="15.955523644344217"><ele>1190.0</ele><time>2026-04-19T07:23:14Z</time></trkpt><trkpt lat="40.0306974507794" lon="15.95560590525093"><ele>1190.0</ele><time>2026-04-19T07:23:15Z</time></trkpt><trkpt lat="40.03076236586718" lon="15.955665620905302"><ele>1190.0</ele><time>2026-04-19T07:23:16Z</time></trkpt><trkpt lat="40.03082082954546" lon="15.95571233302551"><ele>1190.0</ele><time>2026-04-19T07:23:17Z</time></trkpt><trkpt lat="40.03093657852085" lon="15.955790867440776"><ele>1190.1666666666667</ele><time>2026-04-19T07:23:19Z</time></trkpt><trkpt lat="40.030999329609024" lon="15.955895229319527"><ele>1190.3333333333335</ele><time>2026-04-19T07:23:21Z</time></trkpt><trkpt lat="40.03103042724694" lon="15.955989591055664"><ele>1190.5</ele><time>2026-04-19T07:23:22Z</time></trkpt><trkpt lat="40.03106613343646" lon="15.956102117634883"><ele>1190.6666666666667</ele><time>2026-04-19T07:23:23Z</time></trkpt><trkpt lat="40.03109828383445" lon="15.956199073916865"><ele>1190.8333333333333</ele><time>2026-04-19T07:23:24Z</time></trkpt><trkpt lat="40.03113311766601" lon="15.956301294482916"><ele>1191.0</ele><time>2026-04-19T07:23:25Z</time></trkpt><trkpt lat="40.03116589327667" lon="15.9564373348025"><ele>1191.0</ele><time>2026-04-19T07:23:26Z</time></trkpt><trkpt lat="40.03121391748406" lon="15.956582874225022"><ele>1191.0</ele><time>2026-04-19T07:23:27Z</time></trkpt><trkpt lat="40.031246981804735" lon="15.956716102304709"><ele>1191.0</ele><time>2026-04-19T07:23:28Z</time></trkpt><trkpt lat="40.03126988768484" lon="15.956832192794394"><ele>1191.0</ele><time>2026-04-19T07:23:29Z</time></trkpt><trkpt lat="40.0312846251465" lon="15.956926184523466"><ele>1191.0</ele><time>2026-04-19T07:23:29.999Z</time></trkpt><trkpt lat="40.0312848199848" lon="15.957016751450713"><ele>1190.0</ele><time>2026-04-19T07:23:30.999Z</time></trkpt><trkpt lat="40.0312611745303" lon="15.957102893750118"><ele>1189.0</ele><time>2026-04-19T07:23:31.999Z</time></trkpt><trkpt lat="40.031199436557436" lon="15.957191855784002"><ele>1188.0</ele><time>2026-04-19T07:23:32.999Z</time></trkpt><trkpt lat="40.03111325054581" lon="15.957276226265618"><ele>1187.0</ele><time>2026-04-19T07:23:33.999Z</time></trkpt><trkpt lat="40.03102411795926" lon="15.95736222614945"><ele>1186.0</ele><time>2026-04-19T07:23:34.999Z</time></trkpt><trkpt lat="40.0309466964889" lon="15.957440527874164"><ele>1186.0</ele><time>2026-04-19T07:23:35.999Z</time></trkpt><trkpt lat="40.030894488657786" lon="15.957529660245637"><ele>1186.0</ele><time>2026-04-19T07:23:36.999Z</time></trkpt><trkpt lat="40.03086352829598" lon="15.957623709017845"><ele>1186.0</ele><time>2026-04-19T07:23:37.999Z</time></trkpt><trkpt lat="40.030845846931804" lon="15.957714334983303"><ele>1186.0</ele><time>2026-04-19T07:23:38.999Z</time></trkpt><trkpt lat="40.03086390044725" lon="15.957864709368106"><ele>1186.0</ele><time>2026-04-19T07:23:40.999Z</time></trkpt><trkpt lat="40.03091516975966" lon="15.957987532847318"><ele>1185.0</ele><time>2026-04-19T07:23:42.999Z</time></trkpt><trkpt lat="40.0309812473841" lon="15.958114186805364"><ele>1184.0</ele><time>2026-04-19T07:23:44.999Z</time></trkpt><trkpt lat="40.03104819841039" lon="15.958229160700993"><ele>1183.0</ele><time>2026-04-19T07:23:46.999Z</time></trkpt><trkpt lat="40.03111098565354" lon="15.958339665967191"><ele>1182.0</ele><time>2026-04-19T07:23:48.999Z</time></trkpt><trkpt lat="40.03117788749641" lon="15.958433954228552"><ele>1181.0</ele><time>2026-04-19T07:23:50.999Z</time></trkpt><trkpt lat="40.031280917975735" lon="15.958448285577996"><ele>1181.0</ele><time>2026-04-19T07:23:52.999Z</time></trkpt><trkpt lat="40.031432101162565" lon="15.95836863947049"><ele>1181.0</ele><time>2026-04-19T07:23:54.999Z</time></trkpt><trkpt lat="40.03153737464664" lon="15.958322533147676"><ele>1181.0</ele><time>2026-04-19T07:23:55.999Z</time></trkpt><trkpt lat="40.03162321567408" lon="15.958328665967196"><ele>1181.0</ele><time>2026-04-19T07:23:56.999Z</time></trkpt><trkpt lat="40.0316871304246" lon="15.958358774727532"><ele>1181.0</ele><time>2026-04-19T07:23:57.999Z</time></trkpt><trkpt lat="40.03180121503181" lon="15.958343075665173"><ele>1179.25</ele><time>2026-04-19T07:23:59.999Z</time></trkpt><trkpt lat="40.0319263643028" lon="15.958357995272728"><ele>1177.5</ele><time>2026-04-19T07:24:01.999Z</time></trkpt><trkpt lat="40.03199665716168" lon="15.95834953673222"><ele>1175.75</ele><time>2026-04-19T07:24:02.999Z</time></trkpt><trkpt lat="40.03212997073998" lon="15.958422854819645"><ele>1174.0</ele><time>2026-04-19T07:24:04.999Z</time></trkpt><trkpt lat="40.03223433279641" lon="15.958503167551248"><ele>1172.5</ele><time>2026-04-19T07:24:06.999Z</time></trkpt><trkpt lat="40.032289023652886" lon="15.958562895307923"><ele>1171.0</ele><time>2026-04-19T07:24:07.999Z</time></trkpt><trkpt lat="40.032349195167185" lon="15.958627114367737"><ele>1169.5</ele><time>2026-04-19T07:24:08.999Z</time></trkpt><trkpt lat="40.03241390089947" lon="15.958672552464677"><ele>1168.0</ele><time>2026-04-19T07:24:09.999Z</time></trkpt><trkpt lat="40.032526372471025" lon="15.958741687253625"><ele>1166.5</ele><time>2026-04-19T07:24:11.999Z</time></trkpt><trkpt lat="40.032587529221026" lon="15.958774402630516"><ele>1165.0</ele><time>2026-04-19T07:24:12.999Z</time></trkpt><trkpt lat="40.03263879738666" lon="15.958833992411474"><ele>1163.6</ele><time>2026-04-19T07:24:13.999Z</time></trkpt><trkpt lat="40.032704362340205" lon="15.958863279437239"><ele>1162.2</ele><time>2026-04-19T07:24:14.999Z</time></trkpt><trkpt lat="40.03277639143515" lon="15.958889876669303"><ele>1160.8</ele><time>2026-04-19T07:24:15.999Z</time></trkpt><trkpt lat="40.03284217547987" lon="15.958898015803534"><ele>1159.4</ele><time>2026-04-19T07:24:16.999Z</time></trkpt><trkpt lat="40.032958946719816" lon="15.958879952783024"><ele>1158.0</ele><time>2026-04-19T07:24:18.999Z</time></trkpt><trkpt lat="40.03308980232056" lon="15.958942745805425"><ele>1157.9999999999998</ele><time>2026-04-19T07:24:20.999Z</time></trkpt><trkpt lat="40.033154847447086" lon="15.958990578087654"><ele>1158.0</ele><time>2026-04-19T07:24:21.999Z</time></trkpt><trkpt lat="40.033215435418576" lon="15.959035645630578"><ele>1158.0</ele><time>2026-04-19T07:24:22.999Z</time></trkpt><trkpt lat="40.033282312878406" lon="15.959077396644062"><ele>1158.0</ele><time>2026-04-19T07:24:23.999Z</time></trkpt><trkpt lat="40.03334433010945" lon="15.959108944945658"><ele>1158.0</ele><time>2026-04-19T07:24:24.999Z</time></trkpt><trkpt lat="40.033407394015306" lon="15.959137759684623"><ele>1157.9999999999998</ele><time>2026-04-19T07:24:25.999Z</time></trkpt><trkpt lat="40.03347977115075" lon="15.959160699667445"><ele>1158.0</ele><time>2026-04-19T07:24:26.999Z</time></trkpt><trkpt lat="40.03356690995345" lon="15.959179744452474"><ele>1156.6666666666667</ele><time>2026-04-19T07:24:27.999Z</time></trkpt><trkpt lat="40.03364990216478" lon="15.959192364780748"><ele>1155.3333333333333</ele><time>2026-04-19T07:24:28.999Z</time></trkpt><trkpt lat="40.0337366390304" lon="15.95920200949851"><ele>1154.0</ele><time>2026-04-19T07:24:29.999Z</time></trkpt><trkpt lat="40.03382667233125" lon="15.959217905568199"><ele>1152.6666666666665</ele><time>2026-04-19T07:24:30.999Z</time></trkpt><trkpt lat="40.03391247167878" lon="15.95924328867184"><ele>1151.3333333333333</ele><time>2026-04-19T07:24:31.999Z</time></trkpt><trkpt lat="40.033999839956515" lon="15.959274263602236"><ele>1150.0</ele><time>2026-04-19T07:24:33Z</time></trkpt><trkpt lat="40.03407739631698" lon="15.959307053332545"><ele>1148.5714285714284</ele><time>2026-04-19T07:24:34Z</time></trkpt><trkpt lat="40.03415137965891" lon="15.959336595685716"><ele>1147.142857142857</ele><time>2026-04-19T07:24:35Z</time></trkpt><trkpt lat="40.03422430139028" lon="15.959352240777022"><ele>1145.7142857142858</ele><time>2026-04-19T07:24:36Z</time></trkpt><trkpt lat="40.03428838801102" lon="15.959359044142406"><ele>1144.2857142857142</ele><time>2026-04-19T07:24:37Z</time></trkpt><trkpt lat="40.03435221856685" lon="15.959352096669463"><ele>1142.857142857143</ele><time>2026-04-19T07:24:38Z</time></trkpt><trkpt lat="40.03441809074583" lon="15.959330015973254"><ele>1141.4285714285713</ele><time>2026-04-19T07:24:39Z</time></trkpt><trkpt lat="40.034481058851384" lon="15.959295521951928"><ele>1140.0</ele><time>2026-04-19T07:24:40Z</time></trkpt><trkpt lat="40.03454525301699" lon="15.959267493191627"><ele>1140.0</ele><time>2026-04-19T07:24:41Z</time></trkpt><trkpt lat="40.03462880736085" lon="15.959244391760096"><ele>1140.0</ele><time>2026-04-19T07:24:42Z</time></trkpt><trkpt lat="40.034710126219586" lon="15.959234650740596"><ele>1140.0</ele><time>2026-04-19T07:24:43Z</time></trkpt><trkpt lat="40.034781271859224" lon="15.959226899091501"><ele>1140.0</ele><time>2026-04-19T07:24:44Z</time></trkpt><trkpt lat="40.034852513874505" lon="15.959214952709992"><ele>1140.0</ele><time>2026-04-19T07:24:45Z</time></trkpt><trkpt lat="40.03493422547562" lon="15.959197661099068"><ele>1140.0</ele><time>2026-04-19T07:24:46Z</time></trkpt><trkpt lat="40.03500232741914" lon="15.959176484037798"><ele>1136.2</ele><time>2026-04-19T07:24:47Z</time></trkpt><trkpt lat="40.035061614330424" lon="15.9591469667057"><ele>1132.4</ele><time>2026-04-19T07:24:48Z</time></trkpt><trkpt lat="40.035122430304945" lon="15.95912096780663"><ele>1128.6</ele><time>2026-04-19T07:24:49Z</time></trkpt><trkpt lat="40.03525249959094" lon="15.95906190258564"><ele>1124.8</ele><time>2026-04-19T07:24:51Z</time></trkpt><trkpt lat="40.03532352048061" lon="15.959033748371313"><ele>1121.0</ele><time>2026-04-19T07:24:52Z</time></trkpt><trkpt lat="40.035446672561214" lon="15.958981157156646"><ele>1121.0</ele><time>2026-04-19T07:24:54Z</time></trkpt><trkpt lat="40.03556922953801" lon="15.958949167745727"><ele>1121.0</ele><time>2026-04-19T07:24:56Z</time></trkpt><trkpt lat="40.03569045968742" lon="15.958934315171314"><ele>1121.0</ele><time>2026-04-19T07:24:58Z</time></trkpt><trkpt lat="40.03578679595167" lon="15.958903061824172"><ele>1121.0</ele><time>2026-04-19T07:25:00Z</time></trkpt><trkpt lat="40.035873108391755" lon="15.958895695321784"><ele>1121.0</ele><time>2026-04-19T07:25:02Z</time></trkpt><trkpt lat="40.03594064854833" lon="15.958908423563319"><ele>1118.6666666666667</ele><time>2026-04-19T07:25:04Z</time></trkpt><trkpt lat="40.03600686031926" lon="15.958940918015244"><ele>1116.3333333333335</ele><time>2026-04-19T07:25:07Z</time></trkpt><trkpt lat="40.036098903739756" lon="15.958983419346792"><ele>1114.0</ele><time>2026-04-19T07:25:09Z</time></trkpt><trkpt lat="40.036174740796106" lon="15.95899537645316"><ele>1111.6666666666667</ele><time>2026-04-19T07:25:15Z</time></trkpt><trkpt lat="40.03626029437958" lon="15.95897993027762"><ele>1109.3333333333333</ele><time>2026-04-19T07:25:41.999Z</time></trkpt><trkpt lat="40.0363278175885" lon="15.958943470484536"><ele>1107.0</ele><time>2026-04-19T07:25:42.999Z</time></trkpt><trkpt lat="40.036391123810965" lon="15.958922191964653"><ele>1107.0</ele><time>2026-04-19T07:25:43.999Z</time></trkpt><trkpt lat="40.03650531155973" lon="15.958904262930789"><ele>1107.0</ele><time>2026-04-19T07:25:45.999Z</time></trkpt><trkpt lat="40.036639960731364" lon="15.958924635461461"><ele>1107.0</ele><time>2026-04-19T07:25:47.999Z</time></trkpt><trkpt lat="40.036727280835755" lon="15.958913108014775"><ele>1107.0</ele><time>2026-04-19T07:25:48.999Z</time></trkpt><trkpt lat="40.0368156043065" lon="15.958879723940768"><ele>1107.0</ele><time>2026-04-19T07:25:49.999Z</time></trkpt><trkpt lat="40.036897535884066" lon="15.958843889036073"><ele>1105.4285714285716</ele><time>2026-04-19T07:25:50.999Z</time></trkpt><trkpt lat="40.036966920119205" lon="15.95881197987424"><ele>1103.857142857143</ele><time>2026-04-19T07:25:51.999Z</time></trkpt><trkpt lat="40.03703353250626" lon="15.958780303987515"><ele>1102.2857142857142</ele><time>2026-04-19T07:25:52.999Z</time></trkpt><trkpt lat="40.037104307561336" lon="15.958754542123259"><ele>1100.7142857142858</ele><time>2026-04-19T07:25:53.999Z</time></trkpt><trkpt lat="40.03717145451218" lon="15.958729586287586"><ele>1099.142857142857</ele><time>2026-04-19T07:25:54.999Z</time></trkpt><trkpt lat="40.03724689347529" lon="15.958705367068927"><ele>1097.5714285714287</ele><time>2026-04-19T07:25:55.999Z</time></trkpt><trkpt lat="40.03732764848438" lon="15.958680622204762"><ele>1096.0</ele><time>2026-04-19T07:25:56.999Z</time></trkpt><trkpt lat="40.037401217013006" lon="15.95865652019256"><ele>1096.0</ele><time>2026-04-19T07:25:57.999Z</time></trkpt><trkpt lat="40.03746337114056" lon="15.958642052472463"><ele>1096.0</ele><time>2026-04-19T07:25:58.999Z</time></trkpt><trkpt lat="40.03757005087552" lon="15.958608539570811"><ele>1096.0</ele><time>2026-04-19T07:26:00.999Z</time></trkpt><trkpt lat="40.03764770470813" lon="15.958565593917532"><ele>1096.0</ele><time>2026-04-19T07:26:02.999Z</time></trkpt><trkpt lat="40.03771923520334" lon="15.958605159458411"><ele>1096.0</ele><time>2026-04-19T07:26:05.999Z</time></trkpt><trkpt lat="40.037793555514575" lon="15.958619534875087"><ele>1096.0</ele><time>2026-04-19T07:26:21.999Z</time></trkpt><trkpt lat="40.037864645645215" lon="15.958590100242846"><ele>1094.6666666666665</ele><time>2026-04-19T07:26:23.999Z</time></trkpt><trkpt lat="40.037961281660905" lon="15.958588869397124"><ele>1093.3333333333333</ele><time>2026-04-19T07:26:26.999Z</time></trkpt><trkpt lat="40.038017104070576" lon="15.958646762701996"><ele>1092.0</ele><time>2026-04-19T07:26:28.999Z</time></trkpt><trkpt lat="40.03808085907553" lon="15.958688078408194"><ele>1090.6666666666667</ele><time>2026-04-19T07:26:30.999Z</time></trkpt><trkpt lat="40.03814879793704" lon="15.95869642370524"><ele>1089.3333333333335</ele><time>2026-04-19T07:26:32.999Z</time></trkpt><trkpt lat="40.03824014384443" lon="15.958632002413681"><ele>1088.0</ele><time>2026-04-19T07:26:34.999Z</time></trkpt><trkpt lat="40.03832072224937" lon="15.958667405050686"><ele>1086.6666666666667</ele><time>2026-04-19T07:26:36.999Z</time></trkpt><trkpt lat="40.03837929166118" lon="15.958714678263991"><ele>1085.3333333333335</ele><time>2026-04-19T07:26:37.999Z</time></trkpt><trkpt lat="40.038459422367296" lon="15.958763534339294"><ele>1084.0</ele><time>2026-04-19T07:26:39Z</time></trkpt><trkpt lat="40.0385263509607" lon="15.958797868723021"><ele>1082.6666666666667</ele><time>2026-04-19T07:26:40Z</time></trkpt><trkpt lat="40.038615878812216" lon="15.958800665840426"><ele>1081.3333333333333</ele><time>2026-04-19T07:26:42Z</time></trkpt><trkpt lat="40.03872117641148" lon="15.958795062605049"><ele>1080.0</ele><time>2026-04-19T07:26:45Z</time></trkpt><trkpt lat="40.038819567208485" lon="15.958818586753198"><ele>1080.0</ele><time>2026-04-19T07:26:47Z</time></trkpt><trkpt lat="40.03892622288581" lon="15.958840734117603"><ele>1080.0</ele><time>2026-04-19T07:26:49Z</time></trkpt><trkpt lat="40.03901785308034" lon="15.958905725981147"><ele>1080.0</ele><time>2026-04-19T07:26:51Z</time></trkpt><trkpt lat="40.03905154868007" lon="15.958976452014372"><ele>1080.0</ele><time>2026-04-19T07:26:52Z</time></trkpt><trkpt lat="40.039081624194516" lon="15.959051551700249"><ele>1080.0</ele><time>2026-04-19T07:26:53Z</time></trkpt><trkpt lat="40.0391384932783" lon="15.959130222885618"><ele>1080.0</ele><time>2026-04-19T07:26:55Z</time></trkpt><trkpt lat="40.03920957338069" lon="15.959200065044866"><ele>1078.6666666666667</ele><time>2026-04-19T07:26:58Z</time></trkpt><trkpt lat="40.03926256101046" lon="15.95927788934254"><ele>1077.3333333333333</ele><time>2026-04-19T07:27:01Z</time></trkpt><trkpt lat="40.039314621595736" lon="15.959339591348469"><ele>1076.0</ele><time>2026-04-19T07:27:03Z</time></trkpt><trkpt lat="40.03935141414865" lon="15.959438565967849"><ele>1074.6666666666665</ele><time>2026-04-19T07:27:05Z</time></trkpt><trkpt lat="40.03939554281332" lon="15.959604251502395"><ele>1073.3333333333333</ele><time>2026-04-19T07:27:07Z</time></trkpt><trkpt lat="40.039423355624145" lon="15.959697758683474"><ele>1072.0</ele><time>2026-04-19T07:27:08Z</time></trkpt><trkpt lat="40.039457241964" lon="15.959797837520536"><ele>1072.0</ele><time>2026-04-19T07:27:09Z</time></trkpt><trkpt lat="40.039506253958194" lon="15.95987990888291"><ele>1072.0</ele><time>2026-04-19T07:27:10Z</time></trkpt><trkpt lat="40.03958125770418" lon="15.959978679279052"><ele>1072.0</ele><time>2026-04-19T07:27:12Z</time></trkpt><trkpt lat="40.039603767495436" lon="15.960060825304137"><ele>1072.0</ele><time>2026-04-19T07:27:16Z</time></trkpt><trkpt lat="40.03954233142177" lon="15.96009360837014"><ele>1072.0</ele><time>2026-04-19T07:27:41.999Z</time></trkpt><trkpt lat="40.03950980366764" lon="15.960178864917047"><ele>1072.0</ele><time>2026-04-19T07:27:44.999Z</time></trkpt><trkpt lat="40.0395303777387" lon="15.960273820134885"><ele>1073.5</ele><time>2026-04-19T07:27:53.999Z</time></trkpt><trkpt lat="40.039566140843526" lon="15.96034708296426"><ele>1075.0</ele><time>2026-04-19T07:27:58.999Z</time></trkpt><trkpt lat="40.03952169480757" lon="15.96041565538809"><ele>1076.5</ele><time>2026-04-19T07:28:02.999Z</time></trkpt><trkpt lat="40.03948181426895" lon="15.960482421973591"><ele>1078.0</ele><time>2026-04-19T07:28:04.999Z</time></trkpt><trkpt lat="40.03948575460533" lon="15.960592903405312"><ele>1079.5</ele><time>2026-04-19T07:28:06.999Z</time></trkpt><trkpt lat="40.039559755133055" lon="15.960693684870284"><ele>1081.0</ele><time>2026-04-19T07:28:08.999Z</time></trkpt><trkpt lat="40.039633561863354" lon="15.960753321992089"><ele>1080.9999999999998</ele><time>2026-04-19T07:28:09.999Z</time></trkpt><trkpt lat="40.039693396413796" lon="15.960785709947189"><ele>1081.0</ele><time>2026-04-19T07:28:10.999Z</time></trkpt><trkpt lat="40.03977367478476" lon="15.960805412668824"><ele>1081.0</ele><time>2026-04-19T07:28:11.999Z</time></trkpt><trkpt lat="40.03984539185435" lon="15.960828583798325"><ele>1081.0</ele><time>2026-04-19T07:28:12.999Z</time></trkpt><trkpt lat="40.039913558675934" lon="15.960865963930425"><ele>1081.0</ele><time>2026-04-19T07:28:13.999Z</time></trkpt><trkpt lat="40.03996334482272" lon="15.960922696781191"><ele>1080.9999999999998</ele><time>2026-04-19T07:28:14.999Z</time></trkpt><trkpt lat="40.040007655367326" lon="15.961002462355404"><ele>1081.0</ele><time>2026-04-19T07:28:15.999Z</time></trkpt><trkpt lat="40.04003639284829" lon="15.961098542085368"><ele>1077.6</ele><time>2026-04-19T07:28:16.999Z</time></trkpt><trkpt lat="40.04005972058895" lon="15.96121913849901"><ele>1074.1999999999998</ele><time>2026-04-19T07:28:17.999Z</time></trkpt><trkpt lat="40.04009646438351" lon="15.96134037430226"><ele>1070.8000000000002</ele><time>2026-04-19T07:28:18.999Z</time></trkpt><trkpt lat="40.04012567503775" lon="15.961437902818805"><ele>1067.4</ele><time>2026-04-19T07:28:19.999Z</time></trkpt><trkpt lat="40.040134501159784" lon="15.961545192319356"><ele>1064.0</ele><time>2026-04-19T07:28:20.999Z</time></trkpt><trkpt lat="40.040134116485895" lon="15.961669583286813"><ele>1063.75</ele><time>2026-04-19T07:28:21.999Z</time></trkpt><trkpt lat="40.0401164263338" lon="15.961807585615242"><ele>1063.5</ele><time>2026-04-19T07:28:22.999Z</time></trkpt><trkpt lat="40.0400968894184" lon="15.961960211664914"><ele>1063.25</ele><time>2026-04-19T07:28:23.999Z</time></trkpt><trkpt lat="40.04007732821335" lon="15.962126828644235"><ele>1063.0</ele><time>2026-04-19T07:28:24.999Z</time></trkpt><trkpt lat="40.04006198110322" lon="15.962300777554269"><ele>1063.0</ele><time>2026-04-19T07:28:25.999Z</time></trkpt><trkpt lat="40.04006128568041" lon="15.962494079724943"><ele>1063.0</ele><time>2026-04-19T07:28:26.999Z</time></trkpt><trkpt lat="40.04005203450289" lon="15.96270227453549"><ele>1063.0</ele><time>2026-04-19T07:28:27.999Z</time></trkpt><trkpt lat="40.04003109695682" lon="15.962878135828706"><ele>1063.0</ele><time>2026-04-19T07:28:28.999Z</time></trkpt><trkpt lat="40.040028478216804" lon="15.963031001585605"><ele>1061.5</ele><time>2026-04-19T07:28:29.999Z</time></trkpt><trkpt lat="40.04005181049478" lon="15.963195711747643"><ele>1060.0</ele><time>2026-04-19T07:28:30.999Z</time></trkpt><trkpt lat="40.040090901216715" lon="15.963374225658479"><ele>1058.5</ele><time>2026-04-19T07:28:31.999Z</time></trkpt><trkpt lat="40.04012895282394" lon="15.963531890140247"><ele>1057.0</ele><time>2026-04-19T07:28:32.999Z</time></trkpt><trkpt lat="40.040167415416825" lon="15.963667274804163"><ele>1055.5</ele><time>2026-04-19T07:28:33.999Z</time></trkpt><trkpt lat="40.040233590004654" lon="15.963792409026988"><ele>1054.0</ele><time>2026-04-19T07:28:34.999Z</time></trkpt><trkpt lat="40.040336384105395" lon="15.963919175860028"><ele>1052.5</ele><time>2026-04-19T07:28:35.999Z</time></trkpt><trkpt lat="40.04044303659439" lon="15.964027295264469"><ele>1051.0</ele><time>2026-04-19T07:28:36.999Z</time></trkpt><trkpt lat="40.04054173074603" lon="15.96410698061672"><ele>1051.0</ele><time>2026-04-19T07:28:37.999Z</time></trkpt><trkpt lat="40.04063735549649" lon="15.964140384530701"><ele>1051.0</ele><time>2026-04-19T07:28:38.999Z</time></trkpt><trkpt lat="40.0407220988376" lon="15.964139860537278"><ele>1051.0</ele><time>2026-04-19T07:28:39.999Z</time></trkpt><trkpt lat="40.04081989681055" lon="15.96413445444557"><ele>1051.0</ele><time>2026-04-19T07:28:40.999Z</time></trkpt><trkpt lat="40.0409510572289" lon="15.964111308803112"><ele>1051.0</ele><time>2026-04-19T07:28:41.999Z</time></trkpt><trkpt lat="40.04110051480239" lon="15.964092703379665"><ele>1049.0</ele><time>2026-04-19T07:28:42.999Z</time></trkpt><trkpt lat="40.041223664145654" lon="15.964083638478266"><ele>1047.0</ele><time>2026-04-19T07:28:43.999Z</time></trkpt><trkpt lat="40.041342351874775" lon="15.96408263186547"><ele>1045.0</ele><time>2026-04-19T07:28:45Z</time></trkpt><trkpt lat="40.041458499070366" lon="15.964083754152124"><ele>1043.0</ele><time>2026-04-19T07:28:46Z</time></trkpt><trkpt lat="40.04157149970335" lon="15.964084812193692"><ele>1041.6666666666667</ele><time>2026-04-19T07:28:47Z</time></trkpt><trkpt lat="40.04168623425784" lon="15.964094904444861"><ele>1040.3333333333335</ele><time>2026-04-19T07:28:48Z</time></trkpt><trkpt lat="40.04178306430071" lon="15.964115900044481"><ele>1039.0</ele><time>2026-04-19T07:28:49Z</time></trkpt><trkpt lat="40.04186287660574" lon="15.964161915285038"><ele>1037.6666666666667</ele><time>2026-04-19T07:28:50Z</time></trkpt><trkpt lat="40.04191611301847" lon="15.96421429670808"><ele>1036.3333333333333</ele><time>2026-04-19T07:28:51Z</time></trkpt><trkpt lat="40.04195901843354" lon="15.964289667206248"><ele>1035.0</ele><time>2026-04-19T07:28:52Z</time></trkpt><trkpt lat="40.0420112289743" lon="15.964405114547715"><ele>1035.0</ele><time>2026-04-19T07:28:53Z</time></trkpt><trkpt lat="40.04206603414772" lon="15.96453640196318"><ele>1035.0</ele><time>2026-04-19T07:28:54Z</time></trkpt><trkpt lat="40.04212983545754" lon="15.964674262168773"><ele>1035.0</ele><time>2026-04-19T07:28:55Z</time></trkpt><trkpt lat="40.042190384923785" lon="15.964788890035672"><ele>1035.0</ele><time>2026-04-19T07:28:56Z</time></trkpt><trkpt lat="40.0422370607832" lon="15.964897587975578"><ele>1035.0</ele><time>2026-04-19T07:28:57Z</time></trkpt><trkpt lat="40.04229031103167" lon="15.96500318520183"><ele>1034.5</ele><time>2026-04-19T07:28:58Z</time></trkpt><trkpt lat="40.042335509808154" lon="15.965100736381176"><ele>1034.0</ele><time>2026-04-19T07:28:59Z</time></trkpt><trkpt lat="40.042369248767756" lon="15.965179601374825"><ele>1033.5</ele><time>2026-04-19T07:29:00Z</time></trkpt><trkpt lat="40.04240639783933" lon="15.965265928241676"><ele>1033.0</ele><time>2026-04-19T07:29:02Z</time></trkpt><trkpt lat="40.04246210840551" lon="15.96530985972107"><ele>1032.5</ele><time>2026-04-19T07:29:06Z</time></trkpt><trkpt lat="40.04252460139142" lon="15.965262130689688"><ele>1032.0</ele><time>2026-04-19T07:29:10Z</time></trkpt><trkpt lat="40.042613324759294" lon="15.965233023805592"><ele>1031.5</ele><time>2026-04-19T07:29:13Z</time></trkpt><trkpt lat="40.042686323531505" lon="15.965235940262778"><ele>1031.0</ele><time>2026-04-19T07:29:15Z</time></trkpt><trkpt lat="40.04275322535639" lon="15.96530998718633"><ele>1030.5</ele><time>2026-04-19T07:29:18Z</time></trkpt><trkpt lat="40.042843230221756" lon="15.965276093797096"><ele>1030.0</ele><time>2026-04-19T07:29:21Z</time></trkpt><trkpt lat="40.04292554294122" lon="15.965245420798038"><ele>1029.5</ele><time>2026-04-19T07:29:24Z</time></trkpt><trkpt lat="40.04301614225121" lon="15.965268959759918"><ele>1029.0</ele><time>2026-04-19T07:29:27Z</time></trkpt><trkpt lat="40.043099670133905" lon="15.965246703933929"><ele>1029.0</ele><time>2026-04-19T07:29:29Z</time></trkpt><trkpt lat="40.043210085375996" lon="15.965268792389866"><ele>1029.0</ele><time>2026-04-19T07:29:31Z</time></trkpt><trkpt lat="40.0432722567111" lon="15.96530081735048"><ele>1029.0</ele><time>2026-04-19T07:29:32Z</time></trkpt><trkpt lat="40.04334007938557" lon="15.965334263450256"><ele>1029.0</ele><time>2026-04-19T07:29:33Z</time></trkpt><trkpt lat="40.04340620935068" lon="15.965361053273389"><ele>1029.0</ele><time>2026-04-19T07:29:34Z</time></trkpt><trkpt lat="40.043509959747254" lon="15.965375328030197"><ele>1029.0</ele><time>2026-04-19T07:29:36Z</time></trkpt><trkpt lat="40.04359177884009" lon="15.965409289646297"><ele>1028.1666666666667</ele><time>2026-04-19T07:29:38Z</time></trkpt><trkpt lat="40.043660317757194" lon="15.965433800955683"><ele>1027.3333333333333</ele><time>2026-04-19T07:29:40Z</time></trkpt><trkpt lat="40.04374291849218" lon="15.965445345951201"><ele>1026.5</ele><time>2026-04-19T07:29:42Z</time></trkpt><trkpt lat="40.04386216094225" lon="15.965452029656998"><ele>1025.6666666666665</ele><time>2026-04-19T07:29:44Z</time></trkpt><trkpt lat="40.043942379705435" lon="15.965451621900572"><ele>1024.8333333333333</ele><time>2026-04-19T07:29:44.999Z</time></trkpt><trkpt lat="40.044021987923685" lon="15.965452897929483"><ele>1024.0</ele><time>2026-04-19T07:29:45.999Z</time></trkpt><trkpt lat="40.044088131530366" lon="15.965469475060846"><ele>1023.4000000000001</ele><time>2026-04-19T07:29:46.999Z</time></trkpt><trkpt lat="40.04419425675984" lon="15.965510446042636"><ele>1022.8000000000001</ele><time>2026-04-19T07:29:48.999Z</time></trkpt><trkpt lat="40.04430419778755" lon="15.96553612073401"><ele>1022.1999999999999</ele><time>2026-04-19T07:29:50.999Z</time></trkpt><trkpt lat="40.044384647055296" lon="15.965539816074799"><ele>1021.5999999999999</ele><time>2026-04-19T07:29:52.999Z</time></trkpt><trkpt lat="40.04443934837411" lon="15.965483622969037"><ele>1021.0</ele><time>2026-04-19T07:29:54.999Z</time></trkpt><trkpt lat="40.04448810647498" lon="15.965397563665164"><ele>1021.0</ele><time>2026-04-19T07:29:56.999Z</time></trkpt><trkpt lat="40.044559172747626" lon="15.965317446955716"><ele>1020.9999999999999</ele><time>2026-04-19T07:29:58.999Z</time></trkpt><trkpt lat="40.04463680049078" lon="15.965212811433979"><ele>1020.9999999999999</ele><time>2026-04-19T07:30:01.999Z</time></trkpt><trkpt lat="40.04467510978524" lon="15.965137644726203"><ele>1021.0</ele><time>2026-04-19T07:30:03.999Z</time></trkpt><trkpt lat="40.04469017377286" lon="15.965040600543253"><ele>1021.0</ele><time>2026-04-19T07:30:05.999Z</time></trkpt><trkpt lat="40.04477043769011" lon="15.96492469713175"><ele>1018.75</ele><time>2026-04-19T07:30:08.999Z</time></trkpt><trkpt lat="40.04482624431041" lon="15.96479503798773"><ele>1016.5</ele><time>2026-04-19T07:30:11.999Z</time></trkpt><trkpt lat="40.04487854520519" lon="15.964734288953807"><ele>1014.25</ele><time>2026-04-19T07:30:13.999Z</time></trkpt><trkpt lat="40.044956913778115" lon="15.964530058192722"><ele>1012.0</ele><time>2026-04-19T07:30:16.999Z</time></trkpt><trkpt lat="40.04491555063663" lon="15.964404833550859"><ele>1012.0</ele><time>2026-04-19T07:30:18.999Z</time></trkpt><trkpt lat="40.0449179729527" lon="15.9642546417129"><ele>1012.0</ele><time>2026-04-19T07:30:20.999Z</time></trkpt><trkpt lat="40.04493772606474" lon="15.964170249747122"><ele>1012.0</ele><time>2026-04-19T07:30:21.999Z</time></trkpt><trkpt lat="40.0449520163171" lon="15.964017219823505"><ele>1012.0</ele><time>2026-04-19T07:30:23.999Z</time></trkpt><trkpt lat="40.04495341249245" lon="15.963893487135977"><ele>1012.0</ele><time>2026-04-19T07:30:25.999Z</time></trkpt><trkpt lat="40.04498182299721" lon="15.96378531056432"><ele>1010.6666666666666</ele><time>2026-04-19T07:30:27.999Z</time></trkpt><trkpt lat="40.04502735331631" lon="15.96371867737385"><ele>1009.3333333333333</ele><time>2026-04-19T07:30:29.999Z</time></trkpt><trkpt lat="40.04507953126606" lon="15.963637235216313"><ele>1008.0</ele><time>2026-04-19T07:30:31.999Z</time></trkpt><trkpt lat="40.04503317715178" lon="15.963531371295984"><ele>1006.6666666666667</ele><time>2026-04-19T07:30:33.999Z</time></trkpt><trkpt lat="40.045076815941904" lon="15.963445722191922"><ele>1005.3333333333334</ele><time>2026-04-19T07:30:35.999Z</time></trkpt><trkpt lat="40.04512136663442" lon="15.963367632440086"><ele>1004.0</ele><time>2026-04-19T07:30:37.999Z</time></trkpt><trkpt lat="40.04512595608296" lon="15.96327767680793"><ele>1002.8333333333334</ele><time>2026-04-19T07:30:40.999Z</time></trkpt><trkpt lat="40.04513484504057" lon="15.963167627725879"><ele>1001.6666666666667</ele><time>2026-04-19T07:30:42.999Z</time></trkpt><trkpt lat="40.04512966034546" lon="15.96308016967707"><ele>1000.5</ele><time>2026-04-19T07:30:44.999Z</time></trkpt><trkpt lat="40.04515085566655" lon="15.962987019630626"><ele>999.3333333333333</ele><time>2026-04-19T07:30:46.999Z</time></trkpt><trkpt lat="40.045185642735554" lon="15.962877832159203"><ele>998.1666666666666</ele><time>2026-04-19T07:30:48.999Z</time></trkpt><trkpt lat="40.04521491137895" lon="15.96275917623923"><ele>997.0</ele><time>2026-04-19T07:30:51Z</time></trkpt><trkpt lat="40.04526095040078" lon="15.962669845744946"><ele>996.9999999999999</ele><time>2026-04-19T07:30:53Z</time></trkpt><trkpt lat="40.045307651568386" lon="15.962565182387749"><ele>997.0</ele><time>2026-04-19T07:30:55Z</time></trkpt><trkpt lat="40.045329582518235" lon="15.962463305178703"><ele>997.0</ele><time>2026-04-19T07:30:57Z</time></trkpt><trkpt lat="40.04534912182818" lon="15.962356826687314"><ele>997.0</ele><time>2026-04-19T07:30:59Z</time></trkpt><trkpt lat="40.04537659637977" lon="15.962270486055292"><ele>996.9999999999999</ele><time>2026-04-19T07:31:01Z</time></trkpt><trkpt lat="40.04540055699925" lon="15.96216952396396"><ele>997.0</ele><time>2026-04-19T07:31:03Z</time></trkpt><trkpt lat="40.04541418061659" lon="15.962061302489035"><ele>995.1666666666666</ele><time>2026-04-19T07:31:05Z</time></trkpt><trkpt lat="40.04544729874034" lon="15.961955178676162"><ele>993.3333333333333</ele><time>2026-04-19T07:31:07Z</time></trkpt><trkpt lat="40.045485025659964" lon="15.96187316983575"><ele>991.5</ele><time>2026-04-19T07:31:09Z</time></trkpt><trkpt lat="40.045496251446274" lon="15.96175079875419"><ele>989.6666666666667</ele><time>2026-04-19T07:31:11Z</time></trkpt><trkpt lat="40.04545733865233" lon="15.961683115594"><ele>987.8333333333334</ele><time>2026-04-19T07:31:13Z</time></trkpt><trkpt lat="40.04543482039466" lon="15.961526748475029"><ele>986.0</ele><time>2026-04-19T07:31:16Z</time></trkpt><trkpt lat="40.045454022342476" lon="15.961429843569093"><ele>984.6666666666667</ele><time>2026-04-19T07:31:18Z</time></trkpt><trkpt lat="40.04546841150346" lon="15.961336807789923"><ele>983.3333333333334</ele><time>2026-04-19T07:31:19Z</time></trkpt><trkpt lat="40.045450197033084" lon="15.961238258216497"><ele>982.0</ele><time>2026-04-19T07:31:21Z</time></trkpt><trkpt lat="40.04540593661339" lon="15.961143882708662"><ele>980.6666666666667</ele><time>2026-04-19T07:31:24Z</time></trkpt><trkpt lat="40.04535280140286" lon="15.961054203593546"><ele>979.3333333333334</ele><time>2026-04-19T07:31:26Z</time></trkpt><trkpt lat="40.04534326802719" lon="15.960960872841072"><ele>978.0</ele><time>2026-04-19T07:31:29Z</time></trkpt><trkpt lat="40.04533161393185" lon="15.960872095925122"><ele>976.8</ele><time>2026-04-19T07:31:31Z</time></trkpt><trkpt lat="40.04527881582048" lon="15.960790817803112"><ele>975.5999999999999</ele><time>2026-04-19T07:31:33Z</time></trkpt><trkpt lat="40.045292556905906" lon="15.960697712924336"><ele>974.4000000000001</ele><time>2026-04-19T07:31:36Z</time></trkpt><trkpt lat="40.04530240215233" lon="15.96058078933707"><ele>973.2</ele><time>2026-04-19T07:31:39Z</time></trkpt><trkpt lat="40.04533358603944" lon="15.96036330580471"><ele>972.0</ele><time>2026-04-19T07:31:42Z</time></trkpt><trkpt lat="40.04535896896298" lon="15.96022784182353"><ele>972.0</ele><time>2026-04-19T07:31:44Z</time></trkpt><trkpt lat="40.04536678606939" lon="15.960108610591801"><ele>972.0</ele><time>2026-04-19T07:31:46Z</time></trkpt><trkpt lat="40.04537429145487" lon="15.960004382704339"><ele>972.0</ele><time>2026-04-19T07:31:48Z</time></trkpt><trkpt lat="40.045373903212635" lon="15.959908000168227"><ele>972.0</ele><time>2026-04-19T07:31:50Z</time></trkpt><trkpt lat="40.045409499486254" lon="15.959793514395413"><ele>972.0</ele><time>2026-04-19T07:31:51.999Z</time></trkpt><trkpt lat="40.04546020704114" lon="15.959722485334277"><ele>972.0</ele><time>2026-04-19T07:31:53.999Z</time></trkpt><trkpt lat="40.0455140359666" lon="15.959653564589786"><ele>969.0</ele><time>2026-04-19T07:31:57.999Z</time></trkpt><trkpt lat="40.04556003544784" lon="15.959587302497138"><ele>966.0</ele><time>2026-04-19T07:31:59.999Z</time></trkpt><trkpt lat="40.04563069701605" lon="15.959549281854345"><ele>963.0</ele><time>2026-04-19T07:32:01.999Z</time></trkpt><trkpt lat="40.045776292322664" lon="15.95936436745681"><ele>960.0</ele><time>2026-04-19T07:32:03.999Z</time></trkpt><trkpt lat="40.04582353284171" lon="15.959295792539649"><ele>957.0</ele><time>2026-04-19T07:32:04.999Z</time></trkpt><trkpt lat="40.04588441965659" lon="15.959185798808628"><ele>953.5</ele><time>2026-04-19T07:32:06.999Z</time></trkpt><trkpt lat="40.04593141641634" lon="15.959114092954346"><ele>950.0</ele><time>2026-04-19T07:32:08.999Z</time></trkpt><trkpt lat="40.04599436029688" lon="15.959066905158592"><ele>946.5</ele><time>2026-04-19T07:32:10.999Z</time></trkpt><trkpt lat="40.04606329691743" lon="15.959004166789626"><ele>943.0</ele><time>2026-04-19T07:32:12.999Z</time></trkpt><trkpt lat="40.04613259127046" lon="15.958940500526063"><ele>939.5</ele><time>2026-04-19T07:32:14.999Z</time></trkpt><trkpt lat="40.04620589394558" lon="15.958871202871965"><ele>936.0</ele><time>2026-04-19T07:32:16.999Z</time></trkpt><trkpt lat="40.0462820516817" lon="15.958782630581378"><ele>936.0</ele><time>2026-04-19T07:32:18.999Z</time></trkpt><trkpt lat="40.046349002125304" lon="15.958755360500724"><ele>936.0</ele><time>2026-04-19T07:32:21.999Z</time></trkpt><trkpt lat="40.04643985889064" lon="15.95870070579756"><ele>936.0</ele><time>2026-04-19T07:32:23.999Z</time></trkpt><trkpt lat="40.04653116337118" lon="15.958671819733972"><ele>936.0</ele><time>2026-04-19T07:32:25.999Z</time></trkpt><trkpt lat="40.04660812499015" lon="15.958638370935613"><ele>936.0</ele><time>2026-04-19T07:32:28.999Z</time></trkpt><trkpt lat="40.04667520405058" lon="15.958590210726763"><ele>936.0</ele><time>2026-04-19T07:32:30.999Z</time></trkpt><trkpt lat="40.046747644874884" lon="15.958569318924612"><ele>934.2857142857143</ele><time>2026-04-19T07:32:32.999Z</time></trkpt><trkpt lat="40.04680536826924" lon="15.95853336102952"><ele>932.5714285714287</ele><time>2026-04-19T07:32:34.999Z</time></trkpt><trkpt lat="40.04686331821639" lon="15.958475637174779"><ele>930.8571428571429</ele><time>2026-04-19T07:32:36.999Z</time></trkpt><trkpt lat="40.0469199275222" lon="15.958422163600602"><ele>929.1428571428571</ele><time>2026-04-19T07:32:38.999Z</time></trkpt><trkpt lat="40.04696637873144" lon="15.958361866485046"><ele>927.4285714285714</ele><time>2026-04-19T07:32:41.999Z</time></trkpt><trkpt lat="40.047027195001746" lon="15.95830019478294"><ele>925.7142857142858</ele><time>2026-04-19T07:32:44.999Z</time></trkpt><trkpt lat="40.04706225225963" lon="15.958201283187563"><ele>924.0</ele><time>2026-04-19T07:32:47.999Z</time></trkpt><trkpt lat="40.047101144273086" lon="15.958104613876378"><ele>923.5</ele><time>2026-04-19T07:32:50.999Z</time></trkpt><trkpt lat="40.047110106872054" lon="15.957997826668622"><ele>923.0</ele><time>2026-04-19T07:32:52.999Z</time></trkpt><trkpt lat="40.04710236435062" lon="15.957911107091387"><ele>922.5</ele><time>2026-04-19T07:32:55.999Z</time></trkpt><trkpt lat="40.04710289899784" lon="15.957786999364235"><ele>922.0</ele><time>2026-04-19T07:32:58Z</time></trkpt><trkpt lat="40.04712768092999" lon="15.95767619496074"><ele>921.5</ele><time>2026-04-19T07:33:00Z</time></trkpt><trkpt lat="40.047156906645945" lon="15.957557243526308"><ele>921.0</ele><time>2026-04-19T07:33:02Z</time></trkpt><trkpt lat="40.04719408456589" lon="15.957428462894164"><ele>920.1666666666666</ele><time>2026-04-19T07:33:04Z</time></trkpt><trkpt lat="40.04726456531329" lon="15.957324598315324"><ele>919.3333333333333</ele><time>2026-04-19T07:33:06Z</time></trkpt><trkpt lat="40.047322315937166" lon="15.957232205069662"><ele>918.5</ele><time>2026-04-19T07:33:08Z</time></trkpt><trkpt lat="40.04738313714767" lon="15.957102838962637"><ele>917.6666666666666</ele><time>2026-04-19T07:33:10Z</time></trkpt><trkpt lat="40.0474079821676" lon="15.95702024324936"><ele>916.8333333333333</ele><time>2026-04-19T07:33:11Z</time></trkpt><trkpt lat="40.04742477267156" lon="15.956936429583049"><ele>916.0</ele><time>2026-04-19T07:33:12Z</time></trkpt><trkpt lat="40.04745347294322" lon="15.956862700232728"><ele>913.6666666666666</ele><time>2026-04-19T07:33:13Z</time></trkpt><trkpt lat="40.04747649453788" lon="15.956785936090508"><ele>911.3333333333333</ele><time>2026-04-19T07:33:14Z</time></trkpt><trkpt lat="40.047530749939746" lon="15.956689407564298"><ele>909.0</ele><time>2026-04-19T07:33:16Z</time></trkpt><trkpt lat="40.0476310449073" lon="15.956608846993896"><ele>906.6666666666667</ele><time>2026-04-19T07:33:19Z</time></trkpt><trkpt lat="40.04769809948984" lon="15.956518554255567"><ele>904.3333333333334</ele><time>2026-04-19T07:33:21Z</time></trkpt><trkpt lat="40.04774127229358" lon="15.956435211437018"><ele>902.0</ele><time>2026-04-19T07:33:23Z</time></trkpt><trkpt lat="40.04779855517875" lon="15.956328564428144"><ele>902.0</ele><time>2026-04-19T07:33:25Z</time></trkpt><trkpt lat="40.047865116044306" lon="15.9561887930416"><ele>902.0</ele><time>2026-04-19T07:33:26Z</time></trkpt><trkpt lat="40.04792402476168" lon="15.956042839913703"><ele>902.0</ele><time>2026-04-19T07:33:27Z</time></trkpt><trkpt lat="40.0479808461249" lon="15.955907029616933"><ele>902.0</ele><time>2026-04-19T07:33:28Z</time></trkpt><trkpt lat="40.04802494802092" lon="15.95579715333108"><ele>903.3333333333334</ele><time>2026-04-19T07:33:29Z</time></trkpt><trkpt lat="40.04807122512871" lon="15.955697225892893"><ele>904.6666666666667</ele><time>2026-04-19T07:33:30Z</time></trkpt><trkpt lat="40.0481083223504" lon="15.955611173189967"><ele>906.0</ele><time>2026-04-19T07:33:31Z</time></trkpt><trkpt lat="40.048146783238785" lon="15.955539292728416"><ele>907.3333333333333</ele><time>2026-04-19T07:33:32Z</time></trkpt><trkpt lat="40.04821140550409" lon="15.955467759452633"><ele>908.6666666666666</ele><time>2026-04-19T07:33:35Z</time></trkpt><trkpt lat="40.04826831102951" lon="15.955416145589679"><ele>910.0</ele><time>2026-04-19T07:33:39Z</time></trkpt><trkpt lat="40.04834690423353" lon="15.955338290962795"><ele>907.9999999999999</ele><time>2026-04-19T07:34:03.999Z</time></trkpt><trkpt lat="40.04841447024153" lon="15.955256752998752"><ele>906.0</ele><time>2026-04-19T07:34:06.999Z</time></trkpt><trkpt lat="40.04847827293173" lon="15.955179476932248"><ele>904.0</ele><time>2026-04-19T07:34:09.999Z</time></trkpt><trkpt lat="40.04855012523" lon="15.955102463427961"><ele>902.0</ele><time>2026-04-19T07:34:11.999Z</time></trkpt><trkpt lat="40.0486169197498" lon="15.955026157598613"><ele>899.9999999999999</ele><time>2026-04-19T07:34:13.999Z</time></trkpt><trkpt lat="40.04865379288961" lon="15.954934070629372"><ele>898.0</ele><time>2026-04-19T07:34:15.999Z</time></trkpt><trkpt lat="40.04869238446109" lon="15.954839468078985"><ele>897.9999999999999</ele><time>2026-04-19T07:34:17.999Z</time></trkpt><trkpt lat="40.04874154304285" lon="15.954769463479419"><ele>898.0</ele><time>2026-04-19T07:34:19.999Z</time></trkpt><trkpt lat="40.04882758514648" lon="15.954658213982837"><ele>898.0</ele><time>2026-04-19T07:34:21.999Z</time></trkpt><trkpt lat="40.04887683005098" lon="15.954596491702707"><ele>898.0</ele><time>2026-04-19T07:34:22.999Z</time></trkpt><trkpt lat="40.04892983836744" lon="15.95450933991112"><ele>897.9999999999999</ele><time>2026-04-19T07:34:23.999Z</time></trkpt><trkpt lat="40.048954327824745" lon="15.95442796915422"><ele>898.0</ele><time>2026-04-19T07:34:24.999Z</time></trkpt><trkpt lat="40.048950348795074" lon="15.954277396781054"><ele>897.2</ele><time>2026-04-19T07:34:26.999Z</time></trkpt><trkpt lat="40.048990537271386" lon="15.954153431748129"><ele>896.4</ele><time>2026-04-19T07:34:28.999Z</time></trkpt><trkpt lat="40.04900984914599" lon="15.954010008919234"><ele>895.6000000000001</ele><time>2026-04-19T07:34:30.999Z</time></trkpt><trkpt lat="40.04904114457847" lon="15.953863333406112"><ele>894.8000000000001</ele><time>2026-04-19T07:34:32.999Z</time></trkpt><trkpt lat="40.04908782992072" lon="15.95375249084628"><ele>894.0</ele><time>2026-04-19T07:34:34.999Z</time></trkpt><trkpt lat="40.049132634223234" lon="15.95363107244191"><ele>894.0</ele><time>2026-04-19T07:34:36.999Z</time></trkpt><trkpt lat="40.04919527684773" lon="15.953498193513518"><ele>894.0000000000001</ele><time>2026-04-19T07:34:38.999Z</time></trkpt><trkpt lat="40.049266938396485" lon="15.95339992007483"><ele>894.0000000000001</ele><time>2026-04-19T07:34:40.999Z</time></trkpt><trkpt lat="40.04932166632886" lon="15.953288483506793"><ele>894.0</ele><time>2026-04-19T07:34:42.999Z</time></trkpt><trkpt lat="40.049377023946434" lon="15.953168096205964"><ele>894.0</ele><time>2026-04-19T07:34:44.999Z</time></trkpt><trkpt lat="40.04939746764292" lon="15.953089922186253"><ele>896.4000000000001</ele><time>2026-04-19T07:34:45.999Z</time></trkpt><trkpt lat="40.04942478802505" lon="15.952940009870304"><ele>898.8000000000001</ele><time>2026-04-19T07:34:47.999Z</time></trkpt><trkpt lat="40.049488652298834" lon="15.952805509901113"><ele>901.1999999999999</ele><time>2026-04-19T07:34:49.999Z</time></trkpt><trkpt lat="40.04952087960879" lon="15.952728456303609"><ele>903.5999999999999</ele><time>2026-04-19T07:34:50.999Z</time></trkpt><trkpt lat="40.049509584352556" lon="15.952639194315491"><ele>906.0</ele><time>2026-04-19T07:34:51.999Z</time></trkpt><trkpt lat="40.04955108749031" lon="15.95255792507902"><ele>907.4</ele><time>2026-04-19T07:34:52.999Z</time></trkpt><trkpt lat="40.049589115517385" lon="15.952465484214347"><ele>908.8</ele><time>2026-04-19T07:34:53.999Z</time></trkpt><trkpt lat="40.04963024567112" lon="15.952334729629078"><ele>910.1999999999999</ele><time>2026-04-19T07:34:54.999Z</time></trkpt><trkpt lat="40.04965431373728" lon="15.952229465416165"><ele>911.5999999999999</ele><time>2026-04-19T07:34:55.999Z</time></trkpt><trkpt lat="40.04968184952418" lon="15.952115595187495"><ele>913.0</ele><time>2026-04-19T07:34:56.999Z</time></trkpt><trkpt lat="40.04970103222963" lon="15.951996683520356"><ele>913.0</ele><time>2026-04-19T07:34:57.999Z</time></trkpt><trkpt lat="40.04970999561121" lon="15.951871137730855"><ele>913.0</ele><time>2026-04-19T07:34:58.999Z</time></trkpt><trkpt lat="40.04971176995722" lon="15.951767227989334"><ele>913.0</ele><time>2026-04-19T07:34:59.999Z</time></trkpt><trkpt lat="40.04972779488071" lon="15.951672081806947"><ele>913.0</ele><time>2026-04-19T07:35:00.999Z</time></trkpt><trkpt lat="40.04978976053246" lon="15.9515803118081"><ele>913.0</ele><time>2026-04-19T07:35:03Z</time></trkpt><trkpt lat="40.04990990088912" lon="15.951484362087529"><ele>912.5999999999999</ele><time>2026-04-19T07:35:05Z</time></trkpt><trkpt lat="40.04996485950689" lon="15.951390201993828"><ele>912.1999999999999</ele><time>2026-04-19T07:35:07Z</time></trkpt><trkpt lat="40.049953648526866" lon="15.951269554627904"><ele>911.8</ele><time>2026-04-19T07:35:09Z</time></trkpt><trkpt lat="40.04992302007913" lon="15.951121963202684"><ele>911.4</ele><time>2026-04-19T07:35:11Z</time></trkpt><trkpt lat="40.04993997433885" lon="15.950987739356442"><ele>911.0</ele><time>2026-04-19T07:35:13Z</time></trkpt><trkpt lat="40.049968947618126" lon="15.950837804211611"><ele>911.0</ele><time>2026-04-19T07:35:15Z</time></trkpt><trkpt lat="40.04997214853712" lon="15.950709361478728"><ele>910.9999999999999</ele><time>2026-04-19T07:35:17Z</time></trkpt><trkpt lat="40.04997628816818" lon="15.950614120358253"><ele>910.9999999999999</ele><time>2026-04-19T07:35:19Z</time></trkpt><trkpt lat="40.04998707196407" lon="15.950516502030391"><ele>911.0</ele><time>2026-04-19T07:35:23Z</time></trkpt><trkpt lat="40.0500783560667" lon="15.950427063775702"><ele>911.0</ele><time>2026-04-19T07:35:27Z</time></trkpt><trkpt lat="40.05011560776153" lon="15.950316478668928"><ele>911.0000000000001</ele><time>2026-04-19T07:35:29Z</time></trkpt><trkpt lat="40.05018389676512" lon="15.950219898303782"><ele>911.0</ele><time>2026-04-19T07:35:30Z</time></trkpt><trkpt lat="40.05020838965766" lon="15.950126819696585"><ele>911.0</ele><time>2026-04-19T07:35:31Z</time></trkpt><trkpt lat="40.05024212746492" lon="15.950047261328486"><ele>911.0</ele><time>2026-04-19T07:35:32Z</time></trkpt><trkpt lat="40.05029365571581" lon="15.949981446355247"><ele>911.0000000000001</ele><time>2026-04-19T07:35:33Z</time></trkpt><trkpt lat="40.05035261376277" lon="15.949940968087818"><ele>911.0</ele><time>2026-04-19T07:35:34Z</time></trkpt><trkpt lat="40.05046671489731" lon="15.949889766403555"><ele>912.1999999999999</ele><time>2026-04-19T07:35:36Z</time></trkpt><trkpt lat="40.05052677554772" lon="15.949844507792877"><ele>913.3999999999999</ele><time>2026-04-19T07:35:37Z</time></trkpt><trkpt lat="40.050594311632516" lon="15.949814385337437"><ele>914.6</ele><time>2026-04-19T07:35:38Z</time></trkpt><trkpt lat="40.05070199568446" lon="15.949760987730164"><ele>915.8</ele><time>2026-04-19T07:35:40Z</time></trkpt><trkpt lat="40.05080490880793" lon="15.94966970725965"><ele>917.0</ele><time>2026-04-19T07:35:42Z</time></trkpt><trkpt lat="40.05084830421234" lon="15.94959637521607"><ele>917.0000000000001</ele><time>2026-04-19T07:35:43Z</time></trkpt><trkpt lat="40.05090702038399" lon="15.949546682394548"><ele>917.0</ele><time>2026-04-19T07:35:44Z</time></trkpt><trkpt lat="40.05094926425686" lon="15.949483470867712"><ele>917.0</ele><time>2026-04-19T07:35:45Z</time></trkpt><trkpt lat="40.051017618931525" lon="15.94938249707781"><ele>917.0</ele><time>2026-04-19T07:35:47Z</time></trkpt><trkpt lat="40.051067565537686" lon="15.94933105939758"><ele>917.0000000000001</ele><time>2026-04-19T07:36:04Z</time></trkpt><trkpt lat="40.05098003509047" lon="15.949262557616763"><ele>917.0</ele><time>2026-04-19T07:36:06.999Z</time></trkpt><trkpt lat="40.050941417331536" lon="15.949163396496829"><ele>918.4000000000001</ele><time>2026-04-19T07:36:08.999Z</time></trkpt><trkpt lat="40.05089463189335" lon="15.949046539368256"><ele>919.8000000000001</ele><time>2026-04-19T07:36:10.999Z</time></trkpt><trkpt lat="40.05081345708836" lon="15.948956546669605"><ele>921.2</ele><time>2026-04-19T07:36:12.999Z</time></trkpt><trkpt lat="40.0507297616018" lon="15.948840753176516"><ele>922.6</ele><time>2026-04-19T07:36:14.999Z</time></trkpt><trkpt lat="40.05068952157362" lon="15.948708606930355"><ele>924.0</ele><time>2026-04-19T07:36:16.999Z</time></trkpt><trkpt lat="40.05064635505316" lon="15.948631313049177"><ele>924.8333333333334</ele><time>2026-04-19T07:36:18.999Z</time></trkpt><trkpt lat="40.05063976180478" lon="15.948546333288839"><ele>925.6666666666667</ele><time>2026-04-19T07:36:20.999Z</time></trkpt><trkpt lat="40.05069008479842" lon="15.948435578428262"><ele>926.5</ele><time>2026-04-19T07:36:22.999Z</time></trkpt><trkpt lat="40.050781776252705" lon="15.948396388274912"><ele>927.3333333333334</ele><time>2026-04-19T07:36:24.999Z</time></trkpt><trkpt lat="40.05083334542539" lon="15.948329973183535"><ele>928.1666666666667</ele><time>2026-04-19T07:36:26.999Z</time></trkpt><trkpt lat="40.050924882697736" lon="15.948281017215178"><ele>929.0</ele><time>2026-04-19T07:36:29.999Z</time></trkpt><trkpt lat="40.05100581414602" lon="15.948201922254102"><ele>926.4000000000001</ele><time>2026-04-19T07:36:31.999Z</time></trkpt><trkpt lat="40.05108730726572" lon="15.948116114150372"><ele>923.8000000000001</ele><time>2026-04-19T07:36:33.999Z</time></trkpt><trkpt lat="40.05110966043734" lon="15.947970412157645"><ele>921.1999999999999</ele><time>2026-04-19T07:36:36.999Z</time></trkpt><trkpt lat="40.0511024613503" lon="15.947876560298372"><ele>918.5999999999999</ele><time>2026-04-19T07:36:38.999Z</time></trkpt><trkpt lat="40.05116163192796" lon="15.94782934517458"><ele>916.0</ele><time>2026-04-19T07:36:41.999Z</time></trkpt><trkpt lat="40.05123535600932" lon="15.947915096287762"><ele>915.9999999999999</ele><time>2026-04-19T07:36:43.999Z</time></trkpt><trkpt lat="40.051291966873585" lon="15.947952813251026"><ele>916.0</ele><time>2026-04-19T07:36:45.999Z</time></trkpt><trkpt lat="40.05137089468708" lon="15.947891924767037"><ele>916.0</ele><time>2026-04-19T07:36:47.999Z</time></trkpt><trkpt lat="40.05142476891497" lon="15.947823118688522"><ele>916.0</ele><time>2026-04-19T07:36:48.999Z</time></trkpt><trkpt lat="40.051480972907086" lon="15.947758560086477"><ele>915.9999999999999</ele><time>2026-04-19T07:36:49.999Z</time></trkpt><trkpt lat="40.0515408858943" lon="15.947694380987887"><ele>916.0</ele><time>2026-04-19T07:36:50.999Z</time></trkpt><trkpt lat="40.05159807323794" lon="15.947646175175187"><ele>914.4</ele><time>2026-04-19T07:36:51.999Z</time></trkpt><trkpt lat="40.05165974409598" lon="15.947611996683822"><ele>912.8</ele><time>2026-04-19T07:36:52.999Z</time></trkpt><trkpt lat="40.05175740634976" lon="15.947499787375047"><ele>911.1999999999999</ele><time>2026-04-19T07:36:54.999Z</time></trkpt><trkpt lat="40.0518254167417" lon="15.947399949983103"><ele>909.5999999999999</ele><time>2026-04-19T07:36:55.999Z</time></trkpt><trkpt lat="40.0518914862187" lon="15.947324128828667"><ele>908.0</ele><time>2026-04-19T07:36:56.999Z</time></trkpt><trkpt lat="40.051943358623014" lon="15.947246419626417"><ele>906.1666666666667</ele><time>2026-04-19T07:36:57.999Z</time></trkpt><trkpt lat="40.05199069414311" lon="15.947138566880747"><ele>904.3333333333334</ele><time>2026-04-19T07:36:58.999Z</time></trkpt><trkpt lat="40.05203076138077" lon="15.947016037869126"><ele>902.5</ele><time>2026-04-19T07:36:59.999Z</time></trkpt><trkpt lat="40.052050168029744" lon="15.94691846587061"><ele>900.6666666666667</ele><time>2026-04-19T07:37:00.999Z</time></trkpt><trkpt lat="40.05206286948618" lon="15.946799381603325"><ele>898.8333333333334</ele><time>2026-04-19T07:37:02.999Z</time></trkpt><trkpt lat="40.052081282770445" lon="15.94670574157445"><ele>897.0</ele><time>2026-04-19T07:37:05.999Z</time></trkpt><trkpt lat="40.052202878422065" lon="15.946687179896484"><ele>896.0</ele><time>2026-04-19T07:38:10.999Z</time></trkpt><trkpt lat="40.05224551278728" lon="15.946586043865723"><ele>895.0</ele><time>2026-04-19T07:38:14.999Z</time></trkpt><trkpt lat="40.05233355346299" lon="15.946455333869176"><ele>894.0</ele><time>2026-04-19T07:38:16.999Z</time></trkpt><trkpt lat="40.05239259288005" lon="15.946383567852475"><ele>893.0</ele><time>2026-04-19T07:38:17.999Z</time></trkpt><trkpt lat="40.05241560718563" lon="15.94623944248735"><ele>892.0</ele><time>2026-04-19T07:38:19.999Z</time></trkpt><trkpt lat="40.0524537744844" lon="15.946164038153505"><ele>891.1428571428571</ele><time>2026-04-19T07:38:20.999Z</time></trkpt><trkpt lat="40.052495553123094" lon="15.946094075158728"><ele>890.2857142857142</ele><time>2026-04-19T07:38:21.999Z</time></trkpt><trkpt lat="40.05250862896827" lon="15.946010598213961"><ele>889.4285714285714</ele><time>2026-04-19T07:38:22.999Z</time></trkpt><trkpt lat="40.05252632056928" lon="15.945912201128644"><ele>888.5714285714286</ele><time>2026-04-19T07:38:24.999Z</time></trkpt><trkpt lat="40.05254537101807" lon="15.94580812346691"><ele>887.7142857142858</ele><time>2026-04-19T07:38:26.999Z</time></trkpt><trkpt lat="40.05258951390223" lon="15.945734687406098"><ele>886.8571428571429</ele><time>2026-04-19T07:38:28.999Z</time></trkpt><trkpt lat="40.052596732246066" lon="15.945648285089339"><ele>886.0</ele><time>2026-04-19T07:38:31.999Z</time></trkpt><trkpt lat="40.05261100937814" lon="15.94556321163514"><ele>884.4999999999999</ele><time>2026-04-19T07:38:38.999Z</time></trkpt><trkpt lat="40.052663109658006" lon="15.945498644165125"><ele>883.0</ele><time>2026-04-19T07:38:40.999Z</time></trkpt><trkpt lat="40.05268247805184" lon="15.945396771999704"><ele>881.5</ele><time>2026-04-19T07:38:43.999Z</time></trkpt><trkpt lat="40.05270276155826" lon="15.945292847333294"><ele>880.0</ele><time>2026-04-19T07:38:45.999Z</time></trkpt><trkpt lat="40.05275021666947" lon="15.945176257464773"><ele>878.4999999999999</ele><time>2026-04-19T07:38:47.999Z</time></trkpt><trkpt lat="40.052744889955946" lon="15.945094149839916"><ele>877.0</ele><time>2026-04-19T07:38:49.999Z</time></trkpt><trkpt lat="40.05276849046583" lon="15.944988534654884"><ele>875.4000000000001</ele><time>2026-04-19T07:38:52.999Z</time></trkpt><trkpt lat="40.05278673670081" lon="15.944874240463971"><ele>873.8000000000001</ele><time>2026-04-19T07:38:55.999Z</time></trkpt><trkpt lat="40.05284243410091" lon="15.944740739358124"><ele>872.2</ele><time>2026-04-19T07:38:57.999Z</time></trkpt><trkpt lat="40.052885748119586" lon="15.944652368055042"><ele>870.6</ele><time>2026-04-19T07:38:59.999Z</time></trkpt><trkpt lat="40.0529337411708" lon="15.944542216448644"><ele>869.0</ele><time>2026-04-19T07:39:01.999Z</time></trkpt><trkpt lat="40.05298155500114" lon="15.944461327710771"><ele>869.0000000000001</ele><time>2026-04-19T07:39:03.999Z</time></trkpt><trkpt lat="40.05299386056461" lon="15.944380184563725"><ele>869.0</ele><time>2026-04-19T07:39:05.999Z</time></trkpt><trkpt lat="40.05298333690305" lon="15.944266897788667"><ele>869.0</ele><time>2026-04-19T07:39:07.999Z</time></trkpt><trkpt lat="40.05295237904473" lon="15.94418140328567"><ele>869.0</ele><time>2026-04-19T07:39:09.999Z</time></trkpt><trkpt lat="40.05293462312948" lon="15.944038520462184"><ele>869.0000000000001</ele><time>2026-04-19T07:39:12.999Z</time></trkpt><trkpt lat="40.052938820749226" lon="15.94394303536803"><ele>869.0</ele><time>2026-04-19T07:39:15Z</time></trkpt><trkpt lat="40.0529756270297" lon="15.943818617806741"><ele>869.0</ele><time>2026-04-19T07:39:17Z</time></trkpt><trkpt lat="40.05299873226901" lon="15.943719571235249"><ele>869.0000000000001</ele><time>2026-04-19T07:39:19Z</time></trkpt><trkpt lat="40.05303971515917" lon="15.943582130331018"><ele>869.0000000000001</ele><time>2026-04-19T07:39:21Z</time></trkpt><trkpt lat="40.053072314170905" lon="15.943474493337115"><ele>869.0</ele><time>2026-04-19T07:39:23Z</time></trkpt><trkpt lat="40.053133814767115" lon="15.943366362459267"><ele>869.0</ele><time>2026-04-19T07:39:25Z</time></trkpt><trkpt lat="40.053251441881" lon="15.943294115040485"><ele>866.0000000000001</ele><time>2026-04-19T07:39:27Z</time></trkpt><trkpt lat="40.05330818543891" lon="15.943231859299987"><ele>863.0</ele><time>2026-04-19T07:39:28Z</time></trkpt><trkpt lat="40.05336148476465" lon="15.943164538891525"><ele>860.0</ele><time>2026-04-19T07:39:29Z</time></trkpt><trkpt lat="40.05341541161731" lon="15.943096519842964"><ele>857.0</ele><time>2026-04-19T07:39:30Z</time></trkpt><trkpt lat="40.05348847697416" lon="15.943033860022869"><ele>854.0000000000001</ele><time>2026-04-19T07:39:31Z</time></trkpt><trkpt lat="40.053585935566105" lon="15.942967284155554"><ele>851.0</ele><time>2026-04-19T07:39:32Z</time></trkpt><trkpt lat="40.053662653533316" lon="15.942907925738531"><ele>851.0</ele><time>2026-04-19T07:39:33Z</time></trkpt><trkpt lat="40.05372490596796" lon="15.942850567001498"><ele>851.0</ele><time>2026-04-19T07:39:34Z</time></trkpt><trkpt lat="40.05378455360646" lon="15.942788866955688"><ele>851.0</ele><time>2026-04-19T07:39:35Z</time></trkpt><trkpt lat="40.05384024641847" lon="15.94273352391652"><ele>851.0</ele><time>2026-04-19T07:39:36Z</time></trkpt><trkpt lat="40.05393752373344" lon="15.942627579290054"><ele>851.0</ele><time>2026-04-19T07:39:38Z</time></trkpt><trkpt lat="40.054004547511546" lon="15.94251067201833"><ele>852.25</ele><time>2026-04-19T07:39:40Z</time></trkpt><trkpt lat="40.05409290950525" lon="15.942409123205895"><ele>853.5</ele><time>2026-04-19T07:39:42Z</time></trkpt><trkpt lat="40.05412622747119" lon="15.942268991826722"><ele>854.75</ele><time>2026-04-19T07:39:44Z</time></trkpt><trkpt lat="40.054172677312806" lon="15.942120918907513"><ele>856.0</ele><time>2026-04-19T07:39:46Z</time></trkpt><trkpt lat="40.054273353729585" lon="15.942037004073233"><ele>853.4</ele><time>2026-04-19T07:39:48Z</time></trkpt><trkpt lat="40.05435895631071" lon="15.941983079950225"><ele>850.8</ele><time>2026-04-19T07:39:49Z</time></trkpt><trkpt lat="40.054434999922755" lon="15.941940481499564"><ele>848.1999999999999</ele><time>2026-04-19T07:39:50Z</time></trkpt><trkpt lat="40.05452419322539" lon="15.941901549129994"><ele>845.5999999999999</ele><time>2026-04-19T07:39:51Z</time></trkpt><trkpt lat="40.05462407227951" lon="15.941844060109897"><ele>843.0</ele><time>2026-04-19T07:39:52Z</time></trkpt><trkpt lat="40.05470118254543" lon="15.941787609989202"><ele>843.0</ele><time>2026-04-19T07:39:53Z</time></trkpt><trkpt lat="40.05477260299998" lon="15.941731923602557"><ele>843.0</ele><time>2026-04-19T07:39:54Z</time></trkpt><trkpt lat="40.054828575940725" lon="15.94168830051533"><ele>843.0</ele><time>2026-04-19T07:39:55Z</time></trkpt><trkpt lat="40.05487750280404" lon="15.941620268478992"><ele>843.0</ele><time>2026-04-19T07:39:56Z</time></trkpt><trkpt lat="40.05491215813163" lon="15.941526748013098"><ele>843.0</ele><time>2026-04-19T07:39:57Z</time></trkpt><trkpt lat="40.0549445909781" lon="15.941439330222812"><ele>843.0</ele><time>2026-04-19T07:39:58Z</time></trkpt><trkpt lat="40.05498765903576" lon="15.941372363500493"><ele>843.0</ele><time>2026-04-19T07:39:59Z</time></trkpt><trkpt lat="40.055033620930644" lon="15.941310750514903"><ele>842.8</ele><time>2026-04-19T07:40:00Z</time></trkpt><trkpt lat="40.05512975773807" lon="15.941223012454644"><ele>842.5999999999999</ele><time>2026-04-19T07:40:02Z</time></trkpt><trkpt lat="40.05519917683388" lon="15.941219345407061"><ele>842.4000000000001</ele><time>2026-04-19T07:40:03Z</time></trkpt><trkpt lat="40.05527598605661" lon="15.94120727790935"><ele>842.2</ele><time>2026-04-19T07:40:04Z</time></trkpt><trkpt lat="40.05533064824699" lon="15.941162000255284"><ele>842.0</ele><time>2026-04-19T07:40:05Z</time></trkpt><trkpt lat="40.05543702221171" lon="15.941070291756963"><ele>842.0000000000001</ele><time>2026-04-19T07:40:07Z</time></trkpt><trkpt lat="40.05550646052354" lon="15.94098560254956"><ele>842.0</ele><time>2026-04-19T07:40:08Z</time></trkpt><trkpt lat="40.0555572905253" lon="15.94091163610058"><ele>842.0</ele><time>2026-04-19T07:40:09Z</time></trkpt><trkpt lat="40.05560577576676" lon="15.94083666459643"><ele>842.0</ele><time>2026-04-19T07:40:10Z</time></trkpt><trkpt lat="40.055659771364894" lon="15.94076287633374"><ele>842.0000000000001</ele><time>2026-04-19T07:40:11Z</time></trkpt><trkpt lat="40.05569961860894" lon="15.94068884750215"><ele>842.0</ele><time>2026-04-19T07:40:12Z</time></trkpt><trkpt lat="40.05576247271339" lon="15.940579428325602"><ele>838.8</ele><time>2026-04-19T07:40:14Z</time></trkpt><trkpt lat="40.05581730341348" lon="15.94052204618079"><ele>835.6</ele><time>2026-04-19T07:40:15Z</time></trkpt><trkpt lat="40.05590560103507" lon="15.940438000805612"><ele>832.4</ele><time>2026-04-19T07:40:16.999Z</time></trkpt><trkpt lat="40.05595549001291" lon="15.940367632359292"><ele>829.1999999999999</ele><time>2026-04-19T07:40:18.999Z</time></trkpt><trkpt lat="40.05599377884746" lon="15.940252148901857"><ele>826.0</ele><time>2026-04-19T07:40:20.999Z</time></trkpt><trkpt lat="40.05600292417368" lon="15.940108391586328"><ele>824.75</ele><time>2026-04-19T07:40:22.999Z</time></trkpt><trkpt lat="40.05602792479856" lon="15.939942802781811"><ele>823.5</ele><time>2026-04-19T07:40:24.999Z</time></trkpt><trkpt lat="40.056046215841754" lon="15.939793491400943"><ele>822.25</ele><time>2026-04-19T07:40:25.999Z</time></trkpt><trkpt lat="40.05606652132432" lon="15.939612196679235"><ele>821.0</ele><time>2026-04-19T07:40:26.999Z</time></trkpt><trkpt lat="40.05610497313698" lon="15.93943993411327"><ele>821.0</ele><time>2026-04-19T07:40:27.999Z</time></trkpt><trkpt lat="40.056159404943614" lon="15.939293583291967"><ele>821.0</ele><time>2026-04-19T07:40:28.999Z</time></trkpt><trkpt lat="40.05623170752237" lon="15.939176800060327"><ele>821.0</ele><time>2026-04-19T07:40:29.999Z</time></trkpt><trkpt lat="40.056320992481766" lon="15.939114906191751"><ele>821.0</ele><time>2026-04-19T07:40:30.999Z</time></trkpt><trkpt lat="40.056419965653596" lon="15.93907651654521"><ele>821.0</ele><time>2026-04-19T07:40:31.999Z</time></trkpt><trkpt lat="40.05651318706591" lon="15.939155123674709"><ele>820.75</ele><time>2026-04-19T07:40:32.999Z</time></trkpt><trkpt lat="40.0566297243113" lon="15.939179268646852"><ele>820.5</ele><time>2026-04-19T07:40:33.999Z</time></trkpt><trkpt lat="40.05677307921256" lon="15.939184284144092"><ele>820.25</ele><time>2026-04-19T07:40:34.999Z</time></trkpt><trkpt lat="40.05690101310586" lon="15.939126869939933"><ele>820.0</ele><time>2026-04-19T07:40:35.999Z</time></trkpt><trkpt lat="40.05702636892121" lon="15.939046927647306"><ele>820.0</ele><time>2026-04-19T07:40:36.999Z</time></trkpt><trkpt lat="40.05713599231012" lon="15.939000567377866"><ele>820.0</ele><time>2026-04-19T07:40:37.999Z</time></trkpt><trkpt lat="40.05725274180644" lon="15.9390327707989"><ele>820.0</ele><time>2026-04-19T07:40:38.999Z</time></trkpt><trkpt lat="40.05736936095205" lon="15.93905344246489"><ele>820.0</ele><time>2026-04-19T07:40:39.999Z</time></trkpt><trkpt lat="40.057467209058466" lon="15.939109007308382"><ele>821.5</ele><time>2026-04-19T07:40:40.999Z</time></trkpt><trkpt lat="40.05755448916478" lon="15.939142385034975"><ele>823.0</ele><time>2026-04-19T07:40:41.999Z</time></trkpt><trkpt lat="40.057620729361105" lon="15.939170828670589"><ele>824.5</ele><time>2026-04-19T07:40:42.999Z</time></trkpt><trkpt lat="40.05770466624559" lon="15.939209800762555"><ele>826.0</ele><time>2026-04-19T07:40:44.999Z</time></trkpt><trkpt lat="40.05780065216884" lon="15.938952302148877"><ele>826.0</ele><time>2026-04-19T07:40:46.999Z</time></trkpt><trkpt lat="40.057859246432834" lon="15.938817094642426"><ele>826.0</ele><time>2026-04-19T07:40:47.999Z</time></trkpt><trkpt lat="40.05791417560139" lon="15.938719504080199"><ele>826.0</ele><time>2026-04-19T07:40:48.999Z</time></trkpt><trkpt lat="40.05797749211948" lon="15.938638109069323"><ele>826.0</ele><time>2026-04-19T07:40:49.999Z</time></trkpt><trkpt lat="40.05803476136351" lon="15.938557307515127"><ele>826.0</ele><time>2026-04-19T07:40:50.999Z</time></trkpt><trkpt lat="40.05808259484744" lon="15.938489681067233"><ele>825.9999999999999</ele><time>2026-04-19T07:40:51.999Z</time></trkpt><trkpt lat="40.058135946131536" lon="15.938413398916918"><ele>826.0</ele><time>2026-04-19T07:40:52.999Z</time></trkpt><trkpt lat="40.05817750291505" lon="15.938340747989796"><ele>826.0</ele><time>2026-04-19T07:40:53.999Z</time></trkpt><trkpt lat="40.058182057757776" lon="15.93821962354599"><ele>826.0</ele><time>2026-04-19T07:40:55.999Z</time></trkpt><trkpt lat="40.05818661757923" lon="15.938126478826053"><ele>825.9999999999999</ele><time>2026-04-19T07:40:56.999Z</time></trkpt><trkpt lat="40.058259431703874" lon="15.938026408195057"><ele>826.0</ele><time>2026-04-19T07:40:58.999Z</time></trkpt><trkpt lat="40.05832751992205" lon="15.937951868235192"><ele>827.3333333333333</ele><time>2026-04-19T07:40:59.999Z</time></trkpt><trkpt lat="40.058404237223456" lon="15.93789433281358"><ele>828.6666666666666</ele><time>2026-04-19T07:41:00.999Z</time></trkpt><trkpt lat="40.058483190261526" lon="15.937847634623889"><ele>830.0</ele><time>2026-04-19T07:41:01.999Z</time></trkpt><trkpt lat="40.0585511047266" lon="15.937826287775056"><ele>831.3333333333333</ele><time>2026-04-19T07:41:02.999Z</time></trkpt><trkpt lat="40.05862004736297" lon="15.937802654099361"><ele>832.6666666666666</ele><time>2026-04-19T07:41:03.999Z</time></trkpt><trkpt lat="40.05870017448268" lon="15.93771514244673"><ele>834.0</ele><time>2026-04-19T07:41:05.999Z</time></trkpt><trkpt lat="40.05877844262639" lon="15.937604774070214"><ele>835.8000000000001</ele><time>2026-04-19T07:41:07.999Z</time></trkpt><trkpt lat="40.05886350350505" lon="15.937499450234395"><ele>837.6</ele><time>2026-04-19T07:41:09.999Z</time></trkpt><trkpt lat="40.058923421419536" lon="15.937416216181125"><ele>839.4</ele><time>2026-04-19T07:41:10.999Z</time></trkpt><trkpt lat="40.058985955511154" lon="15.937342797409666"><ele>841.2</ele><time>2026-04-19T07:41:11.999Z</time></trkpt><trkpt lat="40.059050053659284" lon="15.937264981545448"><ele>843.0</ele><time>2026-04-19T07:41:12.999Z</time></trkpt><trkpt lat="40.05912379539506" lon="15.937168669220611"><ele>844.2</ele><time>2026-04-19T07:41:13.999Z</time></trkpt><trkpt lat="40.05919938191075" lon="15.937063253831832"><ele>845.4</ele><time>2026-04-19T07:41:14.999Z</time></trkpt><trkpt lat="40.059260669902855" lon="15.936968597308637"><ele>846.6</ele><time>2026-04-19T07:41:15.999Z</time></trkpt><trkpt lat="40.05931633276261" lon="15.936873901655048"><ele>847.8000000000001</ele><time>2026-04-19T07:41:16.999Z</time></trkpt><trkpt lat="40.05936791628769" lon="15.936803480693243"><ele>849.0</ele><time>2026-04-19T07:41:17.999Z</time></trkpt><trkpt lat="40.05942974378289" lon="15.936730820580545"><ele>850.1666666666666</ele><time>2026-04-19T07:41:18.999Z</time></trkpt><trkpt lat="40.059508207098816" lon="15.936660473633248"><ele>851.3333333333333</ele><time>2026-04-19T07:41:19.999Z</time></trkpt><trkpt lat="40.0595610231513" lon="15.936585527011333"><ele>852.5</ele><time>2026-04-19T07:41:21Z</time></trkpt><trkpt lat="40.059591930005446" lon="15.936493595038911"><ele>853.6666666666666</ele><time>2026-04-19T07:41:22Z</time></trkpt><trkpt lat="40.05960064858421" lon="15.936387949900208"><ele>854.8333333333333</ele><time>2026-04-19T07:41:23Z</time></trkpt><trkpt lat="40.0596101044197" lon="15.936306387467235"><ele>856.0</ele><time>2026-04-19T07:41:24Z</time></trkpt><trkpt lat="40.059675858912655" lon="15.936171341963767"><ele>856.0</ele><time>2026-04-19T07:41:26Z</time></trkpt><trkpt lat="40.05972277842899" lon="15.936105100959587"><ele>855.9999999999999</ele><time>2026-04-19T07:41:27Z</time></trkpt><trkpt lat="40.05983658363275" lon="15.936049088699718"><ele>855.9999999999999</ele><time>2026-04-19T07:41:29Z</time></trkpt><trkpt lat="40.059900179616506" lon="15.936013004146123"><ele>856.0</ele><time>2026-04-19T07:41:30Z</time></trkpt><trkpt lat="40.060021796014226" lon="15.935913953807999"><ele>856.0</ele><time>2026-04-19T07:41:32Z</time></trkpt><trkpt lat="40.06009722972807" lon="15.935844637659352"><ele>857.6666666666666</ele><time>2026-04-19T07:41:33Z</time></trkpt><trkpt lat="40.06015985068965" lon="15.935780882533644"><ele>859.3333333333333</ele><time>2026-04-19T07:41:34Z</time></trkpt><trkpt lat="40.06021430312952" lon="15.935733016728136"><ele>861.0</ele><time>2026-04-19T07:41:35Z</time></trkpt><trkpt lat="40.060261830745674" lon="15.93566685007269"><ele>862.6666666666667</ele><time>2026-04-19T07:41:36Z</time></trkpt><trkpt lat="40.060314720843536" lon="15.935595899003395"><ele>864.3333333333334</ele><time>2026-04-19T07:41:37Z</time></trkpt><trkpt lat="40.060386952535204" lon="15.935529653246737"><ele>866.0</ele><time>2026-04-19T07:41:38Z</time></trkpt><trkpt lat="40.060478897948265" lon="15.935425883340429"><ele>866.0</ele><time>2026-04-19T07:41:40Z</time></trkpt><trkpt lat="40.06053468172849" lon="15.935343325822977"><ele>865.9999999999999</ele><time>2026-04-19T07:41:41Z</time></trkpt><trkpt lat="40.060586658037415" lon="15.935212240964516"><ele>865.9999999999999</ele><time>2026-04-19T07:41:42Z</time></trkpt><trkpt lat="40.060640876653906" lon="15.935061615524935"><ele>866.0</ele><time>2026-04-19T07:41:43Z</time></trkpt><trkpt lat="40.06065405610312" lon="15.934903822976516"><ele>866.0</ele><time>2026-04-19T07:41:44Z</time></trkpt><trkpt lat="40.06065061997852" lon="15.934737830230581"><ele>868.0000000000001</ele><time>2026-04-19T07:41:45Z</time></trkpt><trkpt lat="40.06064699442393" lon="15.934585402068489"><ele>870.0</ele><time>2026-04-19T07:41:46Z</time></trkpt><trkpt lat="40.06065035431864" lon="15.934476255153958"><ele>872.0</ele><time>2026-04-19T07:41:47Z</time></trkpt><trkpt lat="40.060650781234074" lon="15.934367306006644"><ele>874.0</ele><time>2026-04-19T07:41:48Z</time></trkpt><trkpt lat="40.06063159162945" lon="15.934278637745098"><ele>876.0000000000001</ele><time>2026-04-19T07:41:49Z</time></trkpt><trkpt lat="40.06060222193315" lon="15.934189580284848"><ele>878.0</ele><time>2026-04-19T07:41:50Z</time></trkpt><trkpt lat="40.06058042206651" lon="15.934021708386766"><ele>880.0000000000001</ele><time>2026-04-19T07:41:52Z</time></trkpt><trkpt lat="40.060597286960984" lon="15.933918952311032"><ele>882.0</ele><time>2026-04-19T07:41:53Z</time></trkpt><trkpt lat="40.060586732730165" lon="15.933825032381796"><ele>884.0</ele><time>2026-04-19T07:41:54Z</time></trkpt><trkpt lat="40.060580051149515" lon="15.933722065864421"><ele>886.0</ele><time>2026-04-19T07:41:55Z</time></trkpt><trkpt lat="40.06055947137039" lon="15.933610278272095"><ele>888.0000000000001</ele><time>2026-04-19T07:41:56Z</time></trkpt><trkpt lat="40.06055314318795" lon="15.933478246519492"><ele>890.0</ele><time>2026-04-19T07:41:57Z</time></trkpt><trkpt lat="40.06056198442764" lon="15.933373495069821"><ele>891.5000000000001</ele><time>2026-04-19T07:41:58Z</time></trkpt><trkpt lat="40.06055755164342" lon="15.933289544846545"><ele>893.0</ele><time>2026-04-19T07:41:59Z</time></trkpt><trkpt lat="40.0605543471824" lon="15.933206068525534"><ele>894.5</ele><time>2026-04-19T07:42:00Z</time></trkpt><trkpt lat="40.060524757445464" lon="15.933045315907048"><ele>896.0</ele><time>2026-04-19T07:42:02Z</time></trkpt><trkpt lat="40.06049552618402" lon="15.932932959733781"><ele>897.5000000000001</ele><time>2026-04-19T07:42:03Z</time></trkpt><trkpt lat="40.06048041785183" lon="15.932830064563374"><ele>899.0</ele><time>2026-04-19T07:42:04Z</time></trkpt><trkpt lat="40.06041779608692" lon="15.93268528438842"><ele>899.0</ele><time>2026-04-19T07:42:06Z</time></trkpt><trkpt lat="40.06034895301182" lon="15.932601526459342"><ele>899.0000000000001</ele><time>2026-04-19T07:42:07Z</time></trkpt><trkpt lat="40.06027948492746" lon="15.932516998518222"><ele>899.0000000000001</ele><time>2026-04-19T07:42:08Z</time></trkpt><trkpt lat="40.06019983266596" lon="15.93242380107008"><ele>899.0</ele><time>2026-04-19T07:42:09Z</time></trkpt><trkpt lat="40.0601236575826" lon="15.932345512229977"><ele>899.0</ele><time>2026-04-19T07:42:10Z</time></trkpt><trkpt lat="40.06005635021551" lon="15.93228589225644"><ele>898.1666666666667</ele><time>2026-04-19T07:42:11Z</time></trkpt><trkpt lat="40.05999557084539" lon="15.932248601081854"><ele>897.3333333333334</ele><time>2026-04-19T07:42:12Z</time></trkpt><trkpt lat="40.05990123997869" lon="15.932190427527635"><ele>896.5</ele><time>2026-04-19T07:42:14Z</time></trkpt><trkpt lat="40.05984812026577" lon="15.932109896782196"><ele>895.6666666666667</ele><time>2026-04-19T07:42:17Z</time></trkpt><trkpt lat="40.05980642305841" lon="15.932046086141803"><ele>894.8333333333334</ele><time>2026-04-19T07:42:20Z</time></trkpt><trkpt lat="40.059740239904336" lon="15.931983078332147"><ele>894.0</ele><time>2026-04-19T07:42:40.999Z</time></trkpt><trkpt lat="40.059696735797665" lon="15.931915962384863"><ele>894.0</ele><time>2026-04-19T07:42:45.999Z</time></trkpt><trkpt lat="40.05961334751449" lon="15.931836513237267"><ele>894.0000000000001</ele><time>2026-04-19T07:42:48.999Z</time></trkpt><trkpt lat="40.05952956105892" lon="15.931734014343183"><ele>894.0000000000001</ele><time>2026-04-19T07:42:50.999Z</time></trkpt><trkpt lat="40.05946375636843" lon="15.931674802581187"><ele>894.0</ele><time>2026-04-19T07:42:51.999Z</time></trkpt><trkpt lat="40.05938664653213" lon="15.93161288697673"><ele>894.0</ele><time>2026-04-19T07:42:52.999Z</time></trkpt><trkpt lat="40.05930088863087" lon="15.931549896833507"><ele>896.3333333333334</ele><time>2026-04-19T07:42:53.999Z</time></trkpt><trkpt lat="40.059214872359945" lon="15.93150283144438"><ele>898.6666666666667</ele><time>2026-04-19T07:42:54.999Z</time></trkpt><trkpt lat="40.059130507036315" lon="15.931473859063058"><ele>901.0</ele><time>2026-04-19T07:42:55.999Z</time></trkpt><trkpt lat="40.059057480252896" lon="15.93145032519512"><ele>903.3333333333334</ele><time>2026-04-19T07:42:56.999Z</time></trkpt><trkpt lat="40.05899394634066" lon="15.931420260898555"><ele>905.6666666666667</ele><time>2026-04-19T07:42:57.999Z</time></trkpt><trkpt lat="40.058937026266584" lon="15.931378593966022"><ele>908.0</ele><time>2026-04-19T07:42:58.999Z</time></trkpt><trkpt lat="40.05888305767357" lon="15.93131519126077"><ele>908.0</ele><time>2026-04-19T07:42:59.999Z</time></trkpt><trkpt lat="40.058839946693396" lon="15.931239427735195"><ele>908.0</ele><time>2026-04-19T07:43:00.999Z</time></trkpt><trkpt lat="40.058820933684565" lon="15.931139349683738"><ele>908.0</ele><time>2026-04-19T07:43:01.999Z</time></trkpt><trkpt lat="40.058813587270315" lon="15.931026244953316"><ele>908.0</ele><time>2026-04-19T07:43:02.999Z</time></trkpt><trkpt lat="40.058807617625696" lon="15.930882457393317"><ele>908.0</ele><time>2026-04-19T07:43:03.999Z</time></trkpt><trkpt lat="40.05877285330235" lon="15.930750630163702"><ele>909.6666666666667</ele><time>2026-04-19T07:43:04.999Z</time></trkpt><trkpt lat="40.05874796277577" lon="15.930632098151168"><ele>911.3333333333334</ele><time>2026-04-19T07:43:05.999Z</time></trkpt><trkpt lat="40.058746203991994" lon="15.930508604089416"><ele>913.0</ele><time>2026-04-19T07:43:06.999Z</time></trkpt><trkpt lat="40.05875651054304" lon="15.930391645133138"><ele>914.6666666666667</ele><time>2026-04-19T07:43:07.999Z</time></trkpt><trkpt lat="40.05875426813392" lon="15.930299302370672"><ele>916.3333333333334</ele><time>2026-04-19T07:43:08.999Z</time></trkpt><trkpt lat="40.05871662478633" lon="15.930213668279519"><ele>918.0</ele><time>2026-04-19T07:43:09.999Z</time></trkpt><trkpt lat="40.05867421883074" lon="15.93011543567097"><ele>919.1666666666666</ele><time>2026-04-19T07:43:10.999Z</time></trkpt><trkpt lat="40.058650412510204" lon="15.929980481826913"><ele>920.3333333333333</ele><time>2026-04-19T07:43:11.999Z</time></trkpt><trkpt lat="40.05863955631729" lon="15.929882385830238"><ele>921.5</ele><time>2026-04-19T07:43:12.999Z</time></trkpt><trkpt lat="40.058633535298675" lon="15.929776130254458"><ele>922.6666666666666</ele><time>2026-04-19T07:43:13.999Z</time></trkpt><trkpt lat="40.058627125751045" lon="15.929673732251684"><ele>923.8333333333333</ele><time>2026-04-19T07:43:14.999Z</time></trkpt><trkpt lat="40.05860210384797" lon="15.929557812473325"><ele>925.0</ele><time>2026-04-19T07:43:15.999Z</time></trkpt><trkpt lat="40.05857300947976" lon="15.929433179571273"><ele>924.9999999999999</ele><time>2026-04-19T07:43:16.999Z</time></trkpt><trkpt lat="40.058543993924424" lon="15.929313384060707"><ele>925.0</ele><time>2026-04-19T07:43:17.999Z</time></trkpt><trkpt lat="40.058523355567175" lon="15.929212455209223"><ele>925.0</ele><time>2026-04-19T07:43:18.999Z</time></trkpt><trkpt lat="40.058510895064806" lon="15.929105375694004"><ele>925.0</ele><time>2026-04-19T07:43:19.999Z</time></trkpt><trkpt lat="40.0585147183689" lon="15.928979922411072"><ele>924.9999999999999</ele><time>2026-04-19T07:43:20.999Z</time></trkpt><trkpt lat="40.058528498494894" lon="15.928861679381649"><ele>925.0</ele><time>2026-04-19T07:43:21.999Z</time></trkpt><trkpt lat="40.05854004627525" lon="15.92875522641216"><ele>926.8</ele><time>2026-04-19T07:43:22.999Z</time></trkpt><trkpt lat="40.05852523525439" lon="15.928638343574802"><ele>928.6</ele><time>2026-04-19T07:43:23.999Z</time></trkpt><trkpt lat="40.05850789158807" lon="15.92851256776904"><ele>930.4000000000001</ele><time>2026-04-19T07:43:24.999Z</time></trkpt><trkpt lat="40.05849847925305" lon="15.928384310163267"><ele>932.2</ele><time>2026-04-19T07:43:25.999Z</time></trkpt><trkpt lat="40.05849184682337" lon="15.928266229092856"><ele>934.0</ele><time>2026-04-19T07:43:27Z</time></trkpt><trkpt lat="40.05848977551531" lon="15.928158063834243"><ele>935.3333333333333</ele><time>2026-04-19T07:43:28Z</time></trkpt><trkpt lat="40.05848906696891" lon="15.928047625176992"><ele>936.6666666666666</ele><time>2026-04-19T07:43:29Z</time></trkpt><trkpt lat="40.05848717251406" lon="15.927936310889324"><ele>938.0</ele><time>2026-04-19T07:43:30Z</time></trkpt><trkpt lat="40.0584904707209" lon="15.92783124562881"><ele>939.3333333333333</ele><time>2026-04-19T07:43:31Z</time></trkpt><trkpt lat="40.058496000488475" lon="15.927723240343324"><ele>940.6666666666666</ele><time>2026-04-19T07:43:32Z</time></trkpt><trkpt lat="40.05849477193384" lon="15.927604940910753"><ele>942.0</ele><time>2026-04-19T07:43:33Z</time></trkpt><trkpt lat="40.05849659910444" lon="15.927479338326362"><ele>943.5</ele><time>2026-04-19T07:43:34Z</time></trkpt><trkpt lat="40.05849164198239" lon="15.927374074630277"><ele>945.0</ele><time>2026-04-19T07:43:35Z</time></trkpt><trkpt lat="40.05850767339801" lon="15.927270476225186"><ele>946.5</ele><time>2026-04-19T07:43:37Z</time></trkpt><trkpt lat="40.058538756043205" lon="15.92717551635919"><ele>948.0</ele><time>2026-04-19T07:43:39Z</time></trkpt><trkpt lat="40.05859178304631" lon="15.927044644573723"><ele>949.5</ele><time>2026-04-19T07:43:41Z</time></trkpt><trkpt lat="40.05863186894834" lon="15.926942454482091"><ele>951.0</ele><time>2026-04-19T07:43:43Z</time></trkpt><trkpt lat="40.05863884313135" lon="15.92685887306559"><ele>951.0</ele><time>2026-04-19T07:43:44Z</time></trkpt><trkpt lat="40.0586223393055" lon="15.926742946534887"><ele>950.9999999999999</ele><time>2026-04-19T07:43:46Z</time></trkpt><trkpt lat="40.05862916370362" lon="15.926628388730702"><ele>950.9999999999999</ele><time>2026-04-19T07:43:49Z</time></trkpt><trkpt lat="40.05873267784448" lon="15.926421736500314"><ele>951.0</ele><time>2026-04-19T07:43:50Z</time></trkpt><trkpt lat="40.058742473694856" lon="15.926331165698342"><ele>951.0</ele><time>2026-04-19T07:43:51Z</time></trkpt><trkpt lat="40.05875485446215" lon="15.926239806991875"><ele>952.1666666666666</ele><time>2026-04-19T07:43:52Z</time></trkpt><trkpt lat="40.058767913441855" lon="15.926139131971638"><ele>953.3333333333333</ele><time>2026-04-19T07:43:53Z</time></trkpt><trkpt lat="40.05877702822466" lon="15.926033007941786"><ele>954.5</ele><time>2026-04-19T07:43:54Z</time></trkpt><trkpt lat="40.058779191963" lon="15.925928590067535"><ele>955.6666666666666</ele><time>2026-04-19T07:43:55Z</time></trkpt><trkpt lat="40.05875779783946" lon="15.925823140299235"><ele>956.8333333333333</ele><time>2026-04-19T07:43:56Z</time></trkpt><trkpt lat="40.058767287447246" lon="15.925706699250968"><ele>958.0</ele><time>2026-04-19T07:43:57Z</time></trkpt><trkpt lat="40.058786590945516" lon="15.925567067296955"><ele>959.8333333333333</ele><time>2026-04-19T07:43:58Z</time></trkpt><trkpt lat="40.05879771947705" lon="15.925452636058484"><ele>961.6666666666666</ele><time>2026-04-19T07:43:59Z</time></trkpt><trkpt lat="40.05882394499275" lon="15.925346924074224"><ele>963.5</ele><time>2026-04-19T07:44:00Z</time></trkpt><trkpt lat="40.058850339517" lon="15.925267360303405"><ele>965.3333333333333</ele><time>2026-04-19T07:44:01Z</time></trkpt><trkpt lat="40.05887450069351" lon="15.925121196539354"><ele>967.1666666666666</ele><time>2026-04-19T07:44:03Z</time></trkpt><trkpt lat="40.05890819715795" lon="15.925042940913748"><ele>969.0</ele><time>2026-04-19T07:44:04Z</time></trkpt><trkpt lat="40.05892205935705" lon="15.924942870925399"><ele>970.7142857142856</ele><time>2026-04-19T07:44:05Z</time></trkpt><trkpt lat="40.058957413544135" lon="15.924843243117886"><ele>972.4285714285713</ele><time>2026-04-19T07:44:06Z</time></trkpt><trkpt lat="40.05899694912791" lon="15.924765992948947"><ele>974.1428571428571</ele><time>2026-04-19T07:44:07Z</time></trkpt><trkpt lat="40.059039861772874" lon="15.924681931587408"><ele>975.8571428571428</ele><time>2026-04-19T07:44:08Z</time></trkpt><trkpt lat="40.05908620750039" lon="15.924620097476394"><ele>977.5714285714284</ele><time>2026-04-19T07:44:09Z</time></trkpt><trkpt lat="40.05913336400444" lon="15.92456512708282"><ele>979.2857142857143</ele><time>2026-04-19T07:44:11Z</time></trkpt><trkpt lat="40.05918394452253" lon="15.924631880765464"><ele>981.0</ele><time>2026-04-19T07:44:12Z</time></trkpt><trkpt lat="40.05925199889183" lon="15.92465180244371"><ele>981.5999999999999</ele><time>2026-04-19T07:44:13Z</time></trkpt><trkpt lat="40.05935293632276" lon="15.924530837504498"><ele>982.1999999999999</ele><time>2026-04-19T07:44:15Z</time></trkpt><trkpt lat="40.05940045443408" lon="15.924424209971386"><ele>982.8000000000001</ele><time>2026-04-19T07:44:16Z</time></trkpt><trkpt lat="40.05943428485043" lon="15.924310343067043"><ele>983.4000000000001</ele><time>2026-04-19T07:44:17Z</time></trkpt><trkpt lat="40.05947142708438" lon="15.924205178568226"><ele>984.0</ele><time>2026-04-19T07:44:18Z</time></trkpt><trkpt lat="40.05952278644589" lon="15.924122998174267"><ele>985.2</ele><time>2026-04-19T07:44:19Z</time></trkpt><trkpt lat="40.05956649775325" lon="15.924029792958917"><ele>986.4000000000001</ele><time>2026-04-19T07:44:20Z</time></trkpt><trkpt lat="40.05958596150589" lon="15.923938375769296"><ele>987.6</ele><time>2026-04-19T07:44:21Z</time></trkpt><trkpt lat="40.05961647818722" lon="15.923777134289498"><ele>988.8</ele><time>2026-04-19T07:44:23Z</time></trkpt><trkpt lat="40.059638723554315" lon="15.923630585209528"><ele>990.0</ele><time>2026-04-19T07:44:25Z</time></trkpt><trkpt lat="40.059752287408735" lon="15.923516582021199"><ele>990.0</ele><time>2026-04-19T07:44:27Z</time></trkpt><trkpt lat="40.05981382546349" lon="15.923450651914772"><ele>990.0</ele><time>2026-04-19T07:44:27.999Z</time></trkpt><trkpt lat="40.059865971013245" lon="15.923398599252751"><ele>990.0</ele><time>2026-04-19T07:44:28.999Z</time></trkpt><trkpt lat="40.05994464176565" lon="15.9232747872269"><ele>990.0</ele><time>2026-04-19T07:44:30.999Z</time></trkpt><trkpt lat="40.060036566381484" lon="15.923206904620969"><ele>990.0</ele><time>2026-04-19T07:44:32.999Z</time></trkpt><trkpt lat="40.06004269983217" lon="15.923052079552773"><ele>993.0</ele><time>2026-04-19T07:44:34.999Z</time></trkpt><trkpt lat="40.0600542120066" lon="15.922941057276939"><ele>996.0</ele><time>2026-04-19T07:44:35.999Z</time></trkpt><trkpt lat="40.06005778538864" lon="15.922841735136965"><ele>999.0</ele><time>2026-04-19T07:44:36.999Z</time></trkpt><trkpt lat="40.06005058149136" lon="15.922746818961588"><ele>1002.0</ele><time>2026-04-19T07:44:37.999Z</time></trkpt><trkpt lat="40.06004288656587" lon="15.922653412503312"><ele>1005.0</ele><time>2026-04-19T07:44:38.999Z</time></trkpt><trkpt lat="40.06001310317298" lon="15.92251877954012"><ele>1008.0</ele><time>2026-04-19T07:44:40.999Z</time></trkpt><trkpt lat="40.05998723449729" lon="15.922352506897978"><ele>1011.5</ele><time>2026-04-19T07:44:42.999Z</time></trkpt><trkpt lat="40.059987888086205" lon="15.922195112133185"><ele>1015.0</ele><time>2026-04-19T07:44:44.999Z</time></trkpt><trkpt lat="40.060017001484" lon="15.9220658797624"><ele>1018.5</ele><time>2026-04-19T07:44:46.999Z</time></trkpt><trkpt lat="40.06003415426876" lon="15.921942725641948"><ele>1022.0</ele><time>2026-04-19T07:44:48.999Z</time></trkpt><trkpt lat="40.06009615675661" lon="15.921783619349982"><ele>1022.0</ele><time>2026-04-19T07:44:50.999Z</time></trkpt><trkpt lat="40.06014978593575" lon="15.921689038838384"><ele>1039.0</ele><time>2026-04-19T07:44:52.999Z</time></trkpt></trkseg><trkseg><trkpt lat="40.060171216312234" lon="15.921553896992592"><ele>1039.0</ele><time>2026-04-19T08:09:23.999Z</time></trkpt><trkpt lat="40.06018293704147" lon="15.921457692501521"><ele>1039.0</ele><time>2026-04-19T08:09:25.999Z</time></trkpt><trkpt lat="40.060236057858766" lon="15.921357928135125"><ele>1039.0</ele><time>2026-04-19T08:09:28.999Z</time></trkpt><trkpt lat="40.06029222660861" lon="15.921278128254682"><ele>1039.0</ele><time>2026-04-19T08:09:30.999Z</time></trkpt><trkpt lat="40.06034777902382" lon="15.921204660993851"><ele>1039.0</ele><time>2026-04-19T08:09:33.999Z</time></trkpt><trkpt lat="40.06043261787121" lon="15.921206939209382"><ele>1039.0</ele><time>2026-04-19T08:09:35.999Z</time></trkpt><trkpt lat="40.06046305861071" lon="15.92109877622122"><ele>1039.0</ele><time>2026-04-19T08:09:37.999Z</time></trkpt><trkpt lat="40.06053891468319" lon="15.921015660234549"><ele>1039.0</ele><time>2026-04-19T08:09:39.999Z</time></trkpt><trkpt lat="40.06059849933866" lon="15.920967272074103"><ele>1039.0</ele><time>2026-04-19T08:09:41.999Z</time></trkpt><trkpt lat="40.06067132525896" lon="15.92089446513612"><ele>1039.0</ele><time>2026-04-19T08:09:43.999Z</time></trkpt><trkpt lat="40.06072226065364" lon="15.920843992373856"><ele>1039.0</ele><time>2026-04-19T08:09:44.999Z</time></trkpt><trkpt lat="40.06080215787169" lon="15.920807580313113"><ele>1039.0</ele><time>2026-04-19T08:09:45.999Z</time></trkpt><trkpt lat="40.06087582616653" lon="15.920773571765102"><ele>1034.3333333333333</ele><time>2026-04-19T08:09:46.999Z</time></trkpt><trkpt lat="40.06093609091568" lon="15.920735604279884"><ele>1029.6666666666665</ele><time>2026-04-19T08:09:47.999Z</time></trkpt><trkpt lat="40.06099068010955" lon="15.920678798691304"><ele>1025.0</ele><time>2026-04-19T08:09:48.999Z</time></trkpt><trkpt lat="40.06106264515164" lon="15.920639793299067"><ele>1020.3333333333333</ele><time>2026-04-19T08:09:50.999Z</time></trkpt><trkpt lat="40.06113745830631" lon="15.920675249893208"><ele>1015.6666666666666</ele><time>2026-04-19T08:09:52.999Z</time></trkpt><trkpt lat="40.06120418039365" lon="15.920600329524872"><ele>1011.0</ele><time>2026-04-19T08:09:54.999Z</time></trkpt><trkpt lat="40.06122829107845" lon="15.920454555801237"><ele>1011.0</ele><time>2026-04-19T08:09:56.999Z</time></trkpt><trkpt lat="40.06129474525176" lon="15.920401901292221"><ele>1011.0</ele><time>2026-04-19T08:09:58.999Z</time></trkpt><trkpt lat="40.061405506794706" lon="15.920452585255525"><ele>1011.0</ele><time>2026-04-19T08:10:00.999Z</time></trkpt><trkpt lat="40.061487245892486" lon="15.920422777563333"><ele>1011.0</ele><time>2026-04-19T08:10:03Z</time></trkpt><trkpt lat="40.06155415253738" lon="15.920334101580673"><ele>1011.0</ele><time>2026-04-19T08:10:04Z</time></trkpt><trkpt lat="40.061604774965645" lon="15.920269130372011"><ele>1011.0</ele><time>2026-04-19T08:10:05Z</time></trkpt><trkpt lat="40.061677695435044" lon="15.92026796074603"><ele>1009.3333333333334</ele><time>2026-04-19T08:10:07Z</time></trkpt><trkpt lat="40.06175370662204" lon="15.920355644765944"><ele>1007.6666666666667</ele><time>2026-04-19T08:10:09Z</time></trkpt><trkpt lat="40.06177174044276" lon="15.920437634992023"><ele>1006.0</ele><time>2026-04-19T08:10:10Z</time></trkpt><trkpt lat="40.06180514338813" lon="15.920547147456023"><ele>1004.3333333333334</ele><time>2026-04-19T08:10:12Z</time></trkpt><trkpt lat="40.06189593166791" lon="15.920614023493332"><ele>1002.6666666666667</ele><time>2026-04-19T08:10:14Z</time></trkpt><trkpt lat="40.06194892559807" lon="15.920690220271876"><ele>1001.0</ele><time>2026-04-19T08:10:15Z</time></trkpt><trkpt lat="40.06200235370482" lon="15.920735853659263"><ele>1001.0</ele><time>2026-04-19T08:10:16Z</time></trkpt><trkpt lat="40.062129220509554" lon="15.92080390630646"><ele>1000.9999999999999</ele><time>2026-04-19T08:10:18Z</time></trkpt><trkpt lat="40.0621983999435" lon="15.92085794972605"><ele>1000.9999999999999</ele><time>2026-04-19T08:10:19Z</time></trkpt><trkpt lat="40.06226310443662" lon="15.920882064686202"><ele>1001.0</ele><time>2026-04-19T08:10:20Z</time></trkpt><trkpt lat="40.062366401947855" lon="15.920871962987977"><ele>1001.0</ele><time>2026-04-19T08:10:22Z</time></trkpt><trkpt lat="40.06243520237716" lon="15.920827925374367"><ele>999.0</ele><time>2026-04-19T08:10:23Z</time></trkpt><trkpt lat="40.06253722646759" lon="15.920834947757896"><ele>996.9999999999999</ele><time>2026-04-19T08:10:25Z</time></trkpt><trkpt lat="40.062614827715" lon="15.920922986608694"><ele>994.9999999999999</ele><time>2026-04-19T08:10:27Z</time></trkpt><trkpt lat="40.06269699087161" lon="15.921013614071788"><ele>993.0</ele><time>2026-04-19T08:10:29Z</time></trkpt><trkpt lat="40.06276060093404" lon="15.921030188975326"><ele>991.0</ele><time>2026-04-19T08:10:30Z</time></trkpt><trkpt lat="40.0628412595011" lon="15.920995173213134"><ele>990.9999999999999</ele><time>2026-04-19T08:10:32Z</time></trkpt><trkpt lat="40.06293623393711" lon="15.92098385801321"><ele>991.0</ele><time>2026-04-19T08:10:34Z</time></trkpt><trkpt lat="40.06298258793018" lon="15.920910098803533"><ele>991.0</ele><time>2026-04-19T08:10:36Z</time></trkpt><trkpt lat="40.06298949988512" lon="15.920732810300558"><ele>991.0</ele><time>2026-04-19T08:10:39Z</time></trkpt><trkpt lat="40.06299741416546" lon="15.920638484369173"><ele>990.9999999999999</ele><time>2026-04-19T08:10:40Z</time></trkpt><trkpt lat="40.06298977362407" lon="15.920547726565179"><ele>991.0</ele><time>2026-04-19T08:10:41Z</time></trkpt><trkpt lat="40.063023002178284" lon="15.920470126394992"><ele>990.8</ele><time>2026-04-19T08:10:44Z</time></trkpt><trkpt lat="40.063074180106526" lon="15.920418951307907"><ele>990.5999999999999</ele><time>2026-04-19T08:10:46Z</time></trkpt><trkpt lat="40.06317403939891" lon="15.9203366046285"><ele>990.4</ele><time>2026-04-19T08:10:48Z</time></trkpt><trkpt lat="40.06328140565683" lon="15.920377280927926"><ele>990.2</ele><time>2026-04-19T08:10:50Z</time></trkpt><trkpt lat="40.063338943421215" lon="15.920444202397974"><ele>990.0</ele><time>2026-04-19T08:10:51Z</time></trkpt><trkpt lat="40.063425455667144" lon="15.920511091771658"><ele>987.0</ele><time>2026-04-19T08:10:53Z</time></trkpt><trkpt lat="40.06353803643764" lon="15.920524320666408"><ele>984.0</ele><time>2026-04-19T08:10:55Z</time></trkpt><trkpt lat="40.06358868085467" lon="15.920466061857429"><ele>981.0</ele><time>2026-04-19T08:10:56Z</time></trkpt><trkpt lat="40.06364327199644" lon="15.920389123313637"><ele>978.0</ele><time>2026-04-19T08:10:57Z</time></trkpt><trkpt lat="40.06368931020644" lon="15.92030102905472"><ele>975.0</ele><time>2026-04-19T08:10:58Z</time></trkpt><trkpt lat="40.06371803575652" lon="15.920137898514112"><ele>974.8</ele><time>2026-04-19T08:11:00Z</time></trkpt><trkpt lat="40.063703859941825" lon="15.920008805983528"><ele>974.6</ele><time>2026-04-19T08:11:01Z</time></trkpt><trkpt lat="40.063681204046375" lon="15.919899375437621"><ele>974.4000000000001</ele><time>2026-04-19T08:11:02Z</time></trkpt><trkpt lat="40.063663497064816" lon="15.919726076755264"><ele>974.2</ele><time>2026-04-19T08:11:04Z</time></trkpt><trkpt lat="40.06368138843839" lon="15.919617796294714"><ele>974.0</ele><time>2026-04-19T08:11:05Z</time></trkpt><trkpt lat="40.06365145406583" lon="15.919506266923989"><ele>974.0</ele><time>2026-04-19T08:11:06.999Z</time></trkpt><trkpt lat="40.063584950337265" lon="15.919422547268207"><ele>974.0000000000001</ele><time>2026-04-19T08:11:07.999Z</time></trkpt><trkpt lat="40.063523050131835" lon="15.919346620705019"><ele>974.0000000000001</ele><time>2026-04-19T08:11:08.999Z</time></trkpt><trkpt lat="40.063448385724186" lon="15.91928772520668"><ele>974.0</ele><time>2026-04-19T08:11:09.999Z</time></trkpt><trkpt lat="40.06336668062662" lon="15.919219269816764"><ele>974.0</ele><time>2026-04-19T08:11:11.999Z</time></trkpt><trkpt lat="40.06339643937082" lon="15.919075798078033"><ele>973.8000000000001</ele><time>2026-04-19T08:11:13.999Z</time></trkpt><trkpt lat="40.063471282505844" lon="15.919003157207456"><ele>973.6000000000001</ele><time>2026-04-19T08:11:15.999Z</time></trkpt><trkpt lat="40.06349330131887" lon="15.918845951744167"><ele>973.4</ele><time>2026-04-19T08:11:17.999Z</time></trkpt><trkpt lat="40.063472780455136" lon="15.918745933988939"><ele>973.2</ele><time>2026-04-19T08:11:18.999Z</time></trkpt><trkpt lat="40.06350957649105" lon="15.918606613918183"><ele>973.0</ele><time>2026-04-19T08:11:20.999Z</time></trkpt><trkpt lat="40.0635572366611" lon="15.918550808881568"><ele>972.9999999999999</ele><time>2026-04-19T08:11:21.999Z</time></trkpt><trkpt lat="40.063608621683535" lon="15.918493858487528"><ele>973.0</ele><time>2026-04-19T08:11:22.999Z</time></trkpt><trkpt lat="40.06366132154149" lon="15.918420971302039"><ele>973.0</ele><time>2026-04-19T08:11:23.999Z</time></trkpt><trkpt lat="40.06372495030642" lon="15.918275766976402"><ele>973.0</ele><time>2026-04-19T08:11:25.999Z</time></trkpt><trkpt lat="40.063729686488614" lon="15.918177774276739"><ele>972.9999999999999</ele><time>2026-04-19T08:11:26.999Z</time></trkpt><trkpt lat="40.06373105756662" lon="15.918071049403599"><ele>973.0</ele><time>2026-04-19T08:11:27.999Z</time></trkpt><trkpt lat="40.063738253454765" lon="15.917964318241449"><ele>974.2</ele><time>2026-04-19T08:11:28.999Z</time></trkpt><trkpt lat="40.0638080525553" lon="15.917894733257036"><ele>975.4</ele><time>2026-04-19T08:11:30.999Z</time></trkpt><trkpt lat="40.0638803611177" lon="15.917851826447821"><ele>976.6000000000001</ele><time>2026-04-19T08:11:31.999Z</time></trkpt><trkpt lat="40.06396672944166" lon="15.917736388822135"><ele>977.8000000000001</ele><time>2026-04-19T08:11:33.999Z</time></trkpt><trkpt lat="40.063997686054115" lon="15.91765125479397"><ele>979.0</ele><time>2026-04-19T08:11:34.999Z</time></trkpt><trkpt lat="40.06401343717654" lon="15.917534198511133"><ele>979.3333333333333</ele><time>2026-04-19T08:11:36.999Z</time></trkpt><trkpt lat="40.063963601627925" lon="15.917461855590807"><ele>979.6666666666666</ele><time>2026-04-19T08:11:38.999Z</time></trkpt><trkpt lat="40.06394449199204" lon="15.917372941274081"><ele>980.0</ele><time>2026-04-19T08:12:04.999Z</time></trkpt><trkpt lat="40.06398349357725" lon="15.917293219120836"><ele>980.3333333333333</ele><time>2026-04-19T08:12:08Z</time></trkpt><trkpt lat="40.064069360047895" lon="15.917258894555754"><ele>980.6666666666666</ele><time>2026-04-19T08:12:11Z</time></trkpt><trkpt lat="40.064145216046775" lon="15.917198781400469"><ele>981.0</ele><time>2026-04-19T08:12:14Z</time></trkpt><trkpt lat="40.064269080798724" lon="15.917156831743942"><ele>977.6666666666666</ele><time>2026-04-19T08:12:16Z</time></trkpt><trkpt lat="40.06435703021005" lon="15.9171406032296"><ele>974.3333333333333</ele><time>2026-04-19T08:12:17Z</time></trkpt><trkpt lat="40.06443653248258" lon="15.917140903182514"><ele>971.0</ele><time>2026-04-19T08:12:18Z</time></trkpt><trkpt lat="40.0645131473436" lon="15.917149906454947"><ele>967.6666666666666</ele><time>2026-04-19T08:12:19Z</time></trkpt><trkpt lat="40.064576861032876" lon="15.917163917529452"><ele>964.3333333333333</ele><time>2026-04-19T08:12:20Z</time></trkpt><trkpt lat="40.064679046115586" lon="15.917204598491255"><ele>961.0</ele><time>2026-04-19T08:12:22Z</time></trkpt><trkpt lat="40.06477493617513" lon="15.917203696171365"><ele>960.9999999999999</ele><time>2026-04-19T08:12:24Z</time></trkpt><trkpt lat="40.06485562432508" lon="15.9171747923896"><ele>961.0</ele><time>2026-04-19T08:12:26Z</time></trkpt><trkpt lat="40.06492130737348" lon="15.91716622754186"><ele>961.0</ele><time>2026-04-19T08:12:28Z</time></trkpt><trkpt lat="40.06500081766048" lon="15.91713485306423"><ele>961.0</ele><time>2026-04-19T08:12:31Z</time></trkpt><trkpt lat="40.06511475623717" lon="15.917104383777911"><ele>960.9999999999999</ele><time>2026-04-19T08:12:33Z</time></trkpt><trkpt lat="40.06520922113153" lon="15.917145491277997"><ele>961.0</ele><time>2026-04-19T08:12:35Z</time></trkpt><trkpt lat="40.06528461579024" lon="15.917182209803542"><ele>957.3333333333333</ele><time>2026-04-19T08:12:36Z</time></trkpt><trkpt lat="40.065346171382814" lon="15.917226706931787"><ele>953.6666666666666</ele><time>2026-04-19T08:12:37Z</time></trkpt><trkpt lat="40.0654238927835" lon="15.917299637908982"><ele>950.0</ele><time>2026-04-19T08:12:39Z</time></trkpt><trkpt lat="40.065519807733736" lon="15.917365370180176"><ele>946.3333333333333</ele><time>2026-04-19T08:12:41Z</time></trkpt><trkpt lat="40.06557528300006" lon="15.917406770602124"><ele>942.6666666666666</ele><time>2026-04-19T08:12:42Z</time></trkpt><trkpt lat="40.06566582215117" lon="15.917459990299996"><ele>939.0</ele><time>2026-04-19T08:12:44Z</time></trkpt><trkpt lat="40.06576642013411" lon="15.91746852454385"><ele>936.8000000000001</ele><time>2026-04-19T08:12:46Z</time></trkpt><trkpt lat="40.065847955272105" lon="15.91742891546762"><ele>934.6000000000001</ele><time>2026-04-19T08:12:48Z</time></trkpt><trkpt lat="40.06594510189116" lon="15.917343202819724"><ele>932.4</ele><time>2026-04-19T08:12:50Z</time></trkpt><trkpt lat="40.06604436428179" lon="15.917312019312567"><ele>930.2</ele><time>2026-04-19T08:12:52Z</time></trkpt><trkpt lat="40.066132948629686" lon="15.917296664557636"><ele>928.0</ele><time>2026-04-19T08:12:54Z</time></trkpt><trkpt lat="40.06620723467094" lon="15.917286611796682"><ele>928.0</ele><time>2026-04-19T08:12:56Z</time></trkpt><trkpt lat="40.066309798515825" lon="15.917246801843085"><ele>928.0</ele><time>2026-04-19T08:12:58Z</time></trkpt><trkpt lat="40.06639086358042" lon="15.91720976958529"><ele>928.0</ele><time>2026-04-19T08:13:00Z</time></trkpt><trkpt lat="40.066492726533376" lon="15.917182872813822"><ele>928.0</ele><time>2026-04-19T08:13:02Z</time></trkpt><trkpt lat="40.066599593877" lon="15.91721303017449"><ele>928.0</ele><time>2026-04-19T08:13:04Z</time></trkpt><trkpt lat="40.066689028895276" lon="15.917210241302778"><ele>926.3333333333333</ele><time>2026-04-19T08:13:06Z</time></trkpt><trkpt lat="40.0667808296347" lon="15.917162029700089"><ele>924.6666666666666</ele><time>2026-04-19T08:13:08Z</time></trkpt><trkpt lat="40.06686955580625" lon="15.91714621286377"><ele>923.0</ele><time>2026-04-19T08:13:09.999Z</time></trkpt><trkpt lat="40.066947620407554" lon="15.91714774236857"><ele>921.3333333333333</ele><time>2026-04-19T08:13:11.999Z</time></trkpt><trkpt lat="40.067018944530204" lon="15.91719298725733"><ele>919.6666666666666</ele><time>2026-04-19T08:13:13.999Z</time></trkpt><trkpt lat="40.06707969185113" lon="15.917229561782811"><ele>918.0</ele><time>2026-04-19T08:13:14.999Z</time></trkpt><trkpt lat="40.0671643234818" lon="15.91727461671495"><ele>918.0</ele><time>2026-04-19T08:13:16.999Z</time></trkpt><trkpt lat="40.06729556763237" lon="15.91727155859038"><ele>918.0</ele><time>2026-04-19T08:13:18.999Z</time></trkpt><trkpt lat="40.067359439321024" lon="15.917278756583517"><ele>918.0</ele><time>2026-04-19T08:13:19.999Z</time></trkpt><trkpt lat="40.067433821444766" lon="15.917315959627588"><ele>918.0</ele><time>2026-04-19T08:13:21.999Z</time></trkpt><trkpt lat="40.06750051721058" lon="15.917367206697037"><ele>918.0</ele><time>2026-04-19T08:13:23.999Z</time></trkpt><trkpt lat="40.06756927518394" lon="15.917350582477527"><ele>918.0</ele><time>2026-04-19T08:13:25.999Z</time></trkpt><trkpt lat="40.067644096187024" lon="15.91737776917479"><ele>915.3333333333334</ele><time>2026-04-19T08:13:27.999Z</time></trkpt><trkpt lat="40.06770534257875" lon="15.917403683407082"><ele>912.6666666666667</ele><time>2026-04-19T08:13:29.999Z</time></trkpt><trkpt lat="40.06777234843501" lon="15.91736188737446"><ele>910.0</ele><time>2026-04-19T08:13:32.999Z</time></trkpt><trkpt lat="40.06785450078782" lon="15.917315961051777"><ele>907.3333333333334</ele><time>2026-04-19T08:13:36.999Z</time></trkpt><trkpt lat="40.06794760052108" lon="15.917273963375083"><ele>904.6666666666667</ele><time>2026-04-19T08:13:40.999Z</time></trkpt><trkpt lat="40.068009411983574" lon="15.917233103523113"><ele>902.0</ele><time>2026-04-19T08:13:42.999Z</time></trkpt><trkpt lat="40.06807198309715" lon="15.9172155526831"><ele>902.0</ele><time>2026-04-19T08:13:46.999Z</time></trkpt><trkpt lat="40.068144788093825" lon="15.917213999736177"><ele>902.0</ele><time>2026-04-19T08:13:52.999Z</time></trkpt><trkpt lat="40.06821691414888" lon="15.917272302712488"><ele>902.0</ele><time>2026-04-19T08:13:56.999Z</time></trkpt><trkpt lat="40.06828784660747" lon="15.917336273923452"><ele>902.0</ele><time>2026-04-19T08:13:59.999Z</time></trkpt><trkpt lat="40.0683460240806" lon="15.917385402765222"><ele>902.0</ele><time>2026-04-19T08:14:01.999Z</time></trkpt><trkpt lat="40.068490605714395" lon="15.917507224306213"><ele>899.8571428571428</ele><time>2026-04-19T08:14:03.999Z</time></trkpt><trkpt lat="40.06855220547126" lon="15.917561255610332"><ele>897.7142857142858</ele><time>2026-04-19T08:14:05.999Z</time></trkpt><trkpt lat="40.068598386532024" lon="15.917624599498245"><ele>895.5714285714286</ele><time>2026-04-19T08:14:07.999Z</time></trkpt><trkpt lat="40.068649484540636" lon="15.917687960469062"><ele>893.4285714285713</ele><time>2026-04-19T08:14:10.999Z</time></trkpt><trkpt lat="40.0687024637775" lon="15.917766153680956"><ele>891.2857142857142</ele><time>2026-04-19T08:14:15Z</time></trkpt><trkpt lat="40.06872475233454" lon="15.917850290979688"><ele>889.1428571428571</ele><time>2026-04-19T08:14:20Z</time></trkpt><trkpt lat="40.06874403464689" lon="15.917940406073841"><ele>887.0</ele><time>2026-04-19T08:14:27Z</time></trkpt><trkpt lat="40.0687788845491" lon="15.918021791443847"><ele>885.8333333333334</ele><time>2026-04-19T08:14:33Z</time></trkpt><trkpt lat="40.06881635467956" lon="15.918100839662717"><ele>884.6666666666667</ele><time>2026-04-19T08:14:39Z</time></trkpt><trkpt lat="40.06887036288439" lon="15.918166449162044"><ele>883.5</ele><time>2026-04-19T08:14:44Z</time></trkpt><trkpt lat="40.068950113814815" lon="15.91820904571332"><ele>882.3333333333333</ele><time>2026-04-19T08:14:47Z</time></trkpt><trkpt lat="40.069029075686736" lon="15.91820694395229"><ele>881.1666666666666</ele><time>2026-04-19T08:14:49Z</time></trkpt><trkpt lat="40.06909730026294" lon="15.918158640890892"><ele>880.0</ele><time>2026-04-19T08:14:53Z</time></trkpt><trkpt lat="40.06917653668941" lon="15.918148715180806"><ele>876.8333333333333</ele><time>2026-04-19T08:14:56Z</time></trkpt><trkpt lat="40.069239437482366" lon="15.91814426485851"><ele>873.6666666666666</ele><time>2026-04-19T08:14:58Z</time></trkpt><trkpt lat="40.069326470334005" lon="15.91814855533563"><ele>870.5</ele><time>2026-04-19T08:15:01Z</time></trkpt><trkpt lat="40.06940824088572" lon="15.918113807366096"><ele>867.3333333333333</ele><time>2026-04-19T08:15:04Z</time></trkpt><trkpt lat="40.06944986392741" lon="15.918024616714318"><ele>864.1666666666666</ele><time>2026-04-19T08:15:07Z</time></trkpt><trkpt lat="40.06945437267709" lon="15.917921851419402"><ele>861.0</ele><time>2026-04-19T08:15:10Z</time></trkpt><trkpt lat="40.06945124863843" lon="15.917794221138765"><ele>861.0</ele><time>2026-04-19T08:15:14Z</time></trkpt><trkpt lat="40.06948335958899" lon="15.91771864484716"><ele>861.0</ele><time>2026-04-19T08:15:17Z</time></trkpt><trkpt lat="40.06949911242287" lon="15.917627540920721"><ele>861.0</ele><time>2026-04-19T08:15:21.999Z</time></trkpt><trkpt lat="40.06953395579288" lon="15.917550746690313"><ele>861.0</ele><time>2026-04-19T08:15:24.999Z</time></trkpt><trkpt lat="40.06960740817248" lon="15.9175092242376"><ele>861.0</ele><time>2026-04-19T08:15:28.999Z</time></trkpt><trkpt lat="40.06967457562632" lon="15.91747593329435"><ele>861.0</ele><time>2026-04-19T08:15:33.999Z</time></trkpt><trkpt lat="40.06974287465227" lon="15.917491507676418"><ele>861.0</ele><time>2026-04-19T08:15:37.999Z</time></trkpt><trkpt lat="40.06979392604805" lon="15.917551493948931"><ele>861.0</ele><time>2026-04-19T08:15:45.999Z</time></trkpt><trkpt lat="40.06982154503798" lon="15.917647862857887"><ele>861.0</ele><time>2026-04-19T08:15:50.999Z</time></trkpt><trkpt lat="40.06986614377301" lon="15.917722019960463"><ele>861.0</ele><time>2026-04-19T08:16:26Z</time></trkpt><trkpt lat="40.06991866640121" lon="15.917780409410335"><ele>861.0</ele><time>2026-04-19T08:16:28Z</time></trkpt><trkpt lat="40.06999209314039" lon="15.917831438759245"><ele>861.0</ele><time>2026-04-19T08:16:30Z</time></trkpt><trkpt lat="40.070064541738475" lon="15.917892591371167"><ele>861.0</ele><time>2026-04-19T08:16:32Z</time></trkpt><trkpt lat="40.07012493520058" lon="15.917948732898058"><ele>857.0</ele><time>2026-04-19T08:16:34Z</time></trkpt><trkpt lat="40.07020679590082" lon="15.917987932093254"><ele>852.9999999999999</ele><time>2026-04-19T08:16:36Z</time></trkpt><trkpt lat="40.07026480693627" lon="15.918070796304958"><ele>849.0</ele><time>2026-04-19T08:16:38Z</time></trkpt><trkpt lat="40.07030099888905" lon="15.918177712385553"><ele>845.0</ele><time>2026-04-19T08:16:40Z</time></trkpt><trkpt lat="40.07033421195681" lon="15.9183068970788"><ele>841.0</ele><time>2026-04-19T08:16:42Z</time></trkpt><trkpt lat="40.07035586519913" lon="15.918411707724275"><ele>840.0</ele><time>2026-04-19T08:16:43Z</time></trkpt><trkpt lat="40.07038380074064" lon="15.91854807248852"><ele>839.0</ele><time>2026-04-19T08:16:44Z</time></trkpt><trkpt lat="40.07042147268149" lon="15.918673524162516"><ele>838.0</ele><time>2026-04-19T08:16:45Z</time></trkpt><trkpt lat="40.07044023989711" lon="15.918792980442372"><ele>837.0</ele><time>2026-04-19T08:16:46Z</time></trkpt><trkpt lat="40.07042199499794" lon="15.918910680989061"><ele>836.0</ele><time>2026-04-19T08:16:47Z</time></trkpt><trkpt lat="40.07036742495751" lon="15.919011719393907"><ele>836.0</ele><time>2026-04-19T08:16:48Z</time></trkpt><trkpt lat="40.07030905408408" lon="15.919089117383386"><ele>836.0</ele><time>2026-04-19T08:16:49Z</time></trkpt><trkpt lat="40.070269158315156" lon="15.919164743546101"><ele>836.0</ele><time>2026-04-19T08:16:50Z</time></trkpt><trkpt lat="40.07025743632927" lon="15.919303406726941"><ele>836.0</ele><time>2026-04-19T08:16:52Z</time></trkpt><trkpt lat="40.07036107269415" lon="15.919335731822402"><ele>836.0</ele><time>2026-04-19T08:16:54Z</time></trkpt><trkpt lat="40.07042437787288" lon="15.919261729715423"><ele>836.0</ele><time>2026-04-19T08:16:55Z</time></trkpt><trkpt lat="40.070502107610736" lon="15.919163899178152"><ele>836.0</ele><time>2026-04-19T08:16:56Z</time></trkpt><trkpt lat="40.07059965874106" lon="15.919060781856459"><ele>836.0</ele><time>2026-04-19T08:16:57Z</time></trkpt><trkpt lat="40.07071693484665" lon="15.918962581016917"><ele>836.0</ele><time>2026-04-19T08:16:58Z</time></trkpt><trkpt lat="40.07084707365613" lon="15.918893270066523"><ele>831.75</ele><time>2026-04-19T08:16:59Z</time></trkpt><trkpt lat="40.070970096555335" lon="15.918854330085534"><ele>827.5</ele><time>2026-04-19T08:17:00Z</time></trkpt><trkpt lat="40.071087978991144" lon="15.918830733174822"><ele>823.25</ele><time>2026-04-19T08:17:01Z</time></trkpt><trkpt lat="40.07120483705351" lon="15.918844053052945"><ele>819.0</ele><time>2026-04-19T08:17:02Z</time></trkpt><trkpt lat="40.07131189881127" lon="15.918924399970678"><ele>819.0</ele><time>2026-04-19T08:17:03Z</time></trkpt><trkpt lat="40.07141487774369" lon="15.919003588118454"><ele>819.0</ele><time>2026-04-19T08:17:04Z</time></trkpt><trkpt lat="40.071490505110916" lon="15.919145906312453"><ele>819.0</ele><time>2026-04-19T08:17:05Z</time></trkpt><trkpt lat="40.071568198479724" lon="15.919330859834638"><ele>819.0</ele><time>2026-04-19T08:17:06Z</time></trkpt><trkpt lat="40.07167253592619" lon="15.919521949077375"><ele>815.5</ele><time>2026-04-19T08:17:07Z</time></trkpt><trkpt lat="40.07179112202433" lon="15.919654828995847"><ele>812.0</ele><time>2026-04-19T08:17:08Z</time></trkpt><trkpt lat="40.07191763811674" lon="15.919737224550992"><ele>808.5</ele><time>2026-04-19T08:17:09Z</time></trkpt><trkpt lat="40.07202086615127" lon="15.919806636814592"><ele>805.0</ele><time>2026-04-19T08:17:10Z</time></trkpt><trkpt lat="40.0721018359101" lon="15.919877660052704"><ele>805.0</ele><time>2026-04-19T08:17:11Z</time></trkpt><trkpt lat="40.07214325682631" lon="15.919986322469079"><ele>805.0</ele><time>2026-04-19T08:17:12Z</time></trkpt><trkpt lat="40.072174531844084" lon="15.920108216350085"><ele>805.0</ele><time>2026-04-19T08:17:13Z</time></trkpt><trkpt lat="40.07220758404836" lon="15.920254092874266"><ele>805.0</ele><time>2026-04-19T08:17:14Z</time></trkpt><trkpt lat="40.07225129803818" lon="15.920378686895527"><ele>805.0</ele><time>2026-04-19T08:17:15Z</time></trkpt><trkpt lat="40.0722772758869" lon="15.920496384398783"><ele>803.6</ele><time>2026-04-19T08:17:16Z</time></trkpt><trkpt lat="40.07230084352248" lon="15.920608036110563"><ele>802.2</ele><time>2026-04-19T08:17:17Z</time></trkpt><trkpt lat="40.07231973885785" lon="15.920715195294525"><ele>800.8</ele><time>2026-04-19T08:17:18Z</time></trkpt><trkpt lat="40.07235664776342" lon="15.920821638122938"><ele>799.4</ele><time>2026-04-19T08:17:19Z</time></trkpt><trkpt lat="40.07243450013304" lon="15.92090435809832"><ele>798.0</ele><time>2026-04-19T08:17:20Z</time></trkpt><trkpt lat="40.07253749353882" lon="15.920952344497223"><ele>794.5999999999999</ele><time>2026-04-19T08:17:21Z</time></trkpt><trkpt lat="40.07263855001388" lon="15.920990195518032"><ele>791.1999999999999</ele><time>2026-04-19T08:17:21.999Z</time></trkpt><trkpt lat="40.07273504006366" lon="15.921030825578383"><ele>787.8</ele><time>2026-04-19T08:17:22.999Z</time></trkpt><trkpt lat="40.07282392206805" lon="15.921078573198002"><ele>784.4</ele><time>2026-04-19T08:17:23.999Z</time></trkpt><trkpt lat="40.07290504069978" lon="15.921132608762507"><ele>781.0</ele><time>2026-04-19T08:17:24.999Z</time></trkpt><trkpt lat="40.07297720851432" lon="15.921194162106845"><ele>780.9999999999999</ele><time>2026-04-19T08:17:25.999Z</time></trkpt><trkpt lat="40.07305024103494" lon="15.921263170368812"><ele>781.0</ele><time>2026-04-19T08:17:26.999Z</time></trkpt><trkpt lat="40.07312927757914" lon="15.921322943668077"><ele>781.0</ele><time>2026-04-19T08:17:27.999Z</time></trkpt><trkpt lat="40.07319493685254" lon="15.921378432748718"><ele>781.0</ele><time>2026-04-19T08:17:28.999Z</time></trkpt><trkpt lat="40.07325422927274" lon="15.921455475126024"><ele>780.9999999999999</ele><time>2026-04-19T08:17:29.999Z</time></trkpt><trkpt lat="40.07331317144439" lon="15.92152204957162"><ele>781.0</ele><time>2026-04-19T08:17:30.999Z</time></trkpt><trkpt lat="40.07339076808067" lon="15.921562296598191"><ele>780.4999999999999</ele><time>2026-04-19T08:17:31.999Z</time></trkpt><trkpt lat="40.073481694575655" lon="15.921564237408907"><ele>780.0</ele><time>2026-04-19T08:17:32.999Z</time></trkpt><trkpt lat="40.0735803743371" lon="15.921547122246393"><ele>779.5</ele><time>2026-04-19T08:17:33.999Z</time></trkpt><trkpt lat="40.07366027869342" lon="15.921525346815693"><ele>779.0</ele><time>2026-04-19T08:17:34.999Z</time></trkpt><trkpt lat="40.073732023739076" lon="15.921528565162387"><ele>778.4999999999999</ele><time>2026-04-19T08:17:35.999Z</time></trkpt><trkpt lat="40.07379405826807" lon="15.921544426974597"><ele>778.0</ele><time>2026-04-19T08:17:36.999Z</time></trkpt><trkpt lat="40.07385165518983" lon="15.921578765820348"><ele>777.9999999999999</ele><time>2026-04-19T08:17:37.999Z</time></trkpt><trkpt lat="40.07389439409365" lon="15.921639387775997"><ele>778.0</ele><time>2026-04-19T08:17:38.999Z</time></trkpt><trkpt lat="40.073937549499966" lon="15.921774601895388"><ele>778.0</ele><time>2026-04-19T08:17:40.999Z</time></trkpt><trkpt lat="40.07396452483805" lon="15.921849057531922"><ele>778.0</ele><time>2026-04-19T08:17:41.999Z</time></trkpt><trkpt lat="40.07403189993876" lon="15.921979710762098"><ele>777.9999999999999</ele><time>2026-04-19T08:17:43.999Z</time></trkpt><trkpt lat="40.074076739437004" lon="15.922042240609782"><ele>778.0</ele><time>2026-04-19T08:17:44.999Z</time></trkpt><trkpt lat="40.07413184365905" lon="15.922099631832486"><ele>776.2857142857143</ele><time>2026-04-19T08:17:45.999Z</time></trkpt><trkpt lat="40.07419919778092" lon="15.922146871124102"><ele>774.5714285714286</ele><time>2026-04-19T08:17:46.999Z</time></trkpt><trkpt lat="40.074270834401496" lon="15.922182076911167"><ele>772.8571428571429</ele><time>2026-04-19T08:17:47.999Z</time></trkpt><trkpt lat="40.07435106948677" lon="15.922201684658987"><ele>771.1428571428571</ele><time>2026-04-19T08:17:48.999Z</time></trkpt><trkpt lat="40.07442508864644" lon="15.922212268521104"><ele>769.4285714285713</ele><time>2026-04-19T08:17:49.999Z</time></trkpt><trkpt lat="40.07449442244489" lon="15.922223968520472"><ele>767.7142857142857</ele><time>2026-04-19T08:17:50.999Z</time></trkpt><trkpt lat="40.074560613645694" lon="15.922246547508538"><ele>766.0</ele><time>2026-04-19T08:17:51.999Z</time></trkpt><trkpt lat="40.07467278627028" lon="15.92226806322664"><ele>766.0</ele><time>2026-04-19T08:17:53.999Z</time></trkpt><trkpt lat="40.074715949385975" lon="15.922371557844869"><ele>766.0</ele><time>2026-04-19T08:17:55.999Z</time></trkpt><trkpt lat="40.07468651867268" lon="15.922446851310534"><ele>766.0</ele><time>2026-04-19T08:17:56.999Z</time></trkpt><trkpt lat="40.07462929696964" lon="15.922492209654804"><ele>766.0</ele><time>2026-04-19T08:17:57.999Z</time></trkpt><trkpt lat="40.074553052578565" lon="15.922471656392512"><ele>766.0</ele><time>2026-04-19T08:17:59.999Z</time></trkpt><trkpt lat="40.07447169182694" lon="15.922519898058676"><ele>766.0</ele><time>2026-04-19T08:18:01.999Z</time></trkpt><trkpt lat="40.074442352852294" lon="15.922680873694755"><ele>764.4</ele><time>2026-04-19T08:18:03.999Z</time></trkpt><trkpt lat="40.07444938670905" lon="15.922795749010104"><ele>762.8</ele><time>2026-04-19T08:18:04.999Z</time></trkpt><trkpt lat="40.074455197018956" lon="15.92293306263333"><ele>761.1999999999999</ele><time>2026-04-19T08:18:05.999Z</time></trkpt><trkpt lat="40.07445958394568" lon="15.923097304719072"><ele>759.5999999999999</ele><time>2026-04-19T08:18:06.999Z</time></trkpt><trkpt lat="40.074452368852164" lon="15.923235154379007"><ele>758.0</ele><time>2026-04-19T08:18:07.999Z</time></trkpt><trkpt lat="40.07443837357933" lon="15.923366073601235"><ele>757.0</ele><time>2026-04-19T08:18:08.999Z</time></trkpt><trkpt lat="40.074425725511226" lon="15.923518002043332"><ele>756.0</ele><time>2026-04-19T08:18:09.999Z</time></trkpt><trkpt lat="40.07441992454579" lon="15.923663838378907"><ele>755.0</ele><time>2026-04-19T08:18:10.999Z</time></trkpt><trkpt lat="40.07442431993563" lon="15.923816210803226"><ele>754.0</ele><time>2026-04-19T08:18:11.999Z</time></trkpt><trkpt lat="40.074435454025554" lon="15.923959714498201"><ele>754.0</ele><time>2026-04-19T08:18:12.999Z</time></trkpt><trkpt lat="40.07445221573929" lon="15.924112970968752"><ele>754.0</ele><time>2026-04-19T08:18:13.999Z</time></trkpt><trkpt lat="40.07447283233665" lon="15.924250361075941"><ele>754.0</ele><time>2026-04-19T08:18:14.999Z</time></trkpt><trkpt lat="40.07451089861236" lon="15.924373736951956"><ele>754.0</ele><time>2026-04-19T08:18:15.999Z</time></trkpt><trkpt lat="40.07455582545857" lon="15.924471851232358"><ele>754.0</ele><time>2026-04-19T08:18:16.999Z</time></trkpt><trkpt lat="40.07460744202568" lon="15.924540224524785"><ele>754.3333333333334</ele><time>2026-04-19T08:18:17.999Z</time></trkpt><trkpt lat="40.07466575061873" lon="15.924571315500428"><ele>754.6666666666667</ele><time>2026-04-19T08:18:18.999Z</time></trkpt><trkpt lat="40.074730386631465" lon="15.924566309352663"><ele>755.0</ele><time>2026-04-19T08:18:19.999Z</time></trkpt><trkpt lat="40.0747888541667" lon="15.924533216290596"><ele>755.3333333333334</ele><time>2026-04-19T08:18:20.999Z</time></trkpt><trkpt lat="40.07486410207851" lon="15.924408161207205"><ele>755.6666666666666</ele><time>2026-04-19T08:18:22.999Z</time></trkpt><trkpt lat="40.07488916978639" lon="15.9243324839385"><ele>756.0</ele><time>2026-04-19T08:18:23.999Z</time></trkpt><trkpt lat="40.07499583406668" lon="15.92424353756639"><ele>754.1666666666666</ele><time>2026-04-19T08:18:26Z</time></trkpt><trkpt lat="40.07508131445009" lon="15.92421485933397"><ele>752.3333333333334</ele><time>2026-04-19T08:18:27Z</time></trkpt><trkpt lat="40.07518037388494" lon="15.924203433625737"><ele>750.5</ele><time>2026-04-19T08:18:28Z</time></trkpt><trkpt lat="40.075265601609956" lon="15.924185713688223"><ele>748.6666666666667</ele><time>2026-04-19T08:18:29Z</time></trkpt><trkpt lat="40.075351269426726" lon="15.9241665143203"><ele>746.8333333333334</ele><time>2026-04-19T08:18:30Z</time></trkpt><trkpt lat="40.07543533635237" lon="15.924157383605493"><ele>745.0</ele><time>2026-04-19T08:18:31Z</time></trkpt><trkpt lat="40.07550834213463" lon="15.92417329000015"><ele>745.0</ele><time>2026-04-19T08:18:32Z</time></trkpt><trkpt lat="40.075602670730895" lon="15.924198922056995"><ele>745.0</ele><time>2026-04-19T08:18:33Z</time></trkpt><trkpt lat="40.07569503284803" lon="15.924221558296596"><ele>745.0</ele><time>2026-04-19T08:18:34Z</time></trkpt><trkpt lat="40.07579177791646" lon="15.924248330526146"><ele>745.0</ele><time>2026-04-19T08:18:35Z</time></trkpt><trkpt lat="40.07588355590592" lon="15.924296959319872"><ele>745.0</ele><time>2026-04-19T08:18:36Z</time></trkpt><trkpt lat="40.07595201341087" lon="15.924361544738776"><ele>743.2</ele><time>2026-04-19T08:18:37Z</time></trkpt><trkpt lat="40.076090454357235" lon="15.924354731047728"><ele>741.4</ele><time>2026-04-19T08:18:39Z</time></trkpt><trkpt lat="40.076173476501836" lon="15.9243416274138"><ele>739.5999999999999</ele><time>2026-04-19T08:18:41Z</time></trkpt><trkpt lat="40.07626642042022" lon="15.924370065677927"><ele>737.8</ele><time>2026-04-19T08:18:43Z</time></trkpt><trkpt lat="40.076372201383776" lon="15.924379518340873"><ele>736.0</ele><time>2026-04-19T08:18:45Z</time></trkpt><trkpt lat="40.07648820466385" lon="15.924350410149309"><ele>736.0</ele><time>2026-04-19T08:18:47Z</time></trkpt><trkpt lat="40.07658966441757" lon="15.924302492440917"><ele>736.0</ele><time>2026-04-19T08:18:49Z</time></trkpt><trkpt lat="40.07670077884188" lon="15.924342253930595"><ele>736.0</ele><time>2026-04-19T08:18:51Z</time></trkpt><trkpt lat="40.07676464759645" lon="15.924396910389179"><ele>736.0</ele><time>2026-04-19T08:18:52Z</time></trkpt><trkpt lat="40.076832085019326" lon="15.92442273960572"><ele>736.0</ele><time>2026-04-19T08:18:53Z</time></trkpt><trkpt lat="40.07690578658188" lon="15.924405026220429"><ele>736.0</ele><time>2026-04-19T08:18:54Z</time></trkpt><trkpt lat="40.07697679967312" lon="15.924390200817061"><ele>733.8</ele><time>2026-04-19T08:18:55Z</time></trkpt><trkpt lat="40.0770458651916" lon="15.924412794444496"><ele>731.5999999999999</ele><time>2026-04-19T08:18:56Z</time></trkpt><trkpt lat="40.077123487185986" lon="15.924435963746859"><ele>729.4</ele><time>2026-04-19T08:18:57Z</time></trkpt><trkpt lat="40.07719040564087" lon="15.92444899242767"><ele>727.2</ele><time>2026-04-19T08:18:58Z</time></trkpt><trkpt lat="40.07729858969802" lon="15.92450825986783"><ele>725.0</ele><time>2026-04-19T08:19:00Z</time></trkpt><trkpt lat="40.0774299047129" lon="15.924497399135511"><ele>723.8333333333333</ele><time>2026-04-19T08:19:02Z</time></trkpt><trkpt lat="40.07750754391595" lon="15.924505618732542"><ele>722.6666666666666</ele><time>2026-04-19T08:19:03Z</time></trkpt><trkpt lat="40.077603670460896" lon="15.924511482233418"><ele>721.5</ele><time>2026-04-19T08:19:05Z</time></trkpt><trkpt lat="40.07767036941752" lon="15.92449084103685"><ele>720.3333333333334</ele><time>2026-04-19T08:19:06Z</time></trkpt><trkpt lat="40.07774850889114" lon="15.92448108277195"><ele>719.1666666666667</ele><time>2026-04-19T08:19:07Z</time></trkpt><trkpt lat="40.07782379722853" lon="15.92448140180955"><ele>718.0</ele><time>2026-04-19T08:19:08Z</time></trkpt><trkpt lat="40.07788967507695" lon="15.924475457164087"><ele>718.0</ele><time>2026-04-19T08:19:09Z</time></trkpt><trkpt lat="40.077978542307385" lon="15.924436078408037"><ele>718.0</ele><time>2026-04-19T08:19:11Z</time></trkpt><trkpt lat="40.07803683912767" lon="15.924355126369607"><ele>718.0</ele><time>2026-04-19T08:19:13Z</time></trkpt><trkpt lat="40.07815382181761" lon="15.924293057052058"><ele>718.0</ele><time>2026-04-19T08:19:15Z</time></trkpt><trkpt lat="40.078225303404786" lon="15.924279417952404"><ele>718.0</ele><time>2026-04-19T08:19:16Z</time></trkpt><trkpt lat="40.078290269012726" lon="15.924205012544379"><ele>716.3333333333334</ele><time>2026-04-19T08:19:17Z</time></trkpt><trkpt lat="40.078329428123354" lon="15.924139927583605"><ele>714.6666666666667</ele><time>2026-04-19T08:19:18Z</time></trkpt><trkpt lat="40.078379696782726" lon="15.924041067067874"><ele>713.0</ele><time>2026-04-19T08:19:21Z</time></trkpt><trkpt lat="40.07847001093323" lon="15.923921092755258"><ele>711.3333333333334</ele><time>2026-04-19T08:19:23Z</time></trkpt><trkpt lat="40.07851100920294" lon="15.923847987014767"><ele>709.6666666666666</ele><time>2026-04-19T08:19:24Z</time></trkpt><trkpt lat="40.07852491348786" lon="15.923741008702695"><ele>708.0</ele><time>2026-04-19T08:19:26Z</time></trkpt><trkpt lat="40.07847578093517" lon="15.92368206944509"><ele>708.0</ele><time>2026-04-19T08:19:27.999Z</time></trkpt><trkpt lat="40.07846762573679" lon="15.92359576692938"><ele>708.0</ele><time>2026-04-19T08:19:31.999Z</time></trkpt><trkpt lat="40.07854555385289" lon="15.923498006476647"><ele>708.0</ele><time>2026-04-19T08:19:34.999Z</time></trkpt><trkpt lat="40.07857517177011" lon="15.923418628982175"><ele>708.0</ele><time>2026-04-19T08:19:36.999Z</time></trkpt><trkpt lat="40.078673812105286" lon="15.92314012804756"><ele>708.1666666666666</ele><time>2026-04-19T08:19:39.999Z</time></trkpt><trkpt lat="40.078720398865805" lon="15.92304553704982"><ele>708.3333333333334</ele><time>2026-04-19T08:19:42.999Z</time></trkpt><trkpt lat="40.07873768237434" lon="15.922950876363803"><ele>708.5</ele><time>2026-04-19T08:19:44.999Z</time></trkpt><trkpt lat="40.07874632790153" lon="15.922861495907888"><ele>708.6666666666667</ele><time>2026-04-19T08:19:46.999Z</time></trkpt><trkpt lat="40.078745009622786" lon="15.92276486024376"><ele>708.8333333333334</ele><time>2026-04-19T08:19:49.999Z</time></trkpt><trkpt lat="40.07872317073412" lon="15.922655531297412"><ele>709.0</ele><time>2026-04-19T08:19:52.999Z</time></trkpt><trkpt lat="40.078660426987746" lon="15.922607069707345"><ele>709.6666666666667</ele><time>2026-04-19T08:20:11.999Z</time></trkpt><trkpt lat="40.07861709991142" lon="15.922542773760041"><ele>710.3333333333334</ele><time>2026-04-19T08:20:13.999Z</time></trkpt><trkpt lat="40.07856495453615" lon="15.922461678878676"><ele>711.0</ele><time>2026-04-19T08:20:15.999Z</time></trkpt><trkpt lat="40.078548721470796" lon="15.922329883411031"><ele>711.6666666666666</ele><time>2026-04-19T08:20:18.999Z</time></trkpt><trkpt lat="40.07852770702831" lon="15.922225035132563"><ele>712.3333333333333</ele><time>2026-04-19T08:20:21.999Z</time></trkpt><trkpt lat="40.07851554733971" lon="15.922116386887389"><ele>713.0</ele><time>2026-04-19T08:20:25.999Z</time></trkpt><trkpt lat="40.07850611861718" lon="15.922018344780167"><ele>713.0</ele><time>2026-04-19T08:20:29.999Z</time></trkpt><trkpt lat="40.078494656016794" lon="15.921913586623505"><ele>713.0</ele><time>2026-04-19T08:20:33Z</time></trkpt><trkpt lat="40.078492829064565" lon="15.921799365954994"><ele>713.0</ele><time>2026-04-19T08:20:36Z</time></trkpt><trkpt lat="40.078477315034405" lon="15.921708610912251"><ele>713.0</ele><time>2026-04-19T08:20:38Z</time></trkpt><trkpt lat="40.07846493667539" lon="15.921615683116654"><ele>713.0</ele><time>2026-04-19T08:20:40Z</time></trkpt><trkpt lat="40.078438777233195" lon="15.921527701385534"><ele>713.0</ele><time>2026-04-19T08:20:43Z</time></trkpt><trkpt lat="40.07841083188214" lon="15.92141833883965"><ele>713.7142857142857</ele><time>2026-04-19T08:20:46Z</time></trkpt><trkpt lat="40.07836952593916" lon="15.921348998476619"><ele>714.4285714285714</ele><time>2026-04-19T08:20:48Z</time></trkpt><trkpt lat="40.0783323806042" lon="15.92125623111978"><ele>715.1428571428571</ele><time>2026-04-19T08:20:50Z</time></trkpt><trkpt lat="40.07829402437939" lon="15.921187940748428"><ele>715.8571428571429</ele><time>2026-04-19T08:20:52Z</time></trkpt><trkpt lat="40.078252967927945" lon="15.921120877692708"><ele>716.5714285714287</ele><time>2026-04-19T08:20:54Z</time></trkpt><trkpt lat="40.0782216896867" lon="15.92104327236892"><ele>717.2857142857143</ele><time>2026-04-19T08:20:56Z</time></trkpt><trkpt lat="40.07824133575364" lon="15.920937229392715"><ele>718.0</ele><time>2026-04-19T08:20:58Z</time></trkpt><trkpt lat="40.07822689611387" lon="15.920726170218268"><ele>719.0</ele><time>2026-04-19T08:20:59Z</time></trkpt><trkpt lat="40.07827605117677" lon="15.920574763749958"><ele>720.0</ele><time>2026-04-19T08:21:00Z</time></trkpt><trkpt lat="40.07832192322081" lon="15.920450591910425"><ele>721.0</ele><time>2026-04-19T08:21:01Z</time></trkpt><trkpt lat="40.07836402679947" lon="15.920345859729883"><ele>722.0</ele><time>2026-04-19T08:21:02Z</time></trkpt><trkpt lat="40.078397727974156" lon="15.920263153033337"><ele>723.0</ele><time>2026-04-19T08:21:03Z</time></trkpt><trkpt lat="40.07842575973988" lon="15.920174430592443"><ele>724.1666666666666</ele><time>2026-04-19T08:21:04Z</time></trkpt><trkpt lat="40.07842848895433" lon="15.920054361673365"><ele>725.3333333333334</ele><time>2026-04-19T08:21:05Z</time></trkpt><trkpt lat="40.07843476147205" lon="15.919954370672194"><ele>726.5</ele><time>2026-04-19T08:21:06Z</time></trkpt><trkpt lat="40.07843405207388" lon="15.919860795642828"><ele>727.6666666666667</ele><time>2026-04-19T08:21:08Z</time></trkpt><trkpt lat="40.078458182305354" lon="15.919774609453635"><ele>728.8333333333334</ele><time>2026-04-19T08:21:11Z</time></trkpt><trkpt lat="40.07849471389378" lon="15.919685879231814"><ele>730.0</ele><time>2026-04-19T08:21:13Z</time></trkpt><trkpt lat="40.0785620191086" lon="15.91960638349459"><ele>730.0</ele><time>2026-04-19T08:21:15Z</time></trkpt><trkpt lat="40.07864118572877" lon="15.919527630052354"><ele>730.0</ele><time>2026-04-19T08:21:17Z</time></trkpt><trkpt lat="40.078675096696806" lon="15.919438086379426"><ele>730.0</ele><time>2026-04-19T08:21:19Z</time></trkpt><trkpt lat="40.078748230458736" lon="15.91933315427248"><ele>730.0</ele><time>2026-04-19T08:21:21Z</time></trkpt><trkpt lat="40.0788194722089" lon="15.919218934521865"><ele>730.0</ele><time>2026-04-19T08:21:23Z</time></trkpt><trkpt lat="40.0789228827503" lon="15.919127494450658"><ele>730.5</ele><time>2026-04-19T08:21:25Z</time></trkpt><trkpt lat="40.0789863048088" lon="15.919058242558027"><ele>731.0</ele><time>2026-04-19T08:21:27Z</time></trkpt><trkpt lat="40.07905808374647" lon="15.918962679021673"><ele>731.5</ele><time>2026-04-19T08:21:29Z</time></trkpt><trkpt lat="40.07911380875216" lon="15.918923126036281"><ele>732.0</ele><time>2026-04-19T08:21:31Z</time></trkpt><trkpt lat="40.07911809690123" lon="15.9188284048729"><ele>732.5</ele><time>2026-04-19T08:21:37.999Z</time></trkpt><trkpt lat="40.07919486221783" lon="15.918838928695385"><ele>733.0</ele><time>2026-04-19T08:21:40.999Z</time></trkpt><trkpt lat="40.079279427993924" lon="15.918926172276175"><ele>733.0</ele><time>2026-04-19T08:21:42.999Z</time></trkpt><trkpt lat="40.079379322481756" lon="15.919032051210582"><ele>733.0</ele><time>2026-04-19T08:21:44.999Z</time></trkpt><trkpt lat="40.079441491714896" lon="15.919094769170758"><ele>733.0</ele><time>2026-04-19T08:21:45.999Z</time></trkpt><trkpt lat="40.079510104663946" lon="15.919144004432832"><ele>733.0</ele><time>2026-04-19T08:21:46.999Z</time></trkpt><trkpt lat="40.07960038936931" lon="15.919162069409245"><ele>733.0</ele><time>2026-04-19T08:21:48.999Z</time></trkpt><trkpt lat="40.0796796576441" lon="15.919242127995725"><ele>731.0</ele><time>2026-04-19T08:21:50.999Z</time></trkpt><trkpt lat="40.079713979206936" lon="15.9193249228937"><ele>729.0</ele><time>2026-04-19T08:21:52.999Z</time></trkpt><trkpt lat="40.079820678579274" lon="15.919370229812822"><ele>727.0</ele><time>2026-04-19T08:21:54.999Z</time></trkpt><trkpt lat="40.079943782290194" lon="15.919436250012282"><ele>725.0</ele><time>2026-04-19T08:21:56.999Z</time></trkpt><trkpt lat="40.080013945155606" lon="15.919483370794472"><ele>723.0</ele><time>2026-04-19T08:21:57.999Z</time></trkpt><trkpt lat="40.080092774248556" lon="15.919522420443135"><ele>721.6666666666666</ele><time>2026-04-19T08:21:58.999Z</time></trkpt><trkpt lat="40.080162342134656" lon="15.919564171101436"><ele>720.3333333333334</ele><time>2026-04-19T08:21:59.999Z</time></trkpt><trkpt lat="40.08022631450619" lon="15.919619705218963"><ele>719.0</ele><time>2026-04-19T08:22:00.999Z</time></trkpt><trkpt lat="40.080292787027176" lon="15.91968222946392"><ele>717.6666666666667</ele><time>2026-04-19T08:22:01.999Z</time></trkpt><trkpt lat="40.08035816859822" lon="15.919754753006616"><ele>716.3333333333334</ele><time>2026-04-19T08:22:02.999Z</time></trkpt><trkpt lat="40.08041123856249" lon="15.91982382972883"><ele>715.0</ele><time>2026-04-19T08:22:03.999Z</time></trkpt><trkpt lat="40.08045879391275" lon="15.919886535710859"><ele>715.0</ele><time>2026-04-19T08:22:04.999Z</time></trkpt><trkpt lat="40.08051675804569" lon="15.919952719969038"><ele>715.0</ele><time>2026-04-19T08:22:05.999Z</time></trkpt><trkpt lat="40.08058827970931" lon="15.920019520608786"><ele>715.0</ele><time>2026-04-19T08:22:06.999Z</time></trkpt><trkpt lat="40.080671889714225" lon="15.920087965682002"><ele>715.0</ele><time>2026-04-19T08:22:07.999Z</time></trkpt><trkpt lat="40.080757468246766" lon="15.920145053590955"><ele>715.0</ele><time>2026-04-19T08:22:08.999Z</time></trkpt><trkpt lat="40.08083125597837" lon="15.920197767039522"><ele>715.0</ele><time>2026-04-19T08:22:09.999Z</time></trkpt><trkpt lat="40.08089678949851" lon="15.920241906166211"><ele>711.8333333333334</ele><time>2026-04-19T08:22:10.999Z</time></trkpt><trkpt lat="40.0809659633655" lon="15.920284499702959"><ele>708.6666666666667</ele><time>2026-04-19T08:22:11.999Z</time></trkpt><trkpt lat="40.08103977943943" lon="15.920327531913507"><ele>705.5</ele><time>2026-04-19T08:22:12.999Z</time></trkpt><trkpt lat="40.081119223740984" lon="15.920359059054272"><ele>702.3333333333334</ele><time>2026-04-19T08:22:13.999Z</time></trkpt><trkpt lat="40.08119712989218" lon="15.920386452675467"><ele>699.1666666666666</ele><time>2026-04-19T08:22:14.999Z</time></trkpt><trkpt lat="40.08128408746375" lon="15.92041476428817"><ele>696.0</ele><time>2026-04-19T08:22:15.999Z</time></trkpt><trkpt lat="40.081367399669574" lon="15.920445570091685"><ele>696.0</ele><time>2026-04-19T08:22:16.999Z</time></trkpt><trkpt lat="40.0814483837787" lon="15.920459841494948"><ele>696.0</ele><time>2026-04-19T08:22:17.999Z</time></trkpt><trkpt lat="40.08152133831811" lon="15.920471744649303"><ele>696.0</ele><time>2026-04-19T08:22:18.999Z</time></trkpt><trkpt lat="40.081598522161165" lon="15.92047803696721"><ele>696.0</ele><time>2026-04-19T08:22:19.999Z</time></trkpt><trkpt lat="40.08168275544467" lon="15.920484555712443"><ele>696.0</ele><time>2026-04-19T08:22:20.999Z</time></trkpt><trkpt lat="40.0817619163944" lon="15.92048427336027"><ele>696.0</ele><time>2026-04-19T08:22:21.999Z</time></trkpt><trkpt lat="40.081837784760054" lon="15.920469141128125"><ele>695.3333333333334</ele><time>2026-04-19T08:22:22.999Z</time></trkpt><trkpt lat="40.08190390121986" lon="15.920458420439868"><ele>694.6666666666666</ele><time>2026-04-19T08:22:23.999Z</time></trkpt><trkpt lat="40.081998521022804" lon="15.920439482376425"><ele>694.0</ele><time>2026-04-19T08:22:25.999Z</time></trkpt><trkpt lat="40.08208062182506" lon="15.92048379288783"><ele>693.3333333333333</ele><time>2026-04-19T08:22:27.999Z</time></trkpt><trkpt lat="40.08213921245336" lon="15.920599110595374"><ele>692.6666666666666</ele><time>2026-04-19T08:22:29.999Z</time></trkpt><trkpt lat="40.082213904679456" lon="15.92066759533435"><ele>692.0</ele><time>2026-04-19T08:22:31.999Z</time></trkpt><trkpt lat="40.08233001551473" lon="15.920639419560517"><ele>692.0</ele><time>2026-04-19T08:22:33.999Z</time></trkpt><trkpt lat="40.0824283328506" lon="15.92058123904192"><ele>692.0</ele><time>2026-04-19T08:22:35.999Z</time></trkpt><trkpt lat="40.08251682615319" lon="15.920539234957895"><ele>692.0</ele><time>2026-04-19T08:22:38Z</time></trkpt><trkpt lat="40.08262112543879" lon="15.920542906980142"><ele>692.0</ele><time>2026-04-19T08:22:40Z</time></trkpt><trkpt lat="40.082687247652366" lon="15.920562792708445"><ele>692.0</ele><time>2026-04-19T08:22:41Z</time></trkpt><trkpt lat="40.08280313415158" lon="15.920589950435144"><ele>689.4000000000001</ele><time>2026-04-19T08:22:43Z</time></trkpt><trkpt lat="40.082916795767765" lon="15.920549005088162"><ele>686.8000000000001</ele><time>2026-04-19T08:22:45Z</time></trkpt><trkpt lat="40.08300546342267" lon="15.920466925188412"><ele>684.2</ele><time>2026-04-19T08:22:47Z</time></trkpt><trkpt lat="40.08302669895907" lon="15.920347500473689"><ele>681.6</ele><time>2026-04-19T08:22:49Z</time></trkpt><trkpt lat="40.08301812455955" lon="15.920256445533855"><ele>679.0</ele><time>2026-04-19T08:22:51Z</time></trkpt><trkpt lat="40.08298325518908" lon="15.920172175440403"><ele>678.5714285714286</ele><time>2026-04-19T08:22:53Z</time></trkpt><trkpt lat="40.08299698108623" lon="15.92006633976678"><ele>678.1428571428571</ele><time>2026-04-19T08:22:56Z</time></trkpt><trkpt lat="40.08305530866561" lon="15.920019520769587"><ele>677.7142857142858</ele><time>2026-04-19T08:22:58Z</time></trkpt><trkpt lat="40.08311277408009" lon="15.91996345065853"><ele>677.2857142857142</ele><time>2026-04-19T08:23:00Z</time></trkpt><trkpt lat="40.08315274367864" lon="15.9198854220988"><ele>676.8571428571429</ele><time>2026-04-19T08:23:04Z</time></trkpt><trkpt lat="40.08318120202455" lon="15.919807887591167"><ele>676.4285714285714</ele><time>2026-04-19T08:23:52.999Z</time></trkpt><trkpt lat="40.08325431283634" lon="15.91978059003225"><ele>676.0</ele><time>2026-04-19T08:24:06.999Z</time></trkpt><trkpt lat="40.08333986945865" lon="15.919739130592632"><ele>674.3333333333334</ele><time>2026-04-19T08:24:29.999Z</time></trkpt><trkpt lat="40.083396122856406" lon="15.919694338722207"><ele>672.6666666666667</ele><time>2026-04-19T08:24:30.999Z</time></trkpt><trkpt lat="40.08345348510897" lon="15.919615101257856"><ele>671.0</ele><time>2026-04-19T08:24:32.999Z</time></trkpt><trkpt lat="40.08350049541072" lon="15.91955892538152"><ele>669.3333333333334</ele><time>2026-04-19T08:24:37.999Z</time></trkpt><trkpt lat="40.08354026580651" lon="15.919486055932559"><ele>667.6666666666666</ele><time>2026-04-19T08:24:41.999Z</time></trkpt><trkpt lat="40.08357981694139" lon="15.919375902315528"><ele>666.0</ele><time>2026-04-19T08:24:46Z</time></trkpt><trkpt lat="40.083618423754054" lon="15.9192619308519"><ele>667.3333333333334</ele><time>2026-04-19T08:24:49Z</time></trkpt><trkpt lat="40.08365805475514" lon="15.91918198503765"><ele>668.6666666666666</ele><time>2026-04-19T08:24:51Z</time></trkpt><trkpt lat="40.08371988022877" lon="15.919124896373702"><ele>670.0</ele><time>2026-04-19T08:24:57Z</time></trkpt><trkpt lat="40.08376764324221" lon="15.919055813330804"><ele>671.3333333333333</ele><time>2026-04-19T08:25:00Z</time></trkpt><trkpt lat="40.08380803784886" lon="15.91896122765713"><ele>672.6666666666666</ele><time>2026-04-19T08:25:05Z</time></trkpt><trkpt lat="40.08387895760306" lon="15.918867392127515"><ele>674.0</ele><time>2026-04-19T08:25:08Z</time></trkpt><trkpt lat="40.083935173963894" lon="15.918803752688225"><ele>674.0</ele><time>2026-04-19T08:25:10Z</time></trkpt><trkpt lat="40.08399567932785" lon="15.918729968029197"><ele>674.0</ele><time>2026-04-19T08:25:12Z</time></trkpt><trkpt lat="40.084047109771674" lon="15.91865003495791"><ele>674.0</ele><time>2026-04-19T08:25:14Z</time></trkpt><trkpt lat="40.08409810929163" lon="15.91857047243462"><ele>674.0</ele><time>2026-04-19T08:25:16Z</time></trkpt><trkpt lat="40.08416210267468" lon="15.918501761133141"><ele>674.0</ele><time>2026-04-19T08:25:18Z</time></trkpt><trkpt lat="40.08420050727077" lon="15.91843003801638"><ele>674.0</ele><time>2026-04-19T08:25:22Z</time></trkpt><trkpt lat="40.084267779320385" lon="15.918347379651273"><ele>673.2</ele><time>2026-04-19T08:25:25Z</time></trkpt><trkpt lat="40.08434257690563" lon="15.91831712340248"><ele>672.4000000000001</ele><time>2026-04-19T08:25:28Z</time></trkpt><trkpt lat="40.0843803387088" lon="15.918244280282687"><ele>671.6</ele><time>2026-04-19T08:25:32Z</time></trkpt><trkpt lat="40.08441246796786" lon="15.918134934999138"><ele>670.8</ele><time>2026-04-19T08:25:35Z</time></trkpt><trkpt lat="40.08450338515192" lon="15.917905657245402"><ele>670.0</ele><time>2026-04-19T08:25:37Z</time></trkpt><trkpt lat="40.08447641332985" lon="15.91775281393585"><ele>670.0</ele><time>2026-04-19T08:25:40Z</time></trkpt><trkpt lat="40.084465975824735" lon="15.917623464126862"><ele>670.0</ele><time>2026-04-19T08:25:42Z</time></trkpt><trkpt lat="40.08443150012823" lon="15.91754322928378"><ele>670.0</ele><time>2026-04-19T08:25:44Z</time></trkpt><trkpt lat="40.084369524515694" lon="15.917488542373988"><ele>670.0</ele><time>2026-04-19T08:25:46Z</time></trkpt><trkpt lat="40.08432187096494" lon="15.917421247085095"><ele>670.0</ele><time>2026-04-19T08:25:47.999Z</time></trkpt><trkpt lat="40.0842724832025" lon="15.917333502824894"><ele>670.0</ele><time>2026-04-19T08:25:50.999Z</time></trkpt><trkpt lat="40.08417577774861" lon="15.917281542004384"><ele>671.1666666666667</ele><time>2026-04-19T08:25:52.999Z</time></trkpt><trkpt lat="40.084111582732525" lon="15.917234398247919"><ele>672.3333333333334</ele><time>2026-04-19T08:25:54.999Z</time></trkpt><trkpt lat="40.084145002871146" lon="15.917158913790686"><ele>673.5</ele><time>2026-04-19T08:25:56.999Z</time></trkpt><trkpt lat="40.08419734703766" lon="15.917088068077243"><ele>674.6666666666666</ele><time>2026-04-19T08:26:00.999Z</time></trkpt><trkpt lat="40.08423349134621" lon="15.916986815236193"><ele>675.8333333333333</ele><time>2026-04-19T08:26:03.999Z</time></trkpt><trkpt lat="40.08428287074238" lon="15.916865769706211"><ele>677.0</ele><time>2026-04-19T08:26:05.999Z</time></trkpt><trkpt lat="40.08431452299654" lon="15.916788257344603"><ele>677.0</ele><time>2026-04-19T08:26:06.999Z</time></trkpt><trkpt lat="40.08435002795694" lon="15.916696874637879"><ele>677.0</ele><time>2026-04-19T08:26:08.999Z</time></trkpt><trkpt lat="40.08436828717536" lon="15.916601720107188"><ele>677.0</ele><time>2026-04-19T08:26:10.999Z</time></trkpt><trkpt lat="40.084368527960535" lon="15.916517673621945"><ele>677.0</ele><time>2026-04-19T08:26:12.999Z</time></trkpt><trkpt lat="40.08438167178803" lon="15.916420662654192"><ele>677.0</ele><time>2026-04-19T08:26:14.999Z</time></trkpt><trkpt lat="40.08436566660758" lon="15.916324276276544"><ele>677.0</ele><time>2026-04-19T08:26:16.999Z</time></trkpt><trkpt lat="40.084355236564036" lon="15.916209498023344"><ele>677.0</ele><time>2026-04-19T08:26:18.999Z</time></trkpt><trkpt lat="40.0843236325057" lon="15.91612963983064"><ele>677.0</ele><time>2026-04-19T08:26:21.999Z</time></trkpt><trkpt lat="40.0842941729517" lon="15.915956560895234"><ele>677.0</ele><time>2026-04-19T08:26:23.999Z</time></trkpt><trkpt lat="40.084241457155926" lon="15.915872884808659"><ele>677.0</ele><time>2026-04-19T08:26:24.999Z</time></trkpt><trkpt lat="40.084185469720595" lon="15.91581021051563"><ele>677.0</ele><time>2026-04-19T08:26:25.999Z</time></trkpt><trkpt lat="40.084109900019236" lon="15.915718947185908"><ele>676.8</ele><time>2026-04-19T08:26:27.999Z</time></trkpt><trkpt lat="40.08415951118142" lon="15.915635716084267"><ele>676.6</ele><time>2026-04-19T08:26:29.999Z</time></trkpt><trkpt lat="40.08427938679646" lon="15.915530437427543"><ele>676.4</ele><time>2026-04-19T08:26:31.999Z</time></trkpt><trkpt lat="40.08432682194666" lon="15.915452154228426"><ele>676.1999999999999</ele><time>2026-04-19T08:26:32.999Z</time></trkpt><trkpt lat="40.084352299188" lon="15.915359867266472"><ele>676.0</ele><time>2026-04-19T08:26:33.999Z</time></trkpt><trkpt lat="40.0843697101644" lon="15.915253603674913"><ele>676.0</ele><time>2026-04-19T08:26:34.999Z</time></trkpt><trkpt lat="40.084372472545155" lon="15.915161272030046"><ele>676.0</ele><time>2026-04-19T08:26:35.999Z</time></trkpt><trkpt lat="40.08435651684302" lon="15.915043527415408"><ele>676.0</ele><time>2026-04-19T08:26:37.999Z</time></trkpt><trkpt lat="40.08437223341652" lon="15.914911694575347"><ele>676.0</ele><time>2026-04-19T08:26:39.999Z</time></trkpt><trkpt lat="40.0843967943131" lon="15.914816096145172"><ele>676.0</ele><time>2026-04-19T08:26:40.999Z</time></trkpt><trkpt lat="40.08442432975382" lon="15.914695099601"><ele>676.0</ele><time>2026-04-19T08:26:41.999Z</time></trkpt><trkpt lat="40.08443597179547" lon="15.914608435401904"><ele>676.0</ele><time>2026-04-19T08:26:42.999Z</time></trkpt><trkpt lat="40.084456950517264" lon="15.914522199508914"><ele>676.0</ele><time>2026-04-19T08:26:43.999Z</time></trkpt><trkpt lat="40.08445456896433" lon="15.91439497767698"><ele>676.0</ele><time>2026-04-19T08:26:45.999Z</time></trkpt><trkpt lat="40.084404552781024" lon="15.91433779263483"><ele>676.0</ele><time>2026-04-19T08:26:46.999Z</time></trkpt><trkpt lat="40.08433246759954" lon="15.914296409659402"><ele>676.0</ele><time>2026-04-19T08:26:47.999Z</time></trkpt><trkpt lat="40.084262701051934" lon="15.914279668124601"><ele>676.0</ele><time>2026-04-19T08:26:50Z</time></trkpt><trkpt lat="40.08429034275798" lon="15.914175379983547"><ele>676.0</ele><time>2026-04-19T08:26:54Z</time></trkpt><trkpt lat="40.08433492002473" lon="15.914075887726748"><ele>676.0</ele><time>2026-04-19T08:26:56Z</time></trkpt><trkpt lat="40.084438776259866" lon="15.913880863101447"><ele>676.0</ele><time>2026-04-19T08:26:58Z</time></trkpt><trkpt lat="40.084502025141575" lon="15.913788933549668"><ele>676.0</ele><time>2026-04-19T08:26:59Z</time></trkpt><trkpt lat="40.084574425786386" lon="15.913680270561434"><ele>676.0</ele><time>2026-04-19T08:27:01Z</time></trkpt><trkpt lat="40.0846862429363" lon="15.913614602695668"><ele>676.0</ele><time>2026-04-19T08:27:04Z</time></trkpt><trkpt lat="40.08480695035302" lon="15.913606935532666"><ele>676.0</ele><time>2026-04-19T08:27:06Z</time></trkpt><trkpt lat="40.08488482943971" lon="15.913591935296113"><ele>676.0</ele><time>2026-04-19T08:27:07Z</time></trkpt><trkpt lat="40.08494514325778" lon="15.913555957499012"><ele>676.0</ele><time>2026-04-19T08:27:08Z</time></trkpt><trkpt lat="40.08500656556913" lon="15.913478797272223"><ele>675.8</ele><time>2026-04-19T08:27:09Z</time></trkpt><trkpt lat="40.08506314847183" lon="15.913368489491582"><ele>675.5999999999999</ele><time>2026-04-19T08:27:10Z</time></trkpt><trkpt lat="40.085089647028234" lon="15.913267918587483"><ele>675.4</ele><time>2026-04-19T08:27:11Z</time></trkpt><trkpt lat="40.08501585536594" lon="15.913089847869095"><ele>675.2</ele><time>2026-04-19T08:27:12Z</time></trkpt><trkpt lat="40.085004854021264" lon="15.912969766860295"><ele>675.0</ele><time>2026-04-19T08:27:13Z</time></trkpt><trkpt lat="40.084972471039386" lon="15.912792187542516"><ele>675.0</ele><time>2026-04-19T08:27:14Z</time></trkpt><trkpt lat="40.084933185091806" lon="15.91265968276686"><ele>675.0</ele><time>2026-04-19T08:27:15Z</time></trkpt><trkpt lat="40.084900307991084" lon="15.912543206399416"><ele>675.0</ele><time>2026-04-19T08:27:16Z</time></trkpt><trkpt lat="40.084889131390895" lon="15.912428256316174"><ele>675.0</ele><time>2026-04-19T08:27:17Z</time></trkpt><trkpt lat="40.08487738991255" lon="15.912316189630689"><ele>675.0</ele><time>2026-04-19T08:27:18Z</time></trkpt><trkpt lat="40.08486856362161" lon="15.91216595172462"><ele>675.6666666666666</ele><time>2026-04-19T08:27:19Z</time></trkpt><trkpt lat="40.084867241627514" lon="15.912050153882934"><ele>676.3333333333334</ele><time>2026-04-19T08:27:20Z</time></trkpt><trkpt lat="40.08487857677786" lon="15.911964482547495"><ele>677.0</ele><time>2026-04-19T08:27:21Z</time></trkpt><trkpt lat="40.0849493747754" lon="15.911848105623633"><ele>677.6666666666667</ele><time>2026-04-19T08:27:23Z</time></trkpt><trkpt lat="40.08501989717042" lon="15.911761166157392"><ele>678.3333333333334</ele><time>2026-04-19T08:27:25Z</time></trkpt><trkpt lat="40.08507133284274" lon="15.91167545234717"><ele>679.0</ele><time>2026-04-19T08:27:27Z</time></trkpt><trkpt lat="40.08515719050881" lon="15.91164607355271"><ele>679.0</ele><time>2026-04-19T08:27:31Z</time></trkpt><trkpt lat="40.08522206563488" lon="15.911671471847676"><ele>679.0</ele><time>2026-04-19T08:27:33Z</time></trkpt><trkpt lat="40.08536571819701" lon="15.911674907641778"><ele>679.0</ele><time>2026-04-19T08:27:34Z</time></trkpt><trkpt lat="40.08555808552121" lon="15.911788873558104"><ele>679.0</ele><time>2026-04-19T08:27:35Z</time></trkpt><trkpt lat="40.08568157293931" lon="15.911833892951075"><ele>678.1666666666667</ele><time>2026-04-19T08:27:36Z</time></trkpt><trkpt lat="40.085794008911655" lon="15.911874996734289"><ele>677.3333333333334</ele><time>2026-04-19T08:27:37Z</time></trkpt><trkpt lat="40.08589288677888" lon="15.911913103068066"><ele>676.5</ele><time>2026-04-19T08:27:38Z</time></trkpt><trkpt lat="40.08595109653856" lon="15.91194647109899"><ele>675.6666666666666</ele><time>2026-04-19T08:27:39Z</time></trkpt><trkpt lat="40.08603229609528" lon="15.911979589348048"><ele>674.8333333333333</ele><time>2026-04-19T08:27:40Z</time></trkpt><trkpt lat="40.08610371370903" lon="15.912006408625215"><ele>674.0</ele><time>2026-04-19T08:27:41Z</time></trkpt><trkpt lat="40.08616737713328" lon="15.912026110224659"><ele>674.0</ele><time>2026-04-19T08:27:42Z</time></trkpt><trkpt lat="40.08627168446643" lon="15.912102149794103"><ele>674.0</ele><time>2026-04-19T08:27:44Z</time></trkpt><trkpt lat="40.08632128218319" lon="15.912155216898693"><ele>674.0</ele><time>2026-04-19T08:27:45Z</time></trkpt><trkpt lat="40.08639931835933" lon="15.912157330761888"><ele>674.0</ele><time>2026-04-19T08:27:47Z</time></trkpt><trkpt lat="40.086358018222334" lon="15.912017709451339"><ele>674.0</ele><time>2026-04-19T08:27:50Z</time></trkpt><trkpt lat="40.08631268060241" lon="15.911943580984262"><ele>674.0</ele><time>2026-04-19T08:27:51Z</time></trkpt><trkpt lat="40.08630928505885" lon="15.911830673690261"><ele>674.75</ele><time>2026-04-19T08:27:52Z</time></trkpt><trkpt lat="40.08634391608292" lon="15.911693882461424"><ele>675.5</ele><time>2026-04-19T08:27:53Z</time></trkpt><trkpt lat="40.08640513891022" lon="15.911556262630471"><ele>676.25</ele><time>2026-04-19T08:27:53.999Z</time></trkpt><trkpt lat="40.08647646292254" lon="15.911474331695546"><ele>677.0</ele><time>2026-04-19T08:27:54.999Z</time></trkpt><trkpt lat="40.08658033832279" lon="15.911380272754686"><ele>678.0</ele><time>2026-04-19T08:27:55.999Z</time></trkpt><trkpt lat="40.08668839623461" lon="15.911310340636991"><ele>679.0</ele><time>2026-04-19T08:27:56.999Z</time></trkpt><trkpt lat="40.086793110228285" lon="15.911224380081729"><ele>680.0</ele><time>2026-04-19T08:27:57.999Z</time></trkpt><trkpt lat="40.086878484400195" lon="15.911144220224866"><ele>681.0</ele><time>2026-04-19T08:27:58.999Z</time></trkpt><trkpt lat="40.08696316140242" lon="15.911036110146469"><ele>681.0</ele><time>2026-04-19T08:27:59.999Z</time></trkpt><trkpt lat="40.087037187734296" lon="15.910919986710882"><ele>681.0</ele><time>2026-04-19T08:28:00.999Z</time></trkpt><trkpt lat="40.08711071891253" lon="15.910806584900437"><ele>681.0</ele><time>2026-04-19T08:28:01.999Z</time></trkpt><trkpt lat="40.08716181446769" lon="15.910656262470743"><ele>681.0</ele><time>2026-04-19T08:28:02.999Z</time></trkpt><trkpt lat="40.087203394181635" lon="15.910505406673373"><ele>680.4</ele><time>2026-04-19T08:28:03.999Z</time></trkpt><trkpt lat="40.08723454607249" lon="15.910361827916384"><ele>679.8</ele><time>2026-04-19T08:28:04.999Z</time></trkpt><trkpt lat="40.08724918462043" lon="15.910235618100447"><ele>679.1999999999999</ele><time>2026-04-19T08:28:05.999Z</time></trkpt><trkpt lat="40.08724709371419" lon="15.910108284506993"><ele>678.5999999999999</ele><time>2026-04-19T08:28:06.999Z</time></trkpt><trkpt lat="40.08723763215922" lon="15.909983262973448"><ele>678.0</ele><time>2026-04-19T08:28:07.999Z</time></trkpt><trkpt lat="40.08722262428237" lon="15.909862674146405"><ele>677.6666666666666</ele><time>2026-04-19T08:28:08.999Z</time></trkpt><trkpt lat="40.08722558485049" lon="15.909755595993294"><ele>677.3333333333334</ele><time>2026-04-19T08:28:09.999Z</time></trkpt><trkpt lat="40.08724933303143" lon="15.909647728272253"><ele>677.0</ele><time>2026-04-19T08:28:10.999Z</time></trkpt><trkpt lat="40.08726802688831" lon="15.90952945129209"><ele>676.6666666666667</ele><time>2026-04-19T08:28:11.999Z</time></trkpt><trkpt lat="40.08726849681925" lon="15.909430214713627"><ele>676.3333333333334</ele><time>2026-04-19T08:28:12.999Z</time></trkpt><trkpt lat="40.087271516892756" lon="15.909346684976065"><ele>676.0</ele><time>2026-04-19T08:28:13.999Z</time></trkpt><trkpt lat="40.08734778711274" lon="15.909249951264158"><ele>677.0</ele><time>2026-04-19T08:28:15.999Z</time></trkpt><trkpt lat="40.08745517542289" lon="15.90918861922883"><ele>678.0</ele><time>2026-04-19T08:28:17.999Z</time></trkpt><trkpt lat="40.08749683754513" lon="15.90911190391405"><ele>679.0</ele><time>2026-04-19T08:28:19.999Z</time></trkpt><trkpt lat="40.08759520859035" lon="15.909052907039232"><ele>680.0</ele><time>2026-04-19T08:28:22.999Z</time></trkpt><trkpt lat="40.087671036567144" lon="15.909042143698102"><ele>681.0</ele><time>2026-04-19T08:28:23.999Z</time></trkpt><trkpt lat="40.08773561649315" lon="15.909035310120805"><ele>682.0</ele><time>2026-04-19T08:28:24.999Z</time></trkpt><trkpt lat="40.08781174459675" lon="15.909059944584163"><ele>682.0</ele><time>2026-04-19T08:28:25.999Z</time></trkpt><trkpt lat="40.08788859398394" lon="15.90908233460951"><ele>682.0</ele><time>2026-04-19T08:28:26.999Z</time></trkpt><trkpt lat="40.087983196147135" lon="15.90909275070766"><ele>682.0</ele><time>2026-04-19T08:28:27.999Z</time></trkpt><trkpt lat="40.08806933933284" lon="15.909085438219522"><ele>682.0</ele><time>2026-04-19T08:28:28.999Z</time></trkpt><trkpt lat="40.08813496633076" lon="15.909063707644636"><ele>682.0</ele><time>2026-04-19T08:28:29.999Z</time></trkpt><trkpt lat="40.088221546679144" lon="15.909100194820402"><ele>682.0</ele><time>2026-04-19T08:28:31.999Z</time></trkpt><trkpt lat="40.08826671443103" lon="15.90917605981115"><ele>684.0</ele><time>2026-04-19T08:28:32.999Z</time></trkpt><trkpt lat="40.08830839802577" lon="15.909246665661545"><ele>686.0</ele><time>2026-04-19T08:28:33.999Z</time></trkpt><trkpt lat="40.08836634725007" lon="15.909291614097807"><ele>688.0</ele><time>2026-04-19T08:28:34.999Z</time></trkpt><trkpt lat="40.08843917256034" lon="15.909339056532861"><ele>690.0</ele><time>2026-04-19T08:28:35.999Z</time></trkpt><trkpt lat="40.088492561959264" lon="15.909389453038353"><ele>692.0</ele><time>2026-04-19T08:28:36.999Z</time></trkpt><trkpt lat="40.08857463474642" lon="15.909422233151366"><ele>694.0</ele><time>2026-04-19T08:28:39.999Z</time></trkpt><trkpt lat="40.08864032892284" lon="15.909400946930862"><ele>696.0</ele><time>2026-04-19T08:28:40.999Z</time></trkpt><trkpt lat="40.08870807883835" lon="15.909400522586981"><ele>696.0</ele><time>2026-04-19T08:28:41.999Z</time></trkpt><trkpt lat="40.088786434591995" lon="15.909389892280439"><ele>696.0</ele><time>2026-04-19T08:28:42.999Z</time></trkpt><trkpt lat="40.088857437352594" lon="15.909329651281197"><ele>696.0</ele><time>2026-04-19T08:28:43.999Z</time></trkpt><trkpt lat="40.08890907616186" lon="15.909239171104437"><ele>696.0</ele><time>2026-04-19T08:28:44.999Z</time></trkpt><trkpt lat="40.088972203497114" lon="15.909147405932188"><ele>696.0</ele><time>2026-04-19T08:28:45.999Z</time></trkpt><trkpt lat="40.089050086172875" lon="15.909063879090604"><ele>696.0</ele><time>2026-04-19T08:28:46.999Z</time></trkpt><trkpt lat="40.08910369921487" lon="15.909016665094757"><ele>699.4285714285714</ele><time>2026-04-19T08:28:47.999Z</time></trkpt><trkpt lat="40.08918756022084" lon="15.90900404057971"><ele>702.8571428571429</ele><time>2026-04-19T08:28:49.999Z</time></trkpt><trkpt lat="40.08928061240275" lon="15.909027522555107"><ele>706.2857142857142</ele><time>2026-04-19T08:28:51.999Z</time></trkpt><trkpt lat="40.089343351675815" lon="15.908999032955574"><ele>709.7142857142858</ele><time>2026-04-19T08:28:52.999Z</time></trkpt><trkpt lat="40.089403102002585" lon="15.908969865977848"><ele>713.1428571428572</ele><time>2026-04-19T08:28:53.999Z</time></trkpt><trkpt lat="40.08945020794061" lon="15.908912195178377"><ele>716.5714285714286</ele><time>2026-04-19T08:28:57Z</time></trkpt><trkpt lat="40.08946642030427" lon="15.908816739350726"><ele>720.0</ele><time>2026-04-19T08:29:01Z</time></trkpt><trkpt lat="40.089503314220046" lon="15.908587265948823"><ele>720.0</ele><time>2026-04-19T08:29:03Z</time></trkpt><trkpt lat="40.089526266352465" lon="15.908449048625581"><ele>720.0</ele><time>2026-04-19T08:29:04Z</time></trkpt><trkpt lat="40.08954285939071" lon="15.908346400445792"><ele>720.0</ele><time>2026-04-19T08:29:05Z</time></trkpt><trkpt lat="40.089600789714574" lon="15.908242918941289"><ele>720.0</ele><time>2026-04-19T08:29:07Z</time></trkpt><trkpt lat="40.089658904312586" lon="15.908163099365241"><ele>720.0</ele><time>2026-04-19T08:29:08Z</time></trkpt><trkpt lat="40.08970577565605" lon="15.908078049643308"><ele>720.8</ele><time>2026-04-19T08:29:09Z</time></trkpt><trkpt lat="40.08977039461493" lon="15.907999398327748"><ele>721.6</ele><time>2026-04-19T08:29:10Z</time></trkpt><trkpt lat="40.08983103819758" lon="15.907925978267151"><ele>722.4000000000001</ele><time>2026-04-19T08:29:11Z</time></trkpt><trkpt lat="40.08993926128178" lon="15.907843426939994"><ele>723.2</ele><time>2026-04-19T08:29:13Z</time></trkpt><trkpt lat="40.090019575166984" lon="15.907749027937346"><ele>724.0</ele><time>2026-04-19T08:29:14Z</time></trkpt><trkpt lat="40.09006671521663" lon="15.90767227683386"><ele>728.0</ele><time>2026-04-19T08:29:15Z</time></trkpt><trkpt lat="40.09012405883418" lon="15.907585238658733"><ele>732.0</ele><time>2026-04-19T08:29:16Z</time></trkpt><trkpt lat="40.09016121654756" lon="15.90751517466833"><ele>736.0</ele><time>2026-04-19T08:29:17Z</time></trkpt><trkpt lat="40.09026302134675" lon="15.907436009107913"><ele>740.0</ele><time>2026-04-19T08:29:19Z</time></trkpt><trkpt lat="40.09031808195893" lon="15.907392671663294"><ele>744.0</ele><time>2026-04-19T08:29:20Z</time></trkpt><trkpt lat="40.09039311489273" lon="15.90733961684114"><ele>748.0</ele><time>2026-04-19T08:29:22Z</time></trkpt><trkpt lat="40.090399413080064" lon="15.907191442328704"><ele>750.0</ele><time>2026-04-19T08:29:24Z</time></trkpt><trkpt lat="40.09040024750173" lon="15.907071317630692"><ele>752.0</ele><time>2026-04-19T08:29:26Z</time></trkpt><trkpt lat="40.09047955047855" lon="15.90696846790614"><ele>754.0</ele><time>2026-04-19T08:29:28Z</time></trkpt><trkpt lat="40.09067990855063" lon="15.906701021688509"><ele>759.8000000000001</ele><time>2026-04-19T08:29:30Z</time></trkpt><trkpt lat="40.09076244359736" lon="15.906603657453905"><ele>765.6</ele><time>2026-04-19T08:29:31Z</time></trkpt><trkpt lat="40.09082002539063" lon="15.906508394387714"><ele>771.4</ele><time>2026-04-19T08:29:32Z</time></trkpt><trkpt lat="40.09087761909664" lon="15.906422159904535"><ele>777.2</ele><time>2026-04-19T08:29:33Z</time></trkpt><trkpt lat="40.09094170866063" lon="15.906340899307253"><ele>783.0</ele><time>2026-04-19T08:29:34Z</time></trkpt><trkpt lat="40.091019262288064" lon="15.906276236876089"><ele>783.0</ele><time>2026-04-19T08:29:35Z</time></trkpt><trkpt lat="40.09109955446756" lon="15.906198876906654"><ele>783.0</ele><time>2026-04-19T08:29:36Z</time></trkpt><trkpt lat="40.09119518159838" lon="15.90615920037463"><ele>783.0</ele><time>2026-04-19T08:29:37Z</time></trkpt><trkpt lat="40.091266582905334" lon="15.90610427854611"><ele>783.0</ele><time>2026-04-19T08:29:38Z</time></trkpt><trkpt lat="40.09133082599282" lon="15.905981403760206"><ele>783.0</ele><time>2026-04-19T08:29:40Z</time></trkpt><trkpt lat="40.091438866382916" lon="15.905919046139624"><ele>783.4</ele><time>2026-04-19T08:29:42Z</time></trkpt><trkpt lat="40.091574378633396" lon="15.905808282280823"><ele>783.8</ele><time>2026-04-19T08:29:43Z</time></trkpt><trkpt lat="40.091628315885245" lon="15.905749890489833"><ele>784.2</ele><time>2026-04-19T08:29:44Z</time></trkpt><trkpt lat="40.09169408352341" lon="15.90563670088524"><ele>784.6</ele><time>2026-04-19T08:29:45Z</time></trkpt><trkpt lat="40.09170351415922" lon="15.905496402671313"><ele>785.0</ele><time>2026-04-19T08:29:46Z</time></trkpt><trkpt lat="40.091734144186226" lon="15.905376665421752"><ele>790.0</ele><time>2026-04-19T08:29:47Z</time></trkpt><trkpt lat="40.09181630127659" lon="15.90532401928696"><ele>795.0</ele><time>2026-04-19T08:29:48Z</time></trkpt><trkpt lat="40.091883204174806" lon="15.905238096893639"><ele>800.0</ele><time>2026-04-19T08:29:50Z</time></trkpt><trkpt lat="40.09192884536106" lon="15.90517423814526"><ele>805.0</ele><time>2026-04-19T08:29:51Z</time></trkpt><trkpt lat="40.09197119945299" lon="15.905041910507459"><ele>810.0</ele><time>2026-04-19T08:29:52Z</time></trkpt><trkpt lat="40.09203720136367" lon="15.904920653635374"><ele>811.8333333333334</ele><time>2026-04-19T08:29:53Z</time></trkpt><trkpt lat="40.0921036596358" lon="15.904822609581766"><ele>813.6666666666667</ele><time>2026-04-19T08:29:54Z</time></trkpt><trkpt lat="40.09216443492473" lon="15.90475330653154"><ele>815.5</ele><time>2026-04-19T08:29:55Z</time></trkpt><trkpt lat="40.092233751348296" lon="15.904698800220062"><ele>817.3333333333334</ele><time>2026-04-19T08:29:56Z</time></trkpt><trkpt lat="40.092307478106925" lon="15.904676315163165"><ele>819.1666666666667</ele><time>2026-04-19T08:29:57Z</time></trkpt><trkpt lat="40.09240705257839" lon="15.904639144458438"><ele>821.0</ele><time>2026-04-19T08:29:58Z</time></trkpt><trkpt lat="40.09251933375764" lon="15.904603310015327"><ele>824.0000000000001</ele><time>2026-04-19T08:29:59Z</time></trkpt><trkpt lat="40.092585402488815" lon="15.904587141598572"><ele>827.0</ele><time>2026-04-19T08:30:00Z</time></trkpt><trkpt lat="40.09267858365173" lon="15.904583744855266"><ele>830.0</ele><time>2026-04-19T08:30:01.999Z</time></trkpt><trkpt lat="40.09274421090782" lon="15.904583663398078"><ele>833.0</ele><time>2026-04-19T08:30:02.999Z</time></trkpt><trkpt lat="40.09280889092596" lon="15.904598098886536"><ele>836.0000000000001</ele><time>2026-04-19T08:30:03.999Z</time></trkpt><trkpt lat="40.0929016716735" lon="15.904638919818373"><ele>839.0</ele><time>2026-04-19T08:30:04.999Z</time></trkpt><trkpt lat="40.09300024691104" lon="15.904672405237392"><ele>839.0000000000001</ele><time>2026-04-19T08:30:05.999Z</time></trkpt><trkpt lat="40.09311172131479" lon="15.904680849267491"><ele>839.0</ele><time>2026-04-19T08:30:06.999Z</time></trkpt><trkpt lat="40.093215829202414" lon="15.904697854856616"><ele>839.0</ele><time>2026-04-19T08:30:07.999Z</time></trkpt><trkpt lat="40.09326961912715" lon="15.904767278471205"><ele>839.0</ele><time>2026-04-19T08:30:08.999Z</time></trkpt><trkpt lat="40.09333695185213" lon="15.904806967162537"><ele>839.0000000000001</ele><time>2026-04-19T08:30:09.999Z</time></trkpt><trkpt lat="40.093405408806376" lon="15.904761256734844"><ele>839.0</ele><time>2026-04-19T08:30:15.999Z</time></trkpt><trkpt lat="40.0935071556948" lon="15.90468650057912"><ele>840.4000000000001</ele><time>2026-04-19T08:30:17.999Z</time></trkpt><trkpt lat="40.093581275708516" lon="15.904656070647922"><ele>841.8</ele><time>2026-04-19T08:30:18.999Z</time></trkpt><trkpt lat="40.093661295063995" lon="15.904637049738161"><ele>843.2</ele><time>2026-04-19T08:30:19.999Z</time></trkpt><trkpt lat="40.09378294367336" lon="15.904615385817474"><ele>844.5999999999999</ele><time>2026-04-19T08:30:20.999Z</time></trkpt><trkpt lat="40.09391210511715" lon="15.904589434614998"><ele>846.0</ele><time>2026-04-19T08:30:21.999Z</time></trkpt><trkpt lat="40.094042049261965" lon="15.904527344935667"><ele>847.0</ele><time>2026-04-19T08:30:22.999Z</time></trkpt><trkpt lat="40.09415050034069" lon="15.90444341074921"><ele>848.0</ele><time>2026-04-19T08:30:23.999Z</time></trkpt><trkpt lat="40.09422684390479" lon="15.904388058833895"><ele>849.0</ele><time>2026-04-19T08:30:24.999Z</time></trkpt><trkpt lat="40.094297751831505" lon="15.904362127925562"><ele>850.0</ele><time>2026-04-19T08:30:25.999Z</time></trkpt><trkpt lat="40.094372360119486" lon="15.904378126918555"><ele>851.0</ele><time>2026-04-19T08:30:26.999Z</time></trkpt><trkpt lat="40.09446250935755" lon="15.904423650754524"><ele>851.0</ele><time>2026-04-19T08:30:27.999Z</time></trkpt><trkpt lat="40.094578482678116" lon="15.904493594679606"><ele>851.0</ele><time>2026-04-19T08:30:28.999Z</time></trkpt><trkpt lat="40.09471056240395" lon="15.904537509038889"><ele>851.0</ele><time>2026-04-19T08:30:29.999Z</time></trkpt><trkpt lat="40.09483448101293" lon="15.90453874544771"><ele>851.0</ele><time>2026-04-19T08:30:30.999Z</time></trkpt><trkpt lat="40.09496148295971" lon="15.904522599897483"><ele>852.1999999999999</ele><time>2026-04-19T08:30:31.999Z</time></trkpt><trkpt lat="40.09507349606935" lon="15.904515136579178"><ele>853.4</ele><time>2026-04-19T08:30:32.999Z</time></trkpt><trkpt lat="40.09517206984436" lon="15.904511043726206"><ele>854.6</ele><time>2026-04-19T08:30:33.999Z</time></trkpt><trkpt lat="40.095250277322286" lon="15.904524940977927"><ele>855.8</ele><time>2026-04-19T08:30:34.999Z</time></trkpt><trkpt lat="40.095328909836184" lon="15.904530406370082"><ele>857.0</ele><time>2026-04-19T08:30:35.999Z</time></trkpt><trkpt lat="40.09540981123327" lon="15.904634240005995"><ele>857.0000000000001</ele><time>2026-04-19T08:30:37.999Z</time></trkpt><trkpt lat="40.09541928381241" lon="15.904761090405056"><ele>857.0</ele><time>2026-04-19T08:30:39.999Z</time></trkpt><trkpt lat="40.09551068895507" lon="15.904766539538098"><ele>857.0</ele><time>2026-04-19T08:30:42.999Z</time></trkpt><trkpt lat="40.09555551146139" lon="15.904691546663186"><ele>857.0</ele><time>2026-04-19T08:30:43.999Z</time></trkpt><trkpt lat="40.09560342496368" lon="15.904608906861183"><ele>857.0000000000001</ele><time>2026-04-19T08:30:44.999Z</time></trkpt><trkpt lat="40.095655682517815" lon="15.904557027229073"><ele>857.0</ele><time>2026-04-19T08:30:45.999Z</time></trkpt><trkpt lat="40.09570313886018" lon="15.90448492560256"><ele>857.0000000000001</ele><time>2026-04-19T08:30:47.999Z</time></trkpt><trkpt lat="40.0957430671379" lon="15.904564872859178"><ele>857.0</ele><time>2026-04-19T08:30:49.999Z</time></trkpt><trkpt lat="40.09579611503263" lon="15.904720881956502"><ele>857.0</ele><time>2026-04-19T08:30:52.999Z</time></trkpt><trkpt lat="40.09575804504139" lon="15.90479129397367"><ele>857.0</ele><time>2026-04-19T08:30:53.999Z</time></trkpt><trkpt lat="40.09572724484418" lon="15.904885232847178"><ele>857.0000000000001</ele><time>2026-04-19T08:30:54.999Z</time></trkpt><trkpt lat="40.09571110103219" lon="15.905002757505585"><ele>857.0</ele><time>2026-04-19T08:30:55.999Z</time></trkpt><trkpt lat="40.095716052320576" lon="15.90512143852159"><ele>855.6</ele><time>2026-04-19T08:30:56.999Z</time></trkpt><trkpt lat="40.095745055964095" lon="15.905207502348581"><ele>854.2</ele><time>2026-04-19T08:30:57.999Z</time></trkpt><trkpt lat="40.0958560028001" lon="15.905228784813078"><ele>852.8</ele><time>2026-04-19T08:30:59.999Z</time></trkpt><trkpt lat="40.09592428303979" lon="15.90515801380229"><ele>851.4</ele><time>2026-04-19T08:31:00.999Z</time></trkpt><trkpt lat="40.096003468848224" lon="15.90504838526379"><ele>850.0</ele><time>2026-04-19T08:31:02Z</time></trkpt><trkpt lat="40.09612492812225" lon="15.904777928152669"><ele>856.0</ele><time>2026-04-19T08:31:03Z</time></trkpt><trkpt lat="40.09623067946261" lon="15.904692362352701"><ele>862.0</ele><time>2026-04-19T08:31:04Z</time></trkpt><trkpt lat="40.0963394904345" lon="15.904596503807037"><ele>868.0</ele><time>2026-04-19T08:31:05Z</time></trkpt><trkpt lat="40.09640502065488" lon="15.904540862923021"><ele>874.0</ele><time>2026-04-19T08:31:06Z</time></trkpt><trkpt lat="40.096489418130524" lon="15.904467526438882"><ele>880.0</ele><time>2026-04-19T08:31:07Z</time></trkpt><trkpt lat="40.09655194301348" lon="15.90437947793423"><ele>880.0</ele><time>2026-04-19T08:31:08Z</time></trkpt><trkpt lat="40.09657840350783" lon="15.904263320108907"><ele>880.0</ele><time>2026-04-19T08:31:09Z</time></trkpt><trkpt lat="40.096618861110784" lon="15.904142156322747"><ele>880.0</ele><time>2026-04-19T08:31:10Z</time></trkpt><trkpt lat="40.09667446314405" lon="15.904044522155163"><ele>880.0</ele><time>2026-04-19T08:31:11Z</time></trkpt><trkpt lat="40.09677046999427" lon="15.904011567522794"><ele>880.0</ele><time>2026-04-19T08:31:12Z</time></trkpt><trkpt lat="40.096922735466904" lon="15.90395719670759"><ele>883.4</ele><time>2026-04-19T08:31:14Z</time></trkpt><trkpt lat="40.097016565666266" lon="15.903930109457669"><ele>886.8</ele><time>2026-04-19T08:31:15Z</time></trkpt><trkpt lat="40.09710593468053" lon="15.903855129437282"><ele>890.2</ele><time>2026-04-19T08:31:16Z</time></trkpt><trkpt lat="40.09719179447915" lon="15.903768529981582"><ele>893.6</ele><time>2026-04-19T08:31:17Z</time></trkpt><trkpt lat="40.097274915516465" lon="15.903705234859299"><ele>897.0</ele><time>2026-04-19T08:31:18Z</time></trkpt><trkpt lat="40.097349049818845" lon="15.903690647769753"><ele>899.8333333333334</ele><time>2026-04-19T08:31:19Z</time></trkpt><trkpt lat="40.097442069015734" lon="15.903699159887235"><ele>902.6666666666667</ele><time>2026-04-19T08:31:20Z</time></trkpt><trkpt lat="40.09750899435672" lon="15.903730192497509"><ele>905.5</ele><time>2026-04-19T08:31:21Z</time></trkpt><trkpt lat="40.09759866458342" lon="15.903809618702553"><ele>908.3333333333334</ele><time>2026-04-19T08:31:23Z</time></trkpt><trkpt lat="40.09767989506073" lon="15.90385887924182"><ele>911.1666666666667</ele><time>2026-04-19T08:31:24Z</time></trkpt><trkpt lat="40.097759412241714" lon="15.903873979435723"><ele>914.0</ele><time>2026-04-19T08:31:25Z</time></trkpt><trkpt lat="40.09784700622099" lon="15.903878681542889"><ele>914.0</ele><time>2026-04-19T08:31:26Z</time></trkpt><trkpt lat="40.09794118731499" lon="15.903874668831433"><ele>914.0000000000001</ele><time>2026-04-19T08:31:27Z</time></trkpt><trkpt lat="40.098049227308415" lon="15.903862251033939"><ele>914.0000000000001</ele><time>2026-04-19T08:31:28Z</time></trkpt><trkpt lat="40.098172081591656" lon="15.903807455958486"><ele>914.0</ele><time>2026-04-19T08:31:29Z</time></trkpt><trkpt lat="40.09827413864421" lon="15.903787220184453"><ele>914.0</ele><time>2026-04-19T08:31:30Z</time></trkpt><trkpt lat="40.09837184950896" lon="15.903753258124931"><ele>914.8333333333334</ele><time>2026-04-19T08:31:31Z</time></trkpt><trkpt lat="40.09842776277441" lon="15.903705331183767"><ele>915.6666666666667</ele><time>2026-04-19T08:31:33Z</time></trkpt><trkpt lat="40.09850691835482" lon="15.903675852330062"><ele>916.5</ele><time>2026-04-19T08:31:42Z</time></trkpt><trkpt lat="40.098581498249956" lon="15.903646652983635"><ele>917.3333333333333</ele><time>2026-04-19T08:31:43Z</time></trkpt><trkpt lat="40.09868936002576" lon="15.903646248159404"><ele>918.1666666666666</ele><time>2026-04-19T08:31:45Z</time></trkpt><trkpt lat="40.09877461866494" lon="15.903559474094617"><ele>919.0</ele><time>2026-04-19T08:31:47Z</time></trkpt><trkpt lat="40.09878227120208" lon="15.903392324151525"><ele>919.4999999999999</ele><time>2026-04-19T08:31:49Z</time></trkpt><trkpt lat="40.09877745807226" lon="15.903292924200892"><ele>920.0</ele><time>2026-04-19T08:31:50Z</time></trkpt><trkpt lat="40.09880304565199" lon="15.903192581461447"><ele>920.5</ele><time>2026-04-19T08:31:51Z</time></trkpt><trkpt lat="40.098840230583974" lon="15.903113775624677"><ele>921.0</ele><time>2026-04-19T08:31:52Z</time></trkpt><trkpt lat="40.09890189117223" lon="15.903043447038518"><ele>921.4999999999999</ele><time>2026-04-19T08:31:54Z</time></trkpt><trkpt lat="40.0989583684608" lon="15.90313082954025"><ele>922.0</ele><time>2026-04-19T08:31:57Z</time></trkpt><trkpt lat="40.09898905139173" lon="15.90322333263438"><ele>922.0</ele><time>2026-04-19T08:31:58Z</time></trkpt><trkpt lat="40.09905910384389" lon="15.903299134496903"><ele>922.0</ele><time>2026-04-19T08:32:00Z</time></trkpt><trkpt lat="40.09913668453425" lon="15.90320917452035"><ele>922.0</ele><time>2026-04-19T08:32:02Z</time></trkpt><trkpt lat="40.0991592727949" lon="15.903072221358473"><ele>922.0</ele><time>2026-04-19T08:32:04Z</time></trkpt><trkpt lat="40.099254642336746" lon="15.902945507187894"><ele>922.0</ele><time>2026-04-19T08:32:06Z</time></trkpt><trkpt lat="40.09930040066723" lon="15.90287276584599"><ele>924.3333333333333</ele><time>2026-04-19T08:32:06.999Z</time></trkpt><trkpt lat="40.09934763697038" lon="15.902766966369784"><ele>926.6666666666666</ele><time>2026-04-19T08:32:07.999Z</time></trkpt><trkpt lat="40.09941123589874" lon="15.902692473877755"><ele>929.0</ele><time>2026-04-19T08:32:08.999Z</time></trkpt><trkpt lat="40.09949332072437" lon="15.902625248377003"><ele>931.3333333333333</ele><time>2026-04-19T08:32:09.999Z</time></trkpt><trkpt lat="40.0995599702445" lon="15.902566235367914"><ele>933.6666666666666</ele><time>2026-04-19T08:32:10.999Z</time></trkpt><trkpt lat="40.09960256810292" lon="15.902466649981488"><ele>936.0</ele><time>2026-04-19T08:32:11.999Z</time></trkpt><trkpt lat="40.099628335186054" lon="15.902360684894917"><ele>936.0</ele><time>2026-04-19T08:32:12.999Z</time></trkpt><trkpt lat="40.09969250558326" lon="15.902311845563414"><ele>936.0</ele><time>2026-04-19T08:32:14.999Z</time></trkpt><trkpt lat="40.09976061114612" lon="15.902355271462135"><ele>936.0</ele><time>2026-04-19T08:32:16.999Z</time></trkpt><trkpt lat="40.09977101627022" lon="15.902489620238974"><ele>936.0</ele><time>2026-04-19T08:32:18.999Z</time></trkpt><trkpt lat="40.09980263935474" lon="15.902567396128086"><ele>936.0</ele><time>2026-04-19T08:32:20.999Z</time></trkpt><trkpt lat="40.09986516710302" lon="15.902501050762298"><ele>936.0</ele><time>2026-04-19T08:32:23.999Z</time></trkpt><trkpt lat="40.099952324930435" lon="15.902408956502997"><ele>940.3333333333334</ele><time>2026-04-19T08:32:25.999Z</time></trkpt><trkpt lat="40.100032308345305" lon="15.902261691191267"><ele>944.6666666666667</ele><time>2026-04-19T08:32:26.999Z</time></trkpt><trkpt lat="40.10006672060598" lon="15.902153764086131"><ele>949.0</ele><time>2026-04-19T08:32:27.999Z</time></trkpt><trkpt lat="40.10008343289365" lon="15.902063772772372"><ele>953.3333333333334</ele><time>2026-04-19T08:32:28.999Z</time></trkpt><trkpt lat="40.10012325246627" lon="15.901996395905817"><ele>957.6666666666667</ele><time>2026-04-19T08:32:29.999Z</time></trkpt><trkpt lat="40.10017772167685" lon="15.901930149257039"><ele>962.0</ele><time>2026-04-19T08:32:30.999Z</time></trkpt><trkpt lat="40.10025718209716" lon="15.901885467331896"><ele>962.0</ele><time>2026-04-19T08:32:31.999Z</time></trkpt><trkpt lat="40.10034600604394" lon="15.901882508066022"><ele>962.0</ele><time>2026-04-19T08:32:32.999Z</time></trkpt><trkpt lat="40.10045297131606" lon="15.901847792752609"><ele>962.0</ele><time>2026-04-19T08:32:33.999Z</time></trkpt><trkpt lat="40.100543453750305" lon="15.901825722694362"><ele>962.0</ele><time>2026-04-19T08:32:34.999Z</time></trkpt><trkpt lat="40.10062863312827" lon="15.901796930666334"><ele>962.0</ele><time>2026-04-19T08:32:35.999Z</time></trkpt><trkpt lat="40.10070418460512" lon="15.901763838325962"><ele>964.8333333333334</ele><time>2026-04-19T08:32:36.999Z</time></trkpt><trkpt lat="40.10078362604646" lon="15.901729945694582"><ele>967.6666666666667</ele><time>2026-04-19T08:32:37.999Z</time></trkpt><trkpt lat="40.10084601318122" lon="15.901675975467855"><ele>970.5</ele><time>2026-04-19T08:32:38.999Z</time></trkpt><trkpt lat="40.10090922047172" lon="15.901590514388271"><ele>973.3333333333333</ele><time>2026-04-19T08:32:39.999Z</time></trkpt><trkpt lat="40.10096636416964" lon="15.90147983102822"><ele>976.1666666666666</ele><time>2026-04-19T08:32:40.999Z</time></trkpt><trkpt lat="40.101033053470665" lon="15.901411260131383"><ele>979.0</ele><time>2026-04-19T08:32:42.999Z</time></trkpt><trkpt lat="40.10112908148816" lon="15.90133662489814"><ele>979.0</ele><time>2026-04-19T08:32:44.999Z</time></trkpt><trkpt lat="40.101222664735644" lon="15.901282362084169"><ele>979.0000000000001</ele><time>2026-04-19T08:32:45.999Z</time></trkpt><trkpt lat="40.10131827639952" lon="15.901241617571877"><ele>979.0000000000001</ele><time>2026-04-19T08:32:46.999Z</time></trkpt><trkpt lat="40.101403524444265" lon="15.90124428715926"><ele>979.0</ele><time>2026-04-19T08:32:47.999Z</time></trkpt><trkpt lat="40.10150656206975" lon="15.901265663747468"><ele>979.0</ele><time>2026-04-19T08:32:48.999Z</time></trkpt><trkpt lat="40.1016156236359" lon="15.901277223994716"><ele>979.8000000000001</ele><time>2026-04-19T08:32:49.999Z</time></trkpt><trkpt lat="40.10173392571177" lon="15.901325570564683"><ele>980.6000000000001</ele><time>2026-04-19T08:32:50.999Z</time></trkpt><trkpt lat="40.1018461202907" lon="15.901363524470435"><ele>981.4</ele><time>2026-04-19T08:32:51.999Z</time></trkpt><trkpt lat="40.101928508279876" lon="15.901368900755765"><ele>982.2</ele><time>2026-04-19T08:32:52.999Z</time></trkpt><trkpt lat="40.102000340657995" lon="15.901357748481233"><ele>983.0</ele><time>2026-04-19T08:32:53.999Z</time></trkpt><trkpt lat="40.1020726918417" lon="15.901318685618545"><ele>983.0</ele><time>2026-04-19T08:32:54.999Z</time></trkpt><trkpt lat="40.1021474165379" lon="15.901252555716614"><ele>983.0</ele><time>2026-04-19T08:32:55.999Z</time></trkpt><trkpt lat="40.10226532156958" lon="15.901155611512857"><ele>983.0</ele><time>2026-04-19T08:32:56.999Z</time></trkpt><trkpt lat="40.10237198974425" lon="15.901081124123726"><ele>983.0</ele><time>2026-04-19T08:32:57.999Z</time></trkpt><trkpt lat="40.102486822900694" lon="15.90100558701809"><ele>983.25</ele><time>2026-04-19T08:32:58.999Z</time></trkpt><trkpt lat="40.10260712788306" lon="15.90090809624416"><ele>983.5</ele><time>2026-04-19T08:32:59.999Z</time></trkpt><trkpt lat="40.102707055016495" lon="15.900836295695651"><ele>983.75</ele><time>2026-04-19T08:33:00.999Z</time></trkpt><trkpt lat="40.102813700876645" lon="15.900769288046732"><ele>984.0</ele><time>2026-04-19T08:33:01.999Z</time></trkpt><trkpt lat="40.102922550677015" lon="15.900712865684952"><ele>984.0</ele><time>2026-04-19T08:33:02.999Z</time></trkpt><trkpt lat="40.10301034156225" lon="15.900665195440723"><ele>984.0000000000001</ele><time>2026-04-19T08:33:03.999Z</time></trkpt><trkpt lat="40.10309485144102" lon="15.900596132516506"><ele>984.0000000000001</ele><time>2026-04-19T08:33:04.999Z</time></trkpt><trkpt lat="40.10318485559962" lon="15.900513027603767"><ele>984.0</ele><time>2026-04-19T08:33:05.999Z</time></trkpt><trkpt lat="40.103283648536454" lon="15.900417559765817"><ele>984.0</ele><time>2026-04-19T08:33:06.999Z</time></trkpt><trkpt lat="40.10338399109329" lon="15.900310415880474"><ele>982.25</ele><time>2026-04-19T08:33:08Z</time></trkpt><trkpt lat="40.10348172741829" lon="15.900178650654277"><ele>980.5</ele><time>2026-04-19T08:33:09Z</time></trkpt><trkpt lat="40.10354883909648" lon="15.900039208177411"><ele>978.75</ele><time>2026-04-19T08:33:10Z</time></trkpt><trkpt lat="40.10362229985171" lon="15.899888559843362"><ele>977.0</ele><time>2026-04-19T08:33:11Z</time></trkpt><trkpt lat="40.103684627108976" lon="15.899771091142895"><ele>977.0</ele><time>2026-04-19T08:33:12Z</time></trkpt><trkpt lat="40.10374958543547" lon="15.899684280699201"><ele>977.0</ele><time>2026-04-19T08:33:13Z</time></trkpt><trkpt lat="40.103802816283384" lon="15.899577187462581"><ele>977.0</ele><time>2026-04-19T08:33:14Z</time></trkpt><trkpt lat="40.10385088479873" lon="15.899442229305977"><ele>977.0</ele><time>2026-04-19T08:33:15Z</time></trkpt><trkpt lat="40.10391098695967" lon="15.899313190352673"><ele>977.0</ele><time>2026-04-19T08:33:16Z</time></trkpt><trkpt lat="40.10396075859629" lon="15.899238048536011"><ele>975.6</ele><time>2026-04-19T08:33:17Z</time></trkpt><trkpt lat="40.10404594932224" lon="15.899188620494701"><ele>974.2</ele><time>2026-04-19T08:33:18Z</time></trkpt><trkpt lat="40.10411518494906" lon="15.899134782801097"><ele>972.8</ele><time>2026-04-19T08:33:19Z</time></trkpt><trkpt lat="40.10419608936424" lon="15.899021445462159"><ele>971.4</ele><time>2026-04-19T08:33:20Z</time></trkpt><trkpt lat="40.1042592637477" lon="15.898881077329564"><ele>970.0</ele><time>2026-04-19T08:33:21Z</time></trkpt><trkpt lat="40.10432627259353" lon="15.898755017209375"><ele>974.75</ele><time>2026-04-19T08:33:22Z</time></trkpt><trkpt lat="40.10442019211941" lon="15.898628707534593"><ele>979.5</ele><time>2026-04-19T08:33:23Z</time></trkpt><trkpt lat="40.10453857948529" lon="15.898498522997205"><ele>984.25</ele><time>2026-04-19T08:33:24Z</time></trkpt><trkpt lat="40.10465215934295" lon="15.89838066772563"><ele>989.0</ele><time>2026-04-19T08:33:25Z</time></trkpt><trkpt lat="40.10474374176354" lon="15.89827410477102"><ele>989.0</ele><time>2026-04-19T08:33:26Z</time></trkpt><trkpt lat="40.10480247706861" lon="15.898186837736196"><ele>989.0000000000001</ele><time>2026-04-19T08:33:27Z</time></trkpt><trkpt lat="40.10486021994483" lon="15.898086610466812"><ele>989.0000000000001</ele><time>2026-04-19T08:33:28Z</time></trkpt><trkpt lat="40.104940903147906" lon="15.897981183889007"><ele>989.0</ele><time>2026-04-19T08:33:29Z</time></trkpt><trkpt lat="40.105015455189445" lon="15.897858274533426"><ele>989.0</ele><time>2026-04-19T08:33:30Z</time></trkpt><trkpt lat="40.10509052478744" lon="15.89771584542133"><ele>990.75</ele><time>2026-04-19T08:33:31Z</time></trkpt><trkpt lat="40.10517963653524" lon="15.897562909905828"><ele>992.5</ele><time>2026-04-19T08:33:32Z</time></trkpt><trkpt lat="40.10525836472425" lon="15.897418574592239"><ele>994.25</ele><time>2026-04-19T08:33:33Z</time></trkpt><trkpt lat="40.10534858491186" lon="15.897297942948128"><ele>996.0</ele><time>2026-04-19T08:33:34Z</time></trkpt><trkpt lat="40.10543794965243" lon="15.897188208708053"><ele>996.0</ele><time>2026-04-19T08:33:35Z</time></trkpt><trkpt lat="40.10551657269933" lon="15.897089716560252"><ele>996.0</ele><time>2026-04-19T08:33:36Z</time></trkpt><trkpt lat="40.10559591144016" lon="15.896967842233787"><ele>996.0</ele><time>2026-04-19T08:33:37Z</time></trkpt><trkpt lat="40.10566880946431" lon="15.896828575227552"><ele>996.0</ele><time>2026-04-19T08:33:38Z</time></trkpt><trkpt lat="40.10574363815152" lon="15.896694342217774"><ele>998.3333333333334</ele><time>2026-04-19T08:33:39Z</time></trkpt><trkpt lat="40.10581574888122" lon="15.89657693111917"><ele>1000.6666666666667</ele><time>2026-04-19T08:33:40Z</time></trkpt><trkpt lat="40.10588103803875" lon="15.896488862152703"><ele>1003.0</ele><time>2026-04-19T08:33:41Z</time></trkpt><trkpt lat="40.10594281644862" lon="15.896411818042962"><ele>1005.3333333333334</ele><time>2026-04-19T08:33:43Z</time></trkpt><trkpt lat="40.10598686297238" lon="15.896353003196365"><ele>1007.6666666666667</ele><time>2026-04-19T08:33:45Z</time></trkpt><trkpt lat="40.10601914982047" lon="15.896253361675218"><ele>1010.0</ele><time>2026-04-19T08:33:52Z</time></trkpt><trkpt lat="40.106024905684" lon="15.896165278939831"><ele>1010.0</ele><time>2026-04-19T08:33:54Z</time></trkpt><trkpt lat="40.106116648340205" lon="15.895927576921762"><ele>1010.0</ele><time>2026-04-19T08:33:56Z</time></trkpt><trkpt lat="40.10615913523906" lon="15.895814666517206"><ele>1010.0</ele><time>2026-04-19T08:33:57Z</time></trkpt><trkpt lat="40.106216643631505" lon="15.895718859751435"><ele>1010.0</ele><time>2026-04-19T08:33:58Z</time></trkpt><trkpt lat="40.106277948627785" lon="15.895630228492701"><ele>1009.8</ele><time>2026-04-19T08:33:59Z</time></trkpt><trkpt lat="40.10635202287224" lon="15.895510833144016"><ele>1009.6</ele><time>2026-04-19T08:34:00Z</time></trkpt><trkpt lat="40.106383654405484" lon="15.895383611858792"><ele>1009.4000000000001</ele><time>2026-04-19T08:34:01Z</time></trkpt><trkpt lat="40.1064401930607" lon="15.895264472653711"><ele>1009.2</ele><time>2026-04-19T08:34:02Z</time></trkpt><trkpt lat="40.106499913189346" lon="15.895164743019201"><ele>1009.0</ele><time>2026-04-19T08:34:03Z</time></trkpt><trkpt lat="40.10657723141243" lon="15.895105554741141"><ele>1011.5</ele><time>2026-04-19T08:34:04Z</time></trkpt><trkpt lat="40.10666778467039" lon="15.895089595480039"><ele>1014.0</ele><time>2026-04-19T08:34:05Z</time></trkpt><trkpt lat="40.106764153287315" lon="15.895042382396783"><ele>1016.5</ele><time>2026-04-19T08:34:06Z</time></trkpt><trkpt lat="40.10691749203402" lon="15.894977952635001"><ele>1019.0</ele><time>2026-04-19T08:34:07Z</time></trkpt><trkpt lat="40.10702290573939" lon="15.894926713512197"><ele>1020.75</ele><time>2026-04-19T08:34:08Z</time></trkpt><trkpt lat="40.10712226554059" lon="15.894895978511665"><ele>1022.5</ele><time>2026-04-19T08:34:09Z</time></trkpt><trkpt lat="40.107217465844194" lon="15.894801869970639"><ele>1024.25</ele><time>2026-04-19T08:34:10Z</time></trkpt><trkpt lat="40.10732861480905" lon="15.89475138381992"><ele>1026.0</ele><time>2026-04-19T08:34:11Z</time></trkpt><trkpt lat="40.10746525147754" lon="15.89470450203439"><ele>1027.75</ele><time>2026-04-19T08:34:11.999Z</time></trkpt><trkpt lat="40.10759351952774" lon="15.894664943258165"><ele>1029.5</ele><time>2026-04-19T08:34:12.999Z</time></trkpt><trkpt lat="40.10769030321012" lon="15.894597488004111"><ele>1031.25</ele><time>2026-04-19T08:34:13.999Z</time></trkpt><trkpt lat="40.10776490359205" lon="15.894467755099894"><ele>1033.0</ele><time>2026-04-19T08:34:15.999Z</time></trkpt><trkpt lat="40.10786513850579" lon="15.894368034662113"><ele>1033.0</ele><time>2026-04-19T08:34:16.999Z</time></trkpt><trkpt lat="40.107956019971844" lon="15.894284330441598"><ele>1033.0</ele><time>2026-04-19T08:34:17.999Z</time></trkpt><trkpt lat="40.10801366560949" lon="15.894215917758395"><ele>1033.0</ele><time>2026-04-19T08:34:18.999Z</time></trkpt><trkpt lat="40.10809007672544" lon="15.89418085468945"><ele>1033.0</ele><time>2026-04-19T08:34:19.999Z</time></trkpt><trkpt lat="40.10817429239309" lon="15.894184306470017"><ele>1033.0</ele><time>2026-04-19T08:34:20.999Z</time></trkpt><trkpt lat="40.10828263848804" lon="15.894145628075767"><ele>1034.25</ele><time>2026-04-19T08:34:21.999Z</time></trkpt><trkpt lat="40.10838450394649" lon="15.894078816279565"><ele>1035.5</ele><time>2026-04-19T08:34:22.999Z</time></trkpt><trkpt lat="40.10846960357265" lon="15.893970724298912"><ele>1036.75</ele><time>2026-04-19T08:34:23.999Z</time></trkpt><trkpt lat="40.10855585099568" lon="15.893868044900069"><ele>1038.0</ele><time>2026-04-19T08:34:24.999Z</time></trkpt><trkpt lat="40.1086385003731" lon="15.893787837011592"><ele>1038.0</ele><time>2026-04-19T08:34:25.999Z</time></trkpt><trkpt lat="40.108747906631805" lon="15.893755923293144"><ele>1038.0</ele><time>2026-04-19T08:34:26.999Z</time></trkpt><trkpt lat="40.10888185328627" lon="15.893693563430059"><ele>1038.0</ele><time>2026-04-19T08:34:27.999Z</time></trkpt><trkpt lat="40.109037151244046" lon="15.893586738100547"><ele>1038.0</ele><time>2026-04-19T08:34:28.999Z</time></trkpt><trkpt lat="40.109191860336395" lon="15.893465573741578"><ele>1039.3333333333333</ele><time>2026-04-19T08:34:29.999Z</time></trkpt><trkpt lat="40.10934587078337" lon="15.893364048263853"><ele>1040.6666666666665</ele><time>2026-04-19T08:34:30.999Z</time></trkpt><trkpt lat="40.109489935461184" lon="15.893273237568218"><ele>1042.0</ele><time>2026-04-19T08:34:31.999Z</time></trkpt><trkpt lat="40.10961204802054" lon="15.893170845604162"><ele>1042.0</ele><time>2026-04-19T08:34:32.999Z</time></trkpt><trkpt lat="40.109712481459" lon="15.893073717565484"><ele>1042.0</ele><time>2026-04-19T08:34:33.999Z</time></trkpt><trkpt lat="40.109813258880436" lon="15.892960801339848"><ele>1042.0</ele><time>2026-04-19T08:34:34.999Z</time></trkpt><trkpt lat="40.10990546828152" lon="15.89283590655302"><ele>1042.0</ele><time>2026-04-19T08:34:35.999Z</time></trkpt><trkpt lat="40.10999022188582" lon="15.892689119902217"><ele>1045.5</ele><time>2026-04-19T08:34:36.999Z</time></trkpt><trkpt lat="40.11005223992492" lon="15.892532217938887"><ele>1049.0</ele><time>2026-04-19T08:34:37.999Z</time></trkpt><trkpt lat="40.11012513494613" lon="15.892400180894873"><ele>1052.5</ele><time>2026-04-19T08:34:38.999Z</time></trkpt><trkpt lat="40.11018686977931" lon="15.892239264668946"><ele>1056.0</ele><time>2026-04-19T08:34:39.999Z</time></trkpt><trkpt lat="40.110244810605586" lon="15.892075616340342"><ele>1056.0</ele><time>2026-04-19T08:34:40.999Z</time></trkpt><trkpt lat="40.11030162671866" lon="15.891916649333385"><ele>1056.0</ele><time>2026-04-19T08:34:41.999Z</time></trkpt><trkpt lat="40.11035392466038" lon="15.891785345484132"><ele>1056.0</ele><time>2026-04-19T08:34:42.999Z</time></trkpt><trkpt lat="40.110411872203365" lon="15.891658798553854"><ele>1056.0</ele><time>2026-04-19T08:34:43.999Z</time></trkpt><trkpt lat="40.11046952001887" lon="15.891534897710837"><ele>1056.25</ele><time>2026-04-19T08:34:44.999Z</time></trkpt><trkpt lat="40.11056802275321" lon="15.891439395268062"><ele>1056.5</ele><time>2026-04-19T08:34:45.999Z</time></trkpt><trkpt lat="40.11067006204606" lon="15.891357618242338"><ele>1056.75</ele><time>2026-04-19T08:34:46.999Z</time></trkpt><trkpt lat="40.1107842116316" lon="15.891270409777132"><ele>1057.0</ele><time>2026-04-19T08:34:47.999Z</time></trkpt><trkpt lat="40.110890422169206" lon="15.891188491407709"><ele>1058.6</ele><time>2026-04-19T08:34:48.999Z</time></trkpt><trkpt lat="40.11096293283971" lon="15.891120241212763"><ele>1060.2</ele><time>2026-04-19T08:34:49.999Z</time></trkpt><trkpt lat="40.111030237242545" lon="15.891073628002943"><ele>1061.8</ele><time>2026-04-19T08:34:50.999Z</time></trkpt><trkpt lat="40.11108880488596" lon="15.890995011882495"><ele>1063.4</ele><time>2026-04-19T08:34:51.999Z</time></trkpt><trkpt lat="40.111134404137765" lon="15.890887888843823"><ele>1065.0</ele><time>2026-04-19T08:34:52.999Z</time></trkpt><trkpt lat="40.11118551501837" lon="15.890756621718563"><ele>1066.8</ele><time>2026-04-19T08:34:53.999Z</time></trkpt><trkpt lat="40.11124302212474" lon="15.890638409870574"><ele>1068.6</ele><time>2026-04-19T08:34:54.999Z</time></trkpt><trkpt lat="40.11130506440684" lon="15.890518314035667"><ele>1070.4</ele><time>2026-04-19T08:34:55.999Z</time></trkpt><trkpt lat="40.11136827485408" lon="15.890406582530476"><ele>1072.2</ele><time>2026-04-19T08:34:56.999Z</time></trkpt><trkpt lat="40.11143660016208" lon="15.890310974982848"><ele>1074.0</ele><time>2026-04-19T08:34:57.999Z</time></trkpt><trkpt lat="40.111499903141784" lon="15.890211931208063"><ele>1074.0</ele><time>2026-04-19T08:34:58.999Z</time></trkpt><trkpt lat="40.11154782809245" lon="15.890130324660348"><ele>1074.0</ele><time>2026-04-19T08:34:59.999Z</time></trkpt><trkpt lat="40.11155606481156" lon="15.890030458327477"><ele>1074.0</ele><time>2026-04-19T08:35:00.999Z</time></trkpt><trkpt lat="40.11153209369322" lon="15.889915613510489"><ele>1074.0</ele><time>2026-04-19T08:35:01.999Z</time></trkpt><trkpt lat="40.11147813572043" lon="15.889811899833905"><ele>1074.0</ele><time>2026-04-19T08:35:02.999Z</time></trkpt><trkpt lat="40.11140479244335" lon="15.889686853547651"><ele>1074.25</ele><time>2026-04-19T08:35:03.999Z</time></trkpt><trkpt lat="40.11131088622797" lon="15.88954312381427"><ele>1074.5</ele><time>2026-04-19T08:35:04.999Z</time></trkpt><trkpt lat="40.111212365193865" lon="15.889393165095854"><ele>1074.75</ele><time>2026-04-19T08:35:05.999Z</time></trkpt><trkpt lat="40.11112286605371" lon="15.889267907330654"><ele>1075.0</ele><time>2026-04-19T08:35:06.999Z</time></trkpt><trkpt lat="40.11105419972934" lon="15.889161175150816"><ele>1077.5</ele><time>2026-04-19T08:35:07.999Z</time></trkpt><trkpt lat="40.11098845885028" lon="15.889014532247447"><ele>1080.0</ele><time>2026-04-19T08:35:08.999Z</time></trkpt><trkpt lat="40.110917413457614" lon="15.888861353296003"><ele>1082.5</ele><time>2026-04-19T08:35:09.999Z</time></trkpt><trkpt lat="40.11083468360594" lon="15.888716337724091"><ele>1085.0</ele><time>2026-04-19T08:35:10.999Z</time></trkpt><trkpt lat="40.11074455045296" lon="15.888588805223891"><ele>1083.5</ele><time>2026-04-19T08:35:11.999Z</time></trkpt><trkpt lat="40.11065252370711" lon="15.888480360802557"><ele>1082.0</ele><time>2026-04-19T08:35:12.999Z</time></trkpt><trkpt lat="40.11053256607876" lon="15.888363907952627"><ele>1080.5</ele><time>2026-04-19T08:35:14Z</time></trkpt><trkpt lat="40.11042659551347" lon="15.888237820069914"><ele>1079.0</ele><time>2026-04-19T08:35:15Z</time></trkpt><trkpt lat="40.11034590881035" lon="15.888110328387706"><ele>1079.0</ele><time>2026-04-19T08:35:16Z</time></trkpt><trkpt lat="40.11025880747664" lon="15.88799690923418"><ele>1079.0</ele><time>2026-04-19T08:35:17Z</time></trkpt><trkpt lat="40.110164669253976" lon="15.887886460424049"><ele>1079.0</ele><time>2026-04-19T08:35:18Z</time></trkpt><trkpt lat="40.11004027958476" lon="15.887776381080078"><ele>1079.0</ele><time>2026-04-19T08:35:19Z</time></trkpt><trkpt lat="40.109927729738914" lon="15.887690028003052"><ele>1078.0</ele><time>2026-04-19T08:35:20Z</time></trkpt><trkpt lat="40.10982929503012" lon="15.887633649863718"><ele>1077.0</ele><time>2026-04-19T08:35:21Z</time></trkpt><trkpt lat="40.109755977671874" lon="15.887581055345906"><ele>1076.0</ele><time>2026-04-19T08:35:22Z</time></trkpt><trkpt lat="40.109699929301854" lon="15.887488801358138"><ele>1075.0</ele><time>2026-04-19T08:35:23Z</time></trkpt><trkpt lat="40.109633302479686" lon="15.887372386677816"><ele>1074.0</ele><time>2026-04-19T08:35:24Z</time></trkpt><trkpt lat="40.109533009618325" lon="15.88724970666007"><ele>1074.0</ele><time>2026-04-19T08:35:25Z</time></trkpt><trkpt lat="40.109414146393746" lon="15.887135635129402"><ele>1074.0</ele><time>2026-04-19T08:35:26Z</time></trkpt><trkpt lat="40.10931231214105" lon="15.887004883273898"><ele>1074.0</ele><time>2026-04-19T08:35:27Z</time></trkpt><trkpt lat="40.10922304001884" lon="15.886873965240246"><ele>1074.0</ele><time>2026-04-19T08:35:28Z</time></trkpt><trkpt lat="40.109126137442516" lon="15.886755513070238"><ele>1073.0</ele><time>2026-04-19T08:35:29Z</time></trkpt><trkpt lat="40.10903042517935" lon="15.886624891208298"><ele>1072.0</ele><time>2026-04-19T08:35:30Z</time></trkpt><trkpt lat="40.10892339466711" lon="15.886537372943137"><ele>1071.0</ele><time>2026-04-19T08:35:31Z</time></trkpt><trkpt lat="40.10882959840904" lon="15.886417386507395"><ele>1070.0</ele><time>2026-04-19T08:35:32Z</time></trkpt><trkpt lat="40.108729652069876" lon="15.886290528202968"><ele>1070.0</ele><time>2026-04-19T08:35:33Z</time></trkpt><trkpt lat="40.10864665419151" lon="15.886196616937887"><ele>1070.0</ele><time>2026-04-19T08:35:34Z</time></trkpt><trkpt lat="40.10856478228129" lon="15.886116649955841"><ele>1070.0</ele><time>2026-04-19T08:35:35Z</time></trkpt><trkpt lat="40.10849020580975" lon="15.886047082064266"><ele>1070.0</ele><time>2026-04-19T08:35:36Z</time></trkpt><trkpt lat="40.10841151705345" lon="15.885996226255548"><ele>1070.0</ele><time>2026-04-19T08:35:37Z</time></trkpt><trkpt lat="40.10833932566044" lon="15.885962479320307"><ele>1068.6</ele><time>2026-04-19T08:35:38Z</time></trkpt><trkpt lat="40.10823670545273" lon="15.885999222820857"><ele>1067.2</ele><time>2026-04-19T08:35:39Z</time></trkpt><trkpt lat="40.108133546133146" lon="15.886061880156358"><ele>1065.8</ele><time>2026-04-19T08:35:40Z</time></trkpt><trkpt lat="40.10804517134507" lon="15.886122243705538"><ele>1064.4</ele><time>2026-04-19T08:35:41Z</time></trkpt><trkpt lat="40.10796706847587" lon="15.88620887954164"><ele>1063.0</ele><time>2026-04-19T08:35:42Z</time></trkpt><trkpt lat="40.107908933263694" lon="15.886305390428562"><ele>1063.0</ele><time>2026-04-19T08:35:43Z</time></trkpt><trkpt lat="40.107843650031704" lon="15.886366402688166"><ele>1063.0</ele><time>2026-04-19T08:35:44Z</time></trkpt><trkpt lat="40.10776709036283" lon="15.88637384188711"><ele>1063.0</ele><time>2026-04-19T08:35:45Z</time></trkpt><trkpt lat="40.10767400824171" lon="15.886339983602138"><ele>1063.0</ele><time>2026-04-19T08:35:46Z</time></trkpt><trkpt lat="40.10756715456037" lon="15.886337115697385"><ele>1063.0</ele><time>2026-04-19T08:35:47Z</time></trkpt><trkpt lat="40.10745629959158" lon="15.886360374279228"><ele>1062.2</ele><time>2026-04-19T08:35:48Z</time></trkpt><trkpt lat="40.107354876461116" lon="15.886373966773322"><ele>1061.4</ele><time>2026-04-19T08:35:49Z</time></trkpt><trkpt lat="40.1072461545415" lon="15.88637583353852"><ele>1060.6000000000001</ele><time>2026-04-19T08:35:50Z</time></trkpt><trkpt lat="40.107162156380625" lon="15.88640835395229"><ele>1059.8</ele><time>2026-04-19T08:35:51Z</time></trkpt><trkpt lat="40.107080171672614" lon="15.886423654602028"><ele>1059.0</ele><time>2026-04-19T08:35:52Z</time></trkpt><trkpt lat="40.10701110021514" lon="15.886401366973718"><ele>1059.0</ele><time>2026-04-19T08:35:53Z</time></trkpt><trkpt lat="40.10693277260906" lon="15.886354263431937"><ele>1059.0</ele><time>2026-04-19T08:35:54Z</time></trkpt><trkpt lat="40.10683688702673" lon="15.886305534355717"><ele>1059.0</ele><time>2026-04-19T08:35:55Z</time></trkpt><trkpt lat="40.10672123699916" lon="15.886261299685778"><ele>1059.0</ele><time>2026-04-19T08:35:56Z</time></trkpt><trkpt lat="40.10658861459994" lon="15.886215732608452"><ele>1059.0</ele><time>2026-04-19T08:35:57Z</time></trkpt><trkpt lat="40.10646659909832" lon="15.88617982350883"><ele>1059.25</ele><time>2026-04-19T08:35:58Z</time></trkpt><trkpt lat="40.1063466387691" lon="15.886149016553448"><ele>1059.5</ele><time>2026-04-19T08:35:59Z</time></trkpt><trkpt lat="40.10622629263726" lon="15.886118613772618"><ele>1059.75</ele><time>2026-04-19T08:36:00Z</time></trkpt><trkpt lat="40.10611007087493" lon="15.886124482150146"><ele>1060.0</ele><time>2026-04-19T08:36:01Z</time></trkpt><trkpt lat="40.10601725672517" lon="15.88610443340548"><ele>1060.0</ele><time>2026-04-19T08:36:02Z</time></trkpt><trkpt lat="40.10593499968636" lon="15.886091761869775"><ele>1060.0</ele><time>2026-04-19T08:36:03Z</time></trkpt><trkpt lat="40.10585853859379" lon="15.88604734968881"><ele>1060.0</ele><time>2026-04-19T08:36:04Z</time></trkpt><trkpt lat="40.1057800886291" lon="15.885978658001108"><ele>1060.0</ele><time>2026-04-19T08:36:05Z</time></trkpt><trkpt lat="40.10570153319488" lon="15.885928875434413"><ele>1060.0</ele><time>2026-04-19T08:36:06Z</time></trkpt><trkpt lat="40.1056480816909" lon="15.885876264063432"><ele>1060.0</ele><time>2026-04-19T08:36:07Z</time></trkpt><trkpt lat="40.10560968782599" lon="15.88577383453854"><ele>1053.25</ele><time>2026-04-19T08:36:08Z</time></trkpt><trkpt lat="40.105587668300295" lon="15.88564038257904"><ele>1046.5</ele><time>2026-04-19T08:36:09Z</time></trkpt><trkpt lat="40.10557124481344" lon="15.885464124484713"><ele>1039.75</ele><time>2026-04-19T08:36:10Z</time></trkpt><trkpt lat="40.105556827434064" lon="15.885308097829125"><ele>1033.0</ele><time>2026-04-19T08:36:11Z</time></trkpt><trkpt lat="40.10554135972912" lon="15.885162259082389"><ele>1033.25</ele><time>2026-04-19T08:36:12Z</time></trkpt><trkpt lat="40.10552415071973" lon="15.885024895122193"><ele>1033.5</ele><time>2026-04-19T08:36:13Z</time></trkpt><trkpt lat="40.105506450095014" lon="15.884886473507986"><ele>1033.75</ele><time>2026-04-19T08:36:14Z</time></trkpt><trkpt lat="40.10548835943055" lon="15.884727333560505"><ele>1034.0</ele><time>2026-04-19T08:36:15Z</time></trkpt><trkpt lat="40.105434456462255" lon="15.884576853178546"><ele>1034.0</ele><time>2026-04-19T08:36:16Z</time></trkpt><trkpt lat="40.10536944726322" lon="15.884410483572294"><ele>1034.0</ele><time>2026-04-19T08:36:17Z</time></trkpt><trkpt lat="40.10529889014608" lon="15.88423136884257"><ele>1034.0</ele><time>2026-04-19T08:36:18Z</time></trkpt><trkpt lat="40.10522284756862" lon="15.884038747746821"><ele>1035.25</ele><time>2026-04-19T08:36:18.999Z</time></trkpt><trkpt lat="40.10516002148536" lon="15.883862081368692"><ele>1036.5</ele><time>2026-04-19T08:36:19.999Z</time></trkpt><trkpt lat="40.10510557246339" lon="15.88367335137564"><ele>1037.75</ele><time>2026-04-19T08:36:20.999Z</time></trkpt><trkpt lat="40.105038297649116" lon="15.883513452083898"><ele>1039.0</ele><time>2026-04-19T08:36:21.999Z</time></trkpt><trkpt lat="40.10496494643254" lon="15.883371576245523"><ele>1037.4</ele><time>2026-04-19T08:36:22.999Z</time></trkpt><trkpt lat="40.104885847183425" lon="15.883244974100984"><ele>1035.8000000000002</ele><time>2026-04-19T08:36:23.999Z</time></trkpt><trkpt lat="40.10481048608551" lon="15.883123379911726"><ele>1034.1999999999998</ele><time>2026-04-19T08:36:24.999Z</time></trkpt><trkpt lat="40.10474968113564" lon="15.883010813460647"><ele>1032.6</ele><time>2026-04-19T08:36:25.999Z</time></trkpt><trkpt lat="40.10470427580534" lon="15.882905799428762"><ele>1031.0</ele><time>2026-04-19T08:36:26.999Z</time></trkpt><trkpt lat="40.10468046073984" lon="15.882795630734753"><ele>1031.0</ele><time>2026-04-19T08:36:27.999Z</time></trkpt><trkpt lat="40.1046642798872" lon="15.882657142411658"><ele>1031.0</ele><time>2026-04-19T08:36:28.999Z</time></trkpt><trkpt lat="40.10464884289642" lon="15.8825054443698"><ele>1031.0</ele><time>2026-04-19T08:36:29.999Z</time></trkpt><trkpt lat="40.10462094674931" lon="15.882324062056284"><ele>1031.0</ele><time>2026-04-19T08:36:30.999Z</time></trkpt><trkpt lat="40.10457310264445" lon="15.882139909265065"><ele>1034.25</ele><time>2026-04-19T08:36:31.999Z</time></trkpt><trkpt lat="40.10451582855011" lon="15.881958053663404"><ele>1037.5</ele><time>2026-04-19T08:36:32.999Z</time></trkpt><trkpt lat="40.10445043075183" lon="15.881823052498541"><ele>1040.75</ele><time>2026-04-19T08:36:33.999Z</time></trkpt><trkpt lat="40.10440550791871" lon="15.881707800184643"><ele>1044.0</ele><time>2026-04-19T08:36:34.999Z</time></trkpt><trkpt lat="40.10439921889204" lon="15.881596249941847"><ele>1043.4</ele><time>2026-04-19T08:36:35.999Z</time></trkpt><trkpt lat="40.104365470297296" lon="15.881514368065769"><ele>1042.8000000000002</ele><time>2026-04-19T08:36:36.999Z</time></trkpt><trkpt lat="40.10431579795116" lon="15.881440632909444"><ele>1042.1999999999998</ele><time>2026-04-19T08:36:37.999Z</time></trkpt><trkpt lat="40.104206973137295" lon="15.881402770632542"><ele>1041.6</ele><time>2026-04-19T08:36:38.999Z</time></trkpt><trkpt lat="40.10410014475448" lon="15.881341944197143"><ele>1041.0</ele><time>2026-04-19T08:36:39.999Z</time></trkpt><trkpt lat="40.10398175906796" lon="15.88126118366178"><ele>1041.0</ele><time>2026-04-19T08:36:40.999Z</time></trkpt><trkpt lat="40.10385800788511" lon="15.881188190778657"><ele>1041.0</ele><time>2026-04-19T08:36:41.999Z</time></trkpt><trkpt lat="40.10374128839028" lon="15.881087058620196"><ele>1041.0</ele><time>2026-04-19T08:36:42.999Z</time></trkpt><trkpt lat="40.10362297332664" lon="15.881011750536487"><ele>1041.0</ele><time>2026-04-19T08:36:43.999Z</time></trkpt><trkpt lat="40.10350725582956" lon="15.8809523881351"><ele>1043.75</ele><time>2026-04-19T08:36:44.999Z</time></trkpt><trkpt lat="40.10339574292322" lon="15.880915828986314"><ele>1046.5</ele><time>2026-04-19T08:36:45.999Z</time></trkpt><trkpt lat="40.10327836419598" lon="15.880860018151994"><ele>1049.25</ele><time>2026-04-19T08:36:46.999Z</time></trkpt><trkpt lat="40.103163398736974" lon="15.880791070910556"><ele>1052.0</ele><time>2026-04-19T08:36:47.999Z</time></trkpt><trkpt lat="40.103046472234006" lon="15.880728711437996"><ele>1052.0</ele><time>2026-04-19T08:36:48.999Z</time></trkpt><trkpt lat="40.102947187483565" lon="15.880658664972405"><ele>1052.0</ele><time>2026-04-19T08:36:49.999Z</time></trkpt><trkpt lat="40.102863733144915" lon="15.880575526852859"><ele>1052.0</ele><time>2026-04-19T08:36:50.999Z</time></trkpt><trkpt lat="40.10277422488127" lon="15.880490060963076"><ele>1052.0</ele><time>2026-04-19T08:36:51.999Z</time></trkpt><trkpt lat="40.1027113628038" lon="15.880379761947108"><ele>1052.0</ele><time>2026-04-19T08:36:52.999Z</time></trkpt><trkpt lat="40.10265274264703" lon="15.880291891916062"><ele>1052.0</ele><time>2026-04-19T08:36:53.999Z</time></trkpt><trkpt lat="40.1026157185748" lon="15.880201964267428"><ele>1052.0</ele><time>2026-04-19T08:36:54.999Z</time></trkpt><trkpt lat="40.10257434160243" lon="15.880105858412723"><ele>1052.0</ele><time>2026-04-19T08:36:55.999Z</time></trkpt><trkpt lat="40.102534974433354" lon="15.880010838039468"><ele>1052.0</ele><time>2026-04-19T08:36:56.999Z</time></trkpt><trkpt lat="40.102499212721035" lon="15.879928599712445"><ele>1052.0</ele><time>2026-04-19T08:36:57.999Z</time></trkpt><trkpt lat="40.102437176608184" lon="15.879787900259444"><ele>1052.0</ele><time>2026-04-19T08:36:59.999Z</time></trkpt><trkpt lat="40.10234593875867" lon="15.879706552649687"><ele>1050.5</ele><time>2026-04-19T08:37:01.999Z</time></trkpt><trkpt lat="40.102252439385296" lon="15.879760282223982"><ele>1049.0</ele><time>2026-04-19T08:37:02.999Z</time></trkpt><trkpt lat="40.102184573507905" lon="15.879823783633352"><ele>1047.5</ele><time>2026-04-19T08:37:03.999Z</time></trkpt><trkpt lat="40.10209965962898" lon="15.879848930918097"><ele>1046.0</ele><time>2026-04-19T08:37:04.999Z</time></trkpt><trkpt lat="40.10201264064646" lon="15.879814903754736"><ele>1044.5</ele><time>2026-04-19T08:37:06.999Z</time></trkpt><trkpt lat="40.10195535003322" lon="15.879772806632568"><ele>1043.0</ele><time>2026-04-19T08:37:09.999Z</time></trkpt><trkpt lat="40.10191885624354" lon="15.879701754065092"><ele>1043.0</ele><time>2026-04-19T08:37:10.999Z</time></trkpt><trkpt lat="40.10197970725594" lon="15.879339830218518"><ele>1043.0</ele><time>2026-04-19T08:37:14.999Z</time></trkpt><trkpt lat="40.10198012459474" lon="15.879226797505881"><ele>1043.0</ele><time>2026-04-19T08:37:15.999Z</time></trkpt><trkpt lat="40.102021633007" lon="15.879119106102516"><ele>1044.5</ele><time>2026-04-19T08:37:16.999Z</time></trkpt><trkpt lat="40.102026710934084" lon="15.879009080907391"><ele>1046.0</ele><time>2026-04-19T08:37:17.999Z</time></trkpt><trkpt lat="40.10205437248976" lon="15.878913490705742"><ele>1047.5</ele><time>2026-04-19T08:37:18.999Z</time></trkpt><trkpt lat="40.102079592610046" lon="15.878793772492198"><ele>1049.0</ele><time>2026-04-19T08:37:20Z</time></trkpt><trkpt lat="40.10209372571177" lon="15.878688810968356"><ele>1050.5</ele><time>2026-04-19T08:37:21Z</time></trkpt><trkpt lat="40.10209888182037" lon="15.878593241801257"><ele>1052.0</ele><time>2026-04-19T08:37:22Z</time></trkpt><trkpt lat="40.10211368074929" lon="15.878511926586139"><ele>1052.4</ele><time>2026-04-19T08:37:23Z</time></trkpt><trkpt lat="40.102152541475135" lon="15.878418824214979"><ele>1052.8000000000002</ele><time>2026-04-19T08:37:25Z</time></trkpt><trkpt lat="40.10216756026562" lon="15.878329142722764"><ele>1053.2</ele><time>2026-04-19T08:37:27Z</time></trkpt><trkpt lat="40.102107301972175" lon="15.878381703793565"><ele>1053.6000000000001</ele><time>2026-04-19T08:38:18Z</time></trkpt><trkpt lat="40.10215407350531" lon="15.878212810786112"><ele>1054.0</ele><time>2026-04-19T08:40:23Z</time></trkpt><trkpt lat="40.10212868810655" lon="15.878361765755027"><ele>1054.0</ele><time>2026-04-19T08:42:34.999Z</time></trkpt><trkpt lat="40.102073041665946" lon="15.878250219825194"><ele>1054.0</ele><time>2026-04-19T08:45:06.999Z</time></trkpt><trkpt lat="40.10214337841385" lon="15.878313502665955"><ele>1054.0</ele><time>2026-04-19T08:57:49.001Z</time></trkpt><trkpt lat="40.10210042485437" lon="15.878168319900263"><ele>1054.0</ele><time>2026-04-19T09:10:34.999Z</time></trkpt><trkpt lat="40.10208102212525" lon="15.878039609221203"><ele>1054.0</ele><time>2026-04-19T09:10:36.999Z</time></trkpt><trkpt lat="40.10202199463369" lon="15.877941612135475"><ele>1054.0</ele><time>2026-04-19T09:10:38.999Z</time></trkpt><trkpt lat="40.10193920434934" lon="15.877890896006356"><ele>1054.0</ele><time>2026-04-19T09:10:40.999Z</time></trkpt><trkpt lat="40.10190147313136" lon="15.877737781899196"><ele>1054.0</ele><time>2026-04-19T09:10:42.999Z</time></trkpt><trkpt lat="40.10187246575548" lon="15.877637737270716"><ele>1054.0</ele><time>2026-04-19T09:10:43.999Z</time></trkpt><trkpt lat="40.10183570323021" lon="15.87750382228553"><ele>1054.0</ele><time>2026-04-19T09:10:44.999Z</time></trkpt><trkpt lat="40.101777301586125" lon="15.877402898824167"><ele>1051.8</ele><time>2026-04-19T09:10:45.999Z</time></trkpt><trkpt lat="40.101692967592946" lon="15.877325849711832"><ele>1049.6000000000001</ele><time>2026-04-19T09:10:46.999Z</time></trkpt><trkpt lat="40.10161290433042" lon="15.877247411787534"><ele>1047.4</ele><time>2026-04-19T09:10:47.999Z</time></trkpt><trkpt lat="40.10153426923402" lon="15.877178565537898"><ele>1045.2</ele><time>2026-04-19T09:10:48.999Z</time></trkpt><trkpt lat="40.101464270900394" lon="15.877102344294006"><ele>1043.0</ele><time>2026-04-19T09:10:49.999Z</time></trkpt><trkpt lat="40.10141028631762" lon="15.87704126590162"><ele>1043.0</ele><time>2026-04-19T09:10:50.999Z</time></trkpt><trkpt lat="40.101346422350844" lon="15.876999167741229"><ele>1043.0</ele><time>2026-04-19T09:10:51.999Z</time></trkpt><trkpt lat="40.101258088411214" lon="15.876955269918374"><ele>1043.0</ele><time>2026-04-19T09:10:52.999Z</time></trkpt><trkpt lat="40.10118100527462" lon="15.876908763779147"><ele>1043.0</ele><time>2026-04-19T09:10:53.999Z</time></trkpt><trkpt lat="40.10106688306325" lon="15.876828748827164"><ele>1043.0</ele><time>2026-04-19T09:10:56Z</time></trkpt><trkpt lat="40.10101375086326" lon="15.876768543338697"><ele>1039.1666666666667</ele><time>2026-04-19T09:10:57Z</time></trkpt><trkpt lat="40.10094804521857" lon="15.876730146515925"><ele>1035.3333333333335</ele><time>2026-04-19T09:10:58Z</time></trkpt><trkpt lat="40.10087554717494" lon="15.876713541587739"><ele>1031.5</ele><time>2026-04-19T09:10:59Z</time></trkpt><trkpt lat="40.100774774892464" lon="15.876668539956302"><ele>1027.6666666666667</ele><time>2026-04-19T09:11:01Z</time></trkpt><trkpt lat="40.10066005336901" lon="15.876693176991186"><ele>1023.8333333333334</ele><time>2026-04-19T09:11:03Z</time></trkpt><trkpt lat="40.100586386594784" lon="15.87672522122845"><ele>1020.0</ele><time>2026-04-19T09:11:04Z</time></trkpt><trkpt lat="40.10050359308762" lon="15.87672540050505"><ele>1020.0</ele><time>2026-04-19T09:11:05Z</time></trkpt><trkpt lat="40.1004271125483" lon="15.876728084429642"><ele>1020.0</ele><time>2026-04-19T09:11:06Z</time></trkpt><trkpt lat="40.10036471651523" lon="15.876748559961143"><ele>1020.0</ele><time>2026-04-19T09:11:07Z</time></trkpt><trkpt lat="40.10028471556017" lon="15.876708706995538"><ele>1020.0</ele><time>2026-04-19T09:11:09Z</time></trkpt><trkpt lat="40.10022067831632" lon="15.87660844121282"><ele>1020.0</ele><time>2026-04-19T09:11:11Z</time></trkpt><trkpt lat="40.10016350904285" lon="15.876528904038366"><ele>1020.0</ele><time>2026-04-19T09:11:12Z</time></trkpt><trkpt lat="40.10006424048208" lon="15.876464512928987"><ele>1020.0</ele><time>2026-04-19T09:11:13Z</time></trkpt><trkpt lat="40.09995276337992" lon="15.876437646871974"><ele>1020.0</ele><time>2026-04-19T09:11:14Z</time></trkpt><trkpt lat="40.09982937029253" lon="15.876415465290357"><ele>1020.0</ele><time>2026-04-19T09:11:15Z</time></trkpt><trkpt lat="40.09971880011682" lon="15.876402661420144"><ele>1020.0</ele><time>2026-04-19T09:11:16Z</time></trkpt><trkpt lat="40.0996240743305" lon="15.876397301702648"><ele>1020.0</ele><time>2026-04-19T09:11:17Z</time></trkpt><trkpt lat="40.09953296172316" lon="15.876408045144462"><ele>1019.1666666666666</ele><time>2026-04-19T09:11:18Z</time></trkpt><trkpt lat="40.09944590375333" lon="15.876414323699514"><ele>1018.3333333333333</ele><time>2026-04-19T09:11:19Z</time></trkpt><trkpt lat="40.09934553983474" lon="15.876430119753161"><ele>1017.5</ele><time>2026-04-19T09:11:20Z</time></trkpt><trkpt lat="40.099267682537736" lon="15.876445829417486"><ele>1016.6666666666666</ele><time>2026-04-19T09:11:21Z</time></trkpt><trkpt lat="40.0992041878902" lon="15.876438861678995"><ele>1015.8333333333333</ele><time>2026-04-19T09:11:22Z</time></trkpt><trkpt lat="40.09912554936467" lon="15.876401107736326"><ele>1015.0</ele><time>2026-04-19T09:11:23Z</time></trkpt><trkpt lat="40.099042421117225" lon="15.876321983386125"><ele>1013.6666666666666</ele><time>2026-04-19T09:11:24Z</time></trkpt><trkpt lat="40.09894865528503" lon="15.87626555149747"><ele>1012.3333333333333</ele><time>2026-04-19T09:11:25Z</time></trkpt><trkpt lat="40.098844995980265" lon="15.876236776845097"><ele>1011.0</ele><time>2026-04-19T09:11:26Z</time></trkpt><trkpt lat="40.098756409333426" lon="15.876199491531086"><ele>1009.6666666666667</ele><time>2026-04-19T09:11:27Z</time></trkpt><trkpt lat="40.09867953849314" lon="15.876177439876926"><ele>1008.3333333333334</ele><time>2026-04-19T09:11:28Z</time></trkpt><trkpt lat="40.098614950828306" lon="15.87618314082575"><ele>1007.0</ele><time>2026-04-19T09:11:29Z</time></trkpt><trkpt lat="40.098548579823834" lon="15.876210417574823"><ele>1007.0000000000001</ele><time>2026-04-19T09:11:30Z</time></trkpt><trkpt lat="40.09845741789347" lon="15.87625303283733"><ele>1007.0</ele><time>2026-04-19T09:11:31Z</time></trkpt><trkpt lat="40.09838545510325" lon="15.87632058449315"><ele>1007.0</ele><time>2026-04-19T09:11:32Z</time></trkpt><trkpt lat="40.098316349413416" lon="15.876354237475462"><ele>1007.0</ele><time>2026-04-19T09:11:33Z</time></trkpt><trkpt lat="40.09825029417266" lon="15.876378415570112"><ele>1007.0000000000001</ele><time>2026-04-19T09:11:34Z</time></trkpt><trkpt lat="40.09817126621219" lon="15.876383427471428"><ele>1007.0</ele><time>2026-04-19T09:11:35Z</time></trkpt><trkpt lat="40.09809243924339" lon="15.876386041009003"><ele>1006.6666666666667</ele><time>2026-04-19T09:11:36Z</time></trkpt><trkpt lat="40.09802503132723" lon="15.876402617700984"><ele>1006.3333333333334</ele><time>2026-04-19T09:11:37Z</time></trkpt><trkpt lat="40.09791429534849" lon="15.876488500192172"><ele>1006.0</ele><time>2026-04-19T09:11:39Z</time></trkpt><trkpt lat="40.09785238650527" lon="15.876507218643097"><ele>1005.6666666666667</ele><time>2026-04-19T09:11:40Z</time></trkpt><trkpt lat="40.09778909441454" lon="15.876513863112141"><ele>1005.3333333333334</ele><time>2026-04-19T09:11:41Z</time></trkpt><trkpt lat="40.0977247416357" lon="15.876511080378517"><ele>1005.0</ele><time>2026-04-19T09:11:42Z</time></trkpt><trkpt lat="40.097661402510035" lon="15.876506817425545"><ele>1005.0</ele><time>2026-04-19T09:11:43Z</time></trkpt><trkpt lat="40.09755118439883" lon="15.876444422392778"><ele>1005.0</ele><time>2026-04-19T09:11:45Z</time></trkpt><trkpt lat="40.097437880626295" lon="15.876401688064712"><ele>1005.0</ele><time>2026-04-19T09:11:47Z</time></trkpt><trkpt lat="40.097341404971246" lon="15.876292243063277"><ele>1005.0</ele><time>2026-04-19T09:11:49Z</time></trkpt><trkpt lat="40.09726787088815" lon="15.87621374941092"><ele>1007.0000000000001</ele><time>2026-04-19T09:11:50Z</time></trkpt><trkpt lat="40.09720317569357" lon="15.876168200950714"><ele>1009.0</ele><time>2026-04-19T09:11:51Z</time></trkpt><trkpt lat="40.0971413608701" lon="15.876151541231238"><ele>1011.0000000000001</ele><time>2026-04-19T09:11:52Z</time></trkpt><trkpt lat="40.09706375033263" lon="15.876130293401024"><ele>1013.0000000000001</ele><time>2026-04-19T09:11:53Z</time></trkpt><trkpt lat="40.09698981050309" lon="15.876100357750689"><ele>1015.0</ele><time>2026-04-19T09:11:54Z</time></trkpt><trkpt lat="40.09690714424088" lon="15.876064250787097"><ele>1017.0000000000001</ele><time>2026-04-19T09:11:55Z</time></trkpt><trkpt lat="40.096841396653815" lon="15.876049453233984"><ele>1019.0000000000001</ele><time>2026-04-19T09:11:56Z</time></trkpt><trkpt lat="40.09677852320996" lon="15.876028790384128"><ele>1019.0</ele><time>2026-04-19T09:11:57Z</time></trkpt><trkpt lat="40.09671113834008" lon="15.876003277039615"><ele>1019.0000000000001</ele><time>2026-04-19T09:11:58Z</time></trkpt><trkpt lat="40.0965814016805" lon="15.875984751761797"><ele>1019.0000000000001</ele><time>2026-04-19T09:12:00Z</time></trkpt><trkpt lat="40.09649485844999" lon="15.875978525164259"><ele>1019.0</ele><time>2026-04-19T09:12:01Z</time></trkpt><trkpt lat="40.09640306802188" lon="15.875989776752219"><ele>1019.0</ele><time>2026-04-19T09:12:02Z</time></trkpt><trkpt lat="40.09631787884326" lon="15.876005524811827"><ele>1018.4000000000001</ele><time>2026-04-19T09:12:03Z</time></trkpt><trkpt lat="40.09622270055215" lon="15.875971395200406"><ele>1017.8000000000001</ele><time>2026-04-19T09:12:05Z</time></trkpt><trkpt lat="40.09615508737126" lon="15.875897818145281"><ele>1017.1999999999999</ele><time>2026-04-19T09:12:06Z</time></trkpt><trkpt lat="40.096059280051364" lon="15.87585181973885"><ele>1016.5999999999999</ele><time>2026-04-19T09:12:07Z</time></trkpt><trkpt lat="40.09595582187294" lon="15.875817801052728"><ele>1016.0</ele><time>2026-04-19T09:12:08Z</time></trkpt><trkpt lat="40.095830664752796" lon="15.87576952345878"><ele>1014.25</ele><time>2026-04-19T09:12:09Z</time></trkpt><trkpt lat="40.09570661271392" lon="15.875733369946795"><ele>1012.5</ele><time>2026-04-19T09:12:10Z</time></trkpt><trkpt lat="40.095594348374426" lon="15.875693088708001"><ele>1010.75</ele><time>2026-04-19T09:12:11Z</time></trkpt><trkpt lat="40.09548990213317" lon="15.875654901076661"><ele>1009.0</ele><time>2026-04-19T09:12:12Z</time></trkpt><trkpt lat="40.095392732305115" lon="15.875612983691434"><ele>1008.9999999999999</ele><time>2026-04-19T09:12:13Z</time></trkpt><trkpt lat="40.095292635977614" lon="15.875575823377089"><ele>1009.0</ele><time>2026-04-19T09:12:14Z</time></trkpt><trkpt lat="40.09520549216417" lon="15.875546956395418"><ele>1009.0</ele><time>2026-04-19T09:12:15Z</time></trkpt><trkpt lat="40.09511737982742" lon="15.875530243035142"><ele>1009.0</ele><time>2026-04-19T09:12:16Z</time></trkpt><trkpt lat="40.09503302882169" lon="15.875500835759665"><ele>1008.9999999999999</ele><time>2026-04-19T09:12:17Z</time></trkpt><trkpt lat="40.094963129415845" lon="15.875466331450399"><ele>1009.0</ele><time>2026-04-19T09:12:18Z</time></trkpt><trkpt lat="40.09488195501191" lon="15.87543771872288"><ele>1007.6</ele><time>2026-04-19T09:12:19Z</time></trkpt><trkpt lat="40.09476956733971" lon="15.875380273668375"><ele>1006.2</ele><time>2026-04-19T09:12:20Z</time></trkpt><trkpt lat="40.09466785783953" lon="15.875311123805153"><ele>1004.8000000000001</ele><time>2026-04-19T09:12:21Z</time></trkpt><trkpt lat="40.09458374110967" lon="15.875257316736212"><ele>1003.4000000000001</ele><time>2026-04-19T09:12:22Z</time></trkpt><trkpt lat="40.094515630807784" lon="15.875278148116612"><ele>1002.0</ele><time>2026-04-19T09:12:23Z</time></trkpt><trkpt lat="40.094432578209094" lon="15.87530084153138"><ele>1002.0</ele><time>2026-04-19T09:12:24Z</time></trkpt><trkpt lat="40.09432967257576" lon="15.875328080049334"><ele>1002.0</ele><time>2026-04-19T09:12:25Z</time></trkpt><trkpt lat="40.09422702328724" lon="15.875352343550794"><ele>1002.0</ele><time>2026-04-19T09:12:26Z</time></trkpt><trkpt lat="40.09412934971344" lon="15.87538406709523"><ele>1002.0</ele><time>2026-04-19T09:12:27Z</time></trkpt><trkpt lat="40.0940264177867" lon="15.875434162757154"><ele>1002.0</ele><time>2026-04-19T09:12:28Z</time></trkpt><trkpt lat="40.09392172173145" lon="15.875485961413723"><ele>1001.2</ele><time>2026-04-19T09:12:29Z</time></trkpt><trkpt lat="40.09382090570443" lon="15.875540828290864"><ele>1000.4000000000001</ele><time>2026-04-19T09:12:30Z</time></trkpt><trkpt lat="40.09372014407437" lon="15.87556601196374"><ele>999.5999999999999</ele><time>2026-04-19T09:12:31Z</time></trkpt><trkpt lat="40.09363462186642" lon="15.875575989059696"><ele>998.8</ele><time>2026-04-19T09:12:32Z</time></trkpt><trkpt lat="40.093555973840935" lon="15.875570118159882"><ele>998.0</ele><time>2026-04-19T09:12:32.999Z</time></trkpt><trkpt lat="40.09347051738777" lon="15.875554772840117"><ele>998.0</ele><time>2026-04-19T09:12:33.999Z</time></trkpt><trkpt lat="40.09337438231336" lon="15.875518032975204"><ele>998.0</ele><time>2026-04-19T09:12:34.999Z</time></trkpt><trkpt lat="40.093287319532" lon="15.875511942231459"><ele>998.0</ele><time>2026-04-19T09:12:35.999Z</time></trkpt><trkpt lat="40.09317823419633" lon="15.875519793738727"><ele>998.0</ele><time>2026-04-19T09:12:36.999Z</time></trkpt><trkpt lat="40.093057573640976" lon="15.875528524419114"><ele>998.0</ele><time>2026-04-19T09:12:37.999Z</time></trkpt><trkpt lat="40.09295649425207" lon="15.875538485759595"><ele>997.0</ele><time>2026-04-19T09:12:38.999Z</time></trkpt><trkpt lat="40.09287145215172" lon="15.875525462167667"><ele>996.0</ele><time>2026-04-19T09:12:39.999Z</time></trkpt><trkpt lat="40.092814953774166" lon="15.875488051754543"><ele>995.0</ele><time>2026-04-19T09:12:40.999Z</time></trkpt><trkpt lat="40.09273503646331" lon="15.87543454900924"><ele>994.0</ele><time>2026-04-19T09:12:41.999Z</time></trkpt><trkpt lat="40.092633790227154" lon="15.87537311225335"><ele>993.0</ele><time>2026-04-19T09:12:42.999Z</time></trkpt><trkpt lat="40.09251600915153" lon="15.875337155584674"><ele>992.5999999999999</ele><time>2026-04-19T09:12:43.999Z</time></trkpt><trkpt lat="40.09239957335385" lon="15.875308665069154"><ele>992.1999999999999</ele><time>2026-04-19T09:12:44.999Z</time></trkpt><trkpt lat="40.092290055575745" lon="15.875275458265032"><ele>991.8</ele><time>2026-04-19T09:12:45.999Z</time></trkpt><trkpt lat="40.09218863072961" lon="15.875228472678373"><ele>991.4</ele><time>2026-04-19T09:12:46.999Z</time></trkpt><trkpt lat="40.09208921220581" lon="15.87520454713806"><ele>991.0</ele><time>2026-04-19T09:12:47.999Z</time></trkpt><trkpt lat="40.09198219034705" lon="15.875206465244098"><ele>991.0</ele><time>2026-04-19T09:12:48.999Z</time></trkpt><trkpt lat="40.091874786787656" lon="15.87521143936718"><ele>991.0</ele><time>2026-04-19T09:12:49.999Z</time></trkpt><trkpt lat="40.091745220780844" lon="15.875237074330931"><ele>991.0</ele><time>2026-04-19T09:12:50.999Z</time></trkpt><trkpt lat="40.091633442431714" lon="15.87526589740694"><ele>991.0</ele><time>2026-04-19T09:12:51.999Z</time></trkpt><trkpt lat="40.09152848077842" lon="15.8752735224446"><ele>989.6666666666666</ele><time>2026-04-19T09:12:52.999Z</time></trkpt><trkpt lat="40.09142962161981" lon="15.87527723382804"><ele>988.3333333333333</ele><time>2026-04-19T09:12:53.999Z</time></trkpt><trkpt lat="40.09135263095377" lon="15.87530910128418"><ele>987.0</ele><time>2026-04-19T09:12:54.999Z</time></trkpt><trkpt lat="40.09126511144072" lon="15.875349045683189"><ele>985.6666666666667</ele><time>2026-04-19T09:12:55.999Z</time></trkpt><trkpt lat="40.09120505309983" lon="15.87540036552739"><ele>984.3333333333334</ele><time>2026-04-19T09:12:56.999Z</time></trkpt><trkpt lat="40.09114015246275" lon="15.875417013427342"><ele>983.0</ele><time>2026-04-19T09:12:57.999Z</time></trkpt><trkpt lat="40.09105668686979" lon="15.87539775111622"><ele>983.0</ele><time>2026-04-19T09:12:58.999Z</time></trkpt><trkpt lat="40.090977835708955" lon="15.875337803002564"><ele>983.0</ele><time>2026-04-19T09:12:59.999Z</time></trkpt><trkpt lat="40.090887426503926" lon="15.87525883307786"><ele>983.0</ele><time>2026-04-19T09:13:00.999Z</time></trkpt><trkpt lat="40.09080920129656" lon="15.8751803770363"><ele>983.0</ele><time>2026-04-19T09:13:02Z</time></trkpt><trkpt lat="40.090711501736045" lon="15.875135046460434"><ele>983.0</ele><time>2026-04-19T09:13:03Z</time></trkpt><trkpt lat="40.090616086831766" lon="15.875123406998252"><ele>979.4</ele><time>2026-04-19T09:13:04Z</time></trkpt><trkpt lat="40.090519747497474" lon="15.875123813190656"><ele>975.8</ele><time>2026-04-19T09:13:05Z</time></trkpt><trkpt lat="40.09041313843581" lon="15.875136401921859"><ele>972.2</ele><time>2026-04-19T09:13:06Z</time></trkpt><trkpt lat="40.09031390629066" lon="15.875167593611229"><ele>968.6</ele><time>2026-04-19T09:13:07Z</time></trkpt><trkpt lat="40.09023497804828" lon="15.875192360266512"><ele>965.0</ele><time>2026-04-19T09:13:08Z</time></trkpt><trkpt lat="40.09016059506294" lon="15.875178904332545"><ele>965.0</ele><time>2026-04-19T09:13:09Z</time></trkpt><trkpt lat="40.09008031498602" lon="15.875133252094"><ele>965.0</ele><time>2026-04-19T09:13:10Z</time></trkpt><trkpt lat="40.0900131484403" lon="15.875065839925185"><ele>965.0</ele><time>2026-04-19T09:13:11Z</time></trkpt><trkpt lat="40.08992857119515" lon="15.874967568646202"><ele>965.0</ele><time>2026-04-19T09:13:12Z</time></trkpt><trkpt lat="40.08982045644782" lon="15.874870614309026"><ele>965.0</ele><time>2026-04-19T09:13:13Z</time></trkpt><trkpt lat="40.08971987004712" lon="15.874787593371128"><ele>966.0</ele><time>2026-04-19T09:13:14Z</time></trkpt><trkpt lat="40.08961998987255" lon="15.874717517181088"><ele>967.0</ele><time>2026-04-19T09:13:15Z</time></trkpt><trkpt lat="40.089519873350085" lon="15.874664567137321"><ele>968.0</ele><time>2026-04-19T09:13:16Z</time></trkpt><trkpt lat="40.08941668353905" lon="15.874616392382828"><ele>969.0</ele><time>2026-04-19T09:13:17Z</time></trkpt><trkpt lat="40.08932877628537" lon="15.874567633072935"><ele>970.0</ele><time>2026-04-19T09:13:18Z</time></trkpt><trkpt lat="40.08926790888621" lon="15.874508493912487"><ele>969.9999999999999</ele><time>2026-04-19T09:13:19Z</time></trkpt><trkpt lat="40.089211668008225" lon="15.87441471949087"><ele>970.0</ele><time>2026-04-19T09:13:20Z</time></trkpt><trkpt lat="40.08917526859721" lon="15.874297252512905"><ele>970.0</ele><time>2026-04-19T09:13:21Z</time></trkpt><trkpt lat="40.089127837065945" lon="15.874193631251046"><ele>970.0</ele><time>2026-04-19T09:13:22Z</time></trkpt><trkpt lat="40.08907215335528" lon="15.87410846295423"><ele>969.9999999999999</ele><time>2026-04-19T09:13:23Z</time></trkpt><trkpt lat="40.08900061057343" lon="15.874064521741834"><ele>970.0</ele><time>2026-04-19T09:13:24Z</time></trkpt><trkpt lat="40.08892350702992" lon="15.87403998994135"><ele>969.8333333333333</ele><time>2026-04-19T09:13:25Z</time></trkpt><trkpt lat="40.08883657730927" lon="15.874070936249943"><ele>969.6666666666666</ele><time>2026-04-19T09:13:26Z</time></trkpt><trkpt lat="40.08876745166239" lon="15.874105524221976"><ele>969.5</ele><time>2026-04-19T09:13:27Z</time></trkpt><trkpt lat="40.088702697031835" lon="15.874147911823853"><ele>969.3333333333333</ele><time>2026-04-19T09:13:29Z</time></trkpt><trkpt lat="40.08864560530395" lon="15.874089317033878"><ele>969.1666666666666</ele><time>2026-04-19T09:13:31Z</time></trkpt><trkpt lat="40.088603127810266" lon="15.874000801244796"><ele>969.0</ele><time>2026-04-19T09:13:40Z</time></trkpt><trkpt lat="40.08858599423652" lon="15.873905879122368"><ele>969.0</ele><time>2026-04-19T09:13:43Z</time></trkpt><trkpt lat="40.08855331397372" lon="15.873827701259279"><ele>969.0000000000001</ele><time>2026-04-19T09:13:44Z</time></trkpt><trkpt lat="40.0884997721575" lon="15.873709503973691"><ele>969.0000000000001</ele><time>2026-04-19T09:13:46Z</time></trkpt><trkpt lat="40.088457417819335" lon="15.873621288570709"><ele>969.0</ele><time>2026-04-19T09:13:47Z</time></trkpt><trkpt lat="40.08840178251582" lon="15.873507575044046"><ele>969.0</ele><time>2026-04-19T09:13:49Z</time></trkpt><trkpt lat="40.088326193523166" lon="15.87336673540691"><ele>968.6</ele><time>2026-04-19T09:13:51Z</time></trkpt><trkpt lat="40.08829632115459" lon="15.873230820228512"><ele>968.2</ele><time>2026-04-19T09:13:53Z</time></trkpt><trkpt lat="40.088249721910714" lon="15.873064977667045"><ele>967.8000000000001</ele><time>2026-04-19T09:13:55Z</time></trkpt><trkpt lat="40.08819986351621" lon="15.873005346144385"><ele>967.4000000000001</ele><time>2026-04-19T09:13:57Z</time></trkpt><trkpt lat="40.08814086665928" lon="15.872877639408307"><ele>967.0</ele><time>2026-04-19T09:13:59Z</time></trkpt><trkpt lat="40.08810492500707" lon="15.872776255321659"><ele>967.0</ele><time>2026-04-19T09:14:02Z</time></trkpt><trkpt lat="40.08799973068537" lon="15.872696165685154"><ele>967.0</ele><time>2026-04-19T09:14:07Z</time></trkpt><trkpt lat="40.08793398146623" lon="15.87262478124181"><ele>967.0</ele><time>2026-04-19T09:14:08Z</time></trkpt><trkpt lat="40.087834762909516" lon="15.872505346310323"><ele>967.0</ele><time>2026-04-19T09:14:09Z</time></trkpt><trkpt lat="40.087753157446" lon="15.872399105603353"><ele>962.0</ele><time>2026-04-19T09:14:10Z</time></trkpt><trkpt lat="40.087678233082016" lon="15.872278452261783"><ele>957.0</ele><time>2026-04-19T09:14:11Z</time></trkpt><trkpt lat="40.08760604576972" lon="15.872155753360923"><ele>952.0</ele><time>2026-04-19T09:14:12Z</time></trkpt><trkpt lat="40.08752753757883" lon="15.872012203870334"><ele>947.0</ele><time>2026-04-19T09:14:13Z</time></trkpt><trkpt lat="40.08747935336333" lon="15.871857989510564"><ele>945.2</ele><time>2026-04-19T09:14:14Z</time></trkpt><trkpt lat="40.087421003212924" lon="15.871710432665953"><ele>943.4000000000001</ele><time>2026-04-19T09:14:15Z</time></trkpt><trkpt lat="40.087375843406626" lon="15.871589141910533"><ele>941.5999999999999</ele><time>2026-04-19T09:14:16Z</time></trkpt><trkpt lat="40.087357440933395" lon="15.871504087490683"><ele>939.8</ele><time>2026-04-19T09:14:17Z</time></trkpt><trkpt lat="40.08730624239161" lon="15.871380999533754"><ele>938.0</ele><time>2026-04-19T09:14:18Z</time></trkpt><trkpt lat="40.0872445467528" lon="15.871273354358285"><ele>938.0</ele><time>2026-04-19T09:14:19Z</time></trkpt><trkpt lat="40.087182805923625" lon="15.871162375401827"><ele>938.0</ele><time>2026-04-19T09:14:20Z</time></trkpt><trkpt lat="40.08710439733697" lon="15.87102275348294"><ele>938.0</ele><time>2026-04-19T09:14:21Z</time></trkpt><trkpt lat="40.08703742122913" lon="15.870874602719848"><ele>938.0</ele><time>2026-04-19T09:14:22Z</time></trkpt><trkpt lat="40.08697916766116" lon="15.870747934717803"><ele>934.8</ele><time>2026-04-19T09:14:23Z</time></trkpt><trkpt lat="40.08692643770644" lon="15.870623054815605"><ele>931.5999999999999</ele><time>2026-04-19T09:14:24Z</time></trkpt><trkpt lat="40.086884564018796" lon="15.870519687111194"><ele>928.4000000000001</ele><time>2026-04-19T09:14:25Z</time></trkpt><trkpt lat="40.08684194889204" lon="15.87037048861662"><ele>925.2</ele><time>2026-04-19T09:14:26Z</time></trkpt><trkpt lat="40.08677795093348" lon="15.870253192938153"><ele>922.0</ele><time>2026-04-19T09:14:27Z</time></trkpt><trkpt lat="40.08672095365502" lon="15.870172465026728"><ele>919.6</ele><time>2026-04-19T09:14:28Z</time></trkpt><trkpt lat="40.08666984656561" lon="15.870056081410178"><ele>917.2</ele><time>2026-04-19T09:14:29Z</time></trkpt><trkpt lat="40.086655079600185" lon="15.86997088063311"><ele>914.8</ele><time>2026-04-19T09:14:30Z</time></trkpt><trkpt lat="40.08662025241935" lon="15.869884460388406"><ele>912.4</ele><time>2026-04-19T09:14:31Z</time></trkpt><trkpt lat="40.0865417704749" lon="15.869769722053183"><ele>910.0</ele><time>2026-04-19T09:14:32.999Z</time></trkpt><trkpt lat="40.086455041538095" lon="15.869697015109525"><ele>909.9999999999999</ele><time>2026-04-19T09:14:33.999Z</time></trkpt><trkpt lat="40.086371670522084" lon="15.869626361713134"><ele>910.0</ele><time>2026-04-19T09:14:34.999Z</time></trkpt><trkpt lat="40.086313903178905" lon="15.869527410653903"><ele>910.0</ele><time>2026-04-19T09:14:35.999Z</time></trkpt><trkpt lat="40.08627834720137" lon="15.869444805195013"><ele>910.0</ele><time>2026-04-19T09:14:36.999Z</time></trkpt><trkpt lat="40.08621638267241" lon="15.869351591609368"><ele>909.9999999999999</ele><time>2026-04-19T09:14:37.999Z</time></trkpt><trkpt lat="40.08615696989066" lon="15.869278265267068"><ele>910.0</ele><time>2026-04-19T09:14:38.999Z</time></trkpt><trkpt lat="40.0861060042304" lon="15.869188600330746"><ele>908.2857142857142</ele><time>2026-04-19T09:14:39.999Z</time></trkpt><trkpt lat="40.08605319490293" lon="15.869084011720076"><ele>906.5714285714286</ele><time>2026-04-19T09:14:40.999Z</time></trkpt><trkpt lat="40.08601490746286" lon="15.869012543233143"><ele>904.8571428571429</ele><time>2026-04-19T09:14:41.999Z</time></trkpt><trkpt lat="40.08598407267048" lon="15.868940670556066"><ele>903.1428571428571</ele><time>2026-04-19T09:14:42.999Z</time></trkpt><trkpt lat="40.0859565024639" lon="15.868866390163229"><ele>901.4285714285713</ele><time>2026-04-19T09:14:43.999Z</time></trkpt><trkpt lat="40.08592999367301" lon="15.868783683752007"><ele>899.7142857142857</ele><time>2026-04-19T09:14:45.999Z</time></trkpt><trkpt lat="40.08588900324702" lon="15.868717353976976"><ele>898.0</ele><time>2026-04-19T09:17:37Z</time></trkpt><trkpt lat="40.08587396211777" lon="15.868629164660959"><ele>897.9999999999999</ele><time>2026-04-19T09:17:38Z</time></trkpt><trkpt lat="40.08584147224346" lon="15.868512213298164"><ele>898.0</ele><time>2026-04-19T09:17:39Z</time></trkpt><trkpt lat="40.08578798125396" lon="15.86843785694663"><ele>898.0</ele><time>2026-04-19T09:17:40Z</time></trkpt><trkpt lat="40.08571885010468" lon="15.86836961183657"><ele>898.0</ele><time>2026-04-19T09:17:41Z</time></trkpt><trkpt lat="40.08564579029728" lon="15.868296720055698"><ele>897.9999999999999</ele><time>2026-04-19T09:17:42Z</time></trkpt><trkpt lat="40.085568422858664" lon="15.868235322431865"><ele>898.0</ele><time>2026-04-19T09:17:43Z</time></trkpt><trkpt lat="40.08551127551188" lon="15.868165208804676"><ele>896.2</ele><time>2026-04-19T09:17:44Z</time></trkpt><trkpt lat="40.085446092426295" lon="15.868103173804395"><ele>894.4</ele><time>2026-04-19T09:17:45Z</time></trkpt><trkpt lat="40.08535344808048" lon="15.867977517026564"><ele>892.6000000000001</ele><time>2026-04-19T09:17:47Z</time></trkpt><trkpt lat="40.08529511998266" lon="15.867923499373548"><ele>890.8000000000001</ele><time>2026-04-19T09:17:48Z</time></trkpt><trkpt lat="40.08522641573845" lon="15.867863482624378"><ele>889.0</ele><time>2026-04-19T09:17:49Z</time></trkpt><trkpt lat="40.08513475678635" lon="15.86780235132644"><ele>889.0</ele><time>2026-04-19T09:17:50Z</time></trkpt><trkpt lat="40.0850287757872" lon="15.867713282158727"><ele>889.0000000000001</ele><time>2026-04-19T09:17:51Z</time></trkpt><trkpt lat="40.084946807540575" lon="15.8676319938558"><ele>889.0000000000001</ele><time>2026-04-19T09:17:52Z</time></trkpt><trkpt lat="40.084865523788764" lon="15.867555113033193"><ele>889.0</ele><time>2026-04-19T09:17:53Z</time></trkpt><trkpt lat="40.084781045994895" lon="15.86748177531574"><ele>889.0</ele><time>2026-04-19T09:17:54Z</time></trkpt><trkpt lat="40.084702460861166" lon="15.86741956020724"><ele>886.6</ele><time>2026-04-19T09:17:55Z</time></trkpt><trkpt lat="40.08462159476549" lon="15.86735795945628"><ele>884.2</ele><time>2026-04-19T09:17:56Z</time></trkpt><trkpt lat="40.08451145510104" lon="15.8672991729159"><ele>881.8000000000001</ele><time>2026-04-19T09:17:57Z</time></trkpt><trkpt lat="40.084419076669356" lon="15.867215724606583"><ele>879.4000000000001</ele><time>2026-04-19T09:17:58Z</time></trkpt><trkpt lat="40.08433817515569" lon="15.867118725338564"><ele>877.0</ele><time>2026-04-19T09:17:59Z</time></trkpt><trkpt lat="40.084257277348165" lon="15.867024483022831"><ele>877.0</ele><time>2026-04-19T09:18:00Z</time></trkpt><trkpt lat="40.084174687721124" lon="15.866922121411191"><ele>877.0</ele><time>2026-04-19T09:18:01Z</time></trkpt><trkpt lat="40.08406124041059" lon="15.866800165944255"><ele>877.0</ele><time>2026-04-19T09:18:02Z</time></trkpt><trkpt lat="40.083967449434574" lon="15.8667020639663"><ele>877.0</ele><time>2026-04-19T09:18:03Z</time></trkpt><trkpt lat="40.08388964834937" lon="15.866636621775182"><ele>873.6</ele><time>2026-04-19T09:18:04Z</time></trkpt><trkpt lat="40.08381368137321" lon="15.866542575627905"><ele>870.2</ele><time>2026-04-19T09:18:05Z</time></trkpt><trkpt lat="40.08374466015693" lon="15.866472229171578"><ele>866.8</ele><time>2026-04-19T09:18:06Z</time></trkpt><trkpt lat="40.08367975959323" lon="15.866402379917263"><ele>863.4</ele><time>2026-04-19T09:18:07Z</time></trkpt><trkpt lat="40.08360535173662" lon="15.86634180947981"><ele>860.0</ele><time>2026-04-19T09:18:08Z</time></trkpt><trkpt lat="40.08352268112324" lon="15.866273719953476"><ele>860.0</ele><time>2026-04-19T09:18:09Z</time></trkpt><trkpt lat="40.08343067564134" lon="15.866206992028433"><ele>860.0</ele><time>2026-04-19T09:18:10Z</time></trkpt><trkpt lat="40.083347033759345" lon="15.866135985876873"><ele>860.0</ele><time>2026-04-19T09:18:11Z</time></trkpt><trkpt lat="40.08328361111591" lon="15.866066780282774"><ele>860.0</ele><time>2026-04-19T09:18:12Z</time></trkpt><trkpt lat="40.08320828528131" lon="15.866009261000258"><ele>860.0</ele><time>2026-04-19T09:18:13Z</time></trkpt><trkpt lat="40.083143471562614" lon="15.865957146728606"><ele>857.1666666666667</ele><time>2026-04-19T09:18:14Z</time></trkpt><trkpt lat="40.08308015373094" lon="15.865888441801273"><ele>854.3333333333334</ele><time>2026-04-19T09:18:15Z</time></trkpt><trkpt lat="40.08300360426745" lon="15.865841886935458"><ele>851.5</ele><time>2026-04-19T09:18:16Z</time></trkpt><trkpt lat="40.08292771547832" lon="15.865792334259753"><ele>848.6666666666667</ele><time>2026-04-19T09:18:17Z</time></trkpt><trkpt lat="40.08286395225828" lon="15.865731198411847"><ele>845.8333333333334</ele><time>2026-04-19T09:18:18Z</time></trkpt><trkpt lat="40.08280434614673" lon="15.865673294011074"><ele>843.0</ele><time>2026-04-19T09:18:19Z</time></trkpt><trkpt lat="40.082746590761055" lon="15.865632716469074"><ele>843.0</ele><time>2026-04-19T09:18:20Z</time></trkpt><trkpt lat="40.082686207509674" lon="15.865566113897868"><ele>843.0</ele><time>2026-04-19T09:18:21Z</time></trkpt><trkpt lat="40.08261955366348" lon="15.865505468851257"><ele>843.0</ele><time>2026-04-19T09:18:22Z</time></trkpt><trkpt lat="40.08251449784334" lon="15.865416236576596"><ele>843.0</ele><time>2026-04-19T09:18:24Z</time></trkpt><trkpt lat="40.08245508817483" lon="15.865361963368867"><ele>843.0</ele><time>2026-04-19T09:18:25Z</time></trkpt><trkpt lat="40.08239004104335" lon="15.865310395937701"><ele>843.0</ele><time>2026-04-19T09:18:26Z</time></trkpt><trkpt lat="40.08232194885179" lon="15.865233826851957"><ele>841.1666666666666</ele><time>2026-04-19T09:18:27Z</time></trkpt><trkpt lat="40.082276422839676" lon="15.865160545165594"><ele>839.3333333333333</ele><time>2026-04-19T09:18:28Z</time></trkpt><trkpt lat="40.08223771181914" lon="15.865078649257274"><ele>837.5</ele><time>2026-04-19T09:18:29Z</time></trkpt><trkpt lat="40.08219313794921" lon="15.864997421085482"><ele>835.6666666666666</ele><time>2026-04-19T09:18:30Z</time></trkpt><trkpt lat="40.08215326836195" lon="15.864931932194255"><ele>833.8333333333333</ele><time>2026-04-19T09:18:30.999Z</time></trkpt><trkpt lat="40.08205793942592" lon="15.864891104634"><ele>832.0</ele><time>2026-04-19T09:18:32.999Z</time></trkpt><trkpt lat="40.08190919604104" lon="15.864940396146512"><ele>829.9999999999999</ele><time>2026-04-19T09:18:34.999Z</time></trkpt><trkpt lat="40.081814529858484" lon="15.864949830262164"><ele>828.0</ele><time>2026-04-19T09:18:35.999Z</time></trkpt><trkpt lat="40.08171373440491" lon="15.864946388555277"><ele>826.0</ele><time>2026-04-19T09:18:36.999Z</time></trkpt><trkpt lat="40.08162987289797" lon="15.864944843771855"><ele>824.0</ele><time>2026-04-19T09:18:37.999Z</time></trkpt><trkpt lat="40.081555733974795" lon="15.864941038822021"><ele>821.9999999999999</ele><time>2026-04-19T09:18:38.999Z</time></trkpt><trkpt lat="40.08148334259918" lon="15.864935712570615"><ele>820.0</ele><time>2026-04-19T09:18:39.999Z</time></trkpt><trkpt lat="40.08141839028687" lon="15.864959842983541"><ele>818.2</ele><time>2026-04-19T09:18:40.999Z</time></trkpt><trkpt lat="40.08132910229537" lon="15.864956506186283"><ele>816.4</ele><time>2026-04-19T09:18:41.999Z</time></trkpt><trkpt lat="40.0812351428472" lon="15.865009463455499"><ele>814.5999999999999</ele><time>2026-04-19T09:18:43.999Z</time></trkpt><trkpt lat="40.08111649541138" lon="15.86493279105766"><ele>812.8</ele><time>2026-04-19T09:18:45.999Z</time></trkpt><trkpt lat="40.08106660838728" lon="15.864867339318081"><ele>811.0</ele><time>2026-04-19T09:18:46.999Z</time></trkpt><trkpt lat="40.080972744157876" lon="15.864725850423879"><ele>811.0</ele><time>2026-04-19T09:18:48.999Z</time></trkpt><trkpt lat="40.080925496563985" lon="15.864635867881184"><ele>811.0</ele><time>2026-04-19T09:18:49.999Z</time></trkpt><trkpt lat="40.080867013787575" lon="15.864567796172253"><ele>811.0</ele><time>2026-04-19T09:18:50.999Z</time></trkpt><trkpt lat="40.080818909333075" lon="15.864496948714919"><ele>811.0</ele><time>2026-04-19T09:18:51.999Z</time></trkpt><trkpt lat="40.080744269615884" lon="15.864369482500518"><ele>811.0</ele><time>2026-04-19T09:18:53.999Z</time></trkpt><trkpt lat="40.08064952128252" lon="15.864291859235118"><ele>807.1666666666666</ele><time>2026-04-19T09:18:55.999Z</time></trkpt><trkpt lat="40.080541106824064" lon="15.864246933402157"><ele>803.3333333333333</ele><time>2026-04-19T09:18:57.999Z</time></trkpt><trkpt lat="40.08046978175245" lon="15.864251486623468"><ele>799.5</ele><time>2026-04-19T09:18:58.999Z</time></trkpt><trkpt lat="40.080398829017824" lon="15.864244438067328"><ele>795.6666666666667</ele><time>2026-04-19T09:18:59.999Z</time></trkpt><trkpt lat="40.08032445546249" lon="15.864210539993826"><ele>791.8333333333334</ele><time>2026-04-19T09:19:00.999Z</time></trkpt><trkpt lat="40.08022904700116" lon="15.864147443200633"><ele>788.0</ele><time>2026-04-19T09:19:02.999Z</time></trkpt><trkpt lat="40.08010180720617" lon="15.864225698224356"><ele>788.0</ele><time>2026-04-19T09:19:05.999Z</time></trkpt><trkpt lat="40.08003528636933" lon="15.864262780108954"><ele>788.0</ele><time>2026-04-19T09:19:06.999Z</time></trkpt><trkpt lat="40.079964147367754" lon="15.864293621720252"><ele>788.0</ele><time>2026-04-19T09:19:07.999Z</time></trkpt><trkpt lat="40.07986231138923" lon="15.864350723505787"><ele>788.0</ele><time>2026-04-19T09:19:08.999Z</time></trkpt><trkpt lat="40.07975851424428" lon="15.864425910753381"><ele>788.0</ele><time>2026-04-19T09:19:09.999Z</time></trkpt><trkpt lat="40.079658563153274" lon="15.86451464010202"><ele>788.0</ele><time>2026-04-19T09:19:10.999Z</time></trkpt><trkpt lat="40.07955774689757" lon="15.86462846785982"><ele>788.0</ele><time>2026-04-19T09:19:11.999Z</time></trkpt><trkpt lat="40.079449863653764" lon="15.8647478406478"><ele>788.0</ele><time>2026-04-19T09:19:12.999Z</time></trkpt><trkpt lat="40.079366348153926" lon="15.86487085001597"><ele>788.0</ele><time>2026-04-19T09:19:13.999Z</time></trkpt><trkpt lat="40.07929625189862" lon="15.864972222318631"><ele>788.0000000000001</ele><time>2026-04-19T09:19:14.999Z</time></trkpt><trkpt lat="40.079222717101274" lon="15.86504631722133"><ele>788.0</ele><time>2026-04-19T09:19:15.999Z</time></trkpt><trkpt lat="40.079139012973975" lon="15.865095219119356"><ele>788.0</ele><time>2026-04-19T09:19:16.999Z</time></trkpt><trkpt lat="40.07906169310563" lon="15.865116455706955"><ele>788.0</ele><time>2026-04-19T09:19:17.999Z</time></trkpt><trkpt lat="40.07897339560102" lon="15.865115687439092"><ele>788.0000000000001</ele><time>2026-04-19T09:19:18.999Z</time></trkpt><trkpt lat="40.07887894695058" lon="15.865097685568026"><ele>788.0</ele><time>2026-04-19T09:19:20Z</time></trkpt><trkpt lat="40.0787916149194" lon="15.865076300463802"><ele>788.4</ele><time>2026-04-19T09:19:21Z</time></trkpt><trkpt lat="40.07872227826979" lon="15.865100921492047"><ele>788.8</ele><time>2026-04-19T09:19:22Z</time></trkpt><trkpt lat="40.078671727348436" lon="15.865173558479702"><ele>789.2</ele><time>2026-04-19T09:19:23Z</time></trkpt><trkpt lat="40.07862108326858" lon="15.865284076639217"><ele>789.6</ele><time>2026-04-19T09:19:24Z</time></trkpt><trkpt lat="40.07855764253772" lon="15.865407640970467"><ele>790.0</ele><time>2026-04-19T09:19:25Z</time></trkpt><trkpt lat="40.078481499853744" lon="15.865563598502577"><ele>790.0</ele><time>2026-04-19T09:19:26Z</time></trkpt><trkpt lat="40.07840464647069" lon="15.865687334312835"><ele>790.0</ele><time>2026-04-19T09:19:27Z</time></trkpt><trkpt lat="40.07830793480017" lon="15.86581114089708"><ele>790.0</ele><time>2026-04-19T09:19:28Z</time></trkpt><trkpt lat="40.07822681169509" lon="15.865922905783432"><ele>790.0</ele><time>2026-04-19T09:19:29Z</time></trkpt><trkpt lat="40.07811880073326" lon="15.866042209344489"><ele>790.8</ele><time>2026-04-19T09:19:30Z</time></trkpt><trkpt lat="40.07803878748558" lon="15.866113796288738"><ele>791.6</ele><time>2026-04-19T09:19:31Z</time></trkpt><trkpt lat="40.077967634790774" lon="15.866155634256659"><ele>792.4000000000001</ele><time>2026-04-19T09:19:32Z</time></trkpt><trkpt lat="40.07786664807076" lon="15.866166540334067"><ele>793.2</ele><time>2026-04-19T09:19:33Z</time></trkpt><trkpt lat="40.07781106075638" lon="15.866205743694136"><ele>794.0</ele><time>2026-04-19T09:19:34Z</time></trkpt><trkpt lat="40.07778610866797" lon="15.866372969183656"><ele>794.0</ele><time>2026-04-19T09:19:36Z</time></trkpt><trkpt lat="40.0777813439887" lon="15.866483828727059"><ele>794.0</ele><time>2026-04-19T09:19:37Z</time></trkpt><trkpt lat="40.07778722037155" lon="15.866611189171275"><ele>794.0</ele><time>2026-04-19T09:19:38Z</time></trkpt><trkpt lat="40.07778444517505" lon="15.866749485612134"><ele>794.0</ele><time>2026-04-19T09:19:39Z</time></trkpt><trkpt lat="40.077801570562855" lon="15.866947921300547"><ele>794.0</ele><time>2026-04-19T09:19:40Z</time></trkpt><trkpt lat="40.077822386318125" lon="15.867130012602887"><ele>794.75</ele><time>2026-04-19T09:19:41Z</time></trkpt><trkpt lat="40.07784372589671" lon="15.867270759226553"><ele>795.5</ele><time>2026-04-19T09:19:42Z</time></trkpt><trkpt lat="40.077886954226145" lon="15.867380103812257"><ele>796.25</ele><time>2026-04-19T09:19:43Z</time></trkpt><trkpt lat="40.077962188973835" lon="15.867489867978426"><ele>797.0</ele><time>2026-04-19T09:19:44Z</time></trkpt><trkpt lat="40.078036497192286" lon="15.867650326463059"><ele>797.0</ele><time>2026-04-19T09:19:45Z</time></trkpt><trkpt lat="40.078088999205654" lon="15.867808143766156"><ele>797.0</ele><time>2026-04-19T09:19:46Z</time></trkpt><trkpt lat="40.07813565634631" lon="15.867956427030824"><ele>797.0</ele><time>2026-04-19T09:19:47Z</time></trkpt><trkpt lat="40.078172035190065" lon="15.86808841171821"><ele>797.0</ele><time>2026-04-19T09:19:48Z</time></trkpt><trkpt lat="40.078201794026576" lon="15.86821122312766"><ele>797.0</ele><time>2026-04-19T09:19:49Z</time></trkpt><trkpt lat="40.07821942384455" lon="15.868345976313888"><ele>797.0</ele><time>2026-04-19T09:19:50Z</time></trkpt><trkpt lat="40.07821657392961" lon="15.868486829443963"><ele>797.0</ele><time>2026-04-19T09:19:51Z</time></trkpt><trkpt lat="40.078216279781564" lon="15.868629506465766"><ele>797.0</ele><time>2026-04-19T09:19:52Z</time></trkpt><trkpt lat="40.078219828453214" lon="15.868791968192674"><ele>797.0</ele><time>2026-04-19T09:19:53Z</time></trkpt><trkpt lat="40.07823346120653" lon="15.868964964326155"><ele>796.4000000000001</ele><time>2026-04-19T09:19:54Z</time></trkpt><trkpt lat="40.07822622346483" lon="15.869125729103374"><ele>795.8000000000001</ele><time>2026-04-19T09:19:55Z</time></trkpt><trkpt lat="40.0781969165297" lon="15.869262435806359"><ele>795.2</ele><time>2026-04-19T09:19:56Z</time></trkpt><trkpt lat="40.07815979925673" lon="15.869382067599675"><ele>794.6</ele><time>2026-04-19T09:19:57Z</time></trkpt><trkpt lat="40.078163017752566" lon="15.869479637230357"><ele>794.0</ele><time>2026-04-19T09:19:58Z</time></trkpt><trkpt lat="40.07820514480154" lon="15.86957532048728"><ele>794.0000000000001</ele><time>2026-04-19T09:19:59Z</time></trkpt><trkpt lat="40.0782590800936" lon="15.869641840294447"><ele>794.0</ele><time>2026-04-19T09:20:00Z</time></trkpt><trkpt lat="40.07833463633379" lon="15.869677810986172"><ele>794.0</ele><time>2026-04-19T09:20:01Z</time></trkpt><trkpt lat="40.07840517048673" lon="15.869736440456496"><ele>794.0</ele><time>2026-04-19T09:20:02Z</time></trkpt><trkpt lat="40.07845326347421" lon="15.869807886941679"><ele>794.0000000000001</ele><time>2026-04-19T09:20:03Z</time></trkpt><trkpt lat="40.07845430031256" lon="15.869922285113542"><ele>794.0</ele><time>2026-04-19T09:20:05Z</time></trkpt><trkpt lat="40.07842732268073" lon="15.870081204932319"><ele>798.0</ele><time>2026-04-19T09:20:07Z</time></trkpt><trkpt lat="40.07847200687225" lon="15.870193683452175"><ele>802.0</ele><time>2026-04-19T09:20:08Z</time></trkpt><trkpt lat="40.07853144542103" lon="15.87031227622311"><ele>806.0</ele><time>2026-04-19T09:20:09Z</time></trkpt><trkpt lat="40.07855796070754" lon="15.870426619890138"><ele>810.0</ele><time>2026-04-19T09:20:10Z</time></trkpt><trkpt lat="40.07855801968965" lon="15.870545710222657"><ele>814.0</ele><time>2026-04-19T09:20:11Z</time></trkpt><trkpt lat="40.07857440743969" lon="15.870654395039349"><ele>813.9999999999999</ele><time>2026-04-19T09:20:12Z</time></trkpt><trkpt lat="40.078610949931544" lon="15.870739996138038"><ele>814.0</ele><time>2026-04-19T09:20:13Z</time></trkpt><trkpt lat="40.07866727223423" lon="15.87080920690715"><ele>814.0</ele><time>2026-04-19T09:20:14Z</time></trkpt><trkpt lat="40.07874191922916" lon="15.870879536228651"><ele>814.0</ele><time>2026-04-19T09:20:15Z</time></trkpt><trkpt lat="40.0788079329868" lon="15.870968496654971"><ele>813.9999999999999</ele><time>2026-04-19T09:20:16Z</time></trkpt><trkpt lat="40.078851358325" lon="15.871075559672756"><ele>814.0</ele><time>2026-04-19T09:20:17Z</time></trkpt><trkpt lat="40.07886455115863" lon="15.871195684174303"><ele>815.25</ele><time>2026-04-19T09:20:18Z</time></trkpt><trkpt lat="40.07889075370121" lon="15.871339410535128"><ele>816.5</ele><time>2026-04-19T09:20:19Z</time></trkpt><trkpt lat="40.07893760932847" lon="15.871517697048686"><ele>817.75</ele><time>2026-04-19T09:20:20Z</time></trkpt><trkpt lat="40.07898407577087" lon="15.871700503313212"><ele>819.0</ele><time>2026-04-19T09:20:21Z</time></trkpt><trkpt lat="40.07902783492161" lon="15.871876871825842"><ele>820.75</ele><time>2026-04-19T09:20:22Z</time></trkpt><trkpt lat="40.07905379775367" lon="15.872036397002146"><ele>822.5</ele><time>2026-04-19T09:20:23Z</time></trkpt><trkpt lat="40.07907887932003" lon="15.872206240150923"><ele>824.25</ele><time>2026-04-19T09:20:24Z</time></trkpt><trkpt lat="40.079108096584584" lon="15.872386117416164"><ele>826.0</ele><time>2026-04-19T09:20:25Z</time></trkpt><trkpt lat="40.07913938228086" lon="15.872550932811594"><ele>828.4</ele><time>2026-04-19T09:20:26Z</time></trkpt><trkpt lat="40.07917228152988" lon="15.87271567623293"><ele>830.8</ele><time>2026-04-19T09:20:27Z</time></trkpt><trkpt lat="40.07919800720491" lon="15.872862294618725"><ele>833.1999999999999</ele><time>2026-04-19T09:20:28Z</time></trkpt><trkpt lat="40.079230259749735" lon="15.87297419788152"><ele>835.5999999999999</ele><time>2026-04-19T09:20:28.999Z</time></trkpt><trkpt lat="40.079280802096044" lon="15.87306383073867"><ele>838.0</ele><time>2026-04-19T09:20:29.999Z</time></trkpt><trkpt lat="40.07936072280037" lon="15.873130825260962"><ele>838.0</ele><time>2026-04-19T09:20:30.999Z</time></trkpt><trkpt lat="40.07945627605186" lon="15.873207780228677"><ele>838.0</ele><time>2026-04-19T09:20:31.999Z</time></trkpt><trkpt lat="40.079559090576936" lon="15.873262193336537"><ele>838.0</ele><time>2026-04-19T09:20:32.999Z</time></trkpt><trkpt lat="40.07967182736608" lon="15.873321361618318"><ele>838.0</ele><time>2026-04-19T09:20:33.999Z</time></trkpt><trkpt lat="40.07977433091358" lon="15.873389064514242"><ele>837.8</ele><time>2026-04-19T09:20:34.999Z</time></trkpt><trkpt lat="40.07987057390278" lon="15.873443585382825"><ele>837.5999999999999</ele><time>2026-04-19T09:20:35.999Z</time></trkpt><trkpt lat="40.07995537537056" lon="15.87349698028008"><ele>837.4000000000001</ele><time>2026-04-19T09:20:36.999Z</time></trkpt><trkpt lat="40.08001958615179" lon="15.873551345085307"><ele>837.2</ele><time>2026-04-19T09:20:37.999Z</time></trkpt><trkpt lat="40.08008075821057" lon="15.8736541933469"><ele>837.0</ele><time>2026-04-19T09:20:39.999Z</time></trkpt><trkpt lat="40.08004692025628" lon="15.873780353229197"><ele>837.0</ele><time>2026-04-19T09:20:41.999Z</time></trkpt><trkpt lat="40.07999724028891" lon="15.873874559736606"><ele>837.0</ele><time>2026-04-19T09:20:43.999Z</time></trkpt><trkpt lat="40.07992532396283" lon="15.873834501084504"><ele>837.0</ele><time>2026-04-19T09:20:44.999Z</time></trkpt><trkpt lat="40.07984640003711" lon="15.87388334341045"><ele>837.0</ele><time>2026-04-19T09:20:46.999Z</time></trkpt><trkpt lat="40.079777857335635" lon="15.873884361836312"><ele>837.0</ele><time>2026-04-19T09:20:47.999Z</time></trkpt><trkpt lat="40.0797053898741" lon="15.873875184805852"><ele>837.0</ele><time>2026-04-19T09:20:48.999Z</time></trkpt><trkpt lat="40.07964315243251" lon="15.873916895695379"><ele>835.1666666666666</ele><time>2026-04-19T09:20:49.999Z</time></trkpt><trkpt lat="40.07956622862153" lon="15.87396146017426"><ele>833.3333333333333</ele><time>2026-04-19T09:20:50.999Z</time></trkpt><trkpt lat="40.079449169518796" lon="15.873989277481197"><ele>831.5</ele><time>2026-04-19T09:20:51.999Z</time></trkpt><trkpt lat="40.079374137357846" lon="15.87400174398126"><ele>829.6666666666666</ele><time>2026-04-19T09:20:52.999Z</time></trkpt><trkpt lat="40.079302917671534" lon="15.874033921614332"><ele>827.8333333333333</ele><time>2026-04-19T09:20:53.999Z</time></trkpt><trkpt lat="40.07921179107009" lon="15.874046969593422"><ele>826.0</ele><time>2026-04-19T09:20:54.999Z</time></trkpt><trkpt lat="40.07912850092785" lon="15.874085039886348"><ele>823.6666666666666</ele><time>2026-04-19T09:20:55.999Z</time></trkpt><trkpt lat="40.07905079932393" lon="15.874084371582732"><ele>821.3333333333333</ele><time>2026-04-19T09:20:56.999Z</time></trkpt><trkpt lat="40.078951653168076" lon="15.874069670050005"><ele>819.0</ele><time>2026-04-19T09:20:57.999Z</time></trkpt><trkpt lat="40.07885054808129" lon="15.874058924063448"><ele>816.6666666666667</ele><time>2026-04-19T09:20:58.999Z</time></trkpt><trkpt lat="40.078766066333344" lon="15.874044947059309"><ele>814.3333333333334</ele><time>2026-04-19T09:20:59.999Z</time></trkpt><trkpt lat="40.078701995405076" lon="15.874060660254438"><ele>812.0</ele><time>2026-04-19T09:21:00.999Z</time></trkpt><trkpt lat="40.07863167088941" lon="15.874089888705386"><ele>812.0000000000001</ele><time>2026-04-19T09:21:01.999Z</time></trkpt><trkpt lat="40.07854935917684" lon="15.874158689520527"><ele>812.0</ele><time>2026-04-19T09:21:02.999Z</time></trkpt><trkpt lat="40.07848138499618" lon="15.874202642554884"><ele>812.0</ele><time>2026-04-19T09:21:03.999Z</time></trkpt><trkpt lat="40.07842827446203" lon="15.874249945982923"><ele>812.0</ele><time>2026-04-19T09:21:04.999Z</time></trkpt><trkpt lat="40.07836175367951" lon="15.874312245516371"><ele>812.0000000000001</ele><time>2026-04-19T09:21:06.999Z</time></trkpt><trkpt lat="40.07836186048285" lon="15.87444625957298"><ele>812.0</ele><time>2026-04-19T09:21:08.999Z</time></trkpt><trkpt lat="40.0783930906816" lon="15.874522292224823"><ele>811.6666666666667</ele><time>2026-04-19T09:21:09.999Z</time></trkpt><trkpt lat="40.07844754125087" lon="15.874591510828369"><ele>811.3333333333334</ele><time>2026-04-19T09:21:10.999Z</time></trkpt><trkpt lat="40.0784687692545" lon="15.874701753521776"><ele>811.0</ele><time>2026-04-19T09:21:12.999Z</time></trkpt><trkpt lat="40.07843819905856" lon="15.87477549913268"><ele>810.6666666666667</ele><time>2026-04-19T09:21:14.999Z</time></trkpt><trkpt lat="40.07843073633741" lon="15.874874226714823"><ele>810.3333333333334</ele><time>2026-04-19T09:21:17.999Z</time></trkpt><trkpt lat="40.07837900426157" lon="15.874955820665454"><ele>810.0</ele><time>2026-04-19T09:21:19.999Z</time></trkpt><trkpt lat="40.078316808391115" lon="15.874994268282245"><ele>808.4</ele><time>2026-04-19T09:21:21.999Z</time></trkpt><trkpt lat="40.078232535887494" lon="15.875047319593868"><ele>806.8</ele><time>2026-04-19T09:21:22.999Z</time></trkpt><trkpt lat="40.07818364654467" lon="15.875128470129821"><ele>805.2</ele><time>2026-04-19T09:21:23.999Z</time></trkpt><trkpt lat="40.07810532830842" lon="15.875278768309878"><ele>803.6</ele><time>2026-04-19T09:21:26Z</time></trkpt><trkpt lat="40.078070365049705" lon="15.875384428169012"><ele>802.0</ele><time>2026-04-19T09:21:27Z</time></trkpt><trkpt lat="40.07805902270595" lon="15.875542956928784"><ele>801.4000000000001</ele><time>2026-04-19T09:21:29Z</time></trkpt><trkpt lat="40.07804455546579" lon="15.875664130712607"><ele>800.8000000000001</ele><time>2026-04-19T09:21:30Z</time></trkpt><trkpt lat="40.078064378826035" lon="15.875809918474758"><ele>800.2</ele><time>2026-04-19T09:21:31Z</time></trkpt><trkpt lat="40.07805047985055" lon="15.87594125829977"><ele>799.6</ele><time>2026-04-19T09:21:32Z</time></trkpt><trkpt lat="40.07803079524661" lon="15.876063736060713"><ele>799.0</ele><time>2026-04-19T09:21:33Z</time></trkpt><trkpt lat="40.07797362063027" lon="15.876117395293207"><ele>799.0</ele><time>2026-04-19T09:21:35Z</time></trkpt><trkpt lat="40.07790246985705" lon="15.876068498847143"><ele>799.0</ele><time>2026-04-19T09:21:38Z</time></trkpt><trkpt lat="40.077853969752475" lon="15.876008634480058"><ele>799.0</ele><time>2026-04-19T09:21:40Z</time></trkpt><trkpt lat="40.07772876910075" lon="15.875896231170966"><ele>799.0</ele><time>2026-04-19T09:21:45Z</time></trkpt><trkpt lat="40.0776379639374" lon="15.875837364921711"><ele>799.0</ele><time>2026-04-19T09:21:47Z</time></trkpt><trkpt lat="40.07755845758453" lon="15.875806715879419"><ele>798.9999999999999</ele><time>2026-04-19T09:21:48Z</time></trkpt><trkpt lat="40.07748036430814" lon="15.875815876366044"><ele>799.0</ele><time>2026-04-19T09:21:49Z</time></trkpt><trkpt lat="40.07740691168156" lon="15.875834942457665"><ele>799.0</ele><time>2026-04-19T09:21:50Z</time></trkpt><trkpt lat="40.077323860808306" lon="15.87582614543248"><ele>799.0</ele><time>2026-04-19T09:21:51Z</time></trkpt><trkpt lat="40.077237821466724" lon="15.875808074615838"><ele>798.9999999999999</ele><time>2026-04-19T09:21:52Z</time></trkpt><trkpt lat="40.07716003999713" lon="15.87573619846232"><ele>799.0</ele><time>2026-04-19T09:21:53Z</time></trkpt><trkpt lat="40.077090648038464" lon="15.875682090521828"><ele>795.4999999999999</ele><time>2026-04-19T09:21:54Z</time></trkpt><trkpt lat="40.07702924479687" lon="15.87563358169604"><ele>792.0</ele><time>2026-04-19T09:21:55Z</time></trkpt><trkpt lat="40.07698274226734" lon="15.875568304590875"><ele>788.5</ele><time>2026-04-19T09:21:56Z</time></trkpt><trkpt lat="40.076953762766884" lon="15.875488431977445"><ele>785.0</ele><time>2026-04-19T09:21:57Z</time></trkpt><trkpt lat="40.076925754693825" lon="15.875414549481002"><ele>781.4999999999999</ele><time>2026-04-19T09:21:58Z</time></trkpt><trkpt lat="40.07682703644358" lon="15.875307435105173"><ele>778.0</ele><time>2026-04-19T09:22:00Z</time></trkpt><trkpt lat="40.07674341959411" lon="15.875230093077963"><ele>778.0</ele><time>2026-04-19T09:22:01Z</time></trkpt><trkpt lat="40.076683356497924" lon="15.875152297921302"><ele>778.0</ele><time>2026-04-19T09:22:02Z</time></trkpt><trkpt lat="40.076616193080156" lon="15.875076806079623"><ele>778.0</ele><time>2026-04-19T09:22:03Z</time></trkpt><trkpt lat="40.076566495667805" lon="15.874961197502971"><ele>778.0</ele><time>2026-04-19T09:22:05Z</time></trkpt><trkpt lat="40.07655093186138" lon="15.874864418983462"><ele>778.0</ele><time>2026-04-19T09:22:06Z</time></trkpt><trkpt lat="40.07645892481336" lon="15.874755616582915"><ele>776.4999999999999</ele><time>2026-04-19T09:22:08Z</time></trkpt><trkpt lat="40.076472113367196" lon="15.874621622046691"><ele>775.0</ele><time>2026-04-19T09:22:10Z</time></trkpt><trkpt lat="40.076455413940955" lon="15.874495852151012"><ele>773.5</ele><time>2026-04-19T09:22:12Z</time></trkpt><trkpt lat="40.076372210223006" lon="15.874419748201355"><ele>772.0</ele><time>2026-04-19T09:22:14Z</time></trkpt><trkpt lat="40.07631997994055" lon="15.874358120673984"><ele>770.4999999999999</ele><time>2026-04-19T09:22:16Z</time></trkpt><trkpt lat="40.076324809769154" lon="15.874272290638261"><ele>769.0</ele><time>2026-04-19T09:22:18Z</time></trkpt><trkpt lat="40.07635072363677" lon="15.87419353378342"><ele>769.0</ele><time>2026-04-19T09:22:19Z</time></trkpt><trkpt lat="40.07638156056063" lon="15.874085597537633"><ele>769.0</ele><time>2026-04-19T09:22:20Z</time></trkpt><trkpt lat="40.07643651896445" lon="15.873959671972392"><ele>769.0</ele><time>2026-04-19T09:22:21Z</time></trkpt><trkpt lat="40.07646680206665" lon="15.87384029769367"><ele>769.0</ele><time>2026-04-19T09:22:22Z</time></trkpt><trkpt lat="40.076499384483384" lon="15.873740064214983"><ele>769.0</ele><time>2026-04-19T09:22:23Z</time></trkpt><trkpt lat="40.07654400299014" lon="15.873666371325239"><ele>769.0</ele><time>2026-04-19T09:22:24Z</time></trkpt><trkpt lat="40.07659195656228" lon="15.873593892927033"><ele>769.0</ele><time>2026-04-19T09:22:26Z</time></trkpt><trkpt lat="40.07662184466737" lon="15.87348121122718"><ele>769.0</ele><time>2026-04-19T09:22:29Z</time></trkpt><trkpt lat="40.07662259765439" lon="15.873334969236694"><ele>769.0</ele><time>2026-04-19T09:22:31Z</time></trkpt><trkpt lat="40.07660122806065" lon="15.87322975222292"><ele>769.0</ele><time>2026-04-19T09:22:32Z</time></trkpt><trkpt lat="40.07658455233824" lon="15.873093996903053"><ele>769.25</ele><time>2026-04-19T09:22:33Z</time></trkpt><trkpt lat="40.07657703448671" lon="15.872964954442129"><ele>769.5</ele><time>2026-04-19T09:22:34Z</time></trkpt><trkpt lat="40.07659539616009" lon="15.872801510834732"><ele>769.75</ele><time>2026-04-19T09:22:35Z</time></trkpt><trkpt lat="40.076620472077266" lon="15.872629398456404"><ele>770.0</ele><time>2026-04-19T09:22:36Z</time></trkpt><trkpt lat="40.076644874080735" lon="15.87248885915131"><ele>770.0</ele><time>2026-04-19T09:22:37Z</time></trkpt><trkpt lat="40.076675204337896" lon="15.872364684759637"><ele>770.0</ele><time>2026-04-19T09:22:38Z</time></trkpt><trkpt lat="40.076720170652315" lon="15.872236196892882"><ele>770.0</ele><time>2026-04-19T09:22:39Z</time></trkpt><trkpt lat="40.076758534026084" lon="15.872119670538046"><ele>770.0</ele><time>2026-04-19T09:22:40Z</time></trkpt><trkpt lat="40.07677173606241" lon="15.872007105863533"><ele>770.0</ele><time>2026-04-19T09:22:41Z</time></trkpt><trkpt lat="40.076744066252566" lon="15.871882633794344"><ele>770.0</ele><time>2026-04-19T09:22:43Z</time></trkpt><trkpt lat="40.07666445286806" lon="15.871813500860535"><ele>770.0</ele><time>2026-04-19T09:22:44.999Z</time></trkpt><trkpt lat="40.07651505515558" lon="15.871767285040864"><ele>770.0</ele><time>2026-04-19T09:22:46.999Z</time></trkpt><trkpt lat="40.07644185534626" lon="15.871742624096251"><ele>770.0</ele><time>2026-04-19T09:22:47.999Z</time></trkpt><trkpt lat="40.076350811345804" lon="15.871703341051546"><ele>770.0</ele><time>2026-04-19T09:22:48.999Z</time></trkpt><trkpt lat="40.07625884556524" lon="15.871689747608047"><ele>772.6</ele><time>2026-04-19T09:22:49.999Z</time></trkpt><trkpt lat="40.07616629329399" lon="15.8716970816819"><ele>775.2</ele><time>2026-04-19T09:22:50.999Z</time></trkpt><trkpt lat="40.07605797378515" lon="15.87168846520046"><ele>777.8</ele><time>2026-04-19T09:22:51.999Z</time></trkpt><trkpt lat="40.07596901033451" lon="15.871694675277707"><ele>780.4</ele><time>2026-04-19T09:22:52.999Z</time></trkpt><trkpt lat="40.07583365401374" lon="15.871646761067694"><ele>783.0</ele><time>2026-04-19T09:22:54.999Z</time></trkpt><trkpt lat="40.07575058410771" lon="15.871602219054807"><ele>788.0</ele><time>2026-04-19T09:22:55.999Z</time></trkpt><trkpt lat="40.07566004836895" lon="15.871540974068822"><ele>793.0</ele><time>2026-04-19T09:22:56.999Z</time></trkpt><trkpt lat="40.07561105135938" lon="15.871480865703928"><ele>798.0</ele><time>2026-04-19T09:22:57.999Z</time></trkpt><trkpt lat="40.075575617753174" lon="15.871405527816375"><ele>803.0</ele><time>2026-04-19T09:22:58.999Z</time></trkpt><trkpt lat="40.07556132789823" lon="15.871308486751547"><ele>808.0</ele><time>2026-04-19T09:22:59.999Z</time></trkpt><trkpt lat="40.075556561717896" lon="15.87121469334175"><ele>813.0</ele><time>2026-04-19T09:23:00.999Z</time></trkpt><trkpt lat="40.07553283357957" lon="15.871135693043424"><ele>818.0</ele><time>2026-04-19T09:23:01.999Z</time></trkpt><trkpt lat="40.075484920153684" lon="15.871072012828906"><ele>818.0000000000001</ele><time>2026-04-19T09:23:02.999Z</time></trkpt><trkpt lat="40.07542576955529" lon="15.87101388871654"><ele>818.0</ele><time>2026-04-19T09:23:03.999Z</time></trkpt><trkpt lat="40.07538761021187" lon="15.870947996432232"><ele>818.0</ele><time>2026-04-19T09:23:04.999Z</time></trkpt><trkpt lat="40.07535192150005" lon="15.870766010768302"><ele>818.0</ele><time>2026-04-19T09:23:06.999Z</time></trkpt><trkpt lat="40.0753454659868" lon="15.870674126870941"><ele>818.0000000000001</ele><time>2026-04-19T09:23:07.999Z</time></trkpt><trkpt lat="40.075363790492595" lon="15.870573575068798"><ele>818.0</ele><time>2026-04-19T09:23:09.999Z</time></trkpt><trkpt lat="40.07535573138301" lon="15.870460219821338"><ele>818.0</ele><time>2026-04-19T09:23:11.999Z</time></trkpt><trkpt lat="40.07534317197587" lon="15.87036970744876"><ele>818.0</ele><time>2026-04-19T09:23:12.999Z</time></trkpt><trkpt lat="40.075318958957595" lon="15.870284811709585"><ele>818.0</ele><time>2026-04-19T09:23:13.999Z</time></trkpt><trkpt lat="40.07539479585073" lon="15.870141971919532"><ele>818.0</ele><time>2026-04-19T09:23:15.999Z</time></trkpt><trkpt lat="40.075429344067274" lon="15.870052882522547"><ele>818.0</ele><time>2026-04-19T09:23:16.999Z</time></trkpt><trkpt lat="40.075431871023845" lon="15.86991510064253"><ele>818.0000000000001</ele><time>2026-04-19T09:23:18.999Z</time></trkpt><trkpt lat="40.07542732537266" lon="15.869824676566736"><ele>818.0</ele><time>2026-04-19T09:23:19.999Z</time></trkpt><trkpt lat="40.075418187487436" lon="15.869726450618948"><ele>818.0</ele><time>2026-04-19T09:23:20.999Z</time></trkpt><trkpt lat="40.07537990077102" lon="15.869612904265077"><ele>818.0</ele><time>2026-04-19T09:23:22.999Z</time></trkpt><trkpt lat="40.075293593599724" lon="15.86952931923609"><ele>818.0000000000001</ele><time>2026-04-19T09:23:24.999Z</time></trkpt><trkpt lat="40.07528868548266" lon="15.869445310852528"><ele>818.0</ele><time>2026-04-19T09:23:26.999Z</time></trkpt><trkpt lat="40.07529699795726" lon="15.869351721148567"><ele>818.0</ele><time>2026-04-19T09:23:29.999Z</time></trkpt><trkpt lat="40.07535390880427" lon="15.869295867845095"><ele>818.0</ele><time>2026-04-19T09:23:32Z</time></trkpt><trkpt lat="40.07539811095924" lon="15.86919047366547"><ele>818.0</ele><time>2026-04-19T09:23:33Z</time></trkpt><trkpt lat="40.07546626222038" lon="15.869030166739188"><ele>818.0</ele><time>2026-04-19T09:23:34Z</time></trkpt><trkpt lat="40.07549438724382" lon="15.86891503159203"><ele>818.0</ele><time>2026-04-19T09:23:35Z</time></trkpt><trkpt lat="40.07551749858528" lon="15.868811002748563"><ele>818.8333333333334</ele><time>2026-04-19T09:23:36Z</time></trkpt><trkpt lat="40.075522659465484" lon="15.868723960254597"><ele>819.6666666666667</ele><time>2026-04-19T09:23:37Z</time></trkpt><trkpt lat="40.075472200517645" lon="15.868575624241545"><ele>820.5</ele><time>2026-04-19T09:23:39Z</time></trkpt><trkpt lat="40.075395992143775" lon="15.86849676463132"><ele>821.3333333333333</ele><time>2026-04-19T09:23:41Z</time></trkpt><trkpt lat="40.075330972359865" lon="15.868439747995277"><ele>822.1666666666666</ele><time>2026-04-19T09:23:43Z</time></trkpt><trkpt lat="40.07537115130457" lon="15.868348256490279"><ele>823.0</ele><time>2026-04-19T09:23:46Z</time></trkpt><trkpt lat="40.07537012868181" lon="15.868189204400796"><ele>823.0</ele><time>2026-04-19T09:23:48Z</time></trkpt><trkpt lat="40.07543574810097" lon="15.868087006038841"><ele>823.0</ele><time>2026-04-19T09:23:51Z</time></trkpt><trkpt lat="40.075539453945154" lon="15.868089032649367"><ele>823.0</ele><time>2026-04-19T09:23:53Z</time></trkpt><trkpt lat="40.0756030766618" lon="15.868070330102555"><ele>823.0</ele><time>2026-04-19T09:23:55Z</time></trkpt><trkpt lat="40.07561041017988" lon="15.8679299879581"><ele>823.0</ele><time>2026-04-19T09:23:57Z</time></trkpt><trkpt lat="40.07558755455751" lon="15.867823472153674"><ele>822.9999999999999</ele><time>2026-04-19T09:23:59Z</time></trkpt><trkpt lat="40.07561363387983" lon="15.867694100354663"><ele>823.0</ele><time>2026-04-19T09:24:01Z</time></trkpt><trkpt lat="40.075627663966124" lon="15.867601886181282"><ele>823.0</ele><time>2026-04-19T09:24:02Z</time></trkpt><trkpt lat="40.0756340529649" lon="15.867496470184994"><ele>823.0</ele><time>2026-04-19T09:24:03Z</time></trkpt><trkpt lat="40.07562911774422" lon="15.867384099106076"><ele>822.9999999999999</ele><time>2026-04-19T09:24:04Z</time></trkpt><trkpt lat="40.075607040837646" lon="15.867268449213427"><ele>823.0</ele><time>2026-04-19T09:24:05Z</time></trkpt><trkpt lat="40.07557111568872" lon="15.867146656622207"><ele>824.0</ele><time>2026-04-19T09:24:06Z</time></trkpt><trkpt lat="40.075521451190575" lon="15.867039911116708"><ele>825.0</ele><time>2026-04-19T09:24:07Z</time></trkpt><trkpt lat="40.07546917522632" lon="15.866956473002018"><ele>826.0</ele><time>2026-04-19T09:24:08Z</time></trkpt><trkpt lat="40.07541094112703" lon="15.86687837220414"><ele>827.0</ele><time>2026-04-19T09:24:09Z</time></trkpt><trkpt lat="40.07538450648582" lon="15.866680028085968"><ele>828.0</ele><time>2026-04-19T09:24:11Z</time></trkpt><trkpt lat="40.07537609743811" lon="15.866580563254027"><ele>829.4</ele><time>2026-04-19T09:24:12Z</time></trkpt><trkpt lat="40.07534299065733" lon="15.866488549115598"><ele>830.8</ele><time>2026-04-19T09:24:13Z</time></trkpt><trkpt lat="40.07530863686512" lon="15.866392391019508"><ele>832.2</ele><time>2026-04-19T09:24:14Z</time></trkpt><trkpt lat="40.07531935166422" lon="15.866261054540383"><ele>833.6</ele><time>2026-04-19T09:24:16Z</time></trkpt><trkpt lat="40.07530706632917" lon="15.866142682789038"><ele>835.0</ele><time>2026-04-19T09:24:19Z</time></trkpt><trkpt lat="40.07521491000412" lon="15.866007886036515"><ele>834.6</ele><time>2026-04-19T09:24:22Z</time></trkpt><trkpt lat="40.07518274692334" lon="15.865899263645963"><ele>834.2</ele><time>2026-04-19T09:24:23Z</time></trkpt><trkpt lat="40.07513267022502" lon="15.865783924250248"><ele>833.8</ele><time>2026-04-19T09:24:24Z</time></trkpt><trkpt lat="40.07506194411467" lon="15.865694887894833"><ele>833.4</ele><time>2026-04-19T09:24:25Z</time></trkpt><trkpt lat="40.074988168389275" lon="15.865599689580092"><ele>833.0</ele><time>2026-04-19T09:24:26Z</time></trkpt><trkpt lat="40.07492929020294" lon="15.865506381208904"><ele>839.5999999999999</ele><time>2026-04-19T09:24:27Z</time></trkpt><trkpt lat="40.074872787729376" lon="15.865405711624877"><ele>846.1999999999999</ele><time>2026-04-19T09:24:28Z</time></trkpt><trkpt lat="40.074812272558276" lon="15.865291843920723"><ele>852.8</ele><time>2026-04-19T09:24:29Z</time></trkpt><trkpt lat="40.07477058744836" lon="15.865160085430798"><ele>859.4</ele><time>2026-04-19T09:24:30Z</time></trkpt><trkpt lat="40.07474717026176" lon="15.865021693272007"><ele>866.0</ele><time>2026-04-19T09:24:31Z</time></trkpt><trkpt lat="40.074726284703466" lon="15.864928005828176"><ele>866.0000000000001</ele><time>2026-04-19T09:24:32Z</time></trkpt><trkpt lat="40.074710967553386" lon="15.86483947899442"><ele>866.0</ele><time>2026-04-19T09:24:33Z</time></trkpt><trkpt lat="40.07472855101099" lon="15.864743179862169"><ele>866.0</ele><time>2026-04-19T09:24:34Z</time></trkpt><trkpt lat="40.07477087394452" lon="15.864635464943905"><ele>866.0</ele><time>2026-04-19T09:24:35Z</time></trkpt><trkpt lat="40.074796739102176" lon="15.864522634676666"><ele>866.0000000000001</ele><time>2026-04-19T09:24:36Z</time></trkpt><trkpt lat="40.074828033609414" lon="15.86441032303485"><ele>866.0</ele><time>2026-04-19T09:24:37Z</time></trkpt><trkpt lat="40.07486305812177" lon="15.86429302111136"><ele>865.5999999999999</ele><time>2026-04-19T09:24:38Z</time></trkpt><trkpt lat="40.074879824548034" lon="15.864195652595487"><ele>865.1999999999999</ele><time>2026-04-19T09:24:40Z</time></trkpt><trkpt lat="40.07480857230781" lon="15.864146374038825"><ele>864.8000000000001</ele><time>2026-04-19T09:24:42Z</time></trkpt><trkpt lat="40.07472063690747" lon="15.864116482073365"><ele>864.4000000000001</ele><time>2026-04-19T09:24:45Z</time></trkpt><trkpt lat="40.07456355714696" lon="15.864051296279008"><ele>864.0</ele><time>2026-04-19T09:24:47Z</time></trkpt><trkpt lat="40.07455330389736" lon="15.863927328051442"><ele>864.0</ele><time>2026-04-19T09:24:49Z</time></trkpt><trkpt lat="40.07456405494527" lon="15.86379514736806"><ele>864.0000000000001</ele><time>2026-04-19T09:24:50Z</time></trkpt><trkpt lat="40.07458132016151" lon="15.86368706320693"><ele>864.0000000000001</ele><time>2026-04-19T09:24:51Z</time></trkpt><trkpt lat="40.074582738464" lon="15.863590368631433"><ele>864.0</ele><time>2026-04-19T09:24:52Z</time></trkpt><trkpt lat="40.074535541143575" lon="15.863452736826265"><ele>864.0</ele><time>2026-04-19T09:24:53Z</time></trkpt><trkpt lat="40.07449331119363" lon="15.86331058423793"><ele>862.8333333333334</ele><time>2026-04-19T09:24:54Z</time></trkpt><trkpt lat="40.07446395490097" lon="15.86322080851087"><ele>861.6666666666667</ele><time>2026-04-19T09:24:55Z</time></trkpt><trkpt lat="40.07440671746799" lon="15.863155187317524"><ele>860.5</ele><time>2026-04-19T09:24:57Z</time></trkpt><trkpt lat="40.074352892298315" lon="15.863102205222466"><ele>859.3333333333334</ele><time>2026-04-19T09:25:02Z</time></trkpt><trkpt lat="40.07429858721756" lon="15.863016256843403"><ele>858.1666666666667</ele><time>2026-04-19T09:25:03Z</time></trkpt><trkpt lat="40.07423650936048" lon="15.862902581844311"><ele>857.0</ele><time>2026-04-19T09:25:04Z</time></trkpt><trkpt lat="40.074158801083186" lon="15.862740815979555"><ele>857.0</ele><time>2026-04-19T09:25:05Z</time></trkpt><trkpt lat="40.07408839498786" lon="15.862654422766768"><ele>857.0</ele><time>2026-04-19T09:25:06Z</time></trkpt><trkpt lat="40.07398854978515" lon="15.862566924656104"><ele>857.0</ele><time>2026-04-19T09:25:07Z</time></trkpt><trkpt lat="40.07390952967455" lon="15.862486122395389"><ele>857.0</ele><time>2026-04-19T09:25:07.999Z</time></trkpt><trkpt lat="40.0738139353176" lon="15.862416748035496"><ele>857.0</ele><time>2026-04-19T09:25:08.999Z</time></trkpt><trkpt lat="40.07374092279686" lon="15.86234797423502"><ele>857.0000000000001</ele><time>2026-04-19T09:25:09.999Z</time></trkpt><trkpt lat="40.07366828243981" lon="15.86227104043922"><ele>857.0</ele><time>2026-04-19T09:25:10.999Z</time></trkpt><trkpt lat="40.07359769229556" lon="15.862213035401409"><ele>857.0</ele><time>2026-04-19T09:25:11.999Z</time></trkpt><trkpt lat="40.07353283928957" lon="15.862171042976325"><ele>857.0</ele><time>2026-04-19T09:25:12.999Z</time></trkpt><trkpt lat="40.07346121613032" lon="15.86214227047644"><ele>857.0000000000001</ele><time>2026-04-19T09:25:13.999Z</time></trkpt><trkpt lat="40.07335092155567" lon="15.862113554894593"><ele>857.0</ele><time>2026-04-19T09:25:15.999Z</time></trkpt><trkpt lat="40.073250959440315" lon="15.862078514311252"><ele>854.6</ele><time>2026-04-19T09:25:17.999Z</time></trkpt><trkpt lat="40.07315704463852" lon="15.862031843946367"><ele>852.2</ele><time>2026-04-19T09:25:19.999Z</time></trkpt><trkpt lat="40.0730556308579" lon="15.86199926436233"><ele>849.8</ele><time>2026-04-19T09:25:21.999Z</time></trkpt><trkpt lat="40.07295069209065" lon="15.862102117290476"><ele>847.4</ele><time>2026-04-19T09:25:23.999Z</time></trkpt><trkpt lat="40.072898403034266" lon="15.862209268156118"><ele>845.0</ele><time>2026-04-19T09:25:24.999Z</time></trkpt><trkpt lat="40.072839690293435" lon="15.862347064527697"><ele>845.0</ele><time>2026-04-19T09:25:25.999Z</time></trkpt><trkpt lat="40.07276917584676" lon="15.862474682777185"><ele>845.0</ele><time>2026-04-19T09:25:26.999Z</time></trkpt><trkpt lat="40.07270777607986" lon="15.862576852631955"><ele>845.0</ele><time>2026-04-19T09:25:27.999Z</time></trkpt><trkpt lat="40.07265752457333" lon="15.862662278639917"><ele>845.0</ele><time>2026-04-19T09:25:28.999Z</time></trkpt><trkpt lat="40.07260760406713" lon="15.862758843898824"><ele>845.0</ele><time>2026-04-19T09:25:29.999Z</time></trkpt><trkpt lat="40.072574413253335" lon="15.862871327822447"><ele>845.5</ele><time>2026-04-19T09:25:30.999Z</time></trkpt><trkpt lat="40.07256504892167" lon="15.863008536275316"><ele>846.0</ele><time>2026-04-19T09:25:31.999Z</time></trkpt><trkpt lat="40.072573571664094" lon="15.863167079799767"><ele>846.5</ele><time>2026-04-19T09:25:32.999Z</time></trkpt><trkpt lat="40.0725955756815" lon="15.863343192108365"><ele>847.0</ele><time>2026-04-19T09:25:33.999Z</time></trkpt><trkpt lat="40.07260930472863" lon="15.86350187166976"><ele>848.0</ele><time>2026-04-19T09:25:34.999Z</time></trkpt><trkpt lat="40.07261238330189" lon="15.863649051985925"><ele>849.0</ele><time>2026-04-19T09:25:35.999Z</time></trkpt><trkpt lat="40.072601961247855" lon="15.863803695581312"><ele>850.0</ele><time>2026-04-19T09:25:36.999Z</time></trkpt><trkpt lat="40.0725938856445" lon="15.863957473931979"><ele>851.0</ele><time>2026-04-19T09:25:38Z</time></trkpt><trkpt lat="40.07257887645845" lon="15.864085354053277"><ele>852.0</ele><time>2026-04-19T09:25:39Z</time></trkpt><trkpt lat="40.07255386545588" lon="15.864211100469323"><ele>852.8</ele><time>2026-04-19T09:25:40Z</time></trkpt><trkpt lat="40.07250388095835" lon="15.864301719612223"><ele>853.6</ele><time>2026-04-19T09:25:41Z</time></trkpt><trkpt lat="40.072434079871364" lon="15.864375938071607"><ele>854.3999999999999</ele><time>2026-04-19T09:25:42Z</time></trkpt><trkpt lat="40.072345740410704" lon="15.8644365131485"><ele>855.1999999999999</ele><time>2026-04-19T09:25:43Z</time></trkpt><trkpt lat="40.07224555991632" lon="15.8644872558876"><ele>856.0</ele><time>2026-04-19T09:25:44Z</time></trkpt><trkpt lat="40.07215833969999" lon="15.864511807048387"><ele>856.0</ele><time>2026-04-19T09:25:45Z</time></trkpt><trkpt lat="40.072076643844206" lon="15.86455899979234"><ele>856.0</ele><time>2026-04-19T09:25:46Z</time></trkpt><trkpt lat="40.071981505027594" lon="15.864636637782958"><ele>856.0</ele><time>2026-04-19T09:25:47Z</time></trkpt><trkpt lat="40.07186426869982" lon="15.864728359219958"><ele>856.0</ele><time>2026-04-19T09:25:48Z</time></trkpt><trkpt lat="40.071738286840315" lon="15.864820456300293"><ele>856.0</ele><time>2026-04-19T09:25:49Z</time></trkpt><trkpt lat="40.07163031104608" lon="15.864897092442519"><ele>856.0</ele><time>2026-04-19T09:25:50Z</time></trkpt><trkpt lat="40.07152707254518" lon="15.86495369169505"><ele>856.0</ele><time>2026-04-19T09:25:51Z</time></trkpt><trkpt lat="40.0714140238643" lon="15.864978862421273"><ele>856.0</ele><time>2026-04-19T09:25:52Z</time></trkpt><trkpt lat="40.07129551895003" lon="15.864967215482109"><ele>854.8</ele><time>2026-04-19T09:25:53Z</time></trkpt><trkpt lat="40.071187320729656" lon="15.864930230590968"><ele>853.5999999999999</ele><time>2026-04-19T09:25:54Z</time></trkpt><trkpt lat="40.07109039314915" lon="15.86489902532355"><ele>852.4</ele><time>2026-04-19T09:25:55Z</time></trkpt><trkpt lat="40.070995239248106" lon="15.864925232469371"><ele>851.2</ele><time>2026-04-19T09:25:56Z</time></trkpt><trkpt lat="40.070912697913464" lon="15.865018798165382"><ele>850.0</ele><time>2026-04-19T09:25:57Z</time></trkpt><trkpt lat="40.07085936558122" lon="15.865169305980038"><ele>850.0</ele><time>2026-04-19T09:25:58Z</time></trkpt><trkpt lat="40.07083960702651" lon="15.865337883041176"><ele>850.0</ele><time>2026-04-19T09:25:59Z</time></trkpt><trkpt lat="40.07085573920398" lon="15.865538765757316"><ele>850.0</ele><time>2026-04-19T09:26:00Z</time></trkpt><trkpt lat="40.07085663668453" lon="15.865721985194828"><ele>850.0</ele><time>2026-04-19T09:26:01Z</time></trkpt><trkpt lat="40.07086416270245" lon="15.865868447441402"><ele>850.3333333333333</ele><time>2026-04-19T09:26:02Z</time></trkpt><trkpt lat="40.070867421635846" lon="15.865989245990708"><ele>850.6666666666666</ele><time>2026-04-19T09:26:03Z</time></trkpt><trkpt lat="40.070857384652065" lon="15.866089727974888"><ele>851.0</ele><time>2026-04-19T09:26:04Z</time></trkpt><trkpt lat="40.07083575613379" lon="15.866189112199311"><ele>851.3333333333333</ele><time>2026-04-19T09:26:05Z</time></trkpt><trkpt lat="40.07076188749693" lon="15.866260155061372"><ele>851.6666666666666</ele><time>2026-04-19T09:26:06Z</time></trkpt><trkpt lat="40.070681644839425" lon="15.86630211977068"><ele>852.0</ele><time>2026-04-19T09:26:07Z</time></trkpt><trkpt lat="40.070605039392845" lon="15.866335410770947"><ele>852.0</ele><time>2026-04-19T09:26:08Z</time></trkpt><trkpt lat="40.07054277685956" lon="15.866354493889688"><ele>852.0</ele><time>2026-04-19T09:26:09Z</time></trkpt><trkpt lat="40.07052823905904" lon="15.866507952306346"><ele>852.0</ele><time>2026-04-19T09:26:10Z</time></trkpt><trkpt lat="40.07051776982556" lon="15.866633395673116"><ele>852.0</ele><time>2026-04-19T09:26:11Z</time></trkpt><trkpt lat="40.07051237066834" lon="15.866739905275095"><ele>852.0</ele><time>2026-04-19T09:26:12Z</time></trkpt><trkpt lat="40.070484632042465" lon="15.866836799576285"><ele>852.0</ele><time>2026-04-19T09:26:13Z</time></trkpt><trkpt lat="40.07041795620763" lon="15.866912439281867"><ele>853.4000000000001</ele><time>2026-04-19T09:26:14Z</time></trkpt><trkpt lat="40.070310089003016" lon="15.866917166542974"><ele>854.8000000000001</ele><time>2026-04-19T09:26:15Z</time></trkpt><trkpt lat="40.07019570247057" lon="15.86694086416432"><ele>856.2</ele><time>2026-04-19T09:26:16Z</time></trkpt><trkpt lat="40.07008255734128" lon="15.866968193699732"><ele>857.6</ele><time>2026-04-19T09:26:17Z</time></trkpt><trkpt lat="40.069985100839034" lon="15.866992600196653"><ele>859.0</ele><time>2026-04-19T09:26:18Z</time></trkpt><trkpt lat="40.069888864213134" lon="15.867031745006758"><ele>859.5</ele><time>2026-04-19T09:26:19Z</time></trkpt><trkpt lat="40.069771728830574" lon="15.86704538255319"><ele>860.0</ele><time>2026-04-19T09:26:20Z</time></trkpt><trkpt lat="40.06964779366551" lon="15.867059222773863"><ele>860.5</ele><time>2026-04-19T09:26:21Z</time></trkpt><trkpt lat="40.06952841605861" lon="15.8670688791865"><ele>861.0</ele><time>2026-04-19T09:26:22Z</time></trkpt><trkpt lat="40.06942386015924" lon="15.867073065962328"><ele>861.0</ele><time>2026-04-19T09:26:23Z</time></trkpt><trkpt lat="40.06931567666572" lon="15.867069633607697"><ele>860.9999999999999</ele><time>2026-04-19T09:26:24Z</time></trkpt><trkpt lat="40.06921488469795" lon="15.86704510622416"><ele>860.9999999999999</ele><time>2026-04-19T09:26:25Z</time></trkpt><trkpt lat="40.069129995193904" lon="15.867022229810834"><ele>861.0</ele><time>2026-04-19T09:26:26Z</time></trkpt><trkpt lat="40.069061152559826" lon="15.866996333903545"><ele>861.0</ele><time>2026-04-19T09:26:27Z</time></trkpt><trkpt lat="40.068979369497995" lon="15.867017323118441"><ele>861.0</ele><time>2026-04-19T09:26:28Z</time></trkpt><trkpt lat="40.06888519745203" lon="15.86707305800545"><ele>860.9999999999999</ele><time>2026-04-19T09:26:29Z</time></trkpt><trkpt lat="40.06878922426291" lon="15.867088402198625"><ele>860.9999999999999</ele><time>2026-04-19T09:26:30Z</time></trkpt><trkpt lat="40.06869189043116" lon="15.867081632857012"><ele>861.0</ele><time>2026-04-19T09:26:31Z</time></trkpt><trkpt lat="40.06860662737236" lon="15.867020742704609"><ele>861.0</ele><time>2026-04-19T09:26:32Z</time></trkpt><trkpt lat="40.06853551450836" lon="15.866950046790564"><ele>861.0</ele><time>2026-04-19T09:26:33Z</time></trkpt><trkpt lat="40.06842294913502" lon="15.86690404034816"><ele>860.9999999999999</ele><time>2026-04-19T09:26:35Z</time></trkpt><trkpt lat="40.068354812731855" lon="15.866894220071758"><ele>860.9999999999999</ele><time>2026-04-19T09:26:37Z</time></trkpt><trkpt lat="40.068272776842" lon="15.866937532347523"><ele>861.0</ele><time>2026-04-19T09:26:39Z</time></trkpt><trkpt lat="40.068262435060426" lon="15.867114341536057"><ele>861.0</ele><time>2026-04-19T09:26:41Z</time></trkpt><trkpt lat="40.06825317196293" lon="15.867212077432416"><ele>861.6666666666666</ele><time>2026-04-19T09:26:42Z</time></trkpt><trkpt lat="40.06824571863171" lon="15.867301182482409"><ele>862.3333333333333</ele><time>2026-04-19T09:26:43Z</time></trkpt><trkpt lat="40.068237135197265" lon="15.867403797962135"><ele>863.0</ele><time>2026-04-19T09:26:44Z</time></trkpt><trkpt lat="40.06823592424782" lon="15.867513103134053"><ele>863.6666666666666</ele><time>2026-04-19T09:26:45Z</time></trkpt><trkpt lat="40.06821193951522" lon="15.867629061315112"><ele>864.3333333333333</ele><time>2026-04-19T09:26:46Z</time></trkpt><trkpt lat="40.06818869072431" lon="15.867754561646628"><ele>865.0</ele><time>2026-04-19T09:26:47Z</time></trkpt><trkpt lat="40.068215822665195" lon="15.867871270391877"><ele>866.2</ele><time>2026-04-19T09:26:48Z</time></trkpt><trkpt lat="40.0682281122305" lon="15.867984951327186"><ele>867.4</ele><time>2026-04-19T09:26:49Z</time></trkpt><trkpt lat="40.0682443706842" lon="15.86810334590731"><ele>868.5999999999999</ele><time>2026-04-19T09:26:50Z</time></trkpt><trkpt lat="40.0682307473063" lon="15.86822224788644"><ele>869.8</ele><time>2026-04-19T09:26:51Z</time></trkpt><trkpt lat="40.06820875629976" lon="15.868352959475029"><ele>871.0</ele><time>2026-04-19T09:26:52Z</time></trkpt><trkpt lat="40.06818393517793" lon="15.868477798949618"><ele>872.8</ele><time>2026-04-19T09:26:53Z</time></trkpt><trkpt lat="40.06817392761282" lon="15.86860282097281"><ele>874.5999999999999</ele><time>2026-04-19T09:26:54Z</time></trkpt><trkpt lat="40.068172393595596" lon="15.86872936651049"><ele>876.4</ele><time>2026-04-19T09:26:55Z</time></trkpt><trkpt lat="40.068164831467236" lon="15.868850685961188"><ele>878.2</ele><time>2026-04-19T09:26:56Z</time></trkpt><trkpt lat="40.068146687676" lon="15.86899021828207"><ele>880.0</ele><time>2026-04-19T09:26:57Z</time></trkpt><trkpt lat="40.068143841896436" lon="15.869118498043012"><ele>880.0</ele><time>2026-04-19T09:26:58Z</time></trkpt><trkpt lat="40.068146944947856" lon="15.869243251234506"><ele>880.0</ele><time>2026-04-19T09:26:59Z</time></trkpt><trkpt lat="40.068161588986285" lon="15.86936907557194"><ele>880.0</ele><time>2026-04-19T09:27:00Z</time></trkpt><trkpt lat="40.068181155404645" lon="15.869493595794143"><ele>880.0</ele><time>2026-04-19T09:27:01Z</time></trkpt><trkpt lat="40.06819946245143" lon="15.869617210355273"><ele>880.0</ele><time>2026-04-19T09:27:02Z</time></trkpt><trkpt lat="40.068218417125244" lon="15.869722666051914"><ele>881.8</ele><time>2026-04-19T09:27:03Z</time></trkpt><trkpt lat="40.068231183071475" lon="15.869822183441869"><ele>883.6</ele><time>2026-04-19T09:27:04Z</time></trkpt><trkpt lat="40.068237775846974" lon="15.869915460743623"><ele>885.4000000000001</ele><time>2026-04-19T09:27:05Z</time></trkpt><trkpt lat="40.068199543112286" lon="15.870041115859378"><ele>887.2</ele><time>2026-04-19T09:27:06Z</time></trkpt><trkpt lat="40.068185885283846" lon="15.870186380627441"><ele>889.0</ele><time>2026-04-19T09:27:07Z</time></trkpt><trkpt lat="40.068197075621086" lon="15.870313175276102"><ele>891.0</ele><time>2026-04-19T09:27:08Z</time></trkpt><trkpt lat="40.06821811404769" lon="15.870433856366239"><ele>893.0000000000001</ele><time>2026-04-19T09:27:09Z</time></trkpt><trkpt lat="40.06824110461401" lon="15.87055234320824"><ele>895.0000000000001</ele><time>2026-04-19T09:27:10Z</time></trkpt><trkpt lat="40.068274443719666" lon="15.870663404160043"><ele>897.0</ele><time>2026-04-19T09:27:11Z</time></trkpt><trkpt lat="40.06830257785122" lon="15.870802420243658"><ele>899.0</ele><time>2026-04-19T09:27:12Z</time></trkpt><trkpt lat="40.068325215790864" lon="15.870939631739786"><ele>901.2</ele><time>2026-04-19T09:27:13Z</time></trkpt><trkpt lat="40.068331227795646" lon="15.871055310082326"><ele>903.4000000000001</ele><time>2026-04-19T09:27:14Z</time></trkpt><trkpt lat="40.068330986732065" lon="15.871175895240196"><ele>905.6</ele><time>2026-04-19T09:27:14.999Z</time></trkpt><trkpt lat="40.06832621636393" lon="15.871296290415495"><ele>907.8</ele><time>2026-04-19T09:27:15.999Z</time></trkpt><trkpt lat="40.06831272533185" lon="15.871422826637922"><ele>910.0</ele><time>2026-04-19T09:27:16.999Z</time></trkpt><trkpt lat="40.06829450168845" lon="15.871557432226217"><ele>910.0</ele><time>2026-04-19T09:27:17.999Z</time></trkpt><trkpt lat="40.06828260479338" lon="15.871710428313172"><ele>910.0</ele><time>2026-04-19T09:27:18.999Z</time></trkpt><trkpt lat="40.06827223084382" lon="15.871890681040789"><ele>910.0</ele><time>2026-04-19T09:27:19.999Z</time></trkpt><trkpt lat="40.068272020084464" lon="15.872026134914417"><ele>910.0</ele><time>2026-04-19T09:27:20.999Z</time></trkpt><trkpt lat="40.06827687357016" lon="15.872135049386626"><ele>910.0</ele><time>2026-04-19T09:27:21.999Z</time></trkpt><trkpt lat="40.0683013610585" lon="15.872222018216076"><ele>911.0</ele><time>2026-04-19T09:27:22.999Z</time></trkpt><trkpt lat="40.06835452655763" lon="15.872301103283037"><ele>912.0</ele><time>2026-04-19T09:27:24.999Z</time></trkpt><trkpt lat="40.068266754438206" lon="15.872400755460772"><ele>913.0</ele><time>2026-04-19T09:27:26.999Z</time></trkpt><trkpt lat="40.06820049737959" lon="15.872461295436912"><ele>914.0</ele><time>2026-04-19T09:27:27.999Z</time></trkpt><trkpt lat="40.068120296674586" lon="15.872546866935979"><ele>915.0</ele><time>2026-04-19T09:27:28.999Z</time></trkpt><trkpt lat="40.068067940927" lon="15.872636376221678"><ele>917.5</ele><time>2026-04-19T09:27:29.999Z</time></trkpt><trkpt lat="40.068044171304614" lon="15.872732641318873"><ele>920.0</ele><time>2026-04-19T09:27:30.999Z</time></trkpt><trkpt lat="40.06803048352254" lon="15.872862077870657"><ele>922.5</ele><time>2026-04-19T09:27:31.999Z</time></trkpt><trkpt lat="40.068002196314495" lon="15.872970166012534"><ele>925.0</ele><time>2026-04-19T09:27:32.999Z</time></trkpt><trkpt lat="40.06797626148981" lon="15.873062432860952"><ele>927.5</ele><time>2026-04-19T09:27:33.999Z</time></trkpt><trkpt lat="40.067946666689856" lon="15.873189582333007"><ele>930.0</ele><time>2026-04-19T09:27:35.999Z</time></trkpt><trkpt lat="40.067916894103284" lon="15.873337498265856"><ele>930.0</ele><time>2026-04-19T09:27:37.999Z</time></trkpt><trkpt lat="40.06789898164627" lon="15.873427505044315"><ele>930.0</ele><time>2026-04-19T09:27:38.999Z</time></trkpt><trkpt lat="40.06786838013549" lon="15.873535551208873"><ele>930.0</ele><time>2026-04-19T09:27:39.999Z</time></trkpt><trkpt lat="40.06783225294345" lon="15.873660227898206"><ele>930.0</ele><time>2026-04-19T09:27:40.999Z</time></trkpt><trkpt lat="40.06779901390804" lon="15.873769298858925"><ele>930.0</ele><time>2026-04-19T09:27:41.999Z</time></trkpt><trkpt lat="40.06775345589925" lon="15.873862312274257"><ele>930.0</ele><time>2026-04-19T09:27:42.999Z</time></trkpt><trkpt lat="40.06770417504192" lon="15.873964786888399"><ele>929.4</ele><time>2026-04-19T09:27:44Z</time></trkpt><trkpt lat="40.06764632915637" lon="15.874055032153244"><ele>928.8</ele><time>2026-04-19T09:27:45Z</time></trkpt><trkpt lat="40.06757276940156" lon="15.87413582124118"><ele>928.2</ele><time>2026-04-19T09:27:46Z</time></trkpt><trkpt lat="40.06749455942645" lon="15.874255075902441"><ele>927.6</ele><time>2026-04-19T09:27:47Z</time></trkpt><trkpt lat="40.067427401861664" lon="15.874380424989113"><ele>927.0</ele><time>2026-04-19T09:27:48Z</time></trkpt><trkpt lat="40.06737023621024" lon="15.874500019109854"><ele>926.1666666666666</ele><time>2026-04-19T09:27:49Z</time></trkpt><trkpt lat="40.06732638862894" lon="15.874611449773045"><ele>925.3333333333333</ele><time>2026-04-19T09:27:50Z</time></trkpt><trkpt lat="40.067285123504035" lon="15.874698666487406"><ele>924.5</ele><time>2026-04-19T09:27:51Z</time></trkpt><trkpt lat="40.067250684407966" lon="15.874788691399402"><ele>923.6666666666666</ele><time>2026-04-19T09:27:52Z</time></trkpt><trkpt lat="40.06720946331999" lon="15.874897891403538"><ele>922.8333333333333</ele><time>2026-04-19T09:27:53Z</time></trkpt><trkpt lat="40.06717631449943" lon="15.87500874721775"><ele>922.0</ele><time>2026-04-19T09:27:54Z</time></trkpt><trkpt lat="40.0671518207124" lon="15.875117685164389"><ele>921.1666666666666</ele><time>2026-04-19T09:27:55Z</time></trkpt><trkpt lat="40.06712882153083" lon="15.875228218937636"><ele>920.3333333333333</ele><time>2026-04-19T09:27:56Z</time></trkpt><trkpt lat="40.067100531578085" lon="15.875333596249813"><ele>919.5</ele><time>2026-04-19T09:27:57Z</time></trkpt><trkpt lat="40.06707902484412" lon="15.875446008013647"><ele>918.6666666666667</ele><time>2026-04-19T09:27:58Z</time></trkpt><trkpt lat="40.06706505195923" lon="15.875552120268623"><ele>917.8333333333334</ele><time>2026-04-19T09:27:59Z</time></trkpt><trkpt lat="40.067044622164396" lon="15.875648708463375"><ele>917.0</ele><time>2026-04-19T09:28:00Z</time></trkpt><trkpt lat="40.06700615390659" lon="15.875723764735348"><ele>917.0000000000001</ele><time>2026-04-19T09:28:01Z</time></trkpt><trkpt lat="40.06695198543086" lon="15.87578296919079"><ele>917.0</ele><time>2026-04-19T09:28:02Z</time></trkpt><trkpt lat="40.06689383187758" lon="15.875822224122873"><ele>917.0</ele><time>2026-04-19T09:28:03Z</time></trkpt><trkpt lat="40.066843238792394" lon="15.875963730746431"><ele>917.0</ele><time>2026-04-19T09:28:05Z</time></trkpt><trkpt lat="40.06685084585977" lon="15.87606337007068"><ele>917.0000000000001</ele><time>2026-04-19T09:28:06Z</time></trkpt><trkpt lat="40.066850083410394" lon="15.876159582715744"><ele>917.0</ele><time>2026-04-19T09:28:07Z</time></trkpt><trkpt lat="40.06681757869181" lon="15.8763207052396"><ele>916.5000000000001</ele><time>2026-04-19T09:28:09Z</time></trkpt><trkpt lat="40.06678969772" lon="15.876433972050679"><ele>916.0</ele><time>2026-04-19T09:28:10Z</time></trkpt><trkpt lat="40.06673904394559" lon="15.876536197300045"><ele>915.5</ele><time>2026-04-19T09:28:11Z</time></trkpt><trkpt lat="40.066692608166214" lon="15.87662510111021"><ele>915.0</ele><time>2026-04-19T09:28:12Z</time></trkpt><trkpt lat="40.06666371060956" lon="15.876712782185095"><ele>914.5000000000001</ele><time>2026-04-19T09:28:13Z</time></trkpt><trkpt lat="40.06662348891094" lon="15.87684099952604"><ele>914.0</ele><time>2026-04-19T09:28:15Z</time></trkpt><trkpt lat="40.06658677400517" lon="15.876954272212673"><ele>919.4000000000001</ele><time>2026-04-19T09:28:17Z</time></trkpt><trkpt lat="40.06653789959957" lon="15.87706800927253"><ele>924.8000000000001</ele><time>2026-04-19T09:28:19Z</time></trkpt><trkpt lat="40.066481588984466" lon="15.877238186432525"><ele>930.1999999999999</ele><time>2026-04-19T09:28:21Z</time></trkpt><trkpt lat="40.066509594023415" lon="15.877321405729274"><ele>935.5999999999999</ele><time>2026-04-19T09:28:22Z</time></trkpt><trkpt lat="40.06654664559228" lon="15.877473056245588"><ele>941.0</ele><time>2026-04-19T09:28:24Z</time></trkpt><trkpt lat="40.06657467511817" lon="15.877548181055726"><ele>940.8</ele><time>2026-04-19T09:28:25Z</time></trkpt><trkpt lat="40.06657685341565" lon="15.877639257692348"><ele>940.5999999999999</ele><time>2026-04-19T09:28:26Z</time></trkpt><trkpt lat="40.06657530845764" lon="15.877775222277137"><ele>940.4</ele><time>2026-04-19T09:28:27Z</time></trkpt><trkpt lat="40.066626454082844" lon="15.877895452328826"><ele>940.2</ele><time>2026-04-19T09:28:28Z</time></trkpt><trkpt lat="40.06668182703374" lon="15.8780127897178"><ele>940.0</ele><time>2026-04-19T09:28:29Z</time></trkpt><trkpt lat="40.066716874921156" lon="15.878140075644465"><ele>936.8333333333333</ele><time>2026-04-19T09:28:30Z</time></trkpt><trkpt lat="40.06676201889682" lon="15.878246235302209"><ele>933.6666666666666</ele><time>2026-04-19T09:28:31Z</time></trkpt><trkpt lat="40.066785144422596" lon="15.878330853616331"><ele>930.5</ele><time>2026-04-19T09:28:32Z</time></trkpt><trkpt lat="40.066783182542494" lon="15.878436561132528"><ele>927.3333333333333</ele><time>2026-04-19T09:28:33Z</time></trkpt><trkpt lat="40.06676324333769" lon="15.878546421157056"><ele>924.1666666666666</ele><time>2026-04-19T09:28:34Z</time></trkpt><trkpt lat="40.0667260048682" lon="15.878655713167737"><ele>921.0</ele><time>2026-04-19T09:28:35Z</time></trkpt><trkpt lat="40.06668937877159" lon="15.8787534071881"><ele>919.8</ele><time>2026-04-19T09:28:36Z</time></trkpt><trkpt lat="40.066662515308884" lon="15.878828167961696"><ele>918.5999999999999</ele><time>2026-04-19T09:28:37Z</time></trkpt><trkpt lat="40.0665753465082" lon="15.878900378157764"><ele>917.4</ele><time>2026-04-19T09:28:38Z</time></trkpt><trkpt lat="40.06648841725135" lon="15.878936478861743"><ele>916.2</ele><time>2026-04-19T09:28:39Z</time></trkpt><trkpt lat="40.066394616113016" lon="15.878981664373038"><ele>915.0</ele><time>2026-04-19T09:28:40Z</time></trkpt><trkpt lat="40.06630541743276" lon="15.879077288401698"><ele>916.4</ele><time>2026-04-19T09:28:41Z</time></trkpt><trkpt lat="40.06625298096237" lon="15.87919534349443"><ele>917.8</ele><time>2026-04-19T09:28:42Z</time></trkpt><trkpt lat="40.066193054903444" lon="15.879321350049015"><ele>919.2</ele><time>2026-04-19T09:28:43Z</time></trkpt><trkpt lat="40.06615936335864" lon="15.879443069838826"><ele>920.6</ele><time>2026-04-19T09:28:44Z</time></trkpt><trkpt lat="40.06612325092489" lon="15.879571268250139"><ele>922.0</ele><time>2026-04-19T09:28:45Z</time></trkpt><trkpt lat="40.0660742849794" lon="15.879703136560885"><ele>922.0</ele><time>2026-04-19T09:28:46Z</time></trkpt><trkpt lat="40.0660194306995" lon="15.879818933432947"><ele>922.0</ele><time>2026-04-19T09:28:47Z</time></trkpt><trkpt lat="40.0659873374044" lon="15.879921658382685"><ele>922.0</ele><time>2026-04-19T09:28:48Z</time></trkpt><trkpt lat="40.06597274998766" lon="15.880015868208362"><ele>922.0</ele><time>2026-04-19T09:28:49Z</time></trkpt><trkpt lat="40.065967351979594" lon="15.880122699343312"><ele>922.0</ele><time>2026-04-19T09:28:50Z</time></trkpt><trkpt lat="40.06597233452559" lon="15.880288561151922"><ele>920.2</ele><time>2026-04-19T09:28:51Z</time></trkpt><trkpt lat="40.065999759165734" lon="15.880441211424058"><ele>918.4000000000001</ele><time>2026-04-19T09:28:52Z</time></trkpt><trkpt lat="40.066009591716906" lon="15.880584497835947"><ele>916.5999999999999</ele><time>2026-04-19T09:28:53Z</time></trkpt><trkpt lat="40.066015074698015" lon="15.880717843169492"><ele>914.8</ele><time>2026-04-19T09:28:54Z</time></trkpt><trkpt lat="40.0660079295282" lon="15.880854095125741"><ele>913.0</ele><time>2026-04-19T09:28:55Z</time></trkpt><trkpt lat="40.06596409087472" lon="15.880983572624434"><ele>911.0</ele><time>2026-04-19T09:28:56Z</time></trkpt><trkpt lat="40.06590795004916" lon="15.881132096969116"><ele>909.0</ele><time>2026-04-19T09:28:57Z</time></trkpt><trkpt lat="40.065847895382625" lon="15.88127907586326"><ele>907.0</ele><time>2026-04-19T09:28:58Z</time></trkpt><trkpt lat="40.065806981437305" lon="15.881402281687016"><ele>905.0</ele><time>2026-04-19T09:28:59Z</time></trkpt><trkpt lat="40.065757540401925" lon="15.881501437772894"><ele>903.0</ele><time>2026-04-19T09:29:00Z</time></trkpt><trkpt lat="40.06568585540466" lon="15.881594548218898"><ele>905.0</ele><time>2026-04-19T09:29:01Z</time></trkpt><trkpt lat="40.0655907282474" lon="15.881693893525883"><ele>907.0</ele><time>2026-04-19T09:29:02Z</time></trkpt><trkpt lat="40.065491235329795" lon="15.88180636155681"><ele>909.0</ele><time>2026-04-19T09:29:03Z</time></trkpt><trkpt lat="40.065360422558605" lon="15.881928788709567"><ele>911.0</ele><time>2026-04-19T09:29:04Z</time></trkpt><trkpt lat="40.0652512766111" lon="15.882062553880566"><ele>911.0</ele><time>2026-04-19T09:29:05Z</time></trkpt><trkpt lat="40.065156963216765" lon="15.8822225056402"><ele>911.0</ele><time>2026-04-19T09:29:06Z</time></trkpt><trkpt lat="40.06507155673798" lon="15.882364203034536"><ele>911.0</ele><time>2026-04-19T09:29:07Z</time></trkpt><trkpt lat="40.065008839597894" lon="15.88247309784052"><ele>911.0</ele><time>2026-04-19T09:29:08Z</time></trkpt><trkpt lat="40.06498286367312" lon="15.882556096415989"><ele>911.25</ele><time>2026-04-19T09:29:09Z</time></trkpt><trkpt lat="40.06496660495099" lon="15.882667062291084"><ele>911.5</ele><time>2026-04-19T09:29:10Z</time></trkpt><trkpt lat="40.06495455938547" lon="15.882819930318275"><ele>911.75</ele><time>2026-04-19T09:29:11Z</time></trkpt><trkpt lat="40.06494176306121" lon="15.883003574195191"><ele>912.0</ele><time>2026-04-19T09:29:12Z</time></trkpt><trkpt lat="40.06492873807685" lon="15.883158000156252"><ele>913.75</ele><time>2026-04-19T09:29:13Z</time></trkpt><trkpt lat="40.064934941388294" lon="15.88327497927616"><ele>915.5</ele><time>2026-04-19T09:29:14Z</time></trkpt><trkpt lat="40.06492992315386" lon="15.883391796896223"><ele>917.25</ele><time>2026-04-19T09:29:15Z</time></trkpt><trkpt lat="40.06488580386503" lon="15.88354984407353"><ele>919.0</ele><time>2026-04-19T09:29:15.999Z</time></trkpt><trkpt lat="40.064894808577726" lon="15.883748409959683"><ele>919.0</ele><time>2026-04-19T09:29:16.999Z</time></trkpt><trkpt lat="40.06490594475392" lon="15.88392576487941"><ele>919.0000000000001</ele><time>2026-04-19T09:29:17.999Z</time></trkpt><trkpt lat="40.06490810078916" lon="15.884076931345257"><ele>919.0000000000001</ele><time>2026-04-19T09:29:18.999Z</time></trkpt><trkpt lat="40.06489926610722" lon="15.884195093060123"><ele>919.0</ele><time>2026-04-19T09:29:19.999Z</time></trkpt><trkpt lat="40.06484614795304" lon="15.884275855748456"><ele>919.0</ele><time>2026-04-19T09:29:20.999Z</time></trkpt><trkpt lat="40.06475691368286" lon="15.884318977249102"><ele>920.75</ele><time>2026-04-19T09:29:21.999Z</time></trkpt><trkpt lat="40.064647544872344" lon="15.884408258982193"><ele>922.5</ele><time>2026-04-19T09:29:22.999Z</time></trkpt><trkpt lat="40.06454725348624" lon="15.884520205462218"><ele>924.25</ele><time>2026-04-19T09:29:23.999Z</time></trkpt><trkpt lat="40.06448297333414" lon="15.884659827052625"><ele>926.0</ele><time>2026-04-19T09:29:24.999Z</time></trkpt><trkpt lat="40.06446021789875" lon="15.884837208820214"><ele>926.0</ele><time>2026-04-19T09:29:25.999Z</time></trkpt><trkpt lat="40.06441370383195" lon="15.88502655604421"><ele>926.0</ele><time>2026-04-19T09:29:26.999Z</time></trkpt><trkpt lat="40.06437026537297" lon="15.885205727790215"><ele>926.0</ele><time>2026-04-19T09:29:27.999Z</time></trkpt><trkpt lat="40.06433053503377" lon="15.885358689625415"><ele>926.0</ele><time>2026-04-19T09:29:28.999Z</time></trkpt><trkpt lat="40.064291941771046" lon="15.885491347283653"><ele>926.0</ele><time>2026-04-19T09:29:29.999Z</time></trkpt><trkpt lat="40.064254146436234" lon="15.885620169443342"><ele>925.9999999999999</ele><time>2026-04-19T09:29:30.999Z</time></trkpt><trkpt lat="40.064213215523075" lon="15.885751002692428"><ele>925.9999999999999</ele><time>2026-04-19T09:29:31.999Z</time></trkpt><trkpt lat="40.06418152790601" lon="15.885857260001693"><ele>926.0</ele><time>2026-04-19T09:29:32.999Z</time></trkpt><trkpt lat="40.06410285940045" lon="15.885922030596372"><ele>926.0</ele><time>2026-04-19T09:29:33.999Z</time></trkpt><trkpt lat="40.064026173411385" lon="15.885938278337136"><ele>926.0</ele><time>2026-04-19T09:29:34.999Z</time></trkpt><trkpt lat="40.063946448170284" lon="15.885924938504122"><ele>925.9999999999999</ele><time>2026-04-19T09:29:36.999Z</time></trkpt><trkpt lat="40.063873079746465" lon="15.885940928494605"><ele>925.9999999999999</ele><time>2026-04-19T09:30:34Z</time></trkpt><trkpt lat="40.06379184397067" lon="15.885879865883151"><ele>926.0</ele><time>2026-04-19T09:30:35Z</time></trkpt><trkpt lat="40.063702710684204" lon="15.885811892406533"><ele>926.0</ele><time>2026-04-19T09:30:36Z</time></trkpt><trkpt lat="40.06363411812744" lon="15.885709784115795"><ele>926.0</ele><time>2026-04-19T09:30:37Z</time></trkpt><trkpt lat="40.06354805336075" lon="15.885636736946594"><ele>925.9999999999999</ele><time>2026-04-19T09:30:38Z</time></trkpt><trkpt lat="40.06345565900952" lon="15.88555831757315"><ele>925.9999999999999</ele><time>2026-04-19T09:30:39Z</time></trkpt><trkpt lat="40.063377873581445" lon="15.885493080197778"><ele>926.0</ele><time>2026-04-19T09:30:40Z</time></trkpt><trkpt lat="40.06330552346687" lon="15.885452004289691"><ele>926.0</ele><time>2026-04-19T09:30:41Z</time></trkpt><trkpt lat="40.06324332860074" lon="15.885391001798096"><ele>925.2857142857142</ele><time>2026-04-19T09:30:42Z</time></trkpt><trkpt lat="40.063194186126715" lon="15.885329828175783"><ele>924.5714285714284</ele><time>2026-04-19T09:30:43Z</time></trkpt><trkpt lat="40.063144440393444" lon="15.885262443731872"><ele>923.8571428571429</ele><time>2026-04-19T09:30:44Z</time></trkpt><trkpt lat="40.0630970929986" lon="15.885190677717443"><ele>923.1428571428571</ele><time>2026-04-19T09:30:45Z</time></trkpt><trkpt lat="40.06304809411595" lon="15.885116607566854"><ele>922.4285714285714</ele><time>2026-04-19T09:30:46Z</time></trkpt><trkpt lat="40.063010535132236" lon="15.885046738653399"><ele>921.7142857142858</ele><time>2026-04-19T09:30:47Z</time></trkpt><trkpt lat="40.06296360735607" lon="15.884961550459797"><ele>921.0000000000001</ele><time>2026-04-19T09:30:48Z</time></trkpt><trkpt lat="40.062915161415525" lon="15.884879046600819"><ele>921.0</ele><time>2026-04-19T09:30:49Z</time></trkpt><trkpt lat="40.06287515903249" lon="15.884814187304523"><ele>921.0</ele><time>2026-04-19T09:30:50Z</time></trkpt><trkpt lat="40.062857076844736" lon="15.884729904978292"><ele>921.0</ele><time>2026-04-19T09:30:51Z</time></trkpt><trkpt lat="40.062814955858585" lon="15.884636333021831"><ele>921.0</ele><time>2026-04-19T09:30:52Z</time></trkpt><trkpt lat="40.06279076350671" lon="15.884541338816573"><ele>921.0</ele><time>2026-04-19T09:30:53Z</time></trkpt><trkpt lat="40.06275517693136" lon="15.88445383647095"><ele>921.0</ele><time>2026-04-19T09:30:54Z</time></trkpt><trkpt lat="40.06272616862631" lon="15.884323421827062"><ele>921.5</ele><time>2026-04-19T09:30:56Z</time></trkpt><trkpt lat="40.06270434018966" lon="15.884209564652819"><ele>922.0</ele><time>2026-04-19T09:30:58Z</time></trkpt><trkpt lat="40.06268346063012" lon="15.884124959298049"><ele>922.5</ele><time>2026-04-19T09:31:01Z</time></trkpt><trkpt lat="40.06263175517465" lon="15.88401288905388"><ele>923.0</ele><time>2026-04-19T09:31:08Z</time></trkpt><trkpt lat="40.06260052867527" lon="15.883920502374918"><ele>923.5</ele><time>2026-04-19T09:31:09Z</time></trkpt><trkpt lat="40.06254433941938" lon="15.883827835193827"><ele>924.0</ele><time>2026-04-19T09:31:10Z</time></trkpt><trkpt lat="40.0624708248542" lon="15.883716647039062"><ele>925.0</ele><time>2026-04-19T09:31:11Z</time></trkpt><trkpt lat="40.06236861533846" lon="15.883606405799817"><ele>926.0</ele><time>2026-04-19T09:31:12Z</time></trkpt><trkpt lat="40.06227736040252" lon="15.88351850368799"><ele>927.0</ele><time>2026-04-19T09:31:13Z</time></trkpt><trkpt lat="40.06220377567039" lon="15.88342891246408"><ele>928.0</ele><time>2026-04-19T09:31:14Z</time></trkpt><trkpt lat="40.06208617020074" lon="15.88342167008003"><ele>928.0</ele><time>2026-04-19T09:31:15Z</time></trkpt><trkpt lat="40.06198691827104" lon="15.883421061697154"><ele>928.0</ele><time>2026-04-19T09:31:16Z</time></trkpt><trkpt lat="40.06190126372866" lon="15.883416352329437"><ele>928.0</ele><time>2026-04-19T09:31:17Z</time></trkpt><trkpt lat="40.06183560492417" lon="15.88339844609181"><ele>928.0</ele><time>2026-04-19T09:31:17.999Z</time></trkpt><trkpt lat="40.06174984773957" lon="15.88324741132332"><ele>928.0</ele><time>2026-04-19T09:31:19.999Z</time></trkpt><trkpt lat="40.06166934573831" lon="15.883150669602315"><ele>925.4</ele><time>2026-04-19T09:31:20.999Z</time></trkpt><trkpt lat="40.06158873627181" lon="15.883063650124711"><ele>922.8</ele><time>2026-04-19T09:31:21.999Z</time></trkpt><trkpt lat="40.061507322046" lon="15.882981864049844"><ele>920.2</ele><time>2026-04-19T09:31:22.999Z</time></trkpt><trkpt lat="40.06143017044409" lon="15.882901915121796"><ele>917.6</ele><time>2026-04-19T09:31:23.999Z</time></trkpt><trkpt lat="40.06135243249081" lon="15.882808526978934"><ele>915.0</ele><time>2026-04-19T09:31:24.999Z</time></trkpt><trkpt lat="40.06128115224265" lon="15.8826993799853"><ele>918.25</ele><time>2026-04-19T09:31:25.999Z</time></trkpt><trkpt lat="40.06121856557119" lon="15.882554287990404"><ele>921.5</ele><time>2026-04-19T09:31:26.999Z</time></trkpt><trkpt lat="40.061163555493536" lon="15.882431185426215"><ele>924.75</ele><time>2026-04-19T09:31:27.999Z</time></trkpt><trkpt lat="40.06111222074176" lon="15.882303096436239"><ele>928.0</ele><time>2026-04-19T09:31:28.999Z</time></trkpt><trkpt lat="40.06104994850269" lon="15.882149186600529"><ele>928.0</ele><time>2026-04-19T09:31:29.999Z</time></trkpt><trkpt lat="40.06096553818191" lon="15.881998414511727"><ele>928.0</ele><time>2026-04-19T09:31:30.999Z</time></trkpt><trkpt lat="40.06089338804745" lon="15.881881686986953"><ele>928.0</ele><time>2026-04-19T09:31:31.999Z</time></trkpt><trkpt lat="40.06082142574196" lon="15.881763344328931"><ele>928.0</ele><time>2026-04-19T09:31:32.999Z</time></trkpt><trkpt lat="40.060711619240415" lon="15.881683640229795"><ele>927.5</ele><time>2026-04-19T09:31:33.999Z</time></trkpt><trkpt lat="40.060620049083354" lon="15.881579967870234"><ele>927.0</ele><time>2026-04-19T09:31:34.999Z</time></trkpt><trkpt lat="40.06052516388669" lon="15.881475389496446"><ele>926.5</ele><time>2026-04-19T09:31:35.999Z</time></trkpt><trkpt lat="40.06044008333822" lon="15.881349638087151"><ele>926.0</ele><time>2026-04-19T09:31:36.999Z</time></trkpt><trkpt lat="40.06032582060716" lon="15.881232435751707"><ele>926.0</ele><time>2026-04-19T09:31:37.999Z</time></trkpt><trkpt lat="40.06019482654577" lon="15.881152875810423"><ele>926.0</ele><time>2026-04-19T09:31:38.999Z</time></trkpt><trkpt lat="40.06008209088644" lon="15.881072414195819"><ele>926.0</ele><time>2026-04-19T09:31:39.999Z</time></trkpt><trkpt lat="40.060012291794365" lon="15.88094430298198"><ele>926.0</ele><time>2026-04-19T09:31:40.999Z</time></trkpt><trkpt lat="40.0599255862799" lon="15.880816935773897"><ele>925.25</ele><time>2026-04-19T09:31:41.999Z</time></trkpt><trkpt lat="40.059839043999006" lon="15.88066495533268"><ele>924.5</ele><time>2026-04-19T09:31:42.999Z</time></trkpt><trkpt lat="40.05973500492489" lon="15.880524552094203"><ele>923.75</ele><time>2026-04-19T09:31:43.999Z</time></trkpt><trkpt lat="40.059633183076215" lon="15.880386909683548"><ele>923.0</ele><time>2026-04-19T09:31:44.999Z</time></trkpt><trkpt lat="40.059536113474486" lon="15.88024687000254"><ele>928.3333333333334</ele><time>2026-04-19T09:31:45.999Z</time></trkpt><trkpt lat="40.059433472052376" lon="15.88009380296599"><ele>933.6666666666667</ele><time>2026-04-19T09:31:46.999Z</time></trkpt><trkpt lat="40.059323588324844" lon="15.879948862944296"><ele>939.0</ele><time>2026-04-19T09:31:47.999Z</time></trkpt><trkpt lat="40.05921921438649" lon="15.879826155510637"><ele>939.0</ele><time>2026-04-19T09:31:48.999Z</time></trkpt><trkpt lat="40.05912064090056" lon="15.87969011174122"><ele>939.0</ele><time>2026-04-19T09:31:49.999Z</time></trkpt><trkpt lat="40.05901692761674" lon="15.879589175098964"><ele>939.0</ele><time>2026-04-19T09:31:50.999Z</time></trkpt><trkpt lat="40.05894006008395" lon="15.87945064973169"><ele>939.0</ele><time>2026-04-19T09:31:51.999Z</time></trkpt><trkpt lat="40.058860083717626" lon="15.879311946124506"><ele>936.0</ele><time>2026-04-19T09:31:52.999Z</time></trkpt><trkpt lat="40.0587930268345" lon="15.879156666034497"><ele>933.0</ele><time>2026-04-19T09:31:53.999Z</time></trkpt><trkpt lat="40.05870302829434" lon="15.87902498673481"><ele>930.0</ele><time>2026-04-19T09:31:55Z</time></trkpt><trkpt lat="40.058632980333066" lon="15.878885400246011"><ele>927.0</ele><time>2026-04-19T09:31:56Z</time></trkpt><trkpt lat="40.058573466194325" lon="15.878763258420394"><ele>927.0</ele><time>2026-04-19T09:31:57Z</time></trkpt><trkpt lat="40.058540984815494" lon="15.878609703693531"><ele>927.0</ele><time>2026-04-19T09:31:58Z</time></trkpt><trkpt lat="40.058465098643566" lon="15.878457280966193"><ele>927.0</ele><time>2026-04-19T09:31:59Z</time></trkpt><trkpt lat="40.05841986088968" lon="15.878313957640286"><ele>927.0</ele><time>2026-04-19T09:32:00Z</time></trkpt><trkpt lat="40.058380647902155" lon="15.878181861542618"><ele>925.25</ele><time>2026-04-19T09:32:01Z</time></trkpt><trkpt lat="40.058346145090255" lon="15.878040680921929"><ele>923.5</ele><time>2026-04-19T09:32:02Z</time></trkpt><trkpt lat="40.05831759539651" lon="15.877892366380001"><ele>921.75</ele><time>2026-04-19T09:32:03Z</time></trkpt><trkpt lat="40.05829785194458" lon="15.877753171006063"><ele>920.0</ele><time>2026-04-19T09:32:04Z</time></trkpt><trkpt lat="40.058266878610375" lon="15.877611852423627"><ele>921.25</ele><time>2026-04-19T09:32:05Z</time></trkpt><trkpt lat="40.05821962986307" lon="15.877477184639533"><ele>922.5</ele><time>2026-04-19T09:32:06Z</time></trkpt><trkpt lat="40.05814497671712" lon="15.877351160511402"><ele>923.75</ele><time>2026-04-19T09:32:07Z</time></trkpt><trkpt lat="40.05807942102717" lon="15.877214606724712"><ele>925.0</ele><time>2026-04-19T09:32:08Z</time></trkpt><trkpt lat="40.057996637231845" lon="15.877072047913064"><ele>925.0</ele><time>2026-04-19T09:32:09Z</time></trkpt><trkpt lat="40.057910442116615" lon="15.876980451151088"><ele>925.0</ele><time>2026-04-19T09:32:10Z</time></trkpt><trkpt lat="40.05784860846432" lon="15.876892422231384"><ele>925.0</ele><time>2026-04-19T09:32:11Z</time></trkpt><trkpt lat="40.057819214844876" lon="15.876773737574181"><ele>925.0</ele><time>2026-04-19T09:32:12Z</time></trkpt><trkpt lat="40.057797257007856" lon="15.876643001267993"><ele>925.0</ele><time>2026-04-19T09:32:13Z</time></trkpt><trkpt lat="40.057763800249276" lon="15.876476489080465"><ele>926.75</ele><time>2026-04-19T09:32:14Z</time></trkpt><trkpt lat="40.05769694238431" lon="15.876328050673875"><ele>928.5</ele><time>2026-04-19T09:32:15Z</time></trkpt><trkpt lat="40.057686922349696" lon="15.876179031468432"><ele>930.25</ele><time>2026-04-19T09:32:16Z</time></trkpt><trkpt lat="40.057663275996234" lon="15.876025420480147"><ele>932.0</ele><time>2026-04-19T09:32:17Z</time></trkpt><trkpt lat="40.05763550436986" lon="15.875871069795846"><ele>933.25</ele><time>2026-04-19T09:32:18Z</time></trkpt><trkpt lat="40.057597092478446" lon="15.875708517185952"><ele>934.5</ele><time>2026-04-19T09:32:19Z</time></trkpt><trkpt lat="40.057553196895526" lon="15.875566756991407"><ele>935.75</ele><time>2026-04-19T09:32:20Z</time></trkpt><trkpt lat="40.0574841860589" lon="15.875429652547004"><ele>937.0</ele><time>2026-04-19T09:32:21Z</time></trkpt><trkpt lat="40.05741614178109" lon="15.875313360175538"><ele>934.8</ele><time>2026-04-19T09:32:22Z</time></trkpt><trkpt lat="40.0573554763851" lon="15.875204735734128"><ele>932.6</ele><time>2026-04-19T09:32:23Z</time></trkpt><trkpt lat="40.05730217508478" lon="15.875079764807321"><ele>930.3999999999999</ele><time>2026-04-19T09:32:24Z</time></trkpt><trkpt lat="40.05727582764636" lon="15.874942084452169"><ele>928.1999999999999</ele><time>2026-04-19T09:32:25Z</time></trkpt><trkpt lat="40.057210709577646" lon="15.874804386609467"><ele>926.0</ele><time>2026-04-19T09:32:26Z</time></trkpt><trkpt lat="40.057123355920346" lon="15.874663954099283"><ele>926.0</ele><time>2026-04-19T09:32:27Z</time></trkpt><trkpt lat="40.057065620581675" lon="15.87454807775148"><ele>925.9999999999999</ele><time>2026-04-19T09:32:28Z</time></trkpt><trkpt lat="40.05700827239435" lon="15.87443868157867"><ele>925.9999999999999</ele><time>2026-04-19T09:32:29Z</time></trkpt><trkpt lat="40.0569145447686" lon="15.874379806596133"><ele>926.0</ele><time>2026-04-19T09:32:30Z</time></trkpt><trkpt lat="40.05684638581704" lon="15.87428385492003"><ele>926.0</ele><time>2026-04-19T09:32:31Z</time></trkpt><trkpt lat="40.056777282928955" lon="15.874224317820252"><ele>924.8</ele><time>2026-04-19T09:32:32Z</time></trkpt><trkpt lat="40.056705926543636" lon="15.87416363214265"><ele>923.5999999999999</ele><time>2026-04-19T09:32:33Z</time></trkpt><trkpt lat="40.05664626191634" lon="15.874080156596934"><ele>922.4</ele><time>2026-04-19T09:32:34Z</time></trkpt><trkpt lat="40.05660510600569" lon="15.873971401268179"><ele>921.2</ele><time>2026-04-19T09:32:35Z</time></trkpt><trkpt lat="40.056577101920574" lon="15.873839243997006"><ele>920.0</ele><time>2026-04-19T09:32:36Z</time></trkpt><trkpt lat="40.05655394160865" lon="15.873690623583105"><ele>920.0</ele><time>2026-04-19T09:32:37Z</time></trkpt><trkpt lat="40.056498854487025" lon="15.873574302851141"><ele>920.0</ele><time>2026-04-19T09:32:38Z</time></trkpt><trkpt lat="40.05642495901925" lon="15.873471857036856"><ele>920.0</ele><time>2026-04-19T09:32:39Z</time></trkpt><trkpt lat="40.05635966918602" lon="15.87336576203486"><ele>920.0</ele><time>2026-04-19T09:32:40Z</time></trkpt><trkpt lat="40.05629525579211" lon="15.87325722931387"><ele>920.0</ele><time>2026-04-19T09:32:41Z</time></trkpt><trkpt lat="40.056224391822575" lon="15.873138918367177"><ele>921.6</ele><time>2026-04-19T09:32:42Z</time></trkpt><trkpt lat="40.05615954602614" lon="15.87302795383934"><ele>923.2</ele><time>2026-04-19T09:32:43Z</time></trkpt><trkpt lat="40.05610419277527" lon="15.872928665004306"><ele>924.8</ele><time>2026-04-19T09:32:44Z</time></trkpt><trkpt lat="40.056061211851635" lon="15.872836098243381"><ele>926.4</ele><time>2026-04-19T09:32:45Z</time></trkpt><trkpt lat="40.05603777395865" lon="15.872745136048497"><ele>928.0</ele><time>2026-04-19T09:32:46Z</time></trkpt><trkpt lat="40.056010974132874" lon="15.87262935585039"><ele>926.8</ele><time>2026-04-19T09:32:47Z</time></trkpt><trkpt lat="40.05597461082925" lon="15.872500535075284"><ele>925.5999999999999</ele><time>2026-04-19T09:32:48Z</time></trkpt><trkpt lat="40.05593059364902" lon="15.872379765117158"><ele>924.4000000000001</ele><time>2026-04-19T09:32:49Z</time></trkpt><trkpt lat="40.05587654576057" lon="15.872260588698694"><ele>923.2</ele><time>2026-04-19T09:32:50Z</time></trkpt><trkpt lat="40.0558182946209" lon="15.872167575915995"><ele>922.0</ele><time>2026-04-19T09:32:51Z</time></trkpt><trkpt lat="40.055751522349176" lon="15.872070909869068"><ele>922.0</ele><time>2026-04-19T09:32:52Z</time></trkpt><trkpt lat="40.055669735811264" lon="15.871956167347715"><ele>922.0</ele><time>2026-04-19T09:32:53Z</time></trkpt><trkpt lat="40.05561404314388" lon="15.871848904795698"><ele>922.0</ele><time>2026-04-19T09:32:54Z</time></trkpt><trkpt lat="40.055551328479616" lon="15.871762022765937"><ele>922.0</ele><time>2026-04-19T09:32:55Z</time></trkpt><trkpt lat="40.05547532325811" lon="15.87168067095715"><ele>922.0</ele><time>2026-04-19T09:32:56Z</time></trkpt><trkpt lat="40.055385768268366" lon="15.871622836643844"><ele>923.4000000000001</ele><time>2026-04-19T09:32:57Z</time></trkpt><trkpt lat="40.05529131437513" lon="15.871572700294713"><ele>924.8000000000001</ele><time>2026-04-19T09:32:58Z</time></trkpt><trkpt lat="40.05520577715734" lon="15.871503766604661"><ele>926.2</ele><time>2026-04-19T09:32:59Z</time></trkpt><trkpt lat="40.055129581310666" lon="15.871410346808892"><ele>927.6</ele><time>2026-04-19T09:33:00Z</time></trkpt><trkpt lat="40.055066320740536" lon="15.87130020130067"><ele>929.0</ele><time>2026-04-19T09:33:01Z</time></trkpt><trkpt lat="40.055019118735686" lon="15.871206325022648"><ele>929.0</ele><time>2026-04-19T09:33:02Z</time></trkpt><trkpt lat="40.05498914573317" lon="15.87106058798321"><ele>929.0000000000001</ele><time>2026-04-19T09:33:04Z</time></trkpt><trkpt lat="40.0550011548008" lon="15.87088278063306"><ele>929.0000000000001</ele><time>2026-04-19T09:33:06Z</time></trkpt><trkpt lat="40.05503204279376" lon="15.870760498128734"><ele>929.0</ele><time>2026-04-19T09:33:07Z</time></trkpt><trkpt lat="40.05504727968489" lon="15.870661988109823"><ele>929.0</ele><time>2026-04-19T09:33:08Z</time></trkpt><trkpt lat="40.054973284355356" lon="15.870554147992795"><ele>930.0</ele><time>2026-04-19T09:33:10Z</time></trkpt><trkpt lat="40.05490474440876" lon="15.870545316832208"><ele>931.0000000000001</ele><time>2026-04-19T09:33:11Z</time></trkpt><trkpt lat="40.054838044585296" lon="15.870541856456152"><ele>932.0</ele><time>2026-04-19T09:33:12Z</time></trkpt><trkpt lat="40.05477023111393" lon="15.870553507070394"><ele>933.0</ele><time>2026-04-19T09:33:13Z</time></trkpt><trkpt lat="40.05467491413455" lon="15.870534840659401"><ele>934.0000000000001</ele><time>2026-04-19T09:33:15Z</time></trkpt><trkpt lat="40.05461246782091" lon="15.870503428388188"><ele>935.0</ele><time>2026-04-19T09:33:16Z</time></trkpt><trkpt lat="40.05454560410618" lon="15.870474653974657"><ele>936.0</ele><time>2026-04-19T09:33:16.999Z</time></trkpt><trkpt lat="40.05447934321883" lon="15.870447898134504"><ele>936.0</ele><time>2026-04-19T09:33:17.999Z</time></trkpt><trkpt lat="40.05437308665477" lon="15.870430702853064"><ele>936.0</ele><time>2026-04-19T09:33:19.999Z</time></trkpt><trkpt lat="40.05430604255905" lon="15.870415117506072"><ele>936.0</ele><time>2026-04-19T09:33:20.999Z</time></trkpt><trkpt lat="40.054226935634716" lon="15.870400384114777"><ele>936.0</ele><time>2026-04-19T09:33:21.999Z</time></trkpt><trkpt lat="40.054149866856655" lon="15.870384553351135"><ele>936.0</ele><time>2026-04-19T09:33:22.999Z</time></trkpt><trkpt lat="40.05404821385045" lon="15.870363772007586"><ele>936.0</ele><time>2026-04-19T09:33:23.999Z</time></trkpt><trkpt lat="40.05394469308402" lon="15.870339436683059"><ele>937.0</ele><time>2026-04-19T09:33:24.999Z</time></trkpt><trkpt lat="40.05386629423685" lon="15.870317199425612"><ele>938.0</ele><time>2026-04-19T09:33:25.999Z</time></trkpt><trkpt lat="40.053807211196435" lon="15.87027677507596"><ele>939.0</ele><time>2026-04-19T09:33:26.999Z</time></trkpt><trkpt lat="40.053751431551596" lon="15.870215088728118"><ele>940.0</ele><time>2026-04-19T09:33:27.999Z</time></trkpt><trkpt lat="40.05370309006541" lon="15.870132379810398"><ele>941.0</ele><time>2026-04-19T09:33:28.999Z</time></trkpt><trkpt lat="40.05366338162937" lon="15.870033589315874"><ele>942.0</ele><time>2026-04-19T09:33:29.999Z</time></trkpt><trkpt lat="40.05361288141372" lon="15.869954059496648"><ele>943.1666666666666</ele><time>2026-04-19T09:33:30.999Z</time></trkpt><trkpt lat="40.05355008546621" lon="15.869924425069483"><ele>944.3333333333333</ele><time>2026-04-19T09:33:31.999Z</time></trkpt><trkpt lat="40.05348224139557" lon="15.869949353040703"><ele>945.5</ele><time>2026-04-19T09:33:32.999Z</time></trkpt><trkpt lat="40.05342436594051" lon="15.87000593831625"><ele>946.6666666666666</ele><time>2026-04-19T09:33:33.999Z</time></trkpt><trkpt lat="40.05336013644861" lon="15.870075682297774"><ele>947.8333333333333</ele><time>2026-04-19T09:33:34.999Z</time></trkpt><trkpt lat="40.05326735720665" lon="15.87011854805959"><ele>949.0</ele><time>2026-04-19T09:33:35.999Z</time></trkpt><trkpt lat="40.05315395762356" lon="15.870179554762322"><ele>953.25</ele><time>2026-04-19T09:33:36.999Z</time></trkpt><trkpt lat="40.053066294805475" lon="15.870262425350083"><ele>957.5</ele><time>2026-04-19T09:33:37.999Z</time></trkpt><trkpt lat="40.052994689448475" lon="15.870373588837024"><ele>961.75</ele><time>2026-04-19T09:33:38.999Z</time></trkpt><trkpt lat="40.05292005259386" lon="15.870491346045249"><ele>966.0</ele><time>2026-04-19T09:33:39.999Z</time></trkpt><trkpt lat="40.05285116472771" lon="15.870614798554703"><ele>966.0</ele><time>2026-04-19T09:33:40.999Z</time></trkpt><trkpt lat="40.05279269903384" lon="15.870728536346423"><ele>966.0</ele><time>2026-04-19T09:33:41.999Z</time></trkpt><trkpt lat="40.052744439017566" lon="15.87085743627042"><ele>966.0</ele><time>2026-04-19T09:33:42.999Z</time></trkpt><trkpt lat="40.05269149007754" lon="15.871007678958446"><ele>966.0</ele><time>2026-04-19T09:33:43.999Z</time></trkpt><trkpt lat="40.05262532588941" lon="15.87117670406865"><ele>964.25</ele><time>2026-04-19T09:33:44.999Z</time></trkpt><trkpt lat="40.05255733180607" lon="15.871349043554813"><ele>962.5</ele><time>2026-04-19T09:33:45.999Z</time></trkpt><trkpt lat="40.05250306678073" lon="15.871496575663764"><ele>960.75</ele><time>2026-04-19T09:33:46.999Z</time></trkpt><trkpt lat="40.052465363735145" lon="15.871621122511764"><ele>959.0</ele><time>2026-04-19T09:33:47.999Z</time></trkpt><trkpt lat="40.05245345906379" lon="15.87173354018159"><ele>963.2</ele><time>2026-04-19T09:33:48.999Z</time></trkpt><trkpt lat="40.05245269478549" lon="15.871845335772841"><ele>967.4000000000001</ele><time>2026-04-19T09:33:49.999Z</time></trkpt><trkpt lat="40.052433395788256" lon="15.871958407285636"><ele>971.6</ele><time>2026-04-19T09:33:50.999Z</time></trkpt><trkpt lat="40.05239244161099" lon="15.872056346854258"><ele>975.8</ele><time>2026-04-19T09:33:51.999Z</time></trkpt><trkpt lat="40.05232763447021" lon="15.872170343313389"><ele>980.0</ele><time>2026-04-19T09:33:52.999Z</time></trkpt><trkpt lat="40.05224940323681" lon="15.872313447715802"><ele>980.0</ele><time>2026-04-19T09:33:53.999Z</time></trkpt><trkpt lat="40.052172278221036" lon="15.87246592513089"><ele>980.0</ele><time>2026-04-19T09:33:54.999Z</time></trkpt><trkpt lat="40.05209610750769" lon="15.872611008956342"><ele>980.0</ele><time>2026-04-19T09:33:55.999Z</time></trkpt><trkpt lat="40.05202209720003" lon="15.872744955996563"><ele>980.0</ele><time>2026-04-19T09:33:56.999Z</time></trkpt><trkpt lat="40.05195305024566" lon="15.872859860934325"><ele>979.6</ele><time>2026-04-19T09:33:57.999Z</time></trkpt><trkpt lat="40.051887906143065" lon="15.872952654339047"><ele>979.2</ele><time>2026-04-19T09:33:58.999Z</time></trkpt><trkpt lat="40.051820204902796" lon="15.873040313645003"><ele>978.8</ele><time>2026-04-19T09:33:59.999Z</time></trkpt><trkpt lat="40.05174572496452" lon="15.873142445090421"><ele>978.4</ele><time>2026-04-19T09:34:01Z</time></trkpt><trkpt lat="40.05167520985013" lon="15.873233254041404"><ele>978.0</ele><time>2026-04-19T09:34:02Z</time></trkpt><trkpt lat="40.051607924988524" lon="15.87330324096417"><ele>978.0</ele><time>2026-04-19T09:34:03Z</time></trkpt><trkpt lat="40.051548365199636" lon="15.873374943903976"><ele>978.0</ele><time>2026-04-19T09:34:04Z</time></trkpt><trkpt lat="40.05148568844618" lon="15.873440879343843"><ele>978.0</ele><time>2026-04-19T09:34:05Z</time></trkpt><trkpt lat="40.05141716157313" lon="15.873508055709708"><ele>978.0</ele><time>2026-04-19T09:34:06Z</time></trkpt><trkpt lat="40.051353394705075" lon="15.873567854612384"><ele>978.0</ele><time>2026-04-19T09:34:07Z</time></trkpt><trkpt lat="40.0512918205126" lon="15.873620601454018"><ele>978.0</ele><time>2026-04-19T09:34:08Z</time></trkpt><trkpt lat="40.0512276889524" lon="15.873665308935339"><ele>975.8</ele><time>2026-04-19T09:34:09Z</time></trkpt><trkpt lat="40.05116576211796" lon="15.873723288926017"><ele>973.5999999999999</ele><time>2026-04-19T09:34:10Z</time></trkpt><trkpt lat="40.0511256028343" lon="15.873798596337659"><ele>971.4000000000001</ele><time>2026-04-19T09:34:11Z</time></trkpt><trkpt lat="40.05110930615287" lon="15.87398149287615"><ele>969.2</ele><time>2026-04-19T09:34:13Z</time></trkpt><trkpt lat="40.051075774387186" lon="15.874099774728258"><ele>967.0</ele><time>2026-04-19T09:34:14Z</time></trkpt><trkpt lat="40.05103330402337" lon="15.874208368100879"><ele>967.7142857142858</ele><time>2026-04-19T09:34:15Z</time></trkpt><trkpt lat="40.0509997873187" lon="15.874290507531466"><ele>968.4285714285713</ele><time>2026-04-19T09:34:16Z</time></trkpt><trkpt lat="40.050990115797994" lon="15.874377215942355"><ele>969.1428571428571</ele><time>2026-04-19T09:34:17Z</time></trkpt><trkpt lat="40.051000448655635" lon="15.874459502068515"><ele>969.8571428571429</ele><time>2026-04-19T09:34:18Z</time></trkpt><trkpt lat="40.05104694515004" lon="15.87451897829244"><ele>970.5714285714287</ele><time>2026-04-19T09:34:19Z</time></trkpt><trkpt lat="40.05112602099862" lon="15.87456265765028"><ele>971.2857142857142</ele><time>2026-04-19T09:34:20Z</time></trkpt><trkpt lat="40.051210301765735" lon="15.87459068742049"><ele>972.0</ele><time>2026-04-19T09:34:21Z</time></trkpt><trkpt lat="40.05129734098791" lon="15.874621419407486"><ele>972.0</ele><time>2026-04-19T09:34:22Z</time></trkpt><trkpt lat="40.051396894451614" lon="15.874664461694142"><ele>972.0</ele><time>2026-04-19T09:34:23Z</time></trkpt><trkpt lat="40.05149733876693" lon="15.874716309474017"><ele>972.0</ele><time>2026-04-19T09:34:24Z</time></trkpt><trkpt lat="40.051615096064346" lon="15.874783381398034"><ele>972.0</ele><time>2026-04-19T09:34:25Z</time></trkpt><trkpt lat="40.05173157082268" lon="15.874861700743907"><ele>974.25</ele><time>2026-04-19T09:34:26Z</time></trkpt><trkpt lat="40.05183979923279" lon="15.874943714654739"><ele>976.5</ele><time>2026-04-19T09:34:27Z</time></trkpt><trkpt lat="40.0519505652362" lon="15.875028580890078"><ele>978.75</ele><time>2026-04-19T09:34:28Z</time></trkpt><trkpt lat="40.052052454946086" lon="15.875106318492474"><ele>981.0</ele><time>2026-04-19T09:34:29Z</time></trkpt><trkpt lat="40.05213322990923" lon="15.875180722623204"><ele>981.0</ele><time>2026-04-19T09:34:30Z</time></trkpt><trkpt lat="40.0521898376794" lon="15.875256441362462"><ele>981.0</ele><time>2026-04-19T09:34:31Z</time></trkpt><trkpt lat="40.05224377413689" lon="15.875347957743482"><ele>981.0</ele><time>2026-04-19T09:34:32Z</time></trkpt><trkpt lat="40.05228869071071" lon="15.875443918031698"><ele>981.0</ele><time>2026-04-19T09:34:33Z</time></trkpt><trkpt lat="40.05232334922694" lon="15.875531141136"><ele>981.0</ele><time>2026-04-19T09:34:34Z</time></trkpt><trkpt lat="40.052348039167846" lon="15.875608533479495"><ele>981.0</ele><time>2026-04-19T09:34:35Z</time></trkpt><trkpt lat="40.05236376568142" lon="15.875690614519707"><ele>981.0</ele><time>2026-04-19T09:34:36Z</time></trkpt><trkpt lat="40.052368657873906" lon="15.875784978452831"><ele>980.9999999999999</ele><time>2026-04-19T09:34:37Z</time></trkpt><trkpt lat="40.05235574668711" lon="15.875913684388744"><ele>980.9999999999999</ele><time>2026-04-19T09:34:38Z</time></trkpt><trkpt lat="40.05234088830922" lon="15.876033477250095"><ele>981.0</ele><time>2026-04-19T09:34:39Z</time></trkpt><trkpt lat="40.05232097544657" lon="15.876164349553648"><ele>981.0</ele><time>2026-04-19T09:34:40Z</time></trkpt><trkpt lat="40.05231675792724" lon="15.876305002673599"><ele>980.8</ele><time>2026-04-19T09:34:41Z</time></trkpt><trkpt lat="40.05232120052859" lon="15.876445090195046"><ele>980.5999999999999</ele><time>2026-04-19T09:34:42Z</time></trkpt><trkpt lat="40.05232103468049" lon="15.876568591994092"><ele>980.4</ele><time>2026-04-19T09:34:43Z</time></trkpt><trkpt lat="40.05232714191643" lon="15.87671129927003"><ele>980.2</ele><time>2026-04-19T09:34:44Z</time></trkpt><trkpt lat="40.05232869161161" lon="15.876866902574118"><ele>980.0</ele><time>2026-04-19T09:34:45Z</time></trkpt><trkpt lat="40.05233202856187" lon="15.877017826834772"><ele>980.0</ele><time>2026-04-19T09:34:46Z</time></trkpt><trkpt lat="40.05234005016173" lon="15.877189762495705"><ele>980.0</ele><time>2026-04-19T09:34:47Z</time></trkpt><trkpt lat="40.05234817919285" lon="15.877350799191792"><ele>980.0</ele><time>2026-04-19T09:34:48Z</time></trkpt><trkpt lat="40.052349728127226" lon="15.877499308922154"><ele>980.0</ele><time>2026-04-19T09:34:49Z</time></trkpt><trkpt lat="40.05234839710862" lon="15.87762920088984"><ele>979.2</ele><time>2026-04-19T09:34:50Z</time></trkpt><trkpt lat="40.05233643371118" lon="15.877758488478444"><ele>978.4</ele><time>2026-04-19T09:34:51Z</time></trkpt><trkpt lat="40.05233193768286" lon="15.877894065375623"><ele>977.5999999999999</ele><time>2026-04-19T09:34:52Z</time></trkpt><trkpt lat="40.05233153901742" lon="15.87803643995113"><ele>976.8</ele><time>2026-04-19T09:34:53Z</time></trkpt><trkpt lat="40.05232055568019" lon="15.878166632237264"><ele>976.0</ele><time>2026-04-19T09:34:54Z</time></trkpt><trkpt lat="40.052291427757126" lon="15.878286304666435"><ele>976.0</ele><time>2026-04-19T09:34:55Z</time></trkpt><trkpt lat="40.052261747865934" lon="15.878409264401208"><ele>975.9999999999999</ele><time>2026-04-19T09:34:56Z</time></trkpt><trkpt lat="40.052258845694745" lon="15.878506626646718"><ele>975.9999999999999</ele><time>2026-04-19T09:34:57Z</time></trkpt><trkpt lat="40.05233211324393" lon="15.878615913573874"><ele>976.0</ele><time>2026-04-19T09:34:59Z</time></trkpt><trkpt lat="40.05240346482601" lon="15.878627872659056"><ele>976.0</ele><time>2026-04-19T09:35:00Z</time></trkpt><trkpt lat="40.0524937847668" lon="15.878589319992399"><ele>973.0</ele><time>2026-04-19T09:35:01Z</time></trkpt><trkpt lat="40.05257360548252" lon="15.878513559438227"><ele>969.9999999999999</ele><time>2026-04-19T09:35:02Z</time></trkpt><trkpt lat="40.05265145763535" lon="15.878455281956247"><ele>966.9999999999999</ele><time>2026-04-19T09:35:03Z</time></trkpt><trkpt lat="40.052739108648304" lon="15.878401469466679"><ele>964.0</ele><time>2026-04-19T09:35:04Z</time></trkpt><trkpt lat="40.05285168237549" lon="15.878347481574343"><ele>961.0</ele><time>2026-04-19T09:35:05Z</time></trkpt><trkpt lat="40.05294639259769" lon="15.878315422781343"><ele>959.3333333333333</ele><time>2026-04-19T09:35:06Z</time></trkpt><trkpt lat="40.05302022248986" lon="15.878310207582144"><ele>957.6666666666666</ele><time>2026-04-19T09:35:07Z</time></trkpt><trkpt lat="40.05309832454308" lon="15.878327389134228"><ele>956.0</ele><time>2026-04-19T09:35:08Z</time></trkpt><trkpt lat="40.05317692286206" lon="15.878367251199426"><ele>954.3333333333333</ele><time>2026-04-19T09:35:09Z</time></trkpt><trkpt lat="40.053256301176965" lon="15.87841456758987"><ele>952.6666666666666</ele><time>2026-04-19T09:35:10Z</time></trkpt><trkpt lat="40.05333358718196" lon="15.878473921464115"><ele>951.0</ele><time>2026-04-19T09:35:11Z</time></trkpt><trkpt lat="40.05339771834065" lon="15.878550044602735"><ele>955.1999999999999</ele><time>2026-04-19T09:35:12Z</time></trkpt><trkpt lat="40.05345459526761" lon="15.878630998815527"><ele>959.3999999999999</ele><time>2026-04-19T09:35:13Z</time></trkpt><trkpt lat="40.05352239084867" lon="15.87871721144424"><ele>963.6</ele><time>2026-04-19T09:35:14Z</time></trkpt><trkpt lat="40.05357218492314" lon="15.87883287276105"><ele>967.8</ele><time>2026-04-19T09:35:15Z</time></trkpt><trkpt lat="40.05362820931186" lon="15.878952363369985"><ele>972.0</ele><time>2026-04-19T09:35:16Z</time></trkpt><trkpt lat="40.05368805969365" lon="15.879077784865066"><ele>972.0</ele><time>2026-04-19T09:35:17Z</time></trkpt><trkpt lat="40.05374302664178" lon="15.87919615168027"><ele>972.0</ele><time>2026-04-19T09:35:18Z</time></trkpt><trkpt lat="40.05378565024538" lon="15.879323665376399"><ele>972.0</ele><time>2026-04-19T09:35:19Z</time></trkpt><trkpt lat="40.053828260472926" lon="15.879471552305839"><ele>972.0</ele><time>2026-04-19T09:35:20Z</time></trkpt><trkpt lat="40.05386753759124" lon="15.879621851486732"><ele>975.0</ele><time>2026-04-19T09:35:20.999Z</time></trkpt><trkpt lat="40.05390635680252" lon="15.879764192274742"><ele>978.0</ele><time>2026-04-19T09:35:21.999Z</time></trkpt><trkpt lat="40.05393820540097" lon="15.879894990814321"><ele>981.0</ele><time>2026-04-19T09:35:22.999Z</time></trkpt><trkpt lat="40.05397878014656" lon="15.88001120546952"><ele>984.0</ele><time>2026-04-19T09:35:23.999Z</time></trkpt><trkpt lat="40.05402419001978" lon="15.880093365287923"><ele>987.0</ele><time>2026-04-19T09:35:24.999Z</time></trkpt><trkpt lat="40.05411581141051" lon="15.880219752620388"><ele>987.4000000000001</ele><time>2026-04-19T09:35:26.999Z</time></trkpt><trkpt lat="40.05420212139684" lon="15.880291129030102"><ele>987.8000000000001</ele><time>2026-04-19T09:35:27.999Z</time></trkpt><trkpt lat="40.05429816020045" lon="15.880391838405414"><ele>988.2</ele><time>2026-04-19T09:35:28.999Z</time></trkpt><trkpt lat="40.05437994821725" lon="15.880495660603232"><ele>988.6</ele><time>2026-04-19T09:35:29.999Z</time></trkpt><trkpt lat="40.05444230710428" lon="15.880598432402156"><ele>989.0</ele><time>2026-04-19T09:35:30.999Z</time></trkpt><trkpt lat="40.05450337547411" lon="15.880707893896654"><ele>989.0</ele><time>2026-04-19T09:35:31.999Z</time></trkpt><trkpt lat="40.05455404662226" lon="15.880823700603326"><ele>989.0000000000001</ele><time>2026-04-19T09:35:32.999Z</time></trkpt><trkpt lat="40.054589622530514" lon="15.880952918285088"><ele>989.0000000000001</ele><time>2026-04-19T09:35:33.999Z</time></trkpt><trkpt lat="40.05462144139779" lon="15.881085749466877"><ele>989.0</ele><time>2026-04-19T09:35:34.999Z</time></trkpt><trkpt lat="40.05464205704128" lon="15.8812029954391"><ele>989.0</ele><time>2026-04-19T09:35:35.999Z</time></trkpt><trkpt lat="40.05465006097167" lon="15.881313292447276"><ele>989.0</ele><time>2026-04-19T09:35:36.999Z</time></trkpt><trkpt lat="40.05464192765593" lon="15.881425698426453"><ele>989.0000000000001</ele><time>2026-04-19T09:35:37.999Z</time></trkpt><trkpt lat="40.05459930404793" lon="15.881542383015955"><ele>989.0000000000001</ele><time>2026-04-19T09:35:38.999Z</time></trkpt><trkpt lat="40.05454302139251" lon="15.881670394312748"><ele>989.0</ele><time>2026-04-19T09:35:39.999Z</time></trkpt><trkpt lat="40.05449100095945" lon="15.881795479906355"><ele>989.0</ele><time>2026-04-19T09:35:40.999Z</time></trkpt><trkpt lat="40.05446438201097" lon="15.881921264047914"><ele>989.4000000000001</ele><time>2026-04-19T09:35:41.999Z</time></trkpt><trkpt lat="40.0544747990357" lon="15.88205440152704"><ele>989.8000000000001</ele><time>2026-04-19T09:35:42.999Z</time></trkpt><trkpt lat="40.054516786435904" lon="15.882178926556668"><ele>990.1999999999999</ele><time>2026-04-19T09:35:43.999Z</time></trkpt><trkpt lat="40.054563795333806" lon="15.882286314044414"><ele>990.5999999999999</ele><time>2026-04-19T09:35:44.999Z</time></trkpt><trkpt lat="40.054610067525495" lon="15.882380978514862"><ele>991.0</ele><time>2026-04-19T09:35:45.999Z</time></trkpt><trkpt lat="40.054634772670845" lon="15.882463156597582"><ele>991.0</ele><time>2026-04-19T09:35:46.999Z</time></trkpt><trkpt lat="40.05460822734809" lon="15.882628901379471"><ele>990.9999999999999</ele><time>2026-04-19T09:35:48.999Z</time></trkpt><trkpt lat="40.054577760337004" lon="15.882751967783184"><ele>990.9999999999999</ele><time>2026-04-19T09:35:49.999Z</time></trkpt><trkpt lat="40.05457517058352" lon="15.882883161632991"><ele>991.0</ele><time>2026-04-19T09:35:50.999Z</time></trkpt><trkpt lat="40.05451418957536" lon="15.883013878185713"><ele>991.0</ele><time>2026-04-19T09:35:51.999Z</time></trkpt><trkpt lat="40.054480578171585" lon="15.883143820736313"><ele>991.0</ele><time>2026-04-19T09:35:52.999Z</time></trkpt><trkpt lat="40.05444153302668" lon="15.883292834529708"><ele>990.9999999999999</ele><time>2026-04-19T09:35:53.999Z</time></trkpt><trkpt lat="40.05440740986636" lon="15.883421773529172"><ele>990.9999999999999</ele><time>2026-04-19T09:35:54.999Z</time></trkpt><trkpt lat="40.05437554745245" lon="15.883539273623903"><ele>991.0</ele><time>2026-04-19T09:35:55.999Z</time></trkpt><trkpt lat="40.05433218542867" lon="15.88367896245957"><ele>991.0</ele><time>2026-04-19T09:35:56.999Z</time></trkpt><trkpt lat="40.05429250049304" lon="15.88380420583838"><ele>990.8</ele><time>2026-04-19T09:35:57.999Z</time></trkpt><trkpt lat="40.0542639141428" lon="15.88391375513015"><ele>990.5999999999999</ele><time>2026-04-19T09:35:58.999Z</time></trkpt><trkpt lat="40.05424871038601" lon="15.884019239760176"><ele>990.4</ele><time>2026-04-19T09:35:59.999Z</time></trkpt><trkpt lat="40.05426087458017" lon="15.884162242185544"><ele>990.2</ele><time>2026-04-19T09:36:00.999Z</time></trkpt><trkpt lat="40.05426480235507" lon="15.88427520361836"><ele>990.0</ele><time>2026-04-19T09:36:01.999Z</time></trkpt><trkpt lat="40.05423299353729" lon="15.884427529011722"><ele>989.6</ele><time>2026-04-19T09:36:03.999Z</time></trkpt><trkpt lat="40.05417694527189" lon="15.884533776585243"><ele>989.2</ele><time>2026-04-19T09:36:04.999Z</time></trkpt><trkpt lat="40.05411236195655" lon="15.884634321049138"><ele>988.8</ele><time>2026-04-19T09:36:05.999Z</time></trkpt><trkpt lat="40.05405034417025" lon="15.884729735163159"><ele>988.4</ele><time>2026-04-19T09:36:07Z</time></trkpt><trkpt lat="40.05397298883501" lon="15.88483684727694"><ele>988.0</ele><time>2026-04-19T09:36:08Z</time></trkpt><trkpt lat="40.05390527294373" lon="15.884940675262214"><ele>994.4</ele><time>2026-04-19T09:36:09Z</time></trkpt><trkpt lat="40.05383669322825" lon="15.885046227821235"><ele>1000.8</ele><time>2026-04-19T09:36:10Z</time></trkpt><trkpt lat="40.05377225943661" lon="15.88514445783573"><ele>1007.2</ele><time>2026-04-19T09:36:11Z</time></trkpt><trkpt lat="40.053707406445426" lon="15.885234260866204"><ele>1013.6</ele><time>2026-04-19T09:36:12Z</time></trkpt><trkpt lat="40.053638768785994" lon="15.885318697519446"><ele>1020.0</ele><time>2026-04-19T09:36:13Z</time></trkpt><trkpt lat="40.05356459008898" lon="15.885393941118236"><ele>1020.0</ele><time>2026-04-19T09:36:14Z</time></trkpt><trkpt lat="40.0534836866767" lon="15.88546653857299"><ele>1020.0</ele><time>2026-04-19T09:36:15Z</time></trkpt><trkpt lat="40.05340731027173" lon="15.885545645527372"><ele>1020.0</ele><time>2026-04-19T09:36:16Z</time></trkpt><trkpt lat="40.05333609911912" lon="15.885640297386548"><ele>1020.0</ele><time>2026-04-19T09:36:17Z</time></trkpt><trkpt lat="40.053274775844656" lon="15.885744299026317"><ele>1020.0</ele><time>2026-04-19T09:36:18Z</time></trkpt><trkpt lat="40.05321022633258" lon="15.885852933811936"><ele>1023.8</ele><time>2026-04-19T09:36:19Z</time></trkpt><trkpt lat="40.05314309563627" lon="15.885964135937131"><ele>1027.6</ele><time>2026-04-19T09:36:20Z</time></trkpt><trkpt lat="40.053072932820974" lon="15.886065361239053"><ele>1031.4</ele><time>2026-04-19T09:36:21Z</time></trkpt><trkpt lat="40.053001960996596" lon="15.886156346607754"><ele>1035.2</ele><time>2026-04-19T09:36:22Z</time></trkpt><trkpt lat="40.052921472738426" lon="15.886246495580854"><ele>1039.0</ele><time>2026-04-19T09:36:23Z</time></trkpt><trkpt lat="40.05283102033928" lon="15.886351831612874"><ele>1039.0</ele><time>2026-04-19T09:36:24Z</time></trkpt><trkpt lat="40.052739008748944" lon="15.886458214274759"><ele>1039.0</ele><time>2026-04-19T09:36:25Z</time></trkpt><trkpt lat="40.05266264451083" lon="15.886529268802079"><ele>1039.0</ele><time>2026-04-19T09:36:26Z</time></trkpt><trkpt lat="40.05259865989816" lon="15.88655655324605"><ele>1039.0</ele><time>2026-04-19T09:36:27Z</time></trkpt><trkpt lat="40.0525338613908" lon="15.886570189978075"><ele>1039.0</ele><time>2026-04-19T09:36:28Z</time></trkpt><trkpt lat="40.0524008715588" lon="15.886571149461385"><ele>1040.4</ele><time>2026-04-19T09:36:30Z</time></trkpt><trkpt lat="40.052311048727866" lon="15.886571416730744"><ele>1041.8000000000002</ele><time>2026-04-19T09:36:31Z</time></trkpt><trkpt lat="40.052211833929626" lon="15.88659261674564"><ele>1043.1999999999998</ele><time>2026-04-19T09:36:32Z</time></trkpt><trkpt lat="40.05211389402659" lon="15.88663550558863"><ele>1044.6</ele><time>2026-04-19T09:36:33Z</time></trkpt><trkpt lat="40.052045061318076" lon="15.88669106254058"><ele>1046.0</ele><time>2026-04-19T09:36:34Z</time></trkpt><trkpt lat="40.0519933173327" lon="15.886769663173746"><ele>1047.3999999999999</ele><time>2026-04-19T09:36:35Z</time></trkpt><trkpt lat="40.05192582533529" lon="15.8869074474814"><ele>1048.8</ele><time>2026-04-19T09:36:37Z</time></trkpt><trkpt lat="40.051884984757045" lon="15.886984639326812"><ele>1050.1999999999998</ele><time>2026-04-19T09:36:38Z</time></trkpt><trkpt lat="40.05184514451597" lon="15.887078591977302"><ele>1051.6</ele><time>2026-04-19T09:36:39Z</time></trkpt><trkpt lat="40.05180873786617" lon="15.887177032080135"><ele>1053.0</ele><time>2026-04-19T09:36:40Z</time></trkpt><trkpt lat="40.051741353808765" lon="15.88725173269332"><ele>1053.0</ele><time>2026-04-19T09:36:42Z</time></trkpt><trkpt lat="40.05165562434551" lon="15.88720196069761"><ele>1053.0</ele><time>2026-04-19T09:36:44Z</time></trkpt><trkpt lat="40.051601862364734" lon="15.887147907679626"><ele>1053.0</ele><time>2026-04-19T09:36:45Z</time></trkpt><trkpt lat="40.051539065142386" lon="15.887043206301676"><ele>1053.0</ele><time>2026-04-19T09:36:47Z</time></trkpt><trkpt lat="40.05147509616862" lon="15.887046385946157"><ele>1053.0</ele><time>2026-04-19T09:36:51Z</time></trkpt><trkpt lat="40.05139725148772" lon="15.8871421401487"><ele>1053.0</ele><time>2026-04-19T09:36:58Z</time></trkpt><trkpt lat="40.05134637206832" lon="15.887213752640355"><ele>1053.8</ele><time>2026-04-19T09:36:59Z</time></trkpt><trkpt lat="40.05128214340553" lon="15.887304655367696"><ele>1054.6</ele><time>2026-04-19T09:37:00Z</time></trkpt><trkpt lat="40.05121487675346" lon="15.887424498609905"><ele>1055.4</ele><time>2026-04-19T09:37:01Z</time></trkpt><trkpt lat="40.051137028176434" lon="15.887543348810464"><ele>1056.2</ele><time>2026-04-19T09:37:02Z</time></trkpt><trkpt lat="40.051056008448874" lon="15.8876542706772"><ele>1057.0</ele><time>2026-04-19T09:37:03Z</time></trkpt><trkpt lat="40.05098534536736" lon="15.88775204649127"><ele>1057.0</ele><time>2026-04-19T09:37:04Z</time></trkpt><trkpt lat="40.050928703707804" lon="15.887847375004936"><ele>1057.0</ele><time>2026-04-19T09:37:05Z</time></trkpt><trkpt lat="40.050890195846726" lon="15.887949681713081"><ele>1057.0</ele><time>2026-04-19T09:37:06Z</time></trkpt><trkpt lat="40.05085197558924" lon="15.888052609908867"><ele>1057.0</ele><time>2026-04-19T09:37:07Z</time></trkpt><trkpt lat="40.05079873276902" lon="15.888129706053933"><ele>1057.0</ele><time>2026-04-19T09:37:08Z</time></trkpt><trkpt lat="40.05074030410954" lon="15.888182700694596"><ele>1057.0</ele><time>2026-04-19T09:37:09Z</time></trkpt><trkpt lat="40.05062086618863" lon="15.888133564171783"><ele>1057.0</ele><time>2026-04-19T09:37:11Z</time></trkpt><trkpt lat="40.05052085862531" lon="15.8880750218876"><ele>1057.0</ele><time>2026-04-19T09:37:12Z</time></trkpt><trkpt lat="40.05040611976132" lon="15.888059000260034"><ele>1057.0</ele><time>2026-04-19T09:37:13Z</time></trkpt><trkpt lat="40.050303612515435" lon="15.88807880531636"><ele>1057.0</ele><time>2026-04-19T09:37:14Z</time></trkpt><trkpt lat="40.0501930586395" lon="15.888138861211626"><ele>1057.0</ele><time>2026-04-19T09:37:15Z</time></trkpt><trkpt lat="40.050083240241705" lon="15.888190353671606"><ele>1057.0</ele><time>2026-04-19T09:37:16Z</time></trkpt><trkpt lat="40.049988223076674" lon="15.888216208662651"><ele>1057.0</ele><time>2026-04-19T09:37:17Z</time></trkpt><trkpt lat="40.04990888475145" lon="15.888232740150258"><ele>1057.0</ele><time>2026-04-19T09:37:18Z</time></trkpt><trkpt lat="40.04981526266587" lon="15.888335850093332"><ele>1057.0</ele><time>2026-04-19T09:37:20Z</time></trkpt><trkpt lat="40.04978971521537" lon="15.888436167460577"><ele>1057.0</ele><time>2026-04-19T09:37:21Z</time></trkpt><trkpt lat="40.049751501664396" lon="15.888545072418305"><ele>1061.0</ele><time>2026-04-19T09:37:22Z</time></trkpt><trkpt lat="40.049711308382825" lon="15.888633863907272"><ele>1065.0</ele><time>2026-04-19T09:37:22.999Z</time></trkpt><trkpt lat="40.04965841267945" lon="15.88872569164711"><ele>1069.0</ele><time>2026-04-19T09:37:23.999Z</time></trkpt><trkpt lat="40.049604929429414" lon="15.888828256972365"><ele>1073.0</ele><time>2026-04-19T09:37:24.999Z</time></trkpt><trkpt lat="40.04953837777879" lon="15.888947500419238"><ele>1077.0</ele><time>2026-04-19T09:37:25.999Z</time></trkpt><trkpt lat="40.04948047987776" lon="15.889078821732026"><ele>1077.0</ele><time>2026-04-19T09:37:26.999Z</time></trkpt><trkpt lat="40.049437085539715" lon="15.88918709452393"><ele>1077.0</ele><time>2026-04-19T09:37:27.999Z</time></trkpt><trkpt lat="40.0493892813681" lon="15.889266216471713"><ele>1077.0</ele><time>2026-04-19T09:37:28.999Z</time></trkpt><trkpt lat="40.04931612833577" lon="15.889288399096657"><ele>1077.0</ele><time>2026-04-19T09:37:30.999Z</time></trkpt><trkpt lat="40.04926351110982" lon="15.889192831153222"><ele>1077.0</ele><time>2026-04-19T09:37:33.999Z</time></trkpt><trkpt lat="40.0492739772722" lon="15.88910799223502"><ele>1077.0</ele><time>2026-04-19T09:37:34.999Z</time></trkpt><trkpt lat="40.04929713221712" lon="15.889000291764185"><ele>1077.0</ele><time>2026-04-19T09:37:35.999Z</time></trkpt><trkpt lat="40.049317033648" lon="15.88886434232035"><ele>1077.0</ele><time>2026-04-19T09:37:36.999Z</time></trkpt><trkpt lat="40.049330508417945" lon="15.888729434381089"><ele>1077.0</ele><time>2026-04-19T09:37:37.999Z</time></trkpt><trkpt lat="40.04933889215009" lon="15.88857940602922"><ele>1077.0</ele><time>2026-04-19T09:37:38.999Z</time></trkpt><trkpt lat="40.0493364231506" lon="15.88846428966111"><ele>1077.0</ele><time>2026-04-19T09:37:39.999Z</time></trkpt><trkpt lat="40.04930659525257" lon="15.88839122398266"><ele>1077.1666666666667</ele><time>2026-04-19T09:37:40.999Z</time></trkpt><trkpt lat="40.04924504809179" lon="15.888316978471389"><ele>1077.3333333333333</ele><time>2026-04-19T09:37:41.999Z</time></trkpt><trkpt lat="40.04918310009509" lon="15.888276910352245"><ele>1077.5</ele><time>2026-04-19T09:37:42.999Z</time></trkpt><trkpt lat="40.049087524915166" lon="15.888347238922028"><ele>1077.6666666666665</ele><time>2026-04-19T09:37:44.999Z</time></trkpt><trkpt lat="40.04905555499433" lon="15.888438226545992"><ele>1077.8333333333333</ele><time>2026-04-19T09:37:45.999Z</time></trkpt><trkpt lat="40.049054063867544" lon="15.888546145659557"><ele>1078.0</ele><time>2026-04-19T09:37:46.999Z</time></trkpt><trkpt lat="40.04903863310728" lon="15.888652054638763"><ele>1081.8</ele><time>2026-04-19T09:37:47.999Z</time></trkpt><trkpt lat="40.04899723055132" lon="15.888732567866649"><ele>1085.6</ele><time>2026-04-19T09:37:48.999Z</time></trkpt><trkpt lat="40.04892074636107" lon="15.888813705507474"><ele>1089.4</ele><time>2026-04-19T09:37:49.999Z</time></trkpt><trkpt lat="40.04884161451882" lon="15.888899093282152"><ele>1093.2</ele><time>2026-04-19T09:37:50.999Z</time></trkpt><trkpt lat="40.048754637522194" lon="15.888974046077694"><ele>1097.0</ele><time>2026-04-19T09:37:51.999Z</time></trkpt><trkpt lat="40.04865312240575" lon="15.88904304882967"><ele>1097.0</ele><time>2026-04-19T09:37:52.999Z</time></trkpt><trkpt lat="40.04853328735182" lon="15.889137788121923"><ele>1097.0</ele><time>2026-04-19T09:37:53.999Z</time></trkpt><trkpt lat="40.048389571618756" lon="15.889225371781698"><ele>1097.0</ele><time>2026-04-19T09:37:54.999Z</time></trkpt><trkpt lat="40.048268953120726" lon="15.889309877433975"><ele>1097.0</ele><time>2026-04-19T09:37:55.999Z</time></trkpt><trkpt lat="40.04815668633593" lon="15.889401788011224"><ele>1098.25</ele><time>2026-04-19T09:37:56.999Z</time></trkpt><trkpt lat="40.04805636090802" lon="15.889490243153054"><ele>1099.5</ele><time>2026-04-19T09:37:57.999Z</time></trkpt><trkpt lat="40.0479433069739" lon="15.889605018785371"><ele>1100.75</ele><time>2026-04-19T09:37:58.999Z</time></trkpt><trkpt lat="40.04783095756403" lon="15.88971464403022"><ele>1102.0</ele><time>2026-04-19T09:37:59.999Z</time></trkpt><trkpt lat="40.04775311665029" lon="15.889791484842002"><ele>1102.0</ele><time>2026-04-19T09:38:00.999Z</time></trkpt><trkpt lat="40.04765220456145" lon="15.88983557557058"><ele>1102.0</ele><time>2026-04-19T09:38:01.999Z</time></trkpt><trkpt lat="40.04755596829504" lon="15.889862201724863"><ele>1102.0</ele><time>2026-04-19T09:38:02.999Z</time></trkpt><trkpt lat="40.047441286524155" lon="15.889882607307463"><ele>1102.0</ele><time>2026-04-19T09:38:03.999Z</time></trkpt><trkpt lat="40.04731145555275" lon="15.889893274308166"><ele>1102.0</ele><time>2026-04-19T09:38:04.999Z</time></trkpt><trkpt lat="40.04719087273124" lon="15.889909804883057"><ele>1102.0</ele><time>2026-04-19T09:38:05.999Z</time></trkpt><trkpt lat="40.04707517486632" lon="15.889907137167274"><ele>1102.0</ele><time>2026-04-19T09:38:06.999Z</time></trkpt><trkpt lat="40.04699895955236" lon="15.88991914189396"><ele>1102.0</ele><time>2026-04-19T09:38:07.999Z</time></trkpt><trkpt lat="40.04693401177017" lon="15.88991097993072"><ele>1102.0</ele><time>2026-04-19T09:38:08.999Z</time></trkpt><trkpt lat="40.046870148497085" lon="15.889824448121699"><ele>1102.0</ele><time>2026-04-19T09:38:10.999Z</time></trkpt><trkpt lat="40.04682042498849" lon="15.889672595734941"><ele>1102.0</ele><time>2026-04-19T09:38:13Z</time></trkpt><trkpt lat="40.046802658823765" lon="15.889579883476786"><ele>1102.0</ele><time>2026-04-19T09:38:14Z</time></trkpt><trkpt lat="40.0467939736238" lon="15.889484906196326"><ele>1102.0</ele><time>2026-04-19T09:38:15Z</time></trkpt><trkpt lat="40.04677877327956" lon="15.889387075191609"><ele>1102.0</ele><time>2026-04-19T09:38:16Z</time></trkpt><trkpt lat="40.04677043503863" lon="15.889279914192082"><ele>1102.0</ele><time>2026-04-19T09:38:18Z</time></trkpt><trkpt lat="40.046787499135945" lon="15.889425718019629"><ele>1102.0</ele><time>2026-04-19T09:38:53Z</time></trkpt><trkpt lat="40.046785675915466" lon="15.889522704676008"><ele>1102.0</ele><time>2026-04-19T09:38:54Z</time></trkpt><trkpt lat="40.04679610967559" lon="15.889604159242174"><ele>1102.0</ele><time>2026-04-19T09:38:55Z</time></trkpt><trkpt lat="40.046814761858776" lon="15.889687387325239"><ele>1102.0</ele><time>2026-04-19T09:38:56Z</time></trkpt><trkpt lat="40.04685397129688" lon="15.889827692969192"><ele>1102.0</ele><time>2026-04-19T09:38:58Z</time></trkpt><trkpt lat="40.046909870645266" lon="15.889915688825369"><ele>1102.0</ele><time>2026-04-19T09:39:00Z</time></trkpt><trkpt lat="40.04703740200637" lon="15.889955092676193"><ele>1102.0</ele><time>2026-04-19T09:39:02Z</time></trkpt><trkpt lat="40.04713025014204" lon="15.889942839659163"><ele>1102.0</ele><time>2026-04-19T09:39:03Z</time></trkpt><trkpt lat="40.04722675784795" lon="15.889915569177484"><ele>1102.0</ele><time>2026-04-19T09:39:04Z</time></trkpt><trkpt lat="40.04730441627173" lon="15.889899913748172"><ele>1102.0</ele><time>2026-04-19T09:39:05Z</time></trkpt><trkpt lat="40.04739712267289" lon="15.889893367451801"><ele>1102.0</ele><time>2026-04-19T09:39:06Z</time></trkpt><trkpt lat="40.047487074235704" lon="15.88987643131491"><ele>1102.0</ele><time>2026-04-19T09:39:07Z</time></trkpt><trkpt lat="40.04759136515117" lon="15.889853559399429"><ele>1102.0</ele><time>2026-04-19T09:39:08Z</time></trkpt><trkpt lat="40.04768372750022" lon="15.889823979200395"><ele>1102.0</ele><time>2026-04-19T09:39:09Z</time></trkpt><trkpt lat="40.0477723582076" lon="15.889780033165078"><ele>1102.0</ele><time>2026-04-19T09:39:10Z</time></trkpt><trkpt lat="40.04785580507005" lon="15.889713149128116"><ele>1102.0</ele><time>2026-04-19T09:39:11Z</time></trkpt><trkpt lat="40.04792920206998" lon="15.889627805628246"><ele>1102.0</ele><time>2026-04-19T09:39:12Z</time></trkpt><trkpt lat="40.04800816079436" lon="15.889547989273266"><ele>1102.0</ele><time>2026-04-19T09:39:13Z</time></trkpt><trkpt lat="40.048094852664846" lon="15.889464941841249"><ele>1102.0</ele><time>2026-04-19T09:39:14Z</time></trkpt><trkpt lat="40.04817537539069" lon="15.889380278320262"><ele>1102.0</ele><time>2026-04-19T09:39:15Z</time></trkpt><trkpt lat="40.04825417812643" lon="15.889295384711247"><ele>1102.0</ele><time>2026-04-19T09:39:16Z</time></trkpt><trkpt lat="40.04835012442228" lon="15.889242250579912"><ele>1101.0</ele><time>2026-04-19T09:39:17Z</time></trkpt><trkpt lat="40.04843836919095" lon="15.889182152432648"><ele>1100.0</ele><time>2026-04-19T09:39:18Z</time></trkpt><trkpt lat="40.04852104529692" lon="15.889119175191336"><ele>1099.0</ele><time>2026-04-19T09:39:19Z</time></trkpt><trkpt lat="40.048604933965535" lon="15.889048103982235"><ele>1098.0</ele><time>2026-04-19T09:39:20Z</time></trkpt><trkpt lat="40.04868812801424" lon="15.888988364762426"><ele>1097.0</ele><time>2026-04-19T09:39:21Z</time></trkpt><trkpt lat="40.04877166092258" lon="15.888934134037513"><ele>1097.0</ele><time>2026-04-19T09:39:22Z</time></trkpt><trkpt lat="40.048844390217205" lon="15.888876895567355"><ele>1097.0</ele><time>2026-04-19T09:39:23Z</time></trkpt><trkpt lat="40.048918480805895" lon="15.88881850783686"><ele>1097.0</ele><time>2026-04-19T09:39:24Z</time></trkpt><trkpt lat="40.04898077525177" lon="15.888742208391095"><ele>1097.0</ele><time>2026-04-19T09:39:25Z</time></trkpt><trkpt lat="40.04902213123959" lon="15.888661221659772"><ele>1097.0</ele><time>2026-04-19T09:39:26Z</time></trkpt><trkpt lat="40.04905125540362" lon="15.888570386497245"><ele>1097.0</ele><time>2026-04-19T09:39:27Z</time></trkpt><trkpt lat="40.04906697875938" lon="15.8884796534072"><ele>1098.3333333333335</ele><time>2026-04-19T09:39:28Z</time></trkpt><trkpt lat="40.04907847073549" lon="15.888391588263676"><ele>1099.6666666666667</ele><time>2026-04-19T09:39:29Z</time></trkpt><trkpt lat="40.04911928090233" lon="15.888292562010577"><ele>1101.0</ele><time>2026-04-19T09:39:31Z</time></trkpt><trkpt lat="40.049218836176635" lon="15.888311906386972"><ele>1102.3333333333333</ele><time>2026-04-19T09:39:32.999Z</time></trkpt><trkpt lat="40.04929528688878" lon="15.888444044256092"><ele>1103.6666666666665</ele><time>2026-04-19T09:39:34.999Z</time></trkpt><trkpt lat="40.049310848222774" lon="15.888528740752307"><ele>1105.0</ele><time>2026-04-19T09:39:35.999Z</time></trkpt><trkpt lat="40.049319940049884" lon="15.888614100366398"><ele>1100.3333333333333</ele><time>2026-04-19T09:39:36.999Z</time></trkpt><trkpt lat="40.04932060364839" lon="15.8887049261922"><ele>1095.6666666666665</ele><time>2026-04-19T09:39:37.999Z</time></trkpt><trkpt lat="40.049312524966815" lon="15.888819518971264"><ele>1091.0</ele><time>2026-04-19T09:39:38.999Z</time></trkpt><trkpt lat="40.04930187222077" lon="15.888912749657342"><ele>1086.3333333333333</ele><time>2026-04-19T09:39:39.999Z</time></trkpt><trkpt lat="40.04927911955142" lon="15.888994682063274"><ele>1081.6666666666667</ele><time>2026-04-19T09:39:40.999Z</time></trkpt><trkpt lat="40.04924902877438" lon="15.88913306328913"><ele>1077.0</ele><time>2026-04-19T09:39:42.999Z</time></trkpt><trkpt lat="40.049273250183106" lon="15.88923756360292"><ele>1076.0</ele><time>2026-04-19T09:39:44.999Z</time></trkpt><trkpt lat="40.04923195151136" lon="15.889358493843686"><ele>1075.0</ele><time>2026-04-19T09:40:12.999Z</time></trkpt><trkpt lat="40.04917775669431" lon="15.889526255783222"><ele>1074.0</ele><time>2026-04-19T09:40:14.999Z</time></trkpt><trkpt lat="40.0491412351849" lon="15.889661858817776"><ele>1073.0</ele><time>2026-04-19T09:40:16.999Z</time></trkpt><trkpt lat="40.04907153732201" lon="15.889751295823752"><ele>1072.0</ele><time>2026-04-19T09:40:19Z</time></trkpt><trkpt lat="40.049013389016565" lon="15.889800344458562"><ele>1074.5</ele><time>2026-04-19T09:40:20Z</time></trkpt><trkpt lat="40.04894742286909" lon="15.889851012030308"><ele>1077.0</ele><time>2026-04-19T09:40:21Z</time></trkpt><trkpt lat="40.04887453373252" lon="15.889909311150166"><ele>1079.5</ele><time>2026-04-19T09:40:22Z</time></trkpt><trkpt lat="40.04880470374562" lon="15.889979511482329"><ele>1082.0</ele><time>2026-04-19T09:40:23Z</time></trkpt><trkpt lat="40.04875165494997" lon="15.890036180381959"><ele>1084.5</ele><time>2026-04-19T09:40:24Z</time></trkpt><trkpt lat="40.04864392187041" lon="15.890070215988207"><ele>1087.0</ele><time>2026-04-19T09:40:26Z</time></trkpt><trkpt lat="40.04856273651242" lon="15.890089232718063"><ele>1087.6</ele><time>2026-04-19T09:40:27Z</time></trkpt><trkpt lat="40.04847083122827" lon="15.890116733486831"><ele>1088.2</ele><time>2026-04-19T09:40:28Z</time></trkpt><trkpt lat="40.04840424973393" lon="15.890159029165302"><ele>1088.8</ele><time>2026-04-19T09:40:29Z</time></trkpt><trkpt lat="40.04834333552975" lon="15.890234398673897"><ele>1089.4</ele><time>2026-04-19T09:40:30Z</time></trkpt><trkpt lat="40.048275801219624" lon="15.890337489826775"><ele>1090.0</ele><time>2026-04-19T09:40:31Z</time></trkpt><trkpt lat="40.04821576096224" lon="15.890434976627752"><ele>1090.0</ele><time>2026-04-19T09:40:32Z</time></trkpt><trkpt lat="40.04814709030059" lon="15.890507206141107"><ele>1090.0</ele><time>2026-04-19T09:40:33Z</time></trkpt><trkpt lat="40.048035517975634" lon="15.890572686071199"><ele>1090.0</ele><time>2026-04-19T09:40:34Z</time></trkpt><trkpt lat="40.04793140116488" lon="15.890623394324603"><ele>1090.0</ele><time>2026-04-19T09:40:35Z</time></trkpt><trkpt lat="40.047833594825555" lon="15.890666924067865"><ele>1090.0</ele><time>2026-04-19T09:40:36Z</time></trkpt><trkpt lat="40.04775733928297" lon="15.890732877945712"><ele>1090.0</ele><time>2026-04-19T09:40:37Z</time></trkpt><trkpt lat="40.047663143110746" lon="15.890820149757982"><ele>1090.0</ele><time>2026-04-19T09:40:38Z</time></trkpt><trkpt lat="40.04756132381657" lon="15.890922927406434"><ele>1090.0</ele><time>2026-04-19T09:40:39Z</time></trkpt><trkpt lat="40.04746815638504" lon="15.891013701316066"><ele>1090.0</ele><time>2026-04-19T09:40:40Z</time></trkpt><trkpt lat="40.04738901678079" lon="15.891119147586949"><ele>1088.4</ele><time>2026-04-19T09:40:41Z</time></trkpt><trkpt lat="40.04731030797954" lon="15.89121469273088"><ele>1086.8</ele><time>2026-04-19T09:40:42Z</time></trkpt><trkpt lat="40.0472352522381" lon="15.891297691490871"><ele>1085.2</ele><time>2026-04-19T09:40:43Z</time></trkpt><trkpt lat="40.047165075330945" lon="15.891383098622676"><ele>1083.6</ele><time>2026-04-19T09:40:44Z</time></trkpt><trkpt lat="40.04712157458321" lon="15.891468133227765"><ele>1082.0</ele><time>2026-04-19T09:40:45Z</time></trkpt><trkpt lat="40.04707694436158" lon="15.891554180757227"><ele>1082.0</ele><time>2026-04-19T09:40:46Z</time></trkpt><trkpt lat="40.04703753896602" lon="15.891639051098107"><ele>1082.0</ele><time>2026-04-19T09:40:47Z</time></trkpt><trkpt lat="40.04696327460902" lon="15.891720740276712"><ele>1082.0</ele><time>2026-04-19T09:40:48Z</time></trkpt><trkpt lat="40.04689428197276" lon="15.891787345324872"><ele>1082.0</ele><time>2026-04-19T09:40:49Z</time></trkpt><trkpt lat="40.0468368584569" lon="15.891858119787555"><ele>1082.0</ele><time>2026-04-19T09:40:50Z</time></trkpt><trkpt lat="40.04678619806901" lon="15.89194447142151"><ele>1082.0</ele><time>2026-04-19T09:40:51Z</time></trkpt><trkpt lat="40.04673782445363" lon="15.89202893675696"><ele>1081.6666666666667</ele><time>2026-04-19T09:40:52Z</time></trkpt><trkpt lat="40.04669000498416" lon="15.892106974012096"><ele>1081.3333333333335</ele><time>2026-04-19T09:40:54Z</time></trkpt><trkpt lat="40.04661948938789" lon="15.892170462509261"><ele>1081.0</ele><time>2026-04-19T09:41:17Z</time></trkpt><trkpt lat="40.046537029095084" lon="15.892218346400679"><ele>1080.6666666666667</ele><time>2026-04-19T09:41:19Z</time></trkpt><trkpt lat="40.046455263006315" lon="15.892274648485365"><ele>1080.3333333333333</ele><time>2026-04-19T09:41:21Z</time></trkpt><trkpt lat="40.046401440434394" lon="15.89232618220538"><ele>1080.0</ele><time>2026-04-19T09:41:23Z</time></trkpt><trkpt lat="40.04636293402323" lon="15.892404687307142"><ele>1076.5</ele><time>2026-04-19T09:41:25Z</time></trkpt><trkpt lat="40.0463423249025" lon="15.892484236599199"><ele>1073.0</ele><time>2026-04-19T09:41:27Z</time></trkpt><trkpt lat="40.04633698214302" lon="15.892593168201302"><ele>1069.5</ele><time>2026-04-19T09:41:30Z</time></trkpt><trkpt lat="40.046371616754755" lon="15.892699477328616"><ele>1066.0</ele><time>2026-04-19T09:41:32.999Z</time></trkpt><trkpt lat="40.04642736964493" lon="15.892806224184147"><ele>1062.5</ele><time>2026-04-19T09:41:35.999Z</time></trkpt><trkpt lat="40.04645927273748" lon="15.892927827224424"><ele>1059.0</ele><time>2026-04-19T09:41:37.999Z</time></trkpt><trkpt lat="40.0464423227211" lon="15.893007226635746"><ele>1058.5714285714284</ele><time>2026-04-19T09:41:39.999Z</time></trkpt><trkpt lat="40.04636919945003" lon="15.893049765474867"><ele>1058.142857142857</ele><time>2026-04-19T09:41:42.999Z</time></trkpt><trkpt lat="40.046312048470995" lon="15.893104027841344"><ele>1057.7142857142858</ele><time>2026-04-19T09:41:44.999Z</time></trkpt><trkpt lat="40.04625715471635" lon="15.893153309192353"><ele>1057.2857142857142</ele><time>2026-04-19T09:41:46.999Z</time></trkpt><trkpt lat="40.046204510673576" lon="15.89320419300625"><ele>1056.857142857143</ele><time>2026-04-19T09:41:48.999Z</time></trkpt><trkpt lat="40.04614175690881" lon="15.893278956786308"><ele>1056.4285714285713</ele><time>2026-04-19T09:41:51.999Z</time></trkpt><trkpt lat="40.04610506998528" lon="15.893370839888588"><ele>1056.0</ele><time>2026-04-19T09:41:54.999Z</time></trkpt><trkpt lat="40.046052696473595" lon="15.893474654957163"><ele>1056.0</ele><time>2026-04-19T09:41:57.999Z</time></trkpt><trkpt lat="40.04601106264587" lon="15.893563290182483"><ele>1056.0</ele><time>2026-04-19T09:42:00.999Z</time></trkpt><trkpt lat="40.04598213904519" lon="15.893647644668636"><ele>1056.0</ele><time>2026-04-19T09:42:02.999Z</time></trkpt><trkpt lat="40.045921618608205" lon="15.893712600677441"><ele>1056.0</ele><time>2026-04-19T09:42:04.999Z</time></trkpt><trkpt lat="40.04585681683176" lon="15.893755561239692"><ele>1056.0</ele><time>2026-04-19T09:42:06.999Z</time></trkpt><trkpt lat="40.04579682433717" lon="15.893807017857263"><ele>1056.0</ele><time>2026-04-19T09:42:09.999Z</time></trkpt><trkpt lat="40.045776636193374" lon="15.893904144847065"><ele>1050.6666666666667</ele><time>2026-04-19T09:42:12.999Z</time></trkpt><trkpt lat="40.045722008977855" lon="15.893954930477546"><ele>1045.3333333333333</ele><time>2026-04-19T09:42:14.999Z</time></trkpt><trkpt lat="40.04564466308803" lon="15.894008800580377"><ele>1040.0</ele><time>2026-04-19T09:42:16.999Z</time></trkpt><trkpt lat="40.045602475154006" lon="15.894097906006113"><ele>1034.6666666666665</ele><time>2026-04-19T09:42:18.999Z</time></trkpt><trkpt lat="40.04551063876305" lon="15.894111679445595"><ele>1029.3333333333333</ele><time>2026-04-19T09:42:21.999Z</time></trkpt><trkpt lat="40.045449582037016" lon="15.894170180383556"><ele>1024.0</ele><time>2026-04-19T09:42:23.999Z</time></trkpt><trkpt lat="40.04541808983375" lon="15.894245113302247"><ele>1024.1666666666665</ele><time>2026-04-19T09:42:26Z</time></trkpt><trkpt lat="40.04537566165872" lon="15.894325920189633"><ele>1024.3333333333333</ele><time>2026-04-19T09:42:28Z</time></trkpt><trkpt lat="40.04535384152961" lon="15.894440328821748"><ele>1024.5</ele><time>2026-04-19T09:42:31Z</time></trkpt><trkpt lat="40.04528054608686" lon="15.894454415843436"><ele>1024.6666666666667</ele><time>2026-04-19T09:42:33Z</time></trkpt><trkpt lat="40.04521497790112" lon="15.894485771136344"><ele>1024.8333333333335</ele><time>2026-04-19T09:42:35Z</time></trkpt><trkpt lat="40.045147827808194" lon="15.894536139579708"><ele>1025.0</ele><time>2026-04-19T09:42:37Z</time></trkpt><trkpt lat="40.045071187390505" lon="15.894543152183827"><ele>1025.0</ele><time>2026-04-19T09:42:39Z</time></trkpt><trkpt lat="40.044985194800056" lon="15.894526008982535"><ele>1025.0</ele><time>2026-04-19T09:42:42Z</time></trkpt><trkpt lat="40.04491847808742" lon="15.8945270254353"><ele>1025.0</ele><time>2026-04-19T09:42:45Z</time></trkpt><trkpt lat="40.04485481704531" lon="15.89455786361254"><ele>1025.0</ele><time>2026-04-19T09:42:49Z</time></trkpt><trkpt lat="40.04474266235498" lon="15.894562814439974"><ele>1025.0</ele><time>2026-04-19T09:42:52Z</time></trkpt><trkpt lat="40.04467562866382" lon="15.894576270243153"><ele>1025.0</ele><time>2026-04-19T09:42:54Z</time></trkpt><trkpt lat="40.04461100780317" lon="15.894605843972148"><ele>1023.2857142857142</ele><time>2026-04-19T09:42:57Z</time></trkpt><trkpt lat="40.04453374061514" lon="15.894638054840014"><ele>1021.5714285714286</ele><time>2026-04-19T09:42:59Z</time></trkpt><trkpt lat="40.044468099771066" lon="15.894686197534229"><ele>1019.8571428571429</ele><time>2026-04-19T09:43:01Z</time></trkpt><trkpt lat="40.04440896380525" lon="15.894732032006742"><ele>1018.1428571428571</ele><time>2026-04-19T09:43:03Z</time></trkpt><trkpt lat="40.04433644341404" lon="15.894754546096634"><ele>1016.4285714285716</ele><time>2026-04-19T09:43:05Z</time></trkpt><trkpt lat="40.044266923161274" lon="15.894805253127926"><ele>1014.7142857142858</ele><time>2026-04-19T09:43:23Z</time></trkpt><trkpt lat="40.04422889820819" lon="15.894871332098122"><ele>1013.0</ele><time>2026-04-19T09:43:27Z</time></trkpt><trkpt lat="40.0441696156532" lon="15.894988667492154"><ele>1008.0000000000001</ele><time>2026-04-19T09:43:30Z</time></trkpt><trkpt lat="40.044068301561076" lon="15.895016170824116"><ele>1003.0</ele><time>2026-04-19T09:43:32.999Z</time></trkpt><trkpt lat="40.04397266235774" lon="15.895017433778774"><ele>998.0</ele><time>2026-04-19T09:43:35.999Z</time></trkpt><trkpt lat="40.04389752033875" lon="15.89499749459869"><ele>993.0</ele><time>2026-04-19T09:43:37.999Z</time></trkpt><trkpt lat="40.04382641262965" lon="15.895005058988442"><ele>988.0000000000001</ele><time>2026-04-19T09:43:40.999Z</time></trkpt><trkpt lat="40.043782442546494" lon="15.89509216767118"><ele>983.0</ele><time>2026-04-19T09:43:57.999Z</time></trkpt><trkpt lat="40.04379857819412" lon="15.895188012133882"><ele>986.2</ele><time>2026-04-19T09:44:00.999Z</time></trkpt><trkpt lat="40.043873212246226" lon="15.895274582690138"><ele>989.4</ele><time>2026-04-19T09:44:03.999Z</time></trkpt><trkpt lat="40.04393244799772" lon="15.895310422263156"><ele>992.6000000000001</ele><time>2026-04-19T09:44:06.999Z</time></trkpt><trkpt lat="40.04399410591585" lon="15.895410510073454"><ele>995.8000000000001</ele><time>2026-04-19T09:44:10.999Z</time></trkpt><trkpt lat="40.04411943186617" lon="15.895490759565256"><ele>999.0</ele><time>2026-04-19T09:44:12.999Z</time></trkpt><trkpt lat="40.044186009174254" lon="15.895521257944141"><ele>999.0</ele><time>2026-04-19T09:44:13.999Z</time></trkpt><trkpt lat="40.04429855269937" lon="15.89555765333734"><ele>999.0</ele><time>2026-04-19T09:44:15.999Z</time></trkpt><trkpt lat="40.04441941707033" lon="15.895598732119584"><ele>999.0</ele><time>2026-04-19T09:44:17.999Z</time></trkpt><trkpt lat="40.04450980647373" lon="15.895705756892953"><ele>999.0</ele><time>2026-04-19T09:44:19.999Z</time></trkpt><trkpt lat="40.04459162184763" lon="15.89576547272561"><ele>999.0</ele><time>2026-04-19T09:44:21.999Z</time></trkpt><trkpt lat="40.044665609645484" lon="15.895821376986397"><ele>999.0</ele><time>2026-04-19T09:44:24.999Z</time></trkpt><trkpt lat="40.04472160438588" lon="15.895910703991122"><ele>999.0</ele><time>2026-04-19T09:44:26.999Z</time></trkpt><trkpt lat="40.04481178126564" lon="15.895977767688809"><ele>999.0</ele><time>2026-04-19T09:44:28.999Z</time></trkpt><trkpt lat="40.04487105030891" lon="15.896021447395153"><ele>999.0</ele><time>2026-04-19T09:44:29.999Z</time></trkpt><trkpt lat="40.04495241863868" lon="15.896098611352643"><ele>999.0</ele><time>2026-04-19T09:44:32Z</time></trkpt><trkpt lat="40.045048113746056" lon="15.896166725206234"><ele>999.6666666666666</ele><time>2026-04-19T09:44:34Z</time></trkpt><trkpt lat="40.045137897491195" lon="15.896183297469864"><ele>1000.3333333333333</ele><time>2026-04-19T09:44:37Z</time></trkpt><trkpt lat="40.0452075211624" lon="15.896224627870389"><ele>1001.0</ele><time>2026-04-19T09:44:39Z</time></trkpt><trkpt lat="40.04526678212247" lon="15.896272319313512"><ele>1001.6666666666666</ele><time>2026-04-19T09:44:43Z</time></trkpt><trkpt lat="40.045310705709745" lon="15.896361552446022"><ele>1002.3333333333333</ele><time>2026-04-19T09:44:46Z</time></trkpt><trkpt lat="40.04526908291065" lon="15.896455096122317"><ele>1003.0</ele><time>2026-04-19T09:44:48Z</time></trkpt><trkpt lat="40.04519184378912" lon="15.896571313903433"><ele>1002.9999999999999</ele><time>2026-04-19T09:44:50Z</time></trkpt><trkpt lat="40.04515702323041" lon="15.896651237992176"><ele>1003.0</ele><time>2026-04-19T09:44:51Z</time></trkpt><trkpt lat="40.045118906633824" lon="15.896741139064103"><ele>1003.0</ele><time>2026-04-19T09:44:52Z</time></trkpt><trkpt lat="40.04509219264655" lon="15.89682532270305"><ele>1003.0</ele><time>2026-04-19T09:44:53Z</time></trkpt><trkpt lat="40.04503164077115" lon="15.89693343739614"><ele>1002.9999999999999</ele><time>2026-04-19T09:44:55Z</time></trkpt><trkpt lat="40.044948944521245" lon="15.89702498424751"><ele>1003.0</ele><time>2026-04-19T09:44:57Z</time></trkpt><trkpt lat="40.04487739919112" lon="15.897110654603686"><ele>992.5999999999999</ele><time>2026-04-19T09:44:59Z</time></trkpt><trkpt lat="40.04480977305285" lon="15.89711546420169"><ele>982.1999999999999</ele><time>2026-04-19T09:45:01Z</time></trkpt><trkpt lat="40.04471338690748" lon="15.897045507740437"><ele>971.8</ele><time>2026-04-19T09:45:03Z</time></trkpt><trkpt lat="40.04460740567976" lon="15.897033938246524"><ele>961.4</ele><time>2026-04-19T09:45:05Z</time></trkpt><trkpt lat="40.0444988212074" lon="15.897056431046584"><ele>951.0</ele><time>2026-04-19T09:45:07Z</time></trkpt><trkpt lat="40.044396434356976" lon="15.89707314025862"><ele>951.0</ele><time>2026-04-19T09:45:09Z</time></trkpt><trkpt lat="40.044302443519534" lon="15.897040287465412"><ele>950.9999999999999</ele><time>2026-04-19T09:45:11Z</time></trkpt><trkpt lat="40.044312481805825" lon="15.897138785559486"><ele>950.9999999999999</ele><time>2026-04-19T09:45:16Z</time></trkpt><trkpt lat="40.04438747761799" lon="15.897219877922591"><ele>951.0</ele><time>2026-04-19T09:45:18Z</time></trkpt><trkpt lat="40.04443556460784" lon="15.897335801358262"><ele>951.0</ele><time>2026-04-19T09:45:20Z</time></trkpt><trkpt lat="40.044487137605046" lon="15.897449318881954"><ele>951.0</ele><time>2026-04-19T09:45:22Z</time></trkpt><trkpt lat="40.04455595620917" lon="15.89755710354069"><ele>950.9999999999999</ele><time>2026-04-19T09:45:24Z</time></trkpt><trkpt lat="40.04458456596577" lon="15.897671598935295"><ele>950.9999999999999</ele><time>2026-04-19T09:45:26Z</time></trkpt><trkpt lat="40.04460986251215" lon="15.897822984297635"><ele>951.0</ele><time>2026-04-19T09:45:28Z</time></trkpt><trkpt lat="40.0446667187134" lon="15.89797143382626"><ele>951.0</ele><time>2026-04-19T09:45:30Z</time></trkpt><trkpt lat="40.04469964210984" lon="15.898129323714258"><ele>950.5999999999999</ele><time>2026-04-19T09:45:32Z</time></trkpt><trkpt lat="40.04469512266032" lon="15.898271704477295"><ele>950.1999999999999</ele><time>2026-04-19T09:45:34Z</time></trkpt><trkpt lat="40.04464239688677" lon="15.89838407002983"><ele>949.8000000000001</ele><time>2026-04-19T09:45:36Z</time></trkpt><trkpt lat="40.04451803530837" lon="15.898420864928944"><ele>949.4000000000001</ele><time>2026-04-19T09:45:38Z</time></trkpt><trkpt lat="40.04441470740684" lon="15.898443964379027"><ele>949.0</ele><time>2026-04-19T09:45:39Z</time></trkpt><trkpt lat="40.044307254123495" lon="15.898482168738024"><ele>956.4000000000001</ele><time>2026-04-19T09:45:40Z</time></trkpt><trkpt lat="40.04420958652921" lon="15.898513388526915"><ele>963.8000000000001</ele><time>2026-04-19T09:45:41Z</time></trkpt><trkpt lat="40.0441232057938" lon="15.898511285727915"><ele>971.1999999999999</ele><time>2026-04-19T09:45:42Z</time></trkpt><trkpt lat="40.044031789069756" lon="15.89849047808256"><ele>978.5999999999999</ele><time>2026-04-19T09:45:43Z</time></trkpt><trkpt lat="40.043928361276706" lon="15.898464486683043"><ele>986.0</ele><time>2026-04-19T09:45:44Z</time></trkpt><trkpt lat="40.04382093442682" lon="15.898458680527309"><ele>986.8</ele><time>2026-04-19T09:45:45Z</time></trkpt><trkpt lat="40.04369810043946" lon="15.898476681556609"><ele>987.5999999999999</ele><time>2026-04-19T09:45:46Z</time></trkpt><trkpt lat="40.04360261892323" lon="15.89849716185289"><ele>988.4</ele><time>2026-04-19T09:45:47Z</time></trkpt><trkpt lat="40.04351725822757" lon="15.898488659303663"><ele>989.2</ele><time>2026-04-19T09:45:48Z</time></trkpt><trkpt lat="40.043443001102496" lon="15.898465239837906"><ele>990.0</ele><time>2026-04-19T09:45:48.999Z</time></trkpt><trkpt lat="40.0433303512233" lon="15.898395180957245"><ele>983.3333333333334</ele><time>2026-04-19T09:45:50.999Z</time></trkpt><trkpt lat="40.04326786768581" lon="15.898350680754238"><ele>976.6666666666667</ele><time>2026-04-19T09:45:51.999Z</time></trkpt><trkpt lat="40.04320447399211" lon="15.89831408978427"><ele>970.0</ele><time>2026-04-19T09:45:52.999Z</time></trkpt><trkpt lat="40.043144665282895" lon="15.898268052838402"><ele>963.3333333333334</ele><time>2026-04-19T09:45:53.999Z</time></trkpt><trkpt lat="40.04309085729554" lon="15.898217751922328"><ele>956.6666666666667</ele><time>2026-04-19T09:45:54.999Z</time></trkpt><trkpt lat="40.042987545691616" lon="15.898128647637282"><ele>950.0</ele><time>2026-04-19T09:45:56.999Z</time></trkpt><trkpt lat="40.04292990592049" lon="15.898075990142514"><ele>950.0</ele><time>2026-04-19T09:45:57.999Z</time></trkpt><trkpt lat="40.04286396465882" lon="15.898026508761584"><ele>950.0000000000001</ele><time>2026-04-19T09:45:58.999Z</time></trkpt><trkpt lat="40.04280444949448" lon="15.89797809257358"><ele>950.0</ele><time>2026-04-19T09:45:59.999Z</time></trkpt><trkpt lat="40.04274263668294" lon="15.897919260072257"><ele>950.0</ele><time>2026-04-19T09:46:00.999Z</time></trkpt><trkpt lat="40.04267910056803" lon="15.897860081220195"><ele>950.0000000000001</ele><time>2026-04-19T09:46:01.999Z</time></trkpt><trkpt lat="40.04263307436915" lon="15.897792997620021"><ele>950.0</ele><time>2026-04-19T09:46:02.999Z</time></trkpt><trkpt lat="40.04258730192542" lon="15.897712157518457"><ele>950.0</ele><time>2026-04-19T09:46:03.999Z</time></trkpt><trkpt lat="40.04252452178935" lon="15.897627766665305"><ele>945.0</ele><time>2026-04-19T09:46:04.999Z</time></trkpt><trkpt lat="40.04243584874378" lon="15.897552919182472"><ele>940.0</ele><time>2026-04-19T09:46:05.999Z</time></trkpt><trkpt lat="40.042326247028655" lon="15.897473868727015"><ele>935.0</ele><time>2026-04-19T09:46:06.999Z</time></trkpt><trkpt lat="40.04222969644397" lon="15.89739215675925"><ele>930.0</ele><time>2026-04-19T09:46:07.999Z</time></trkpt><trkpt lat="40.04214022627117" lon="15.897321191637204"><ele>930.0</ele><time>2026-04-19T09:46:08.999Z</time></trkpt><trkpt lat="40.0420622051751" lon="15.897265364630048"><ele>930.0</ele><time>2026-04-19T09:46:09.999Z</time></trkpt><trkpt lat="40.04197734897129" lon="15.897200991406152"><ele>930.0</ele><time>2026-04-19T09:46:10.999Z</time></trkpt><trkpt lat="40.04189111125949" lon="15.89714986869232"><ele>930.0</ele><time>2026-04-19T09:46:11.999Z</time></trkpt><trkpt lat="40.041809600611764" lon="15.897107552441708"><ele>930.0</ele><time>2026-04-19T09:46:12.999Z</time></trkpt><trkpt lat="40.041725129011155" lon="15.897065944865462"><ele>930.0</ele><time>2026-04-19T09:46:13.999Z</time></trkpt><trkpt lat="40.04164574092054" lon="15.897037459073665"><ele>930.0</ele><time>2026-04-19T09:46:14.999Z</time></trkpt><trkpt lat="40.0415804448154" lon="15.89700136700822"><ele>930.0</ele><time>2026-04-19T09:46:15.999Z</time></trkpt><trkpt lat="40.04152387154966" lon="15.896930931396446"><ele>930.0</ele><time>2026-04-19T09:46:16.999Z</time></trkpt><trkpt lat="40.04146321836689" lon="15.896819562762106"><ele>930.0</ele><time>2026-04-19T09:46:17.999Z</time></trkpt><trkpt lat="40.041401686186866" lon="15.896704341106407"><ele>930.0</ele><time>2026-04-19T09:46:18.999Z</time></trkpt><trkpt lat="40.04133167083914" lon="15.896590099987787"><ele>926.0</ele><time>2026-04-19T09:46:19.999Z</time></trkpt><trkpt lat="40.04125775227402" lon="15.896501099817915"><ele>922.0</ele><time>2026-04-19T09:46:20.999Z</time></trkpt><trkpt lat="40.041199300209115" lon="15.896399329685117"><ele>918.0</ele><time>2026-04-19T09:46:21.999Z</time></trkpt><trkpt lat="40.04116583892544" lon="15.896311708552023"><ele>914.0</ele><time>2026-04-19T09:46:22.999Z</time></trkpt><trkpt lat="40.041131141365504" lon="15.89622711301009"><ele>910.0</ele><time>2026-04-19T09:46:25.999Z</time></trkpt><trkpt lat="40.04113929433493" lon="15.896139469954237"><ele>906.0</ele><time>2026-04-19T09:46:27.999Z</time></trkpt><trkpt lat="40.041110540409655" lon="15.895992593200951"><ele>903.0</ele><time>2026-04-19T09:46:29.999Z</time></trkpt><trkpt lat="40.04106967932748" lon="15.895919888286944"><ele>900.0</ele><time>2026-04-19T09:46:30.999Z</time></trkpt><trkpt lat="40.04102536775211" lon="15.895841658160773"><ele>897.0</ele><time>2026-04-19T09:46:31.999Z</time></trkpt><trkpt lat="40.04097592086227" lon="15.895784822312136"><ele>894.0</ele><time>2026-04-19T09:46:32.999Z</time></trkpt><trkpt lat="40.0408827450027" lon="15.895695307840375"><ele>891.0</ele><time>2026-04-19T09:46:34.999Z</time></trkpt><trkpt lat="40.04080758599994" lon="15.895635581091938"><ele>888.0</ele><time>2026-04-19T09:46:37Z</time></trkpt><trkpt lat="40.04074946137401" lon="15.895552863049135"><ele>884.4</ele><time>2026-04-19T09:46:39Z</time></trkpt><trkpt lat="40.04071719842702" lon="15.895433523148192"><ele>880.8</ele><time>2026-04-19T09:46:41Z</time></trkpt><trkpt lat="40.04070653878228" lon="15.89530458767085"><ele>877.2</ele><time>2026-04-19T09:46:43Z</time></trkpt><trkpt lat="40.04071247042841" lon="15.8951634793424"><ele>873.6</ele><time>2026-04-19T09:46:45Z</time></trkpt><trkpt lat="40.04070851936836" lon="15.895004946193454"><ele>870.0</ele><time>2026-04-19T09:46:47Z</time></trkpt><trkpt lat="40.04068007607196" lon="15.894926009946913"><ele>868.6666666666666</ele><time>2026-04-19T09:46:48Z</time></trkpt><trkpt lat="40.04063395174753" lon="15.894842502388181"><ele>867.3333333333333</ele><time>2026-04-19T09:46:49Z</time></trkpt><trkpt lat="40.04057650646503" lon="15.894761314392897"><ele>866.0</ele><time>2026-04-19T09:46:50Z</time></trkpt><trkpt lat="40.04052995888118" lon="15.894679722025073"><ele>864.6666666666666</ele><time>2026-04-19T09:46:51Z</time></trkpt><trkpt lat="40.04049276107154" lon="15.894603801862699"><ele>863.3333333333333</ele><time>2026-04-19T09:46:52Z</time></trkpt><trkpt lat="40.04046976529409" lon="15.89450136066064"><ele>862.0</ele><time>2026-04-19T09:46:53Z</time></trkpt><trkpt lat="40.04045290915083" lon="15.894381759537161"><ele>861.9999999999999</ele><time>2026-04-19T09:46:54Z</time></trkpt><trkpt lat="40.04045141578404" lon="15.894264559078021"><ele>862.0</ele><time>2026-04-19T09:46:55Z</time></trkpt><trkpt lat="40.04044124432327" lon="15.894148439540418"><ele>862.0</ele><time>2026-04-19T09:46:56Z</time></trkpt><trkpt lat="40.04043169477707" lon="15.89403368016414"><ele>862.0</ele><time>2026-04-19T09:46:57Z</time></trkpt><trkpt lat="40.04041603665069" lon="15.8939501332178"><ele>861.9999999999999</ele><time>2026-04-19T09:46:58Z</time></trkpt><trkpt lat="40.040397962142954" lon="15.89386110169309"><ele>862.0</ele><time>2026-04-19T09:46:59Z</time></trkpt><trkpt lat="40.040366656663025" lon="15.893788138386725"><ele>860.0</ele><time>2026-04-19T09:47:00Z</time></trkpt><trkpt lat="40.04031011852275" lon="15.893656926367921"><ele>858.0</ele><time>2026-04-19T09:47:02Z</time></trkpt><trkpt lat="40.040229022066754" lon="15.893608336687592"><ele>856.0</ele><time>2026-04-19T09:47:04Z</time></trkpt><trkpt lat="40.04014018327782" lon="15.893644589260953"><ele>854.0</ele><time>2026-04-19T09:47:06Z</time></trkpt><trkpt lat="40.04005061689704" lon="15.893726037231987"><ele>852.0</ele><time>2026-04-19T09:47:08Z</time></trkpt><trkpt lat="40.039964014382434" lon="15.893811546804049"><ele>852.0</ele><time>2026-04-19T09:47:10Z</time></trkpt><trkpt lat="40.03989814838218" lon="15.893871837036773"><ele>852.0</ele><time>2026-04-19T09:47:11Z</time></trkpt><trkpt lat="40.039817249462814" lon="15.893958628059732"><ele>852.0</ele><time>2026-04-19T09:47:12Z</time></trkpt><trkpt lat="40.039753300336486" lon="15.894075823012464"><ele>852.0</ele><time>2026-04-19T09:47:13Z</time></trkpt><trkpt lat="40.039713983969854" lon="15.894186461971787"><ele>852.0</ele><time>2026-04-19T09:47:14Z</time></trkpt><trkpt lat="40.03969366469302" lon="15.894295390052223"><ele>852.0</ele><time>2026-04-19T09:47:15Z</time></trkpt><trkpt lat="40.039662496722556" lon="15.894384189550697"><ele>852.0</ele><time>2026-04-19T09:47:16Z</time></trkpt><trkpt lat="40.03961185990183" lon="15.894462997239126"><ele>852.0</ele><time>2026-04-19T09:47:17Z</time></trkpt><trkpt lat="40.039549886184815" lon="15.894548083489688"><ele>852.0</ele><time>2026-04-19T09:47:18Z</time></trkpt><trkpt lat="40.03948894517956" lon="15.89464022043369"><ele>852.0</ele><time>2026-04-19T09:47:19Z</time></trkpt><trkpt lat="40.03944045899762" lon="15.894748304820661"><ele>852.0</ele><time>2026-04-19T09:47:20Z</time></trkpt><trkpt lat="40.03940021198108" lon="15.894861235548774"><ele>852.0</ele><time>2026-04-19T09:47:21Z</time></trkpt><trkpt lat="40.03936497901859" lon="15.894958812885182"><ele>852.0</ele><time>2026-04-19T09:47:22Z</time></trkpt><trkpt lat="40.03932461828799" lon="15.895037951864927"><ele>852.0</ele><time>2026-04-19T09:47:23Z</time></trkpt><trkpt lat="40.03921671006187" lon="15.895061978233958"><ele>852.0</ele><time>2026-04-19T09:47:25Z</time></trkpt><trkpt lat="40.03916023373428" lon="15.895024678759523"><ele>852.0</ele><time>2026-04-19T09:47:26Z</time></trkpt><trkpt lat="40.039084718887366" lon="15.894997959318093"><ele>852.0</ele><time>2026-04-19T09:47:27Z</time></trkpt><trkpt lat="40.03898111392068" lon="15.895029588660238"><ele>853.8</ele><time>2026-04-19T09:47:28Z</time></trkpt><trkpt lat="40.03888724088081" lon="15.89509696527313"><ele>855.6</ele><time>2026-04-19T09:47:29Z</time></trkpt><trkpt lat="40.038807595763295" lon="15.89516947946439"><ele>857.3999999999999</ele><time>2026-04-19T09:47:30Z</time></trkpt><trkpt lat="40.03873772282311" lon="15.895278014161484"><ele>859.1999999999999</ele><time>2026-04-19T09:47:31Z</time></trkpt><trkpt lat="40.03867277350495" lon="15.895383903419878"><ele>861.0</ele><time>2026-04-19T09:47:32Z</time></trkpt><trkpt lat="40.038599622893265" lon="15.89549435372866"><ele>861.0</ele><time>2026-04-19T09:47:33Z</time></trkpt><trkpt lat="40.03851698816769" lon="15.895591665665954"><ele>860.9999999999999</ele><time>2026-04-19T09:47:34Z</time></trkpt><trkpt lat="40.038429919035075" lon="15.895662344732244"><ele>860.9999999999999</ele><time>2026-04-19T09:47:35Z</time></trkpt><trkpt lat="40.038316079831255" lon="15.89568461640452"><ele>861.0</ele><time>2026-04-19T09:47:36Z</time></trkpt><trkpt lat="40.03820179821813" lon="15.89568313937681"><ele>861.0</ele><time>2026-04-19T09:47:37Z</time></trkpt><trkpt lat="40.03808658249585" lon="15.89566790507448"><ele>859.8</ele><time>2026-04-19T09:47:38Z</time></trkpt><trkpt lat="40.037991604554925" lon="15.895644231707632"><ele>858.5999999999999</ele><time>2026-04-19T09:47:39Z</time></trkpt><trkpt lat="40.03790433399355" lon="15.895620282478104"><ele>857.4</ele><time>2026-04-19T09:47:40Z</time></trkpt><trkpt lat="40.037803344231236" lon="15.895584456810038"><ele>856.2</ele><time>2026-04-19T09:47:41Z</time></trkpt><trkpt lat="40.03769769329316" lon="15.89557539219572"><ele>855.0</ele><time>2026-04-19T09:47:42Z</time></trkpt><trkpt lat="40.03759808484286" lon="15.895612147077175"><ele>855.0</ele><time>2026-04-19T09:47:43Z</time></trkpt><trkpt lat="40.037507315035626" lon="15.895669962067608"><ele>855.0</ele><time>2026-04-19T09:47:44Z</time></trkpt><trkpt lat="40.037432115465904" lon="15.895747874926313"><ele>855.0</ele><time>2026-04-19T09:47:45Z</time></trkpt><trkpt lat="40.03736447907588" lon="15.895860606353544"><ele>855.0</ele><time>2026-04-19T09:47:46Z</time></trkpt><trkpt lat="40.03729421470311" lon="15.895995726573277"><ele>855.0</ele><time>2026-04-19T09:47:47Z</time></trkpt><trkpt lat="40.03722746905593" lon="15.896104402442544"><ele>853.8333333333334</ele><time>2026-04-19T09:47:48Z</time></trkpt><trkpt lat="40.037162205120346" lon="15.896195405958853"><ele>852.6666666666667</ele><time>2026-04-19T09:47:49Z</time></trkpt><trkpt lat="40.037117110686644" lon="15.89630072151723"><ele>851.5</ele><time>2026-04-19T09:47:50Z</time></trkpt><trkpt lat="40.037111894753565" lon="15.896413711339088"><ele>850.3333333333334</ele><time>2026-04-19T09:47:51Z</time></trkpt><trkpt lat="40.03712285419961" lon="15.896533523343656"><ele>849.1666666666667</ele><time>2026-04-19T09:47:52Z</time></trkpt><trkpt lat="40.037143081870106" lon="15.896626425838392"><ele>848.0</ele><time>2026-04-19T09:47:53Z</time></trkpt><trkpt lat="40.03713801527809" lon="15.896743389532869"><ele>848.0</ele><time>2026-04-19T09:47:54.999Z</time></trkpt><trkpt lat="40.03700905590817" lon="15.89676913495389"><ele>848.0</ele><time>2026-04-19T09:47:56.999Z</time></trkpt><trkpt lat="40.03691802248726" lon="15.896749498633765"><ele>848.0</ele><time>2026-04-19T09:47:57.999Z</time></trkpt><trkpt lat="40.036805642263865" lon="15.89674915783554"><ele>848.0</ele><time>2026-04-19T09:47:58.999Z</time></trkpt><trkpt lat="40.03667808120075" lon="15.896761014839404"><ele>847.8</ele><time>2026-04-19T09:47:59.999Z</time></trkpt><trkpt lat="40.036557274090626" lon="15.89681230508075"><ele>847.5999999999999</ele><time>2026-04-19T09:48:00.999Z</time></trkpt><trkpt lat="40.03646077430413" lon="15.896846000755401"><ele>847.4000000000001</ele><time>2026-04-19T09:48:01.999Z</time></trkpt><trkpt lat="40.03637393289628" lon="15.896866335448948"><ele>847.2</ele><time>2026-04-19T09:48:02.999Z</time></trkpt><trkpt lat="40.036311054143276" lon="15.896920567416302"><ele>847.0</ele><time>2026-04-19T09:48:03.999Z</time></trkpt><trkpt lat="40.03628715242142" lon="15.897017016916347"><ele>847.0</ele><time>2026-04-19T09:48:04.999Z</time></trkpt><trkpt lat="40.03624477534345" lon="15.897093924157229"><ele>847.0</ele><time>2026-04-19T09:48:05.999Z</time></trkpt><trkpt lat="40.03622239717341" lon="15.89719349934187"><ele>847.0</ele><time>2026-04-19T09:48:06.999Z</time></trkpt><trkpt lat="40.036168984669665" lon="15.897305686193679"><ele>847.0</ele><time>2026-04-19T09:48:07.999Z</time></trkpt><trkpt lat="40.036101413602" lon="15.897439920639915"><ele>847.0</ele><time>2026-04-19T09:48:08.999Z</time></trkpt><trkpt lat="40.03602758286133" lon="15.897585478062904"><ele>848.75</ele><time>2026-04-19T09:48:09.999Z</time></trkpt><trkpt lat="40.035935379178454" lon="15.897734955005225"><ele>850.5</ele><time>2026-04-19T09:48:10.999Z</time></trkpt><trkpt lat="40.03585285064468" lon="15.897858556461294"><ele>852.25</ele><time>2026-04-19T09:48:11.999Z</time></trkpt><trkpt lat="40.03576701862528" lon="15.89795124390476"><ele>854.0</ele><time>2026-04-19T09:48:12.999Z</time></trkpt><trkpt lat="40.03565694556407" lon="15.898029189097043"><ele>855.0</ele><time>2026-04-19T09:48:13.999Z</time></trkpt><trkpt lat="40.035540768381395" lon="15.898078002309475"><ele>856.0000000000001</ele><time>2026-04-19T09:48:14.999Z</time></trkpt><trkpt lat="40.03544204318043" lon="15.898087870612503"><ele>857.0000000000001</ele><time>2026-04-19T09:48:15.999Z</time></trkpt><trkpt lat="40.03536254086716" lon="15.898041652527054"><ele>858.0</ele><time>2026-04-19T09:48:16.999Z</time></trkpt><trkpt lat="40.035302168753205" lon="15.897954696667696"><ele>859.0</ele><time>2026-04-19T09:48:17.999Z</time></trkpt><trkpt lat="40.03524087498025" lon="15.897837755150908"><ele>859.0</ele><time>2026-04-19T09:48:18.999Z</time></trkpt><trkpt lat="40.03515980029811" lon="15.897702239873933"><ele>859.0</ele><time>2026-04-19T09:48:19.999Z</time></trkpt><trkpt lat="40.03507135216972" lon="15.897583681503578"><ele>859.0</ele><time>2026-04-19T09:48:20.999Z</time></trkpt><trkpt lat="40.03497224808344" lon="15.897517035571212"><ele>859.0</ele><time>2026-04-19T09:48:21.999Z</time></trkpt><trkpt lat="40.03485207953282" lon="15.89748444943259"><ele>860.75</ele><time>2026-04-19T09:48:22.999Z</time></trkpt><trkpt lat="40.03471148953786" lon="15.89747616614762"><ele>862.5</ele><time>2026-04-19T09:48:23.999Z</time></trkpt><trkpt lat="40.03459416854441" lon="15.897485144409197"><ele>864.25</ele><time>2026-04-19T09:48:24.999Z</time></trkpt><trkpt lat="40.034487327592295" lon="15.897494503217924"><ele>866.0</ele><time>2026-04-19T09:48:25.999Z</time></trkpt><trkpt lat="40.03436948198123" lon="15.897491620211309"><ele>866.0</ele><time>2026-04-19T09:48:26.999Z</time></trkpt><trkpt lat="40.03424134588546" lon="15.897491666676954"><ele>866.0</ele><time>2026-04-19T09:48:27.999Z</time></trkpt><trkpt lat="40.03410615768931" lon="15.897509066588103"><ele>866.0</ele><time>2026-04-19T09:48:28.999Z</time></trkpt><trkpt lat="40.033972969972474" lon="15.897550814944866"><ele>866.0</ele><time>2026-04-19T09:48:29.999Z</time></trkpt><trkpt lat="40.03385162009743" lon="15.897633153268018"><ele>866.5</ele><time>2026-04-19T09:48:30.999Z</time></trkpt><trkpt lat="40.03373773296031" lon="15.897750103881677"><ele>867.0</ele><time>2026-04-19T09:48:31.999Z</time></trkpt><trkpt lat="40.03363801601232" lon="15.897870252816768"><ele>867.5</ele><time>2026-04-19T09:48:32.999Z</time></trkpt><trkpt lat="40.03352609377743" lon="15.897948131725785"><ele>868.0</ele><time>2026-04-19T09:48:33.999Z</time></trkpt><trkpt lat="40.03342089109847" lon="15.898003191886929"><ele>868.0</ele><time>2026-04-19T09:48:34.999Z</time></trkpt><trkpt lat="40.03331453304643" lon="15.898066938716013"><ele>868.0</ele><time>2026-04-19T09:48:35.999Z</time></trkpt><trkpt lat="40.033198417001884" lon="15.898096651254647"><ele>868.0</ele><time>2026-04-19T09:48:36.999Z</time></trkpt><trkpt lat="40.03308522540374" lon="15.898130600206976"><ele>868.0</ele><time>2026-04-19T09:48:37.999Z</time></trkpt><trkpt lat="40.0329628684298" lon="15.898167685244204"><ele>865.0</ele><time>2026-04-19T09:48:38.999Z</time></trkpt><trkpt lat="40.032836885854145" lon="15.898201779300356"><ele>862.0</ele><time>2026-04-19T09:48:39.999Z</time></trkpt><trkpt lat="40.03271748306117" lon="15.898227270283934"><ele>859.0</ele><time>2026-04-19T09:48:40.999Z</time></trkpt><trkpt lat="40.032594463355316" lon="15.898244167997083"><ele>856.0</ele><time>2026-04-19T09:48:41.999Z</time></trkpt><trkpt lat="40.032470528533565" lon="15.898263827920388"><ele>853.25</ele><time>2026-04-19T09:48:43Z</time></trkpt><trkpt lat="40.0323477799963" lon="15.898296225157289"><ele>850.5</ele><time>2026-04-19T09:48:44Z</time></trkpt><trkpt lat="40.032228893964096" lon="15.898328997994046"><ele>847.75</ele><time>2026-04-19T09:48:45Z</time></trkpt><trkpt lat="40.0321140419019" lon="15.89836100578986"><ele>845.0</ele><time>2026-04-19T09:48:46Z</time></trkpt><trkpt lat="40.03199788608137" lon="15.898389461477752"><ele>845.0</ele><time>2026-04-19T09:48:47Z</time></trkpt><trkpt lat="40.03189267353309" lon="15.8983964680142"><ele>845.0</ele><time>2026-04-19T09:48:48Z</time></trkpt><trkpt lat="40.03178224976826" lon="15.898381348880482"><ele>845.0</ele><time>2026-04-19T09:48:49Z</time></trkpt><trkpt lat="40.03166345113478" lon="15.898356192701025"><ele>845.0</ele><time>2026-04-19T09:48:50Z</time></trkpt><trkpt lat="40.03155361818955" lon="15.898326068856576"><ele>845.0</ele><time>2026-04-19T09:48:51Z</time></trkpt><trkpt lat="40.031443045450665" lon="15.898291052639411"><ele>843.4</ele><time>2026-04-19T09:48:52Z</time></trkpt><trkpt lat="40.031333526880466" lon="15.89826159274354"><ele>841.8</ele><time>2026-04-19T09:48:53Z</time></trkpt><trkpt lat="40.03122248138935" lon="15.898255263588679"><ele>840.2</ele><time>2026-04-19T09:48:54Z</time></trkpt><trkpt lat="40.03111104095436" lon="15.898244151872015"><ele>838.6</ele><time>2026-04-19T09:48:55Z</time></trkpt><trkpt lat="40.03100922592248" lon="15.898241054836223"><ele>837.0</ele><time>2026-04-19T09:48:56Z</time></trkpt><trkpt lat="40.03091226099524" lon="15.898225871701474"><ele>837.0</ele><time>2026-04-19T09:48:57Z</time></trkpt><trkpt lat="40.03083533167736" lon="15.89819821231127"><ele>837.0</ele><time>2026-04-19T09:48:58Z</time></trkpt><trkpt lat="40.03078850518289" lon="15.898116025866717"><ele>837.0</ele><time>2026-04-19T09:48:59Z</time></trkpt><trkpt lat="40.03078329141245" lon="15.89802477665018"><ele>837.0</ele><time>2026-04-19T09:49:00Z</time></trkpt><trkpt lat="40.03082626927963" lon="15.897938417115165"><ele>837.0</ele><time>2026-04-19T09:49:01Z</time></trkpt><trkpt lat="40.030900417231095" lon="15.897851356836746"><ele>837.0</ele><time>2026-04-19T09:49:02Z</time></trkpt><trkpt lat="40.031002516852276" lon="15.897773085841822"><ele>837.0</ele><time>2026-04-19T09:49:03Z</time></trkpt><trkpt lat="40.03106654301271" lon="15.897673418227235"><ele>837.0</ele><time>2026-04-19T09:49:04Z</time></trkpt><trkpt lat="40.03112061698692" lon="15.897592389931647"><ele>837.0</ele><time>2026-04-19T09:49:05Z</time></trkpt><trkpt lat="40.03114633584707" lon="15.897508043011095"><ele>837.0</ele><time>2026-04-19T09:49:06Z</time></trkpt><trkpt lat="40.03116101389726" lon="15.897421630198489"><ele>837.0</ele><time>2026-04-19T09:49:07Z</time></trkpt><trkpt lat="40.03109928755924" lon="15.89730871922789"><ele>837.0</ele><time>2026-04-19T09:49:08Z</time></trkpt><trkpt lat="40.03098445910041" lon="15.897251887995965"><ele>836.5</ele><time>2026-04-19T09:49:09Z</time></trkpt><trkpt lat="40.03088708005034" lon="15.897164801117537"><ele>836.0</ele><time>2026-04-19T09:49:10Z</time></trkpt><trkpt lat="40.03078205741624" lon="15.897095943533657"><ele>835.5</ele><time>2026-04-19T09:49:11Z</time></trkpt><trkpt lat="40.030667394765175" lon="15.897037508605624"><ele>835.0</ele><time>2026-04-19T09:49:12Z</time></trkpt><trkpt lat="40.03055373218105" lon="15.897026461246556"><ele>832.25</ele><time>2026-04-19T09:49:13Z</time></trkpt><trkpt lat="40.03042611457216" lon="15.897015138186442"><ele>829.5</ele><time>2026-04-19T09:49:14Z</time></trkpt><trkpt lat="40.03029798349408" lon="15.897018278831087"><ele>826.75</ele><time>2026-04-19T09:49:15Z</time></trkpt><trkpt lat="40.030177773376536" lon="15.89702307215281"><ele>824.0</ele><time>2026-04-19T09:49:16Z</time></trkpt><trkpt lat="40.03006880407221" lon="15.89702113838143"><ele>820.75</ele><time>2026-04-19T09:49:17Z</time></trkpt><trkpt lat="40.02995573849993" lon="15.897014452971796"><ele>817.5</ele><time>2026-04-19T09:49:18Z</time></trkpt><trkpt lat="40.02983238608098" lon="15.897009923193703"><ele>814.25</ele><time>2026-04-19T09:49:19Z</time></trkpt><trkpt lat="40.0297233717955" lon="15.896989090453088"><ele>811.0</ele><time>2026-04-19T09:49:20Z</time></trkpt><trkpt lat="40.0296137698888" lon="15.896962142962487"><ele>811.0</ele><time>2026-04-19T09:49:21Z</time></trkpt><trkpt lat="40.02951049258133" lon="15.896915655131275"><ele>811.0</ele><time>2026-04-19T09:49:22Z</time></trkpt><trkpt lat="40.02940033228807" lon="15.89694099510908"><ele>811.0</ele><time>2026-04-19T09:49:23Z</time></trkpt><trkpt lat="40.029298075816854" lon="15.896986087748727"><ele>811.0</ele><time>2026-04-19T09:49:24Z</time></trkpt><trkpt lat="40.029198065767844" lon="15.896991162769272"><ele>811.0</ele><time>2026-04-19T09:49:25Z</time></trkpt><trkpt lat="40.0291024365511" lon="15.896996719654311"><ele>809.4</ele><time>2026-04-19T09:49:26Z</time></trkpt><trkpt lat="40.02900048019457" lon="15.896981303221542"><ele>807.8</ele><time>2026-04-19T09:49:27Z</time></trkpt><trkpt lat="40.0288977304465" lon="15.896969134482806"><ele>806.1999999999999</ele><time>2026-04-19T09:49:28Z</time></trkpt><trkpt lat="40.02881368859857" lon="15.89692620197573"><ele>804.5999999999999</ele><time>2026-04-19T09:49:29Z</time></trkpt><trkpt lat="40.028723490543605" lon="15.896876315949395"><ele>803.0</ele><time>2026-04-19T09:49:30Z</time></trkpt><trkpt lat="40.028646693103795" lon="15.89678470240381"><ele>801.5</ele><time>2026-04-19T09:49:31Z</time></trkpt><trkpt lat="40.02855096755913" lon="15.89673652277678"><ele>800.0</ele><time>2026-04-19T09:49:32Z</time></trkpt><trkpt lat="40.02844153045383" lon="15.896690295652842"><ele>798.5</ele><time>2026-04-19T09:49:33Z</time></trkpt><trkpt lat="40.02833673272286" lon="15.8966494875549"><ele>797.0</ele><time>2026-04-19T09:49:34Z</time></trkpt><trkpt lat="40.02821455474192" lon="15.89661018217732"><ele>797.0</ele><time>2026-04-19T09:49:35Z</time></trkpt><trkpt lat="40.028090406503104" lon="15.896626566881814"><ele>797.0</ele><time>2026-04-19T09:49:36Z</time></trkpt><trkpt lat="40.02797833862059" lon="15.896583383131595"><ele>797.0</ele><time>2026-04-19T09:49:37Z</time></trkpt><trkpt lat="40.02786134154671" lon="15.896554213819643"><ele>797.0</ele><time>2026-04-19T09:49:38Z</time></trkpt><trkpt lat="40.0277366347279" lon="15.89652225899665"><ele>797.0</ele><time>2026-04-19T09:49:39Z</time></trkpt><trkpt lat="40.027601409627884" lon="15.896487125970044"><ele>797.0</ele><time>2026-04-19T09:49:40Z</time></trkpt><trkpt lat="40.02744038068391" lon="15.896486988159065"><ele>797.0</ele><time>2026-04-19T09:49:41Z</time></trkpt><trkpt lat="40.02730783292364" lon="15.896463596361677"><ele>797.0</ele><time>2026-04-19T09:49:42Z</time></trkpt><trkpt lat="40.02717581036077" lon="15.896444681418988"><ele>793.5</ele><time>2026-04-19T09:49:43Z</time></trkpt><trkpt lat="40.02704820241111" lon="15.896405761530291"><ele>790.0</ele><time>2026-04-19T09:49:44Z</time></trkpt><trkpt lat="40.026930423096566" lon="15.896407234931285"><ele>786.5</ele><time>2026-04-19T09:49:45Z</time></trkpt><trkpt lat="40.02680668638123" lon="15.896386724201761"><ele>783.0</ele><time>2026-04-19T09:49:46Z</time></trkpt><trkpt lat="40.02668461217736" lon="15.896350543648111"><ele>780.5</ele><time>2026-04-19T09:49:47Z</time></trkpt><trkpt lat="40.02655552306891" lon="15.89635157226996"><ele>778.0</ele><time>2026-04-19T09:49:48Z</time></trkpt><trkpt lat="40.026415339527894" lon="15.896327027966114"><ele>775.5</ele><time>2026-04-19T09:49:49Z</time></trkpt><trkpt lat="40.02628910643618" lon="15.896303071698417"><ele>773.0</ele><time>2026-04-19T09:49:50Z</time></trkpt><trkpt lat="40.026171104594475" lon="15.896285692500456"><ele>773.0</ele><time>2026-04-19T09:49:51Z</time></trkpt><trkpt lat="40.026053725532904" lon="15.896242774942662"><ele>773.0</ele><time>2026-04-19T09:49:52Z</time></trkpt><trkpt lat="40.02593929869717" lon="15.896222193338403"><ele>773.0</ele><time>2026-04-19T09:49:53Z</time></trkpt><trkpt lat="40.025821300515354" lon="15.896206689255232"><ele>773.0</ele><time>2026-04-19T09:49:54Z</time></trkpt><trkpt lat="40.0256971944677" lon="15.896205533200733"><ele>772.75</ele><time>2026-04-19T09:49:55Z</time></trkpt><trkpt lat="40.02556240896693" lon="15.896238588697909"><ele>772.5</ele><time>2026-04-19T09:49:56Z</time></trkpt><trkpt lat="40.025426867520785" lon="15.89629459755269"><ele>772.25</ele><time>2026-04-19T09:49:57Z</time></trkpt><trkpt lat="40.0252866741791" lon="15.896370386961651"><ele>772.0</ele><time>2026-04-19T09:49:58Z</time></trkpt><trkpt lat="40.025145698210984" lon="15.89646026200305"><ele>772.0</ele><time>2026-04-19T09:49:59Z</time></trkpt><trkpt lat="40.02499373336828" lon="15.896556377257246"><ele>772.0</ele><time>2026-04-19T09:50:00Z</time></trkpt><trkpt lat="40.02485842557412" lon="15.896654442926826"><ele>772.0</ele><time>2026-04-19T09:50:01Z</time></trkpt><trkpt lat="40.02471216824057" lon="15.896748145592703"><ele>768.25</ele><time>2026-04-19T09:50:02Z</time></trkpt><trkpt lat="40.024593841249526" lon="15.896831759920937"><ele>764.5</ele><time>2026-04-19T09:50:03Z</time></trkpt><trkpt lat="40.0244702784887" lon="15.896908431580288"><ele>760.75</ele><time>2026-04-19T09:50:04Z</time></trkpt><trkpt lat="40.024347989448465" lon="15.896983785751367"><ele>757.0</ele><time>2026-04-19T09:50:05Z</time></trkpt><trkpt lat="40.024219127542416" lon="15.897024581717428"><ele>757.0</ele><time>2026-04-19T09:50:06Z</time></trkpt><trkpt lat="40.02411612156878" lon="15.897114479059873"><ele>757.0</ele><time>2026-04-19T09:50:06.999Z</time></trkpt><trkpt lat="40.02400585931609" lon="15.897178428703704"><ele>757.0</ele><time>2026-04-19T09:50:07.999Z</time></trkpt><trkpt lat="40.02390624534255" lon="15.897243366336596"><ele>757.0</ele><time>2026-04-19T09:50:08.999Z</time></trkpt><trkpt lat="40.02380425067352" lon="15.897290362986265"><ele>757.0</ele><time>2026-04-19T09:50:09.999Z</time></trkpt><trkpt lat="40.02368300787817" lon="15.897317718406821"><ele>757.0</ele><time>2026-04-19T09:50:10.999Z</time></trkpt><trkpt lat="40.02356315830845" lon="15.897296412048375"><ele>757.0</ele><time>2026-04-19T09:50:11.999Z</time></trkpt><trkpt lat="40.023442295707845" lon="15.897312708738637"><ele>757.0</ele><time>2026-04-19T09:50:12.999Z</time></trkpt><trkpt lat="40.02333060304994" lon="15.897368294428647"><ele>756.25</ele><time>2026-04-19T09:50:13.999Z</time></trkpt><trkpt lat="40.02321508690277" lon="15.897400332443139"><ele>755.5</ele><time>2026-04-19T09:50:14.999Z</time></trkpt><trkpt lat="40.023090385691255" lon="15.89744048739085"><ele>754.75</ele><time>2026-04-19T09:50:15.999Z</time></trkpt><trkpt lat="40.02297927032676" lon="15.897484744215179"><ele>754.0</ele><time>2026-04-19T09:50:16.999Z</time></trkpt><trkpt lat="40.02286422165417" lon="15.897526195131048"><ele>754.0</ele><time>2026-04-19T09:50:17.999Z</time></trkpt><trkpt lat="40.022751378771915" lon="15.897563661630166"><ele>754.0</ele><time>2026-04-19T09:50:18.999Z</time></trkpt><trkpt lat="40.0226419607297" lon="15.897601601945986"><ele>754.0</ele><time>2026-04-19T09:50:19.999Z</time></trkpt><trkpt lat="40.02254437146432" lon="15.89764925277978"><ele>754.0</ele><time>2026-04-19T09:50:20.999Z</time></trkpt><trkpt lat="40.02244460724053" lon="15.897699764614172"><ele>754.0</ele><time>2026-04-19T09:50:21.999Z</time></trkpt><trkpt lat="40.02233611485032" lon="15.897752216235236"><ele>752.0</ele><time>2026-04-19T09:50:22.999Z</time></trkpt><trkpt lat="40.02222799680047" lon="15.897787628262163"><ele>750.0</ele><time>2026-04-19T09:50:23.999Z</time></trkpt><trkpt lat="40.02211479193682" lon="15.897790961866647"><ele>748.0</ele><time>2026-04-19T09:50:24.999Z</time></trkpt><trkpt lat="40.02198555657997" lon="15.897775092289201"><ele>746.0</ele><time>2026-04-19T09:50:25.999Z</time></trkpt><trkpt lat="40.021865543246385" lon="15.897747969024026"><ele>746.0</ele><time>2026-04-19T09:50:26.999Z</time></trkpt><trkpt lat="40.021723533831725" lon="15.897718235038166"><ele>746.0</ele><time>2026-04-19T09:50:27.999Z</time></trkpt><trkpt lat="40.021599480690995" lon="15.897684824728486"><ele>746.0</ele><time>2026-04-19T09:50:28.999Z</time></trkpt><trkpt lat="40.02149164310302" lon="15.897650665806683"><ele>746.0</ele><time>2026-04-19T09:50:29.999Z</time></trkpt><trkpt lat="40.02139156246781" lon="15.89760616222496"><ele>745.5</ele><time>2026-04-19T09:50:30.999Z</time></trkpt><trkpt lat="40.021319562917476" lon="15.89754787122166"><ele>745.0</ele><time>2026-04-19T09:50:31.999Z</time></trkpt><trkpt lat="40.021264539816" lon="15.89747513016417"><ele>744.5</ele><time>2026-04-19T09:50:32.999Z</time></trkpt><trkpt lat="40.0212113549701" lon="15.897384544479152"><ele>744.0</ele><time>2026-04-19T09:50:33.999Z</time></trkpt><trkpt lat="40.02117288679671" lon="15.897286337303727"><ele>743.5</ele><time>2026-04-19T09:50:34.999Z</time></trkpt><trkpt lat="40.021156391598296" lon="15.897190142670619"><ele>743.0</ele><time>2026-04-19T09:50:35.999Z</time></trkpt><trkpt lat="40.021103408531566" lon="15.897127440783173"><ele>743.0</ele><time>2026-04-19T09:50:36.999Z</time></trkpt><trkpt lat="40.021055852103125" lon="15.897045162511878"><ele>743.0</ele><time>2026-04-19T09:50:37.999Z</time></trkpt><trkpt lat="40.020992246165775" lon="15.897001322712365"><ele>743.0</ele><time>2026-04-19T09:50:38.999Z</time></trkpt><trkpt lat="40.02097501774088" lon="15.896873187923607"><ele>743.0</ele><time>2026-04-19T09:50:39.999Z</time></trkpt><trkpt lat="40.02092148354117" lon="15.89678616875329"><ele>743.0</ele><time>2026-04-19T09:50:40.999Z</time></trkpt><trkpt lat="40.02085539589804" lon="15.896741109654197"><ele>743.0</ele><time>2026-04-19T09:50:41.999Z</time></trkpt><trkpt lat="40.02078550344185" lon="15.896763604963267"><ele>742.4</ele><time>2026-04-19T09:50:42.999Z</time></trkpt><trkpt lat="40.02073263633122" lon="15.896830706200502"><ele>741.8</ele><time>2026-04-19T09:50:43.999Z</time></trkpt><trkpt lat="40.02070864245325" lon="15.896939228211396"><ele>741.2</ele><time>2026-04-19T09:50:44.999Z</time></trkpt><trkpt lat="40.02071552809902" lon="15.89706683189535"><ele>740.6</ele><time>2026-04-19T09:50:45.999Z</time></trkpt><trkpt lat="40.02074632949051" lon="15.89721938555298"><ele>740.0</ele><time>2026-04-19T09:50:46.999Z</time></trkpt><trkpt lat="40.02075477028973" lon="15.897377960153484"><ele>740.0</ele><time>2026-04-19T09:50:47.999Z</time></trkpt><trkpt lat="40.02071111927703" lon="15.897541703718467"><ele>740.0</ele><time>2026-04-19T09:50:49Z</time></trkpt><trkpt lat="40.02068851289537" lon="15.897732817520096"><ele>740.0</ele><time>2026-04-19T09:50:50Z</time></trkpt><trkpt lat="40.020646566226766" lon="15.89792301840638"><ele>740.0</ele><time>2026-04-19T09:50:51Z</time></trkpt><trkpt lat="40.02060696241071" lon="15.89810606002372"><ele>741.25</ele><time>2026-04-19T09:50:52Z</time></trkpt><trkpt lat="40.02057436262006" lon="15.8982799228077"><ele>742.5</ele><time>2026-04-19T09:50:53Z</time></trkpt><trkpt lat="40.02053986095159" lon="15.898463629619316"><ele>743.75</ele><time>2026-04-19T09:50:54Z</time></trkpt><trkpt lat="40.02050294374896" lon="15.898648143075704"><ele>745.0</ele><time>2026-04-19T09:50:55Z</time></trkpt><trkpt lat="40.02046568451772" lon="15.898846016297673"><ele>746.0</ele><time>2026-04-19T09:50:56Z</time></trkpt><trkpt lat="40.02043001499568" lon="15.899053051560907"><ele>747.0</ele><time>2026-04-19T09:50:57Z</time></trkpt><trkpt lat="40.02039231213464" lon="15.89927017261292"><ele>748.0</ele><time>2026-04-19T09:50:58Z</time></trkpt><trkpt lat="40.020357993166265" lon="15.899495992029983"><ele>749.6666666666667</ele><time>2026-04-19T09:50:59Z</time></trkpt><trkpt lat="40.02032253740209" lon="15.899717705885978"><ele>751.3333333333334</ele><time>2026-04-19T09:51:00Z</time></trkpt><trkpt lat="40.02028490631469" lon="15.899934627363015"><ele>753.0</ele><time>2026-04-19T09:51:01Z</time></trkpt><trkpt lat="40.02025284323723" lon="15.900148798108287"><ele>754.6666666666666</ele><time>2026-04-19T09:51:02Z</time></trkpt><trkpt lat="40.02022159202956" lon="15.900366430601816"><ele>756.3333333333333</ele><time>2026-04-19T09:51:03Z</time></trkpt><trkpt lat="40.020185949949536" lon="15.90058463070503"><ele>758.0</ele><time>2026-04-19T09:51:04Z</time></trkpt><trkpt lat="40.0201481580123" lon="15.900802782060058"><ele>759.3333333333333</ele><time>2026-04-19T09:51:05Z</time></trkpt><trkpt lat="40.020107830394565" lon="15.901020918577531"><ele>760.6666666666666</ele><time>2026-04-19T09:51:06Z</time></trkpt><trkpt lat="40.02006870434372" lon="15.901237378728785"><ele>762.0</ele><time>2026-04-19T09:51:07Z</time></trkpt><trkpt lat="40.02003146133798" lon="15.901450893837445"><ele>762.0</ele><time>2026-04-19T09:51:08Z</time></trkpt><trkpt lat="40.01999620671346" lon="15.901663456952134"><ele>762.0</ele><time>2026-04-19T09:51:09Z</time></trkpt><trkpt lat="40.01996068222236" lon="15.90187279139851"><ele>762.0</ele><time>2026-04-19T09:51:10Z</time></trkpt><trkpt lat="40.01993078919736" lon="15.902081883558438"><ele>762.3333333333334</ele><time>2026-04-19T09:51:11Z</time></trkpt><trkpt lat="40.01989694919459" lon="15.902303230961428"><ele>762.6666666666667</ele><time>2026-04-19T09:51:12Z</time></trkpt><trkpt lat="40.01986269285927" lon="15.902518431970089"><ele>763.0</ele><time>2026-04-19T09:51:13Z</time></trkpt><trkpt lat="40.0198304707762" lon="15.902733542406143"><ele>765.0</ele><time>2026-04-19T09:51:14Z</time></trkpt><trkpt lat="40.019796487547666" lon="15.902948379983018"><ele>767.0</ele><time>2026-04-19T09:51:15Z</time></trkpt><trkpt lat="40.01976372106888" lon="15.903161787118043"><ele>769.0</ele><time>2026-04-19T09:51:16Z</time></trkpt><trkpt lat="40.019731451412085" lon="15.903372125694204"><ele>770.3333333333333</ele><time>2026-04-19T09:51:17Z</time></trkpt><trkpt lat="40.01969913817827" lon="15.903574713837516"><ele>771.6666666666667</ele><time>2026-04-19T09:51:18Z</time></trkpt><trkpt lat="40.01966593026634" lon="15.903782707792626"><ele>773.0</ele><time>2026-04-19T09:51:19Z</time></trkpt><trkpt lat="40.01963197376234" lon="15.903995339713441"><ele>773.0</ele><time>2026-04-19T09:51:20Z</time></trkpt><trkpt lat="40.019597962502786" lon="15.904212088621785"><ele>773.0</ele><time>2026-04-19T09:51:21Z</time></trkpt><trkpt lat="40.019562382946695" lon="15.9044255086228"><ele>773.0</ele><time>2026-04-19T09:51:22Z</time></trkpt><trkpt lat="40.01952418613975" lon="15.904641665998655"><ele>774.0</ele><time>2026-04-19T09:51:23Z</time></trkpt><trkpt lat="40.01948786038397" lon="15.904851807092985"><ele>775.0</ele><time>2026-04-19T09:51:24Z</time></trkpt><trkpt lat="40.019448616906864" lon="15.90505518495278"><ele>776.0</ele><time>2026-04-19T09:51:25Z</time></trkpt><trkpt lat="40.01940761791526" lon="15.905262474921996"><ele>776.6666666666667</ele><time>2026-04-19T09:51:26Z</time></trkpt><trkpt lat="40.01936763316788" lon="15.905479740024001"><ele>777.3333333333333</ele><time>2026-04-19T09:51:27Z</time></trkpt><trkpt lat="40.0193245516886" lon="15.905691915203608"><ele>778.0</ele><time>2026-04-19T09:51:28Z</time></trkpt><trkpt lat="40.01928351032674" lon="15.905890432459726"><ele>777.75</ele><time>2026-04-19T09:51:29Z</time></trkpt><trkpt lat="40.0192434471417" lon="15.90608993652646"><ele>777.5</ele><time>2026-04-19T09:51:30Z</time></trkpt><trkpt lat="40.01920300353384" lon="15.906277575530217"><ele>777.25</ele><time>2026-04-19T09:51:31Z</time></trkpt><trkpt lat="40.01916358736773" lon="15.906451415097921"><ele>777.0</ele><time>2026-04-19T09:51:32Z</time></trkpt><trkpt lat="40.01912879547757" lon="15.906610383174359"><ele>777.6</ele><time>2026-04-19T09:51:33Z</time></trkpt><trkpt lat="40.01909416632893" lon="15.90676511923896"><ele>778.2</ele><time>2026-04-19T09:51:34Z</time></trkpt><trkpt lat="40.019064533709695" lon="15.90690916814558"><ele>778.8</ele><time>2026-04-19T09:51:35Z</time></trkpt><trkpt lat="40.01903757481836" lon="15.90704231596695"><ele>779.4</ele><time>2026-04-19T09:51:36Z</time></trkpt><trkpt lat="40.019008827035236" lon="15.907172328312825"><ele>780.0</ele><time>2026-04-19T09:51:37Z</time></trkpt><trkpt lat="40.01898733868872" lon="15.907286974136268"><ele>780.0</ele><time>2026-04-19T09:51:38Z</time></trkpt><trkpt lat="40.01896145957129" lon="15.907397319155317"><ele>780.0</ele><time>2026-04-19T09:51:39Z</time></trkpt><trkpt lat="40.01892665692413" lon="15.907493166171509"><ele>780.0</ele><time>2026-04-19T09:51:40Z</time></trkpt><trkpt lat="40.01887582780749" lon="15.907565286582011"><ele>780.0</ele><time>2026-04-19T09:51:41Z</time></trkpt><trkpt lat="40.01884025730745" lon="15.90766499413278"><ele>780.0</ele><time>2026-04-19T09:51:42Z</time></trkpt><trkpt lat="40.01882649492817" lon="15.907786294199537"><ele>780.0</ele><time>2026-04-19T09:51:43Z</time></trkpt><trkpt lat="40.01879919336301" lon="15.9078932293499"><ele>780.4</ele><time>2026-04-19T09:51:44Z</time></trkpt><trkpt lat="40.01878207391109" lon="15.908008383402317"><ele>780.8</ele><time>2026-04-19T09:51:45Z</time></trkpt><trkpt lat="40.01876674812818" lon="15.908139730380203"><ele>781.2</ele><time>2026-04-19T09:51:46Z</time></trkpt><trkpt lat="40.018779529089954" lon="15.908284811346233"><ele>781.6</ele><time>2026-04-19T09:51:47Z</time></trkpt><trkpt lat="40.01876608403933" lon="15.908437795246213"><ele>782.0</ele><time>2026-04-19T09:51:48Z</time></trkpt><trkpt lat="40.01875792708805" lon="15.908559620496009"><ele>782.7142857142857</ele><time>2026-04-19T09:51:49Z</time></trkpt><trkpt lat="40.018751472343986" lon="15.908656022939939"><ele>783.4285714285714</ele><time>2026-04-19T09:51:50Z</time></trkpt><trkpt lat="40.01874643420848" lon="15.908740604355884"><ele>784.1428571428571</ele><time>2026-04-19T09:51:51Z</time></trkpt><trkpt lat="40.01874156417898" lon="15.908824596471765"><ele>784.8571428571429</ele><time>2026-04-19T09:51:52Z</time></trkpt><trkpt lat="40.01873638693855" lon="15.908913886855466"><ele>785.5714285714286</ele><time>2026-04-19T09:51:55Z</time></trkpt><trkpt lat="40.01872118374138" lon="15.908994644962975"><ele>786.2857142857142</ele><time>2026-04-19T09:52:00Z</time></trkpt><trkpt lat="40.01872746708529" lon="15.909094369105345"><ele>787.0</ele><time>2026-04-19T09:52:03Z</time></trkpt><trkpt lat="40.018582183033416" lon="15.909202350403188"><ele>787.8</ele><time>2026-04-19T09:52:06Z</time></trkpt><trkpt lat="40.01856073074925" lon="15.909309612678845"><ele>788.6</ele><time>2026-04-19T09:52:08Z</time></trkpt><trkpt lat="40.018532229664316" lon="15.909440114064912"><ele>789.4</ele><time>2026-04-19T09:52:10Z</time></trkpt><trkpt lat="40.018505471966755" lon="15.909579375190196"><ele>790.1999999999999</ele><time>2026-04-19T09:52:11.999Z</time></trkpt><trkpt lat="40.0184679204915" lon="15.909724238089128"><ele>791.0</ele><time>2026-04-19T09:52:13.999Z</time></trkpt><trkpt lat="40.01843075926066" lon="15.909835532670908"><ele>791.0</ele><time>2026-04-19T09:52:14.999Z</time></trkpt><trkpt lat="40.018393956635876" lon="15.909937400252488"><ele>791.0</ele><time>2026-04-19T09:52:15.999Z</time></trkpt><trkpt lat="40.01836547326821" lon="15.910049413056607"><ele>791.0</ele><time>2026-04-19T09:52:16.999Z</time></trkpt><trkpt lat="40.018344976842705" lon="15.910179306378145"><ele>791.0</ele><time>2026-04-19T09:52:17.999Z</time></trkpt><trkpt lat="40.01833879646123" lon="15.910322925096558"><ele>791.0</ele><time>2026-04-19T09:52:18.999Z</time></trkpt><trkpt lat="40.018334534955876" lon="15.910470502200488"><ele>790.25</ele><time>2026-04-19T09:52:19.999Z</time></trkpt><trkpt lat="40.01831065957171" lon="15.910616955208805"><ele>789.5</ele><time>2026-04-19T09:52:20.999Z</time></trkpt><trkpt lat="40.01827954156042" lon="15.910766845360987"><ele>788.75</ele><time>2026-04-19T09:52:21.999Z</time></trkpt><trkpt lat="40.01825706855724" lon="15.910920647041642"><ele>788.0</ele><time>2026-04-19T09:52:22.999Z</time></trkpt><trkpt lat="40.01824012509418" lon="15.91107550034643"><ele>789.2</ele><time>2026-04-19T09:52:23.999Z</time></trkpt><trkpt lat="40.01822563428855" lon="15.91122845929961"><ele>790.4</ele><time>2026-04-19T09:52:24.999Z</time></trkpt><trkpt lat="40.018211213155745" lon="15.91136080896575"><ele>791.6</ele><time>2026-04-19T09:52:25.999Z</time></trkpt><trkpt lat="40.01819598691956" lon="15.911487066415454"><ele>792.8000000000001</ele><time>2026-04-19T09:52:26.999Z</time></trkpt><trkpt lat="40.01817645639436" lon="15.91161131864141"><ele>794.0</ele><time>2026-04-19T09:52:27.999Z</time></trkpt><trkpt lat="40.01815660537408" lon="15.911732636542986"><ele>794.2</ele><time>2026-04-19T09:52:28.999Z</time></trkpt><trkpt lat="40.018138827899165" lon="15.911864937937091"><ele>794.4000000000001</ele><time>2026-04-19T09:52:29.999Z</time></trkpt><trkpt lat="40.01812069442155" lon="15.912018476603285"><ele>794.6</ele><time>2026-04-19T09:52:30.999Z</time></trkpt><trkpt lat="40.018114777968044" lon="15.912157971927078"><ele>794.8</ele><time>2026-04-19T09:52:31.999Z</time></trkpt><trkpt lat="40.01810196564205" lon="15.912307974320997"><ele>795.0</ele><time>2026-04-19T09:52:32.999Z</time></trkpt><trkpt lat="40.018090208792664" lon="15.91246294955889"><ele>795.5</ele><time>2026-04-19T09:52:33.999Z</time></trkpt><trkpt lat="40.01807026876879" lon="15.912622165802421"><ele>796.0</ele><time>2026-04-19T09:52:34.999Z</time></trkpt><trkpt lat="40.01804544281992" lon="15.912774354548528"><ele>796.5</ele><time>2026-04-19T09:52:35.999Z</time></trkpt><trkpt lat="40.01802528009822" lon="15.91293015177089"><ele>797.0</ele><time>2026-04-19T09:52:36.999Z</time></trkpt><trkpt lat="40.01800749813914" lon="15.913075097819595"><ele>797.0</ele><time>2026-04-19T09:52:37.999Z</time></trkpt><trkpt lat="40.017991389166546" lon="15.913214064092937"><ele>797.0</ele><time>2026-04-19T09:52:38.999Z</time></trkpt><trkpt lat="40.01797501817937" lon="15.913360696953697"><ele>797.0</ele><time>2026-04-19T09:52:39.999Z</time></trkpt><trkpt lat="40.017961135760494" lon="15.913509340790668"><ele>797.0</ele><time>2026-04-19T09:52:40.999Z</time></trkpt><trkpt lat="40.01794113635633" lon="15.913666308946228"><ele>798.0</ele><time>2026-04-19T09:52:41.999Z</time></trkpt><trkpt lat="40.01792498778421" lon="15.913819105749145"><ele>799.0</ele><time>2026-04-19T09:52:42.999Z</time></trkpt><trkpt lat="40.017908224263074" lon="15.913959019220826"><ele>800.0</ele><time>2026-04-19T09:52:43.999Z</time></trkpt><trkpt lat="40.017891344018686" lon="15.91410516166936"><ele>801.0</ele><time>2026-04-19T09:52:44.999Z</time></trkpt><trkpt lat="40.01787473543299" lon="15.914248683294655"><ele>802.0</ele><time>2026-04-19T09:52:45.999Z</time></trkpt><trkpt lat="40.01786754947636" lon="15.91439778964687"><ele>803.0</ele><time>2026-04-19T09:52:46.999Z</time></trkpt><trkpt lat="40.017858416561594" lon="15.914533785674822"><ele>804.0</ele><time>2026-04-19T09:52:47.999Z</time></trkpt><trkpt lat="40.01784955317538" lon="15.914650687075396"><ele>805.0</ele><time>2026-04-19T09:52:48.999Z</time></trkpt><trkpt lat="40.01784954895579" lon="15.914773599094556"><ele>806.0</ele><time>2026-04-19T09:52:49.999Z</time></trkpt><trkpt lat="40.01785531834365" lon="15.914899919049684"><ele>806.0</ele><time>2026-04-19T09:52:51.999Z</time></trkpt><trkpt lat="40.01794079340084" lon="15.914938271838109"><ele>806.0</ele><time>2026-04-19T09:52:55Z</time></trkpt><trkpt lat="40.01800454741198" lon="15.914930700842541"><ele>806.0</ele><time>2026-04-19T09:52:56Z</time></trkpt><trkpt lat="40.01807050576961" lon="15.914938485141347"><ele>806.0</ele><time>2026-04-19T09:52:57Z</time></trkpt><trkpt lat="40.01813745576512" lon="15.914960211755593"><ele>806.0</ele><time>2026-04-19T09:52:58Z</time></trkpt><trkpt lat="40.01820752915053" lon="15.914988190568648"><ele>806.0</ele><time>2026-04-19T09:52:59Z</time></trkpt><trkpt lat="40.01828539419267" lon="15.915021682715098"><ele>806.0</ele><time>2026-04-19T09:53:00Z</time></trkpt><trkpt lat="40.01836027473162" lon="15.915051949699555"><ele>808.1999999999999</ele><time>2026-04-19T09:53:01Z</time></trkpt><trkpt lat="40.01843764130959" lon="15.91507903865879"><ele>810.4</ele><time>2026-04-19T09:53:02Z</time></trkpt><trkpt lat="40.018524278458415" lon="15.915109546331337"><ele>812.6</ele><time>2026-04-19T09:53:04Z</time></trkpt><trkpt lat="40.01856312761441" lon="15.915224923365306"><ele>814.8</ele><time>2026-04-19T09:53:07Z</time></trkpt><trkpt lat="40.01856460984114" lon="15.915317942464048"><ele>817.0</ele><time>2026-04-19T09:53:08Z</time></trkpt><trkpt lat="40.018547643189905" lon="15.915553976683901"><ele>817.0</ele><time>2026-04-19T09:53:10Z</time></trkpt><trkpt lat="40.01854959165208" lon="15.915714739600107"><ele>817.0</ele><time>2026-04-19T09:53:11Z</time></trkpt><trkpt lat="40.018551434752645" lon="15.915854938782074"><ele>817.0</ele><time>2026-04-19T09:53:12Z</time></trkpt><trkpt lat="40.0185613074416" lon="15.9159878033889"><ele>817.0</ele><time>2026-04-19T09:53:13Z</time></trkpt><trkpt lat="40.01857678444392" lon="15.916109035632452"><ele>817.0</ele><time>2026-04-19T09:53:14Z</time></trkpt><trkpt lat="40.018598861028686" lon="15.916227954919044"><ele>817.25</ele><time>2026-04-19T09:53:15Z</time></trkpt><trkpt lat="40.018606859210905" lon="15.91637458577401"><ele>817.5</ele><time>2026-04-19T09:53:16Z</time></trkpt><trkpt lat="40.018522314159725" lon="15.916564186255084"><ele>817.75</ele><time>2026-04-19T09:53:17Z</time></trkpt><trkpt lat="40.018517720235714" lon="15.916693257925385"><ele>818.0</ele><time>2026-04-19T09:53:18Z</time></trkpt><trkpt lat="40.018500109400634" lon="15.916796549493814"><ele>818.0000000000001</ele><time>2026-04-19T09:53:19Z</time></trkpt><trkpt lat="40.01848305411348" lon="15.916881610000875"><ele>818.0</ele><time>2026-04-19T09:53:20Z</time></trkpt><trkpt lat="40.01856558464518" lon="15.91690816538738"><ele>818.0</ele><time>2026-04-19T09:53:21Z</time></trkpt><trkpt lat="40.01858438196272" lon="15.917038547428962"><ele>818.0</ele><time>2026-04-19T09:53:22Z</time></trkpt><trkpt lat="40.0185564676999" lon="15.91713984339969"><ele>818.0000000000001</ele><time>2026-04-19T09:53:23Z</time></trkpt><trkpt lat="40.01852675104109" lon="15.917257948988807"><ele>818.0</ele><time>2026-04-19T09:53:24Z</time></trkpt><trkpt lat="40.018508543415166" lon="15.917424606371828"><ele>817.6666666666667</ele><time>2026-04-19T09:53:25Z</time></trkpt><trkpt lat="40.01848443762152" lon="15.917731572396766"><ele>817.3333333333333</ele><time>2026-04-19T09:53:26Z</time></trkpt><trkpt lat="40.018474569274154" lon="15.917893677733202"><ele>817.0</ele><time>2026-04-19T09:53:27Z</time></trkpt><trkpt lat="40.01845052006944" lon="15.918041897534282"><ele>817.0</ele><time>2026-04-19T09:53:28Z</time></trkpt><trkpt lat="40.01843435849913" lon="15.918172337378815"><ele>817.0</ele><time>2026-04-19T09:53:29Z</time></trkpt><trkpt lat="40.01842507778123" lon="15.918298671841825"><ele>817.0</ele><time>2026-04-19T09:53:30Z</time></trkpt><trkpt lat="40.01842574076358" lon="15.918421127440908"><ele>817.0</ele><time>2026-04-19T09:53:31Z</time></trkpt><trkpt lat="40.01842937426366" lon="15.918530651326044"><ele>817.0</ele><time>2026-04-19T09:53:32Z</time></trkpt><trkpt lat="40.01842835777099" lon="15.918628671372268"><ele>816.8333333333333</ele><time>2026-04-19T09:53:33Z</time></trkpt><trkpt lat="40.01843207095072" lon="15.918750605746006"><ele>816.6666666666666</ele><time>2026-04-19T09:53:34Z</time></trkpt><trkpt lat="40.01846659544022" lon="15.918871595083429"><ele>816.5</ele><time>2026-04-19T09:53:35Z</time></trkpt><trkpt lat="40.018500732879396" lon="15.918984736166697"><ele>816.3333333333333</ele><time>2026-04-19T09:53:36Z</time></trkpt><trkpt lat="40.01852646764178" lon="15.919095606583278"><ele>816.1666666666666</ele><time>2026-04-19T09:53:37Z</time></trkpt><trkpt lat="40.018535836177264" lon="15.919186450957076"><ele>816.0</ele><time>2026-04-19T09:53:38Z</time></trkpt><trkpt lat="40.01849119021145" lon="15.919307591051224"><ele>816.3333333333334</ele><time>2026-04-19T09:53:40Z</time></trkpt><trkpt lat="40.01843254044618" lon="15.91934496695129"><ele>816.6666666666667</ele><time>2026-04-19T09:53:41Z</time></trkpt><trkpt lat="40.01835666044196" lon="15.91935488806843"><ele>817.0</ele><time>2026-04-19T09:53:42Z</time></trkpt><trkpt lat="40.01826962110098" lon="15.919360259549972"><ele>817.3333333333334</ele><time>2026-04-19T09:53:43Z</time></trkpt><trkpt lat="40.01820393237604" lon="15.91939321046722"><ele>817.6666666666667</ele><time>2026-04-19T09:53:44Z</time></trkpt><trkpt lat="40.0181812557407" lon="15.91952912055648"><ele>818.0</ele><time>2026-04-19T09:53:46Z</time></trkpt><trkpt lat="40.01820639713296" lon="15.919658991150694"><ele>819.0</ele><time>2026-04-19T09:53:48Z</time></trkpt><trkpt lat="40.018236622724054" lon="15.919843667139062"><ele>820.0</ele><time>2026-04-19T09:53:50Z</time></trkpt><trkpt lat="40.018273987703" lon="15.919965264873248"><ele>821.0</ele><time>2026-04-19T09:53:51Z</time></trkpt><trkpt lat="40.01831639136281" lon="15.920092490439893"><ele>822.0</ele><time>2026-04-19T09:53:52Z</time></trkpt><trkpt lat="40.018350627203155" lon="15.920254643870562"><ele>822.6</ele><time>2026-04-19T09:53:53Z</time></trkpt><trkpt lat="40.01838788345725" lon="15.92039969992288"><ele>823.2</ele><time>2026-04-19T09:53:54Z</time></trkpt><trkpt lat="40.01843490239433" lon="15.920509411773354"><ele>823.8</ele><time>2026-04-19T09:53:55Z</time></trkpt><trkpt lat="40.018450268322475" lon="15.920633535157988"><ele>824.4</ele><time>2026-04-19T09:53:56Z</time></trkpt><trkpt lat="40.01845405751607" lon="15.920769767400607"><ele>825.0</ele><time>2026-04-19T09:53:57Z</time></trkpt><trkpt lat="40.01846554493328" lon="15.920912974546034"><ele>826.5</ele><time>2026-04-19T09:53:58Z</time></trkpt><trkpt lat="40.018474225447854" lon="15.921021189926652"><ele>828.0</ele><time>2026-04-19T09:53:59Z</time></trkpt><trkpt lat="40.01848366094851" lon="15.921108760245573"><ele>829.5</ele><time>2026-04-19T09:54:00Z</time></trkpt><trkpt lat="40.01850051859822" lon="15.921201385830406"><ele>831.0</ele><time>2026-04-19T09:54:01Z</time></trkpt><trkpt lat="40.01852980530839" lon="15.92131426187608"><ele>832.5</ele><time>2026-04-19T09:54:02Z</time></trkpt><trkpt lat="40.018567639350934" lon="15.921421916266521"><ele>834.0</ele><time>2026-04-19T09:54:03Z</time></trkpt><trkpt lat="40.01860513154591" lon="15.921512450019337"><ele>834.0</ele><time>2026-04-19T09:54:04Z</time></trkpt><trkpt lat="40.01865054206683" lon="15.921617489213236"><ele>834.0</ele><time>2026-04-19T09:54:05Z</time></trkpt><trkpt lat="40.01871907033828" lon="15.921711298197101"><ele>834.0</ele><time>2026-04-19T09:54:06Z</time></trkpt><trkpt lat="40.01873858644168" lon="15.921796015027171"><ele>834.0</ele><time>2026-04-19T09:54:07Z</time></trkpt><trkpt lat="40.01875660518502" lon="15.921957525067125"><ele>834.0</ele><time>2026-04-19T09:54:09Z</time></trkpt><trkpt lat="40.018736033774644" lon="15.922064167063175"><ele>835.1666666666666</ele><time>2026-04-19T09:54:10Z</time></trkpt><trkpt lat="40.01869791146995" lon="15.922174557988706"><ele>836.3333333333333</ele><time>2026-04-19T09:54:11Z</time></trkpt><trkpt lat="40.01865516841433" lon="15.922263949589992"><ele>837.5</ele><time>2026-04-19T09:54:12Z</time></trkpt><trkpt lat="40.018637368267555" lon="15.922396133280012"><ele>838.6666666666666</ele><time>2026-04-19T09:54:14Z</time></trkpt><trkpt lat="40.018608905348074" lon="15.922481993979169"><ele>839.8333333333333</ele><time>2026-04-19T09:54:15Z</time></trkpt><trkpt lat="40.018581769099775" lon="15.922573495735096"><ele>841.0</ele><time>2026-04-19T09:54:15.999Z</time></trkpt><trkpt lat="40.018550973181895" lon="15.922659795878818"><ele>841.4</ele><time>2026-04-19T09:54:16.999Z</time></trkpt><trkpt lat="40.01851141789093" lon="15.92276263473476"><ele>841.8</ele><time>2026-04-19T09:54:17.999Z</time></trkpt><trkpt lat="40.01846057460889" lon="15.922878695536632"><ele>842.1999999999999</ele><time>2026-04-19T09:54:18.999Z</time></trkpt><trkpt lat="40.018426722504906" lon="15.922981228299927"><ele>842.5999999999999</ele><time>2026-04-19T09:54:19.999Z</time></trkpt><trkpt lat="40.018387067591654" lon="15.923101420320624"><ele>843.0</ele><time>2026-04-19T09:54:20.999Z</time></trkpt><trkpt lat="40.01834580565296" lon="15.923249142076846"><ele>846.4</ele><time>2026-04-19T09:54:21.999Z</time></trkpt><trkpt lat="40.01831153117952" lon="15.923384219689702"><ele>849.8</ele><time>2026-04-19T09:54:22.999Z</time></trkpt><trkpt lat="40.018288298229834" lon="15.923523535253802"><ele>853.2</ele><time>2026-04-19T09:54:23.999Z</time></trkpt><trkpt lat="40.01826582192873" lon="15.923650191687884"><ele>856.6</ele><time>2026-04-19T09:54:24.999Z</time></trkpt><trkpt lat="40.01820318369473" lon="15.923749777798845"><ele>860.0</ele><time>2026-04-19T09:54:25.999Z</time></trkpt><trkpt lat="40.018176750208674" lon="15.923891156540574"><ele>860.0</ele><time>2026-04-19T09:54:26.999Z</time></trkpt><trkpt lat="40.01816616175248" lon="15.924033679296631"><ele>860.0</ele><time>2026-04-19T09:54:27.999Z</time></trkpt><trkpt lat="40.018161350960376" lon="15.924165983423453"><ele>860.0</ele><time>2026-04-19T09:54:28.999Z</time></trkpt><trkpt lat="40.01815422113283" lon="15.924298768364073"><ele>860.0</ele><time>2026-04-19T09:54:29.999Z</time></trkpt><trkpt lat="40.01812806377333" lon="15.924464029711991"><ele>860.0</ele><time>2026-04-19T09:54:30.999Z</time></trkpt><trkpt lat="40.018100635528555" lon="15.92465046038891"><ele>858.6666666666667</ele><time>2026-04-19T09:54:31.999Z</time></trkpt><trkpt lat="40.01805931089566" lon="15.924828290513254"><ele>857.3333333333333</ele><time>2026-04-19T09:54:32.999Z</time></trkpt><trkpt lat="40.018040886642105" lon="15.924997218131502"><ele>856.0</ele><time>2026-04-19T09:54:33.999Z</time></trkpt><trkpt lat="40.018299739950706" lon="15.925159957306834"><ele>853.5</ele><time>2026-04-19T09:54:34.999Z</time></trkpt><trkpt lat="40.01829988106081" lon="15.925326315818108"><ele>851.0</ele><time>2026-04-19T09:54:35.999Z</time></trkpt><trkpt lat="40.018300009304944" lon="15.925477514118732"><ele>848.5</ele><time>2026-04-19T09:54:36.999Z</time></trkpt><trkpt lat="40.01830013154321" lon="15.925621632315135"><ele>846.0</ele><time>2026-04-19T09:54:37.999Z</time></trkpt><trkpt lat="40.01830025386664" lon="15.925765838937398"><ele>844.0</ele><time>2026-04-19T09:54:38.999Z</time></trkpt><trkpt lat="40.01830048017471" lon="15.925900425788722"><ele>842.0</ele><time>2026-04-19T09:54:39.999Z</time></trkpt><trkpt lat="40.01830075206842" lon="15.926046307646102"><ele>840.0</ele><time>2026-04-19T09:54:40.999Z</time></trkpt><trkpt lat="40.018300981105824" lon="15.926169181643202"><ele>838.0</ele><time>2026-04-19T09:54:41.999Z</time></trkpt><trkpt lat="40.01830122033309" lon="15.926297524460646"><ele>836.0</ele><time>2026-04-19T09:54:42.999Z</time></trkpt><trkpt lat="40.01830042563692" lon="15.926450985252952"><ele>836.0</ele><time>2026-04-19T09:54:43.999Z</time></trkpt><trkpt lat="40.018299579833446" lon="15.926575785301528"><ele>836.0</ele><time>2026-04-19T09:54:44.999Z</time></trkpt><trkpt lat="40.01829635871938" lon="15.926720714177883"><ele>836.0</ele><time>2026-04-19T09:54:45.999Z</time></trkpt><trkpt lat="40.01829154974991" lon="15.926861476997885"><ele>836.0</ele><time>2026-04-19T09:54:46.999Z</time></trkpt><trkpt lat="40.0182593074832" lon="15.927128079542754"><ele>835.0</ele><time>2026-04-19T09:54:47.999Z</time></trkpt><trkpt lat="40.018200895187015" lon="15.92732691851689"><ele>834.0</ele><time>2026-04-19T09:54:48.999Z</time></trkpt><trkpt lat="40.01813708784385" lon="15.927492305472224"><ele>833.0</ele><time>2026-04-19T09:54:49.999Z</time></trkpt><trkpt lat="40.018095432798596" lon="15.927588864429058"><ele>832.0</ele><time>2026-04-19T09:54:50.999Z</time></trkpt><trkpt lat="40.018048373142896" lon="15.92769795181168"><ele>830.75</ele><time>2026-04-19T09:54:51.999Z</time></trkpt><trkpt lat="40.01796130633759" lon="15.927814581937161"><ele>829.5</ele><time>2026-04-19T09:54:52.999Z</time></trkpt><trkpt lat="40.017881598615496" lon="15.927912587081607"><ele>828.25</ele><time>2026-04-19T09:54:53.999Z</time></trkpt><trkpt lat="40.01779931863741" lon="15.928015968228015"><ele>827.0</ele><time>2026-04-19T09:54:54.999Z</time></trkpt><trkpt lat="40.01767644599838" lon="15.928134955789396"><ele>827.0</ele><time>2026-04-19T09:54:56.999Z</time></trkpt><trkpt lat="40.01760904294228" lon="15.928208416293323"><ele>827.0</ele><time>2026-04-19T09:54:57.999Z</time></trkpt><trkpt lat="40.01751721227337" lon="15.928261806976833"><ele>827.0</ele><time>2026-04-19T09:54:59.999Z</time></trkpt><trkpt lat="40.017454282099585" lon="15.928332577206005"><ele>827.0</ele><time>2026-04-19T09:55:01Z</time></trkpt><trkpt lat="40.017006316389946" lon="15.928252481161588"><ele>826.5000000000001</ele><time>2026-04-19T09:55:02Z</time></trkpt><trkpt lat="40.016971112887994" lon="15.928329079602134"><ele>826.0</ele><time>2026-04-19T09:55:03Z</time></trkpt><trkpt lat="40.01695247982089" lon="15.928408378193524"><ele>825.5</ele><time>2026-04-19T09:55:04Z</time></trkpt><trkpt lat="40.01693780005802" lon="15.928518405737394"><ele>825.0</ele><time>2026-04-19T09:55:06Z</time></trkpt><trkpt lat="40.01695782993923" lon="15.92862586752021"><ele>824.5000000000001</ele><time>2026-04-19T09:55:08Z</time></trkpt><trkpt lat="40.0170350225642" lon="15.928736732416334"><ele>824.0</ele><time>2026-04-19T09:55:10Z</time></trkpt><trkpt lat="40.01706338235652" lon="15.928815986526036"><ele>823.6</ele><time>2026-04-19T09:55:11Z</time></trkpt><trkpt lat="40.01715048225081" lon="15.928880308683684"><ele>823.2</ele><time>2026-04-19T09:55:13Z</time></trkpt><trkpt lat="40.017282897947446" lon="15.928850141204029"><ele>822.8000000000001</ele><time>2026-04-19T09:55:15Z</time></trkpt><trkpt lat="40.01736397084331" lon="15.928817437241564"><ele>822.4000000000001</ele><time>2026-04-19T09:55:16Z</time></trkpt><trkpt lat="40.017459275001954" lon="15.928803211633372"><ele>822.0</ele><time>2026-04-19T09:55:17Z</time></trkpt><trkpt lat="40.01757022096065" lon="15.928784130328618"><ele>822.0</ele><time>2026-04-19T09:55:18Z</time></trkpt><trkpt lat="40.017633721477495" lon="15.928780756317662"><ele>822.0</ele><time>2026-04-19T09:55:19Z</time></trkpt><trkpt lat="40.01775468881435" lon="15.928766090365002"><ele>822.0</ele><time>2026-04-19T09:55:21Z</time></trkpt><trkpt lat="40.01782128138465" lon="15.928727987157744"><ele>822.0</ele><time>2026-04-19T09:55:22Z</time></trkpt><trkpt lat="40.01788941092538" lon="15.928708182336601"><ele>822.0</ele><time>2026-04-19T09:55:24Z</time></trkpt><trkpt lat="40.01796623683426" lon="15.928700615939848"><ele>822.0</ele><time>2026-04-19T09:55:26Z</time></trkpt><trkpt lat="40.01808805413369" lon="15.928704983671441"><ele>822.0</ele><time>2026-04-19T09:55:28Z</time></trkpt><trkpt lat="40.01816944358219" lon="15.928725954860047"><ele>822.0</ele><time>2026-04-19T09:55:29Z</time></trkpt><trkpt lat="40.01825603253265" lon="15.928741147473126"><ele>822.0</ele><time>2026-04-19T09:55:30Z</time></trkpt><trkpt lat="40.01833002292378" lon="15.92876565493813"><ele>822.0</ele><time>2026-04-19T09:55:31Z</time></trkpt><trkpt lat="40.018431624030654" lon="15.928772661966038"><ele>822.0</ele><time>2026-04-19T09:55:33Z</time></trkpt><trkpt lat="40.01852359502732" lon="15.92879502895522"><ele>822.0</ele><time>2026-04-19T09:55:35Z</time></trkpt><trkpt lat="40.01860450824972" lon="15.928823017500779"><ele>824.0</ele><time>2026-04-19T09:55:37Z</time></trkpt><trkpt lat="40.018742707378564" lon="15.928518383363738"><ele>826.0</ele><time>2026-04-19T09:55:41Z</time></trkpt><trkpt lat="40.018780201405924" lon="15.928448001069434"><ele>828.0</ele><time>2026-04-19T09:55:43Z</time></trkpt><trkpt lat="40.01882852141195" lon="15.928373769279473"><ele>830.0</ele><time>2026-04-19T09:55:45Z</time></trkpt><trkpt lat="40.018901467263994" lon="15.928268633448354"><ele>831.0</ele><time>2026-04-19T09:55:47Z</time></trkpt><trkpt lat="40.018944196788205" lon="15.928159897801567"><ele>832.0</ele><time>2026-04-19T09:55:50Z</time></trkpt><trkpt lat="40.019000686235806" lon="15.92808240705673"><ele>833.0</ele><time>2026-04-19T09:55:54Z</time></trkpt><trkpt lat="40.01900324711394" lon="15.927958219975062"><ele>834.0</ele><time>2026-04-19T09:55:56Z</time></trkpt><trkpt lat="40.0191082270771" lon="15.927914114245025"><ele>835.0</ele><time>2026-04-19T09:55:57Z</time></trkpt><trkpt lat="40.01940734077036" lon="15.927556904857985"><ele>836.1666666666666</ele><time>2026-04-19T09:55:58Z</time></trkpt><trkpt lat="40.01948883790395" lon="15.927525345731988"><ele>837.3333333333333</ele><time>2026-04-19T09:55:59Z</time></trkpt><trkpt lat="40.01957270875319" lon="15.927519910861417"><ele>838.5</ele><time>2026-04-19T09:56:00Z</time></trkpt><trkpt lat="40.01963914372419" lon="15.927530395515085"><ele>839.6666666666667</ele><time>2026-04-19T09:56:01Z</time></trkpt><trkpt lat="40.01972345315752" lon="15.927583625636872"><ele>840.8333333333334</ele><time>2026-04-19T09:56:02Z</time></trkpt><trkpt lat="40.019829220812056" lon="15.927649659595325"><ele>842.0</ele><time>2026-04-19T09:56:03Z</time></trkpt><trkpt lat="40.01992803485818" lon="15.92769085072992"><ele>844.0</ele><time>2026-04-19T09:56:04Z</time></trkpt><trkpt lat="40.02002240245536" lon="15.92767650872218"><ele>846.0</ele><time>2026-04-19T09:56:05Z</time></trkpt><trkpt lat="40.020100614428735" lon="15.927651635250479"><ele>848.0</ele><time>2026-04-19T09:56:06Z</time></trkpt><trkpt lat="40.02015848182143" lon="15.927689708784154"><ele>850.0</ele><time>2026-04-19T09:56:07Z</time></trkpt><trkpt lat="40.020273756208674" lon="15.92778532514118"><ele>852.0</ele><time>2026-04-19T09:56:09Z</time></trkpt><trkpt lat="40.020322784862174" lon="15.927867379159183"><ele>852.0</ele><time>2026-04-19T09:56:10Z</time></trkpt><trkpt lat="40.02036310320658" lon="15.927995327635063"><ele>852.0</ele><time>2026-04-19T09:56:11Z</time></trkpt><trkpt lat="40.02039958304014" lon="15.928143280096528"><ele>852.0</ele><time>2026-04-19T09:56:12Z</time></trkpt><trkpt lat="40.020459377229244" lon="15.928231509513335"><ele>852.0</ele><time>2026-04-19T09:56:13Z</time></trkpt><trkpt lat="40.02053711012092" lon="15.928262252035381"><ele>852.0</ele><time>2026-04-19T09:56:14Z</time></trkpt><trkpt lat="40.02060171167159" lon="15.92826408774804"><ele>852.0</ele><time>2026-04-19T09:56:15Z</time></trkpt><trkpt lat="40.02070064836082" lon="15.928266221310045"><ele>852.0</ele><time>2026-04-19T09:56:16Z</time></trkpt><trkpt lat="40.02081551970515" lon="15.928340436259306"><ele>852.0</ele><time>2026-04-19T09:56:17Z</time></trkpt><trkpt lat="40.02092904343743" lon="15.928456749614062"><ele>852.0</ele><time>2026-04-19T09:56:19Z</time></trkpt><trkpt lat="40.02102991512263" lon="15.928547047862462"><ele>855.1666666666666</ele><time>2026-04-19T09:56:19.999Z</time></trkpt><trkpt lat="40.02109582953528" lon="15.928593406440298"><ele>858.3333333333333</ele><time>2026-04-19T09:56:20.999Z</time></trkpt><trkpt lat="40.02116648511768" lon="15.928595491610729"><ele>861.5</ele><time>2026-04-19T09:56:21.999Z</time></trkpt><trkpt lat="40.02124744593873" lon="15.92858077308229"><ele>864.6666666666666</ele><time>2026-04-19T09:56:22.999Z</time></trkpt><trkpt lat="40.02133373015079" lon="15.928563814326687"><ele>867.8333333333333</ele><time>2026-04-19T09:56:23.999Z</time></trkpt><trkpt lat="40.021416799352984" lon="15.928566385854056"><ele>871.0</ele><time>2026-04-19T09:56:24.999Z</time></trkpt><trkpt lat="40.02151360036172" lon="15.928570841488227"><ele>870.9999999999999</ele><time>2026-04-19T09:56:25.999Z</time></trkpt><trkpt lat="40.02160079574984" lon="15.92859245304262"><ele>871.0</ele><time>2026-04-19T09:56:26.999Z</time></trkpt><trkpt lat="40.021687018783226" lon="15.928610109138988"><ele>871.0</ele><time>2026-04-19T09:56:27.999Z</time></trkpt><trkpt lat="40.021779967833936" lon="15.92861306393505"><ele>871.0</ele><time>2026-04-19T09:56:28.999Z</time></trkpt><trkpt lat="40.02185549401947" lon="15.928629317216195"><ele>870.9999999999999</ele><time>2026-04-19T09:56:29.999Z</time></trkpt><trkpt lat="40.02194338884159" lon="15.928665455115963"><ele>871.0</ele><time>2026-04-19T09:56:30.999Z</time></trkpt><trkpt lat="40.02202555202937" lon="15.9286927698022"><ele>872.1666666666666</ele><time>2026-04-19T09:56:31.999Z</time></trkpt><trkpt lat="40.022110839460105" lon="15.928686172560333"><ele>873.3333333333333</ele><time>2026-04-19T09:56:32.999Z</time></trkpt><trkpt lat="40.022183610840194" lon="15.928668669869005"><ele>874.5</ele><time>2026-04-19T09:56:33.999Z</time></trkpt><trkpt lat="40.0222680986653" lon="15.928659553032833"><ele>875.6666666666667</ele><time>2026-04-19T09:56:34.999Z</time></trkpt><trkpt lat="40.02236126042682" lon="15.928650340538187"><ele>876.8333333333334</ele><time>2026-04-19T09:56:35.999Z</time></trkpt><trkpt lat="40.022440533342795" lon="15.928640011630728"><ele>878.0</ele><time>2026-04-19T09:56:36.999Z</time></trkpt><trkpt lat="40.02252568254137" lon="15.9286458224959"><ele>879.5000000000001</ele><time>2026-04-19T09:56:37.999Z</time></trkpt><trkpt lat="40.022607573667806" lon="15.92866274266343"><ele>881.0</ele><time>2026-04-19T09:56:38.999Z</time></trkpt><trkpt lat="40.022685768584346" lon="15.928663992434512"><ele>882.5</ele><time>2026-04-19T09:56:39.999Z</time></trkpt><trkpt lat="40.022777693431586" lon="15.928654156016643"><ele>884.0</ele><time>2026-04-19T09:56:40.999Z</time></trkpt><trkpt lat="40.02287149299357" lon="15.928661293756074"><ele>885.5000000000001</ele><time>2026-04-19T09:56:41.999Z</time></trkpt><trkpt lat="40.0229589390195" lon="15.928669167965076"><ele>887.0</ele><time>2026-04-19T09:56:42.999Z</time></trkpt><trkpt lat="40.023038568403095" lon="15.928658651470068"><ele>887.0000000000001</ele><time>2026-04-19T09:56:43.999Z</time></trkpt><trkpt lat="40.02312231176821" lon="15.928635191697563"><ele>887.0</ele><time>2026-04-19T09:56:44.999Z</time></trkpt><trkpt lat="40.023207049126036" lon="15.928626317369414"><ele>887.0</ele><time>2026-04-19T09:56:45.999Z</time></trkpt><trkpt lat="40.0232751932514" lon="15.928603649655365"><ele>887.0</ele><time>2026-04-19T09:56:46.999Z</time></trkpt><trkpt lat="40.023354372746276" lon="15.9285925929878"><ele>887.0000000000001</ele><time>2026-04-19T09:56:47.999Z</time></trkpt><trkpt lat="40.02343348947286" lon="15.928585859389571"><ele>887.0</ele><time>2026-04-19T09:56:48.999Z</time></trkpt><trkpt lat="40.023500042255684" lon="15.928616708577623"><ele>889.6</ele><time>2026-04-19T09:56:50.999Z</time></trkpt><trkpt lat="40.023609662349834" lon="15.928678514137907"><ele>892.2</ele><time>2026-04-19T09:56:52.999Z</time></trkpt><trkpt lat="40.02366736294402" lon="15.928724534316823"><ele>894.8</ele><time>2026-04-19T09:56:53.999Z</time></trkpt><trkpt lat="40.02378970858602" lon="15.928800930796434"><ele>897.4</ele><time>2026-04-19T09:56:55.999Z</time></trkpt><trkpt lat="40.023851296119055" lon="15.928824671219827"><ele>900.0</ele><time>2026-04-19T09:56:56.999Z</time></trkpt><trkpt lat="40.023927426981864" lon="15.928833989724604"><ele>900.0</ele><time>2026-04-19T09:56:57.999Z</time></trkpt><trkpt lat="40.02401101288388" lon="15.928840062200535"><ele>900.0</ele><time>2026-04-19T09:56:58.999Z</time></trkpt><trkpt lat="40.02411356487467" lon="15.928825735519503"><ele>900.0</ele><time>2026-04-19T09:56:59.999Z</time></trkpt><trkpt lat="40.02418252476151" lon="15.928826035868553"><ele>900.0</ele><time>2026-04-19T09:57:00.999Z</time></trkpt><trkpt lat="40.0242442049038" lon="15.9288457756392"><ele>900.0</ele><time>2026-04-19T09:57:01.999Z</time></trkpt><trkpt lat="40.024370493314244" lon="15.928906403650531"><ele>903.4</ele><time>2026-04-19T09:57:03.999Z</time></trkpt><trkpt lat="40.02446348530799" lon="15.928942199539502"><ele>906.8</ele><time>2026-04-19T09:57:04.999Z</time></trkpt><trkpt lat="40.024551606691176" lon="15.928978649820415"><ele>910.2</ele><time>2026-04-19T09:57:05.999Z</time></trkpt><trkpt lat="40.02463508688462" lon="15.929024149155817"><ele>913.6</ele><time>2026-04-19T09:57:07Z</time></trkpt><trkpt lat="40.024719085091924" lon="15.929081872270629"><ele>917.0</ele><time>2026-04-19T09:57:08Z</time></trkpt><trkpt lat="40.024804364782156" lon="15.929123769865624"><ele>917.0</ele><time>2026-04-19T09:57:09Z</time></trkpt><trkpt lat="40.02486729484972" lon="15.92915268593312"><ele>917.0</ele><time>2026-04-19T09:57:10Z</time></trkpt><trkpt lat="40.024926692284616" lon="15.929210367127776"><ele>917.0</ele><time>2026-04-19T09:57:12Z</time></trkpt><trkpt lat="40.02497643184559" lon="15.929326269863292"><ele>917.0</ele><time>2026-04-19T09:57:14Z</time></trkpt><trkpt lat="40.02504249819957" lon="15.929481410064291"><ele>917.0</ele><time>2026-04-19T09:57:16Z</time></trkpt><trkpt lat="40.0250921336776" lon="15.929624772526632"><ele>919.0</ele><time>2026-04-19T09:57:18Z</time></trkpt><trkpt lat="40.02513593481575" lon="15.929748166937246"><ele>921.0</ele><time>2026-04-19T09:57:20Z</time></trkpt><trkpt lat="40.02512450151923" lon="15.929845094588405"><ele>923.0</ele><time>2026-04-19T09:57:24Z</time></trkpt><trkpt lat="40.025099510425505" lon="15.930089522814573"><ele>925.0</ele><time>2026-04-19T09:57:26Z</time></trkpt><trkpt lat="40.02503222433399" lon="15.930142202894316"><ele>927.0</ele><time>2026-04-19T09:57:27Z</time></trkpt><trkpt lat="40.02498617203271" lon="15.930202895987808"><ele>926.6666666666666</ele><time>2026-04-19T09:57:28Z</time></trkpt><trkpt lat="40.024940594865946" lon="15.930326478646816"><ele>926.3333333333333</ele><time>2026-04-19T09:57:30Z</time></trkpt><trkpt lat="40.02495993412354" lon="15.930424710143342"><ele>926.0</ele><time>2026-04-19T09:57:32Z</time></trkpt><trkpt lat="40.02500727618212" lon="15.930521060637743"><ele>925.6666666666666</ele><time>2026-04-19T09:57:34Z</time></trkpt><trkpt lat="40.02508217625856" lon="15.930591563357762"><ele>925.3333333333333</ele><time>2026-04-19T09:57:36Z</time></trkpt><trkpt lat="40.02511508958273" lon="15.930670800870988"><ele>925.0</ele><time>2026-04-19T09:57:38Z</time></trkpt><trkpt lat="40.02502872188826" lon="15.930602740172512"><ele>927.1666666666666</ele><time>2026-04-19T09:57:44Z</time></trkpt><trkpt lat="40.02507060513054" lon="15.93066906758132"><ele>929.3333333333333</ele><time>2026-04-19T09:57:53Z</time></trkpt><trkpt lat="40.025127621538495" lon="15.930736771753036"><ele>931.5</ele><time>2026-04-19T09:57:56Z</time></trkpt><trkpt lat="40.02525425385595" lon="15.930779358101168"><ele>933.6666666666667</ele><time>2026-04-19T09:58:00Z</time></trkpt><trkpt lat="40.025302637257234" lon="15.930899772462805"><ele>935.8333333333334</ele><time>2026-04-19T09:58:02Z</time></trkpt><trkpt lat="40.025322906256804" lon="15.930982067801736"><ele>938.0</ele><time>2026-04-19T09:58:03Z</time></trkpt><trkpt lat="40.02541286760676" lon="15.931077434561416"><ele>938.8</ele><time>2026-04-19T09:58:05Z</time></trkpt><trkpt lat="40.025477731610025" lon="15.931121405040738"><ele>939.5999999999999</ele><time>2026-04-19T09:58:06Z</time></trkpt><trkpt lat="40.025535144662726" lon="15.931163184142715"><ele>940.4000000000001</ele><time>2026-04-19T09:58:07Z</time></trkpt><trkpt lat="40.02566854642098" lon="15.93118628087238"><ele>941.2</ele><time>2026-04-19T09:58:09Z</time></trkpt><trkpt lat="40.02576686011572" lon="15.931234704474397"><ele>942.0</ele><time>2026-04-19T09:58:11Z</time></trkpt><trkpt lat="40.02585157355561" lon="15.93127939644322"><ele>945.0</ele><time>2026-04-19T09:58:13Z</time></trkpt><trkpt lat="40.025925995875824" lon="15.931290430509472"><ele>948.0</ele><time>2026-04-19T09:58:15Z</time></trkpt><trkpt lat="40.025998304944856" lon="15.931305690600322"><ele>951.0</ele><time>2026-04-19T09:58:18Z</time></trkpt><trkpt lat="40.026047145184364" lon="15.93136374782693"><ele>954.0</ele><time>2026-04-19T09:58:21Z</time></trkpt><trkpt lat="40.02627714395646" lon="15.93148539955898"><ele>954.0</ele><time>2026-04-19T09:58:22.999Z</time></trkpt><trkpt lat="40.026392420134975" lon="15.931566579022494"><ele>954.0</ele><time>2026-04-19T09:58:24.999Z</time></trkpt><trkpt lat="40.02646938269847" lon="15.931606569892084"><ele>954.0</ele><time>2026-04-19T09:58:25.999Z</time></trkpt><trkpt lat="40.026537509927095" lon="15.931640798891996"><ele>954.0</ele><time>2026-04-19T09:58:26.999Z</time></trkpt><trkpt lat="40.02661209130115" lon="15.931686644453578"><ele>954.0</ele><time>2026-04-19T09:58:27.999Z</time></trkpt><trkpt lat="40.02667938971199" lon="15.931737664749484"><ele>954.0</ele><time>2026-04-19T09:58:28.999Z</time></trkpt><trkpt lat="40.02678617385599" lon="15.931796330365689"><ele>953.8333333333334</ele><time>2026-04-19T09:58:29.999Z</time></trkpt><trkpt lat="40.026866180393135" lon="15.931819152961413"><ele>953.6666666666667</ele><time>2026-04-19T09:58:30.999Z</time></trkpt><trkpt lat="40.02694802074284" lon="15.931816684998426"><ele>953.5</ele><time>2026-04-19T09:58:31.999Z</time></trkpt><trkpt lat="40.02702121390052" lon="15.931859458751788"><ele>953.3333333333334</ele><time>2026-04-19T09:58:33.999Z</time></trkpt><trkpt lat="40.02706166833649" lon="15.931947049093774"><ele>953.1666666666667</ele><time>2026-04-19T09:58:35.999Z</time></trkpt><trkpt lat="40.027101074006936" lon="15.932012942340558"><ele>953.0</ele><time>2026-04-19T09:58:37.999Z</time></trkpt><trkpt lat="40.02714085055068" lon="15.932123580939631"><ele>953.0</ele><time>2026-04-19T09:58:39.999Z</time></trkpt><trkpt lat="40.027178560230034" lon="15.932246844632187"><ele>953.0</ele><time>2026-04-19T09:58:40.999Z</time></trkpt><trkpt lat="40.02724752838687" lon="15.932419342393386"><ele>953.0</ele><time>2026-04-19T09:58:41.999Z</time></trkpt><trkpt lat="40.027235727748064" lon="15.932508948194997"><ele>953.0</ele><time>2026-04-19T09:58:42.999Z</time></trkpt><trkpt lat="40.02727727502761" lon="15.93258484055201"><ele>953.0</ele><time>2026-04-19T09:58:43.999Z</time></trkpt><trkpt lat="40.02736885890574" lon="15.932685078693705"><ele>950.1666666666667</ele><time>2026-04-19T09:58:45.999Z</time></trkpt><trkpt lat="40.02741599692847" lon="15.932746021626153"><ele>947.3333333333334</ele><time>2026-04-19T09:58:46.999Z</time></trkpt><trkpt lat="40.02748251405678" lon="15.932781600259997"><ele>944.5</ele><time>2026-04-19T09:58:47.999Z</time></trkpt><trkpt lat="40.02756739615035" lon="15.932812996546504"><ele>941.6666666666667</ele><time>2026-04-19T09:58:48.999Z</time></trkpt><trkpt lat="40.02764869919609" lon="15.932873046021653"><ele>938.8333333333334</ele><time>2026-04-19T09:58:49.999Z</time></trkpt><trkpt lat="40.02771625365659" lon="15.932956146874721"><ele>936.0</ele><time>2026-04-19T09:58:50.999Z</time></trkpt><trkpt lat="40.027786769565715" lon="15.933030855140789"><ele>942.1666666666666</ele><time>2026-04-19T09:58:51.999Z</time></trkpt><trkpt lat="40.027847069691944" lon="15.933077182553816"><ele>948.3333333333333</ele><time>2026-04-19T09:58:52.999Z</time></trkpt><trkpt lat="40.02789446717204" lon="15.933212709151807"><ele>954.5</ele><time>2026-04-19T09:58:54.999Z</time></trkpt><trkpt lat="40.02788678068201" lon="15.933313477775899"><ele>960.6666666666666</ele><time>2026-04-19T09:58:55.999Z</time></trkpt><trkpt lat="40.02787527205794" lon="15.93342873090768"><ele>966.8333333333333</ele><time>2026-04-19T09:58:57.999Z</time></trkpt><trkpt lat="40.027923778593966" lon="15.933540612125592"><ele>973.0</ele><time>2026-04-19T09:58:59.999Z</time></trkpt><trkpt lat="40.02797744107711" lon="15.933609794821882"><ele>973.0</ele><time>2026-04-19T09:59:00.999Z</time></trkpt><trkpt lat="40.028055861291044" lon="15.933677437123587"><ele>973.0</ele><time>2026-04-19T09:59:01.999Z</time></trkpt><trkpt lat="40.02813744022067" lon="15.93375539143481"><ele>973.0</ele><time>2026-04-19T09:59:02.999Z</time></trkpt><trkpt lat="40.028221976226384" lon="15.933825991520987"><ele>973.0</ele><time>2026-04-19T09:59:03.999Z</time></trkpt><trkpt lat="40.02830718426804" lon="15.93388245240181"><ele>973.0</ele><time>2026-04-19T09:59:04.999Z</time></trkpt><trkpt lat="40.028413358340956" lon="15.933926782870508"><ele>977.3333333333333</ele><time>2026-04-19T09:59:05.999Z</time></trkpt><trkpt lat="40.02849197976831" lon="15.933930761591627"><ele>981.6666666666666</ele><time>2026-04-19T09:59:06.999Z</time></trkpt><trkpt lat="40.028573931368" lon="15.93392807637273"><ele>986.0</ele><time>2026-04-19T09:59:07.999Z</time></trkpt><trkpt lat="40.02863851171523" lon="15.933926294100926"><ele>990.3333333333333</ele><time>2026-04-19T09:59:08.999Z</time></trkpt><trkpt lat="40.02875050764273" lon="15.933845467195932"><ele>994.6666666666666</ele><time>2026-04-19T09:59:10.999Z</time></trkpt><trkpt lat="40.02882590753961" lon="15.93379433760393"><ele>999.0</ele><time>2026-04-19T09:59:11.999Z</time></trkpt><trkpt lat="40.02890925006188" lon="15.933775520045824"><ele>999.0</ele><time>2026-04-19T09:59:13Z</time></trkpt><trkpt lat="40.02904774777409" lon="15.933842647354862"><ele>999.0</ele><time>2026-04-19T09:59:15Z</time></trkpt><trkpt lat="40.02917770092606" lon="15.933914636465088"><ele>999.0</ele><time>2026-04-19T09:59:16Z</time></trkpt><trkpt lat="40.02925341120697" lon="15.933934305895683"><ele>999.0</ele><time>2026-04-19T09:59:17Z</time></trkpt><trkpt lat="40.029337659681836" lon="15.933909843329605"><ele>1005.0</ele><time>2026-04-19T09:59:18Z</time></trkpt><trkpt lat="40.02943486481641" lon="15.933888879860728"><ele>1011.0</ele><time>2026-04-19T09:59:19Z</time></trkpt><trkpt lat="40.02956228278075" lon="15.933883666908354"><ele>1017.0</ele><time>2026-04-19T09:59:20Z</time></trkpt><trkpt lat="40.02968736481515" lon="15.933916370531573"><ele>1023.0</ele><time>2026-04-19T09:59:21Z</time></trkpt><trkpt lat="40.029797279663356" lon="15.93395364604899"><ele>1023.0</ele><time>2026-04-19T09:59:22Z</time></trkpt><trkpt lat="40.02990657591238" lon="15.934009277593006"><ele>1023.0</ele><time>2026-04-19T09:59:23Z</time></trkpt><trkpt lat="40.02999022318045" lon="15.934089470568185"><ele>1023.0</ele><time>2026-04-19T09:59:24Z</time></trkpt><trkpt lat="40.030069241355285" lon="15.934205598817256"><ele>1023.0</ele><time>2026-04-19T09:59:25Z</time></trkpt><trkpt lat="40.030126393397495" lon="15.934305199181729"><ele>1023.0</ele><time>2026-04-19T09:59:26Z</time></trkpt><trkpt lat="40.030208037548384" lon="15.934395255732792"><ele>1027.6666666666667</ele><time>2026-04-19T09:59:27Z</time></trkpt><trkpt lat="40.030253712165376" lon="15.934476314388846"><ele>1032.3333333333333</ele><time>2026-04-19T09:59:28Z</time></trkpt><trkpt lat="40.03028382420806" lon="15.934549441740371"><ele>1037.0</ele><time>2026-04-19T09:59:29Z</time></trkpt><trkpt lat="40.03027319357332" lon="15.934651458654683"><ele>1041.6666666666665</ele><time>2026-04-19T09:59:31Z</time></trkpt><trkpt lat="40.030198760620124" lon="15.934666368702596"><ele>1046.3333333333333</ele><time>2026-04-19T09:59:33Z</time></trkpt><trkpt lat="40.03010556900655" lon="15.934628304309209"><ele>1051.0</ele><time>2026-04-19T09:59:35Z</time></trkpt><trkpt lat="40.030158737332975" lon="15.934706755617679"><ele>1051.0</ele><time>2026-04-19T09:59:37Z</time></trkpt><trkpt lat="40.0300745294361" lon="15.934765596907344"><ele>1051.0</ele><time>2026-04-19T09:59:40Z</time></trkpt><trkpt lat="40.030011844844665" lon="15.934829635228777"><ele>1051.0</ele><time>2026-04-19T09:59:42Z</time></trkpt><trkpt lat="40.0300884351095" lon="15.934821263002112"><ele>1051.0</ele><time>2026-04-19T09:59:45Z</time></trkpt><trkpt lat="40.030166967299934" lon="15.934822772174032"><ele>1051.0</ele><time>2026-04-19T09:59:48Z</time></trkpt><trkpt lat="40.03023718075715" lon="15.934875557082714"><ele>1051.0</ele><time>2026-04-19T09:59:50Z</time></trkpt><trkpt lat="40.0305094831268" lon="15.934966409547899"><ele>1051.0</ele><time>2026-04-19T09:59:51Z</time></trkpt><trkpt lat="40.03058791337843" lon="15.934941781844493"><ele>1051.0</ele><time>2026-04-19T09:59:52Z</time></trkpt><trkpt lat="40.03072666509892" lon="15.934793796432352"><ele>1051.0</ele><time>2026-04-19T09:59:53Z</time></trkpt><trkpt lat="40.03088982017113" lon="15.934787665740197"><ele>1051.0</ele><time>2026-04-19T09:59:54Z</time></trkpt><trkpt lat="40.03095580045749" lon="15.934724984991874"><ele>1055.3333333333333</ele><time>2026-04-19T09:59:55Z</time></trkpt><trkpt lat="40.03098368694956" lon="15.93462908464714"><ele>1059.6666666666665</ele><time>2026-04-19T09:59:57Z</time></trkpt><trkpt lat="40.03104469144231" lon="15.934658578469007"><ele>1064.0</ele><time>2026-04-19T10:00:01Z</time></trkpt><trkpt lat="40.03103109638625" lon="15.93474220228674"><ele>1068.3333333333333</ele><time>2026-04-19T10:00:03Z</time></trkpt><trkpt lat="40.03097687694181" lon="15.934825994245639"><ele>1072.6666666666667</ele><time>2026-04-19T10:00:05Z</time></trkpt><trkpt lat="40.03092109760917" lon="15.934891589954816"><ele>1077.0</ele><time>2026-04-19T10:00:08Z</time></trkpt><trkpt lat="40.03083703328807" lon="15.93498230162021"><ele>1074.8333333333333</ele><time>2026-04-19T10:00:10Z</time></trkpt><trkpt lat="40.0307936658618" lon="15.935043955353969"><ele>1072.6666666666667</ele><time>2026-04-19T10:00:11Z</time></trkpt><trkpt lat="40.03070612682335" lon="15.935066191181633"><ele>1070.5</ele><time>2026-04-19T10:00:12Z</time></trkpt><trkpt lat="40.03069386401531" lon="15.93515242484993"><ele>1068.3333333333335</ele><time>2026-04-19T10:00:13Z</time></trkpt><trkpt lat="40.03068965487408" lon="15.935066945670807"><ele>1066.1666666666667</ele><time>2026-04-19T10:00:14Z</time></trkpt><trkpt lat="40.030626732122286" lon="15.935109434740404"><ele>1064.0</ele><time>2026-04-19T10:00:16Z</time></trkpt><trkpt lat="40.030557697147906" lon="15.93522775125947"><ele>1064.0</ele><time>2026-04-19T10:00:18Z</time></trkpt><trkpt lat="40.03053722589664" lon="15.935306925294094"><ele>1064.0</ele><time>2026-04-19T10:00:20Z</time></trkpt><trkpt lat="40.03057208683475" lon="15.93555349151286"><ele>1064.0</ele><time>2026-04-19T10:00:21Z</time></trkpt><trkpt lat="40.030639206571685" lon="15.935542007648397"><ele>1064.0</ele><time>2026-04-19T10:00:22Z</time></trkpt><trkpt lat="40.03075973584223" lon="15.935573441527236"><ele>1064.0</ele><time>2026-04-19T10:00:24Z</time></trkpt><trkpt lat="40.03082019829663" lon="15.935622812535781"><ele>1068.1666666666667</ele><time>2026-04-19T10:00:25Z</time></trkpt><trkpt lat="40.03088443710616" lon="15.935641129796787"><ele>1072.3333333333335</ele><time>2026-04-19T10:00:26.999Z</time></trkpt><trkpt lat="40.03096225768144" lon="15.935691646423527"><ele>1076.5</ele><time>2026-04-19T10:00:29.999Z</time></trkpt><trkpt lat="40.03094492435557" lon="15.935785872510221"><ele>1080.6666666666667</ele><time>2026-04-19T10:00:31.999Z</time></trkpt><trkpt lat="40.030899876123534" lon="15.935889135873765"><ele>1084.8333333333333</ele><time>2026-04-19T10:00:34.999Z</time></trkpt><trkpt lat="40.030865127727225" lon="15.936003783503203"><ele>1089.0</ele><time>2026-04-19T10:00:37.999Z</time></trkpt><trkpt lat="40.03080639791886" lon="15.936043568158846"><ele>1090.4285714285716</ele><time>2026-04-19T10:00:39.999Z</time></trkpt><trkpt lat="40.03084744475057" lon="15.936137965148854"><ele>1091.857142857143</ele><time>2026-04-19T10:00:42.999Z</time></trkpt><trkpt lat="40.03089376162945" lon="15.93620889779291"><ele>1093.2857142857142</ele><time>2026-04-19T10:00:45.999Z</time></trkpt><trkpt lat="40.03091768920315" lon="15.93628561300357"><ele>1094.7142857142858</ele><time>2026-04-19T10:00:47.999Z</time></trkpt><trkpt lat="40.03093492053887" lon="15.93637379089377"><ele>1096.142857142857</ele><time>2026-04-19T10:00:49.999Z</time></trkpt><trkpt lat="40.03093254678209" lon="15.936471011828482"><ele>1097.5714285714287</ele><time>2026-04-19T10:00:52.999Z</time></trkpt><trkpt lat="40.03091611237986" lon="15.936575376237974"><ele>1099.0</ele><time>2026-04-19T10:00:56.999Z</time></trkpt><trkpt lat="40.03096217517544" lon="15.93664012923808"><ele>1102.4</ele><time>2026-04-19T10:00:58.999Z</time></trkpt><trkpt lat="40.03101689622391" lon="15.936782503717353"><ele>1105.8000000000002</ele><time>2026-04-19T10:01:01.999Z</time></trkpt><trkpt lat="40.03107330992067" lon="15.936860342604994"><ele>1109.1999999999998</ele><time>2026-04-19T10:01:04.999Z</time></trkpt><trkpt lat="40.03120287729693" lon="15.936929809979702"><ele>1112.6</ele><time>2026-04-19T10:01:08.999Z</time></trkpt><trkpt lat="40.031190638024626" lon="15.93705113074519"><ele>1116.0</ele><time>2026-04-19T10:01:10.999Z</time></trkpt><trkpt lat="40.031209701298955" lon="15.937148289962801"><ele>1116.0</ele><time>2026-04-19T10:01:15.999Z</time></trkpt><trkpt lat="40.031281306307015" lon="15.937250023015542"><ele>1116.0</ele><time>2026-04-19T10:01:17.999Z</time></trkpt><trkpt lat="40.03131591846011" lon="15.937319832644414"><ele>1116.0</ele><time>2026-04-19T10:01:21Z</time></trkpt><trkpt lat="40.03128566127945" lon="15.937504708558992"><ele>1116.0</ele><time>2026-04-19T10:01:24Z</time></trkpt><trkpt lat="40.031345307823216" lon="15.937453733610951"><ele>1116.0</ele><time>2026-04-19T10:01:25Z</time></trkpt><trkpt lat="40.031445424187666" lon="15.937444013762551"><ele>1122.0</ele><time>2026-04-19T10:01:27Z</time></trkpt><trkpt lat="40.03150210103334" lon="15.937565459314506"><ele>1128.0</ele><time>2026-04-19T10:01:29Z</time></trkpt><trkpt lat="40.03151845573166" lon="15.937649443263224"><ele>1134.0</ele><time>2026-04-19T10:01:30Z</time></trkpt><trkpt lat="40.031519967178106" lon="15.937739988586607"><ele>1140.0</ele><time>2026-04-19T10:01:31Z</time></trkpt><trkpt lat="40.031523896251855" lon="15.937834460393761"><ele>1146.0</ele><time>2026-04-19T10:01:32Z</time></trkpt><trkpt lat="40.03155627562673" lon="15.937975880333617"><ele>1152.0</ele><time>2026-04-19T10:01:34Z</time></trkpt><trkpt lat="40.03160951103372" lon="15.938062592510532"><ele>1152.1666666666667</ele><time>2026-04-19T10:01:36Z</time></trkpt><trkpt lat="40.03171717553475" lon="15.938062099723105"><ele>1152.3333333333333</ele><time>2026-04-19T10:01:38Z</time></trkpt><trkpt lat="40.031815768599124" lon="15.93808345563594"><ele>1152.5</ele><time>2026-04-19T10:01:41Z</time></trkpt><trkpt lat="40.03188213358577" lon="15.938079820117547"><ele>1152.6666666666665</ele><time>2026-04-19T10:01:42Z</time></trkpt><trkpt lat="40.031953725933846" lon="15.938052126647205"><ele>1152.8333333333333</ele><time>2026-04-19T10:01:43Z</time></trkpt><trkpt lat="40.032016491393286" lon="15.937997007319446"><ele>1153.0</ele><time>2026-04-19T10:01:44Z</time></trkpt><trkpt lat="40.03210656495433" lon="15.937985510624824"><ele>1153.0</ele><time>2026-04-19T10:01:46Z</time></trkpt><trkpt lat="40.032183672600304" lon="15.938018554478884"><ele>1153.0</ele><time>2026-04-19T10:01:47Z</time></trkpt><trkpt lat="40.03223778353915" lon="15.938064736565352"><ele>1153.0</ele><time>2026-04-19T10:01:49Z</time></trkpt><trkpt lat="40.032298550072134" lon="15.938139575997901"><ele>1153.0</ele><time>2026-04-19T10:01:51Z</time></trkpt><trkpt lat="40.0323575536849" lon="15.938216442461979"><ele>1153.0</ele><time>2026-04-19T10:01:53Z</time></trkpt><trkpt lat="40.03238242211692" lon="15.938332461047487"><ele>1153.0</ele><time>2026-04-19T10:01:54Z</time></trkpt><trkpt lat="40.03241297926026" lon="15.938413861397056"><ele>1157.3333333333333</ele><time>2026-04-19T10:01:55Z</time></trkpt><trkpt lat="40.032433711820126" lon="15.938496072412672"><ele>1161.6666666666665</ele><time>2026-04-19T10:01:56Z</time></trkpt><trkpt lat="40.0324648466097" lon="15.93860944111374"><ele>1166.0</ele><time>2026-04-19T10:01:57Z</time></trkpt><trkpt lat="40.03249076592145" lon="15.93873630207296"><ele>1170.3333333333333</ele><time>2026-04-19T10:01:58Z</time></trkpt><trkpt lat="40.03248385306704" lon="15.938855516279975"><ele>1174.6666666666667</ele><time>2026-04-19T10:01:59Z</time></trkpt><trkpt lat="40.032488633339824" lon="15.938956968201866"><ele>1179.0</ele><time>2026-04-19T10:02:00Z</time></trkpt><trkpt lat="40.0324919933556" lon="15.939122973049614"><ele>1183.1666666666667</ele><time>2026-04-19T10:02:02Z</time></trkpt><trkpt lat="40.03247993961071" lon="15.939227073509336"><ele>1187.3333333333333</ele><time>2026-04-19T10:02:03Z</time></trkpt><trkpt lat="40.03247463763871" lon="15.93931891874462"><ele>1191.5</ele><time>2026-04-19T10:02:04Z</time></trkpt><trkpt lat="40.03247427282301" lon="15.939410066374613"><ele>1195.6666666666665</ele><time>2026-04-19T10:02:05Z</time></trkpt><trkpt lat="40.032460968009325" lon="15.93952929830522"><ele>1199.8333333333333</ele><time>2026-04-19T10:02:07Z</time></trkpt><trkpt lat="40.03243023814681" lon="15.939618298542445"><ele>1204.0</ele><time>2026-04-19T10:02:09Z</time></trkpt><trkpt lat="40.03240156308771" lon="15.93969492380108"><ele>1204.0</ele><time>2026-04-19T10:02:10Z</time></trkpt><trkpt lat="40.03236283603448" lon="15.939788857810688"><ele>1204.0</ele><time>2026-04-19T10:02:11Z</time></trkpt><trkpt lat="40.03232746330663" lon="15.9398818338784"><ele>1204.0</ele><time>2026-04-19T10:02:12Z</time></trkpt><trkpt lat="40.03229884001918" lon="15.939967031954772"><ele>1204.0</ele><time>2026-04-19T10:02:13Z</time></trkpt><trkpt lat="40.03227135537454" lon="15.940089435931334"><ele>1204.0</ele><time>2026-04-19T10:02:15Z</time></trkpt><trkpt lat="40.03226429602616" lon="15.940205456631798"><ele>1204.0</ele><time>2026-04-19T10:02:17Z</time></trkpt><trkpt lat="40.03219777241004" lon="15.940267869507148"><ele>1208.0</ele><time>2026-04-19T10:02:19Z</time></trkpt><trkpt lat="40.03208593566736" lon="15.940316346827586"><ele>1212.0</ele><time>2026-04-19T10:02:21Z</time></trkpt><trkpt lat="40.03196979055722" lon="15.940337090438822"><ele>1216.0</ele><time>2026-04-19T10:02:23Z</time></trkpt><trkpt lat="40.03191575073314" lon="15.940423231525111"><ele>1220.0</ele><time>2026-04-19T10:02:24Z</time></trkpt><trkpt lat="40.03187114109331" lon="15.940496392329205"><ele>1224.0</ele><time>2026-04-19T10:02:25Z</time></trkpt><trkpt lat="40.03184816365306" lon="15.940575183623858"><ele>1224.0</ele><time>2026-04-19T10:02:26Z</time></trkpt><trkpt lat="40.031835541236816" lon="15.940669539834811"><ele>1224.0</ele><time>2026-04-19T10:02:27Z</time></trkpt><trkpt lat="40.03179464982114" lon="15.940756939933493"><ele>1224.0</ele><time>2026-04-19T10:02:28Z</time></trkpt><trkpt lat="40.03173994391954" lon="15.940811380755067"><ele>1224.0</ele><time>2026-04-19T10:02:29Z</time></trkpt><trkpt lat="40.03165688684734" lon="15.940857223719599"><ele>1224.0</ele><time>2026-04-19T10:02:31Z</time></trkpt><trkpt lat="40.03155332030585" lon="15.94084844319099"><ele>1224.0</ele><time>2026-04-19T10:02:33Z</time></trkpt><trkpt lat="40.03147119625985" lon="15.940839482181415"><ele>1225.0</ele><time>2026-04-19T10:02:34Z</time></trkpt><trkpt lat="40.03140156300296" lon="15.940837595116156"><ele>1226.0</ele><time>2026-04-19T10:02:35Z</time></trkpt><trkpt lat="40.03133902322157" lon="15.940880269900685"><ele>1227.0</ele><time>2026-04-19T10:02:36.999Z</time></trkpt><trkpt lat="40.03131363188395" lon="15.941024454250247"><ele>1228.0</ele><time>2026-04-19T10:02:38.999Z</time></trkpt><trkpt lat="40.031264871853615" lon="15.941194513464707"><ele>1229.0</ele><time>2026-04-19T10:02:40.999Z</time></trkpt><trkpt lat="40.03123241500916" lon="15.94129402196716"><ele>1229.0</ele><time>2026-04-19T10:02:41.999Z</time></trkpt><trkpt lat="40.031199805333074" lon="15.94139890239837"><ele>1229.0</ele><time>2026-04-19T10:02:42.999Z</time></trkpt><trkpt lat="40.03119940261551" lon="15.94148488990656"><ele>1229.0</ele><time>2026-04-19T10:02:43.999Z</time></trkpt><trkpt lat="40.031218909128384" lon="15.941573990173126"><ele>1229.0</ele><time>2026-04-19T10:02:44.999Z</time></trkpt><trkpt lat="40.03120519873708" lon="15.941698632720936"><ele>1229.0</ele><time>2026-04-19T10:02:46.999Z</time></trkpt><trkpt lat="40.031131476976455" lon="15.941778461908761"><ele>1229.0</ele><time>2026-04-19T10:02:48.999Z</time></trkpt><trkpt lat="40.03106716895798" lon="15.941840796510405"><ele>1231.0</ele><time>2026-04-19T10:02:49.999Z</time></trkpt><trkpt lat="40.03100742217285" lon="15.941909763684306"><ele>1233.0</ele><time>2026-04-19T10:02:50.999Z</time></trkpt><trkpt lat="40.030931017875375" lon="15.942039058653375"><ele>1235.0</ele><time>2026-04-19T10:02:52.999Z</time></trkpt><trkpt lat="40.0308789345194" lon="15.942137335203562"><ele>1237.0</ele><time>2026-04-19T10:02:53.999Z</time></trkpt><trkpt lat="40.03081055889663" lon="15.942213208294403"><ele>1239.0</ele><time>2026-04-19T10:02:54.999Z</time></trkpt><trkpt lat="40.03073230189676" lon="15.942305246130722"><ele>1239.0</ele><time>2026-04-19T10:02:55.999Z</time></trkpt><trkpt lat="40.03065090272904" lon="15.94239015162405"><ele>1239.0</ele><time>2026-04-19T10:02:56.999Z</time></trkpt><trkpt lat="40.03061741007108" lon="15.942481771895"><ele>1239.0</ele><time>2026-04-19T10:02:57.999Z</time></trkpt><trkpt lat="40.030532416401684" lon="15.94258040708126"><ele>1239.0</ele><time>2026-04-19T10:02:58.999Z</time></trkpt><trkpt lat="40.030440275510095" lon="15.94264076740065"><ele>1239.0</ele><time>2026-04-19T10:03:00.999Z</time></trkpt><trkpt lat="40.03034034951376" lon="15.942657315977495"><ele>1243.1666666666667</ele><time>2026-04-19T10:03:02.999Z</time></trkpt><trkpt lat="40.030278842591414" lon="15.942705109915726"><ele>1247.3333333333333</ele><time>2026-04-19T10:03:04.999Z</time></trkpt><trkpt lat="40.03025122084124" lon="15.942786962543638"><ele>1251.5</ele><time>2026-04-19T10:03:11.999Z</time></trkpt><trkpt lat="40.030283370960554" lon="15.942896104911629"><ele>1255.6666666666665</ele><time>2026-04-19T10:03:15.999Z</time></trkpt><trkpt lat="40.03028191777462" lon="15.943007762032327"><ele>1259.8333333333333</ele><time>2026-04-19T10:03:19.999Z</time></trkpt><trkpt lat="40.03027149382677" lon="15.943099199662939"><ele>1264.0</ele><time>2026-04-19T10:03:22.999Z</time></trkpt><trkpt lat="40.03016038852734" lon="15.943206895799442"><ele>1264.0</ele><time>2026-04-19T10:04:20Z</time></trkpt><trkpt lat="40.03006743354147" lon="15.943207996023917"><ele>1264.0</ele><time>2026-04-19T10:04:23Z</time></trkpt><trkpt lat="40.029983623809706" lon="15.943244208017532"><ele>1264.0</ele><time>2026-04-19T10:05:15.999Z</time></trkpt><trkpt lat="40.02992781061857" lon="15.943286763629171"><ele>1264.0</ele><time>2026-04-19T10:06:21Z</time></trkpt><trkpt lat="40.02986825573342" lon="15.943202904425382"><ele>1264.0</ele><time>2026-04-19T10:07:04.999Z</time></trkpt><trkpt lat="40.02993371716258" lon="15.943257463796423"><ele>1264.0</ele><time>2026-04-19T10:07:26.999Z</time></trkpt><trkpt lat="40.02986100988437" lon="15.943280196490832"><ele>1264.0</ele><time>2026-04-19T10:08:40.999Z</time></trkpt><trkpt lat="40.02981761919073" lon="15.943219498784648"><ele>1264.0</ele><time>2026-04-19T10:09:38.999Z</time></trkpt><trkpt lat="40.02989788636337" lon="15.943367095056995"><ele>1264.0</ele><time>2026-04-19T10:11:22.999Z</time></trkpt><trkpt lat="40.02993238105021" lon="15.943285176660083"><ele>1264.0</ele><time>2026-04-19T10:11:51Z</time></trkpt><trkpt lat="40.029875889743465" lon="15.943205520746018"><ele>1264.0</ele><time>2026-04-19T10:15:03Z</time></trkpt><trkpt lat="40.02992516105674" lon="15.94327368144325"><ele>1264.0</ele><time>2026-04-19T10:16:01Z</time></trkpt><trkpt lat="40.02997570686104" lon="15.943338827560947"><ele>1264.0</ele><time>2026-04-19T10:16:18Z</time></trkpt><trkpt lat="40.03002859885323" lon="15.94327646511213"><ele>1264.0</ele><time>2026-04-19T10:16:41Z</time></trkpt><trkpt lat="40.02995592307565" lon="15.94329295297624"><ele>1264.0</ele><time>2026-04-19T10:17:02Z</time></trkpt><trkpt lat="40.02988124873807" lon="15.943298558493867"><ele>1264.0</ele><time>2026-04-19T10:17:04Z</time></trkpt><trkpt lat="40.0297688550056" lon="15.943329240598338"><ele>1264.0</ele><time>2026-04-19T10:17:06Z</time></trkpt><trkpt lat="40.02965096465886" lon="15.94341740119085"><ele>1266.0</ele><time>2026-04-19T10:17:08Z</time></trkpt><trkpt lat="40.02954415063382" lon="15.943502374430455"><ele>1268.0</ele><time>2026-04-19T10:17:10Z</time></trkpt><trkpt lat="40.0295355325535" lon="15.943587179220025"><ele>1270.0</ele><time>2026-04-19T10:17:12Z</time></trkpt><trkpt lat="40.02948248944935" lon="15.943641469904792"><ele>1272.0</ele><time>2026-04-19T10:17:14Z</time></trkpt><trkpt lat="40.029424676005924" lon="15.943680221552885"><ele>1274.0</ele><time>2026-04-19T10:17:16Z</time></trkpt><trkpt lat="40.02939612494587" lon="15.943760615410826"><ele>1276.0</ele><time>2026-04-19T10:17:18Z</time></trkpt><trkpt lat="40.02930173714663" lon="15.943846494880608"><ele>1276.0</ele><time>2026-04-19T10:17:20Z</time></trkpt><trkpt lat="40.029252007964544" lon="15.943913514468923"><ele>1276.0</ele><time>2026-04-19T10:17:21Z</time></trkpt><trkpt lat="40.029153026858275" lon="15.944003076251024"><ele>1276.0</ele><time>2026-04-19T10:17:23Z</time></trkpt><trkpt lat="40.02909788657971" lon="15.944139474479284"><ele>1276.0</ele><time>2026-04-19T10:17:25Z</time></trkpt><trkpt lat="40.0290291038872" lon="15.944252357131516"><ele>1276.0</ele><time>2026-04-19T10:17:27Z</time></trkpt><trkpt lat="40.028969799930096" lon="15.944297622880898"><ele>1275.3333333333333</ele><time>2026-04-19T10:17:28Z</time></trkpt><trkpt lat="40.028914132336475" lon="15.944349660865571"><ele>1274.6666666666665</ele><time>2026-04-19T10:17:29Z</time></trkpt><trkpt lat="40.02883970489127" lon="15.944482921858862"><ele>1274.0</ele><time>2026-04-19T10:17:30.999Z</time></trkpt><trkpt lat="40.02881823770187" lon="15.94456170168243"><ele>1273.3333333333333</ele><time>2026-04-19T10:17:31.999Z</time></trkpt><trkpt lat="40.028762546466886" lon="15.944641754545483"><ele>1272.6666666666667</ele><time>2026-04-19T10:17:33.999Z</time></trkpt><trkpt lat="40.028686531214824" lon="15.944676710585684"><ele>1272.0</ele><time>2026-04-19T10:17:34.999Z</time></trkpt><trkpt lat="40.02859966863911" lon="15.944722667367751"><ele>1272.0</ele><time>2026-04-19T10:17:35.999Z</time></trkpt><trkpt lat="40.02853307350633" lon="15.944761409856364"><ele>1272.0</ele><time>2026-04-19T10:17:36.999Z</time></trkpt><trkpt lat="40.028474775798806" lon="15.94486720945614"><ele>1272.0</ele><time>2026-04-19T10:17:38.999Z</time></trkpt><trkpt lat="40.02840815690982" lon="15.944972170142002"><ele>1272.0</ele><time>2026-04-19T10:17:40.999Z</time></trkpt><trkpt lat="40.028335939361966" lon="15.945009509874147"><ele>1272.0</ele><time>2026-04-19T10:17:41.999Z</time></trkpt><trkpt lat="40.02826354947597" lon="15.94505545470215"><ele>1272.0</ele><time>2026-04-19T10:17:42.999Z</time></trkpt><trkpt lat="40.02818207977673" lon="15.945175167592229"><ele>1269.8</ele><time>2026-04-19T10:17:44.999Z</time></trkpt><trkpt lat="40.02809504389532" lon="15.945297989007155"><ele>1267.6</ele><time>2026-04-19T10:17:46.999Z</time></trkpt><trkpt lat="40.02802163203405" lon="15.945359287315329"><ele>1265.3999999999999</ele><time>2026-04-19T10:17:47.999Z</time></trkpt><trkpt lat="40.02794526916002" lon="15.945429522095703"><ele>1263.2</ele><time>2026-04-19T10:17:48.999Z</time></trkpt><trkpt lat="40.02789407950531" lon="15.945521214699612"><ele>1261.0</ele><time>2026-04-19T10:17:49.999Z</time></trkpt><trkpt lat="40.027840172991176" lon="15.945610186348024"><ele>1261.0</ele><time>2026-04-19T10:17:50.999Z</time></trkpt><trkpt lat="40.02773995985133" lon="15.945778682176803"><ele>1261.0</ele><time>2026-04-19T10:17:52.999Z</time></trkpt><trkpt lat="40.02771497995254" lon="15.945882905545918"><ele>1261.0</ele><time>2026-04-19T10:17:53.999Z</time></trkpt><trkpt lat="40.02768078253174" lon="15.945996707894231"><ele>1261.0</ele><time>2026-04-19T10:17:54.999Z</time></trkpt><trkpt lat="40.02764902630024" lon="15.946119060465552"><ele>1261.0</ele><time>2026-04-19T10:17:55.999Z</time></trkpt><trkpt lat="40.02761084356522" lon="15.946225529533208"><ele>1259.6666666666665</ele><time>2026-04-19T10:17:56.999Z</time></trkpt><trkpt lat="40.0275959352937" lon="15.946321888442903"><ele>1258.3333333333333</ele><time>2026-04-19T10:17:57.999Z</time></trkpt><trkpt lat="40.02756920477167" lon="15.94640630464008"><ele>1257.0</ele><time>2026-04-19T10:17:58.999Z</time></trkpt><trkpt lat="40.02753732365837" lon="15.94648238874101"><ele>1255.6666666666667</ele><time>2026-04-19T10:17:59.999Z</time></trkpt><trkpt lat="40.02749219562043" lon="15.9465603881703"><ele>1254.3333333333335</ele><time>2026-04-19T10:18:00.999Z</time></trkpt><trkpt lat="40.027421675327986" lon="15.946646996873335"><ele>1253.0</ele><time>2026-04-19T10:18:01.999Z</time></trkpt><trkpt lat="40.02737594264963" lon="15.946715796045634"><ele>1249.0</ele><time>2026-04-19T10:18:02.999Z</time></trkpt><trkpt lat="40.02737277970084" lon="15.946859044835323"><ele>1245.0</ele><time>2026-04-19T10:18:04.999Z</time></trkpt><trkpt lat="40.027370571021905" lon="15.946980393320885"><ele>1241.0</ele><time>2026-04-19T10:18:07Z</time></trkpt><trkpt lat="40.02731075382106" lon="15.947045399779062"><ele>1237.0</ele><time>2026-04-19T10:18:08Z</time></trkpt><trkpt lat="40.027237773438216" lon="15.947094045811225"><ele>1233.0</ele><time>2026-04-19T10:18:09Z</time></trkpt><trkpt lat="40.02718754813565" lon="15.947235502407029"><ele>1233.0</ele><time>2026-04-19T10:18:11Z</time></trkpt><trkpt lat="40.02718118878244" lon="15.947349400638858"><ele>1233.0</ele><time>2026-04-19T10:18:12Z</time></trkpt><trkpt lat="40.02714463976718" lon="15.947453133175975"><ele>1233.0</ele><time>2026-04-19T10:18:13Z</time></trkpt><trkpt lat="40.02707733664224" lon="15.947539995208924"><ele>1233.0</ele><time>2026-04-19T10:18:14Z</time></trkpt><trkpt lat="40.02702792660066" lon="15.94763370142962"><ele>1233.0</ele><time>2026-04-19T10:18:15Z</time></trkpt><trkpt lat="40.027006617710995" lon="15.94772624742306"><ele>1233.0</ele><time>2026-04-19T10:18:16Z</time></trkpt><trkpt lat="40.02698171747176" lon="15.947874103878272"><ele>1230.8</ele><time>2026-04-19T10:18:18Z</time></trkpt><trkpt lat="40.0269504266368" lon="15.947955945948426"><ele>1228.6</ele><time>2026-04-19T10:18:19Z</time></trkpt><trkpt lat="40.02689602504377" lon="15.948082185713178"><ele>1226.4</ele><time>2026-04-19T10:18:21Z</time></trkpt><trkpt lat="40.02685604833764" lon="15.948223221367181"><ele>1224.2</ele><time>2026-04-19T10:18:23Z</time></trkpt><trkpt lat="40.02683899813213" lon="15.948367422692728"><ele>1222.0</ele><time>2026-04-19T10:18:25Z</time></trkpt><trkpt lat="40.02682344279525" lon="15.948452595895379"><ele>1220.1666666666665</ele><time>2026-04-19T10:18:26Z</time></trkpt><trkpt lat="40.02681764177852" lon="15.948539788413807"><ele>1218.3333333333333</ele><time>2026-04-19T10:18:27Z</time></trkpt><trkpt lat="40.02682047127028" lon="15.948641014274198"><ele>1216.5</ele><time>2026-04-19T10:18:28Z</time></trkpt><trkpt lat="40.026813330589256" lon="15.948729044503205"><ele>1214.6666666666667</ele><time>2026-04-19T10:18:29Z</time></trkpt><trkpt lat="40.02677461261228" lon="15.94885775106873"><ele>1212.8333333333335</ele><time>2026-04-19T10:18:31Z</time></trkpt><trkpt lat="40.02674054608758" lon="15.948951005443485"><ele>1211.0</ele><time>2026-04-19T10:18:33Z</time></trkpt><trkpt lat="40.02668406877172" lon="15.949036837723462"><ele>1211.0</ele><time>2026-04-19T10:18:35Z</time></trkpt><trkpt lat="40.02666083654481" lon="15.94912578905691"><ele>1211.0</ele><time>2026-04-19T10:18:36Z</time></trkpt><trkpt lat="40.02666748921275" lon="15.949269875775872"><ele>1211.0</ele><time>2026-04-19T10:18:38Z</time></trkpt><trkpt lat="40.02661350905042" lon="15.949386465977105"><ele>1211.0</ele><time>2026-04-19T10:18:41Z</time></trkpt><trkpt lat="40.026578830116875" lon="15.949479944075303"><ele>1211.0</ele><time>2026-04-19T10:18:44Z</time></trkpt><trkpt lat="40.02668403950049" lon="15.949646598337022"><ele>1209.3999999999999</ele><time>2026-04-19T10:18:46Z</time></trkpt><trkpt lat="40.026654199685744" lon="15.949757308649547"><ele>1207.8</ele><time>2026-04-19T10:18:47Z</time></trkpt><trkpt lat="40.02672474376024" lon="15.949880051225858"><ele>1206.1999999999998</ele><time>2026-04-19T10:18:49Z</time></trkpt><trkpt lat="40.026722280012066" lon="15.949983897230693"><ele>1204.6</ele><time>2026-04-19T10:18:50Z</time></trkpt><trkpt lat="40.026666523896374" lon="15.950090921187462"><ele>1203.0</ele><time>2026-04-19T10:18:51Z</time></trkpt><trkpt lat="40.02661715924183" lon="15.95015805072684"><ele>1199.1666666666667</ele><time>2026-04-19T10:18:52Z</time></trkpt><trkpt lat="40.026601962329075" lon="15.950238434633391"><ele>1195.3333333333333</ele><time>2026-04-19T10:18:53Z</time></trkpt><trkpt lat="40.0266116804341" lon="15.950337680426212"><ele>1191.5</ele><time>2026-04-19T10:18:54Z</time></trkpt><trkpt lat="40.02660568997748" lon="15.950437759188102"><ele>1187.6666666666665</ele><time>2026-04-19T10:18:55Z</time></trkpt><trkpt lat="40.02661106354192" lon="15.950569086979472"><ele>1183.8333333333333</ele><time>2026-04-19T10:18:56Z</time></trkpt><trkpt lat="40.02659210829019" lon="15.950654999321092"><ele>1180.0</ele><time>2026-04-19T10:18:57Z</time></trkpt><trkpt lat="40.026494956831975" lon="15.950800456996408"><ele>1178.1666666666665</ele><time>2026-04-19T10:18:59Z</time></trkpt><trkpt lat="40.02648548898058" lon="15.950943331122986"><ele>1176.3333333333333</ele><time>2026-04-19T10:19:00Z</time></trkpt><trkpt lat="40.02646545949794" lon="15.951023383406389"><ele>1174.5</ele><time>2026-04-19T10:19:01Z</time></trkpt><trkpt lat="40.0264736401816" lon="15.951117197916748"><ele>1172.6666666666667</ele><time>2026-04-19T10:19:02Z</time></trkpt><trkpt lat="40.0264465949361" lon="15.951204556169388"><ele>1170.8333333333335</ele><time>2026-04-19T10:19:03Z</time></trkpt><trkpt lat="40.02648475363889" lon="15.951278890710483"><ele>1169.0</ele><time>2026-04-19T10:19:04Z</time></trkpt><trkpt lat="40.02650952534605" lon="15.951376702819838"><ele>1169.0</ele><time>2026-04-19T10:19:05Z</time></trkpt><trkpt lat="40.026527212836704" lon="15.951477313759087"><ele>1169.0</ele><time>2026-04-19T10:19:06Z</time></trkpt><trkpt lat="40.02652398918457" lon="15.951598406424784"><ele>1169.0</ele><time>2026-04-19T10:19:07Z</time></trkpt><trkpt lat="40.02652480591341" lon="15.951701391081171"><ele>1169.0</ele><time>2026-04-19T10:19:08Z</time></trkpt><trkpt lat="40.02651382944733" lon="15.95178888725897"><ele>1169.0</ele><time>2026-04-19T10:19:09Z</time></trkpt><trkpt lat="40.02648843061727" lon="15.95188767021792"><ele>1169.0</ele><time>2026-04-19T10:19:10Z</time></trkpt><trkpt lat="40.026460965747006" lon="15.951982958497402"><ele>1167.4</ele><time>2026-04-19T10:19:11Z</time></trkpt><trkpt lat="40.026445851468665" lon="15.952066537741436"><ele>1165.8000000000002</ele><time>2026-04-19T10:19:12Z</time></trkpt><trkpt lat="40.02643496166273" lon="15.952210877587618"><ele>1164.1999999999998</ele><time>2026-04-19T10:19:14Z</time></trkpt><trkpt lat="40.02640842218374" lon="15.952330221957002"><ele>1162.6</ele><time>2026-04-19T10:19:16Z</time></trkpt><trkpt lat="40.026347508155354" lon="15.952415908553508"><ele>1161.0</ele><time>2026-04-19T10:19:18Z</time></trkpt><trkpt lat="40.02628864265533" lon="15.952513748027965"><ele>1158.3999999999999</ele><time>2026-04-19T10:19:20Z</time></trkpt><trkpt lat="40.02629217523573" lon="15.95262866199782"><ele>1155.8</ele><time>2026-04-19T10:19:22Z</time></trkpt><trkpt lat="40.02628880541858" lon="15.952762982993228"><ele>1153.1999999999998</ele><time>2026-04-19T10:19:24Z</time></trkpt><trkpt lat="40.026279143743686" lon="15.952874845451483"><ele>1150.6</ele><time>2026-04-19T10:19:26Z</time></trkpt><trkpt lat="40.02624437363859" lon="15.953000139657435"><ele>1148.0</ele><time>2026-04-19T10:19:28Z</time></trkpt><trkpt lat="40.02617303964811" lon="15.953111385679286"><ele>1148.0</ele><time>2026-04-19T10:19:30Z</time></trkpt><trkpt lat="40.02610652246951" lon="15.953203826546073"><ele>1148.0</ele><time>2026-04-19T10:19:32Z</time></trkpt><trkpt lat="40.026065488261224" lon="15.95327865379611"><ele>1148.0</ele><time>2026-04-19T10:19:34Z</time></trkpt><trkpt lat="40.02604883013388" lon="15.953385241314587"><ele>1148.0</ele><time>2026-04-19T10:19:36Z</time></trkpt><trkpt lat="40.02604360741113" lon="15.953469237542423"><ele>1148.0</ele><time>2026-04-19T10:19:38Z</time></trkpt><trkpt lat="40.02601270517886" lon="15.953599004199678"><ele>1148.0</ele><time>2026-04-19T10:19:40Z</time></trkpt><trkpt lat="40.025943374941974" lon="15.95373240251367"><ele>1144.5</ele><time>2026-04-19T10:19:42Z</time></trkpt><trkpt lat="40.02590200999937" lon="15.953804888963687"><ele>1141.0</ele><time>2026-04-19T10:19:43Z</time></trkpt><trkpt lat="40.02584751702227" lon="15.9539259451944"><ele>1137.5</ele><time>2026-04-19T10:19:45Z</time></trkpt><trkpt lat="40.02577453747946" lon="15.954014850188942"><ele>1134.0</ele><time>2026-04-19T10:19:47Z</time></trkpt><trkpt lat="40.025735014606894" lon="15.954092834212505"><ele>1130.5</ele><time>2026-04-19T10:19:48Z</time></trkpt><trkpt lat="40.025701182405" lon="15.954184686741513"><ele>1127.0</ele><time>2026-04-19T10:19:49Z</time></trkpt><trkpt lat="40.02565729010416" lon="15.954294657652364"><ele>1125.3333333333335</ele><time>2026-04-19T10:19:49.999Z</time></trkpt><trkpt lat="40.025594899407444" lon="15.954410025461582"><ele>1123.6666666666667</ele><time>2026-04-19T10:19:50.999Z</time></trkpt><trkpt lat="40.02554195491933" lon="15.954511241745504"><ele>1122.0</ele><time>2026-04-19T10:19:51.999Z</time></trkpt><trkpt lat="40.02550457611406" lon="15.954596070097805"><ele>1120.3333333333333</ele><time>2026-04-19T10:19:52.999Z</time></trkpt><trkpt lat="40.0254614321739" lon="15.954670023868163"><ele>1118.6666666666665</ele><time>2026-04-19T10:19:53.999Z</time></trkpt><trkpt lat="40.02541645643009" lon="15.954735290867035"><ele>1117.0</ele><time>2026-04-19T10:19:54.999Z</time></trkpt><trkpt lat="40.025366042931125" lon="15.954793235719965"><ele>1117.0</ele><time>2026-04-19T10:19:55.999Z</time></trkpt><trkpt lat="40.02531647603732" lon="15.954908158508186"><ele>1117.0</ele><time>2026-04-19T10:19:57.999Z</time></trkpt><trkpt lat="40.02523465048775" lon="15.955049743967784"><ele>1117.0</ele><time>2026-04-19T10:19:59.999Z</time></trkpt><trkpt lat="40.02519396917876" lon="15.95512615666536"><ele>1117.0</ele><time>2026-04-19T10:20:00.999Z</time></trkpt><trkpt lat="40.02510352517243" lon="15.95525389947653"><ele>1117.0</ele><time>2026-04-19T10:20:02.999Z</time></trkpt><trkpt lat="40.025051423905886" lon="15.955331713387316"><ele>1118.0</ele><time>2026-04-19T10:20:03.999Z</time></trkpt><trkpt lat="40.02499223263744" lon="15.95542370062165"><ele>1119.0</ele><time>2026-04-19T10:20:04.999Z</time></trkpt><trkpt lat="40.024936749377424" lon="15.955498440203606"><ele>1120.0</ele><time>2026-04-19T10:20:05.999Z</time></trkpt><trkpt lat="40.02486890426989" lon="15.955607882252925"><ele>1121.0</ele><time>2026-04-19T10:20:07.999Z</time></trkpt><trkpt lat="40.02481941169007" lon="15.955698670158752"><ele>1122.0</ele><time>2026-04-19T10:20:09.999Z</time></trkpt><trkpt lat="40.02478300948107" lon="15.955869153685322"><ele>1118.6666666666667</ele><time>2026-04-19T10:20:11.999Z</time></trkpt><trkpt lat="40.02477185701185" lon="15.955971819329356"><ele>1115.3333333333333</ele><time>2026-04-19T10:20:13Z</time></trkpt><trkpt lat="40.0247484581935" lon="15.95607507206091"><ele>1112.0</ele><time>2026-04-19T10:20:14Z</time></trkpt><trkpt lat="40.02471852846902" lon="15.956205212900128"><ele>1108.6666666666665</ele><time>2026-04-19T10:20:16Z</time></trkpt><trkpt lat="40.02471426371527" lon="15.95630086857306"><ele>1105.3333333333333</ele><time>2026-04-19T10:20:18Z</time></trkpt><trkpt lat="40.02468254230567" lon="15.956437444508964"><ele>1102.0</ele><time>2026-04-19T10:20:20Z</time></trkpt><trkpt lat="40.0246634298573" lon="15.956516239420301"><ele>1102.0</ele><time>2026-04-19T10:20:21Z</time></trkpt><trkpt lat="40.02466300353836" lon="15.956654330688444"><ele>1102.0</ele><time>2026-04-19T10:20:23Z</time></trkpt><trkpt lat="40.02470633050181" lon="15.956768632550938"><ele>1102.0</ele><time>2026-04-19T10:20:25Z</time></trkpt><trkpt lat="40.02473940419929" lon="15.956893734438959"><ele>1102.0</ele><time>2026-04-19T10:20:27Z</time></trkpt><trkpt lat="40.0247348840369" lon="15.957021620449382"><ele>1102.0</ele><time>2026-04-19T10:20:29Z</time></trkpt><trkpt lat="40.02471152620804" lon="15.957105228699193"><ele>1100.0</ele><time>2026-04-19T10:20:30Z</time></trkpt><trkpt lat="40.02464872058081" lon="15.957117270901964"><ele>1098.0</ele><time>2026-04-19T10:20:31Z</time></trkpt><trkpt lat="40.02458822331174" lon="15.95716875175951"><ele>1096.0</ele><time>2026-04-19T10:20:32Z</time></trkpt><trkpt lat="40.02451003694397" lon="15.957249176730642"><ele>1094.0</ele><time>2026-04-19T10:20:33Z</time></trkpt><trkpt lat="40.024458028261506" lon="15.957300560587727"><ele>1092.0</ele><time>2026-04-19T10:20:34Z</time></trkpt><trkpt lat="40.024385842776695" lon="15.957389661366603"><ele>1090.0</ele><time>2026-04-19T10:20:35Z</time></trkpt><trkpt lat="40.024309259804625" lon="15.957533313010972"><ele>1090.5</ele><time>2026-04-19T10:20:36Z</time></trkpt><trkpt lat="40.0242414913696" lon="15.957649470428171"><ele>1091.0</ele><time>2026-04-19T10:20:37Z</time></trkpt><trkpt lat="40.024160995703966" lon="15.957800135699403"><ele>1091.5</ele><time>2026-04-19T10:20:38Z</time></trkpt><trkpt lat="40.024053660452324" lon="15.957925465615723"><ele>1092.0</ele><time>2026-04-19T10:20:39Z</time></trkpt><trkpt lat="40.023992407368254" lon="15.958027437083558"><ele>1087.4</ele><time>2026-04-19T10:20:40Z</time></trkpt><trkpt lat="40.02392451400533" lon="15.958117814788901"><ele>1082.8000000000002</ele><time>2026-04-19T10:20:41Z</time></trkpt><trkpt lat="40.023886652922" lon="15.958198236601335"><ele>1078.2</ele><time>2026-04-19T10:20:42Z</time></trkpt><trkpt lat="40.02384180211845" lon="15.958366679639806"><ele>1073.6000000000001</ele><time>2026-04-19T10:20:44Z</time></trkpt><trkpt lat="40.023818342080915" lon="15.958492812376024"><ele>1069.0</ele><time>2026-04-19T10:20:45Z</time></trkpt><trkpt lat="40.02378125445368" lon="15.958655893462188"><ele>1069.0</ele><time>2026-04-19T10:20:46Z</time></trkpt><trkpt lat="40.023735911101" lon="15.958810971083398"><ele>1069.0</ele><time>2026-04-19T10:20:47Z</time></trkpt><trkpt lat="40.02370435680938" lon="15.958939153261264"><ele>1069.0</ele><time>2026-04-19T10:20:48Z</time></trkpt><trkpt lat="40.023671824140195" lon="15.959052155970637"><ele>1069.0</ele><time>2026-04-19T10:20:49Z</time></trkpt><trkpt lat="40.023622119901624" lon="15.9591440616321"><ele>1069.0</ele><time>2026-04-19T10:20:50Z</time></trkpt><trkpt lat="40.02356410797114" lon="15.959238189072021"><ele>1068.6666666666665</ele><time>2026-04-19T10:20:51Z</time></trkpt><trkpt lat="40.023506173515756" lon="15.95933665303382"><ele>1068.3333333333333</ele><time>2026-04-19T10:20:52Z</time></trkpt><trkpt lat="40.02345594462107" lon="15.959412085781887"><ele>1068.0</ele><time>2026-04-19T10:20:53Z</time></trkpt><trkpt lat="40.02341545050441" lon="15.959483280576134"><ele>1067.6666666666667</ele><time>2026-04-19T10:20:54Z</time></trkpt><trkpt lat="40.023379423129555" lon="15.959552927233137"><ele>1067.3333333333335</ele><time>2026-04-19T10:20:55Z</time></trkpt><trkpt lat="40.023336273043924" lon="15.959677276232537"><ele>1067.0</ele><time>2026-04-19T10:20:57Z</time></trkpt><trkpt lat="40.02330275306988" lon="15.959747307369092"><ele>1067.0</ele><time>2026-04-19T10:20:59Z</time></trkpt><trkpt lat="40.023243052017364" lon="15.959778656973642"><ele>1067.0</ele><time>2026-04-19T10:21:01Z</time></trkpt><trkpt lat="40.02320525503316" lon="15.959923712673382"><ele>1067.0</ele><time>2026-04-19T10:21:05Z</time></trkpt><trkpt lat="40.023168517095" lon="15.960008616456374"><ele>1067.0</ele><time>2026-04-19T10:21:06Z</time></trkpt><trkpt lat="40.02315110708521" lon="15.96013633430527"><ele>1067.0</ele><time>2026-04-19T10:21:07Z</time></trkpt><trkpt lat="40.023189216522645" lon="15.960282648379811"><ele>1067.0</ele><time>2026-04-19T10:21:09Z</time></trkpt><trkpt lat="40.02316881325937" lon="15.960417108846944"><ele>1067.0</ele><time>2026-04-19T10:21:11Z</time></trkpt><trkpt lat="40.023153962162496" lon="15.960497530573363"><ele>1067.0</ele><time>2026-04-19T10:21:12Z</time></trkpt><trkpt lat="40.02310293107404" lon="15.960626424039587"><ele>1067.0</ele><time>2026-04-19T10:21:14Z</time></trkpt><trkpt lat="40.02307598860767" lon="15.960702850195675"><ele>1067.0</ele><time>2026-04-19T10:21:16Z</time></trkpt><trkpt lat="40.02303372941379" lon="15.960795241442172"><ele>1067.0</ele><time>2026-04-19T10:21:18Z</time></trkpt><trkpt lat="40.02298933007399" lon="15.960860398671738"><ele>1064.2</ele><time>2026-04-19T10:21:19Z</time></trkpt><trkpt lat="40.022936626515744" lon="15.960918038913498"><ele>1061.4</ele><time>2026-04-19T10:21:20Z</time></trkpt><trkpt lat="40.022882805477614" lon="15.960969582465896"><ele>1058.6</ele><time>2026-04-19T10:21:21Z</time></trkpt><trkpt lat="40.02276228282684" lon="15.961032957424479"><ele>1055.8</ele><time>2026-04-19T10:21:23Z</time></trkpt><trkpt lat="40.02267023985076" lon="15.961014882636587"><ele>1053.0</ele><time>2026-04-19T10:21:24Z</time></trkpt><trkpt lat="40.02255092409088" lon="15.961024250766272"><ele>1053.0</ele><time>2026-04-19T10:21:26Z</time></trkpt><trkpt lat="40.022490530672194" lon="15.96112751159301"><ele>1053.0</ele><time>2026-04-19T10:21:28Z</time></trkpt><trkpt lat="40.022468413270744" lon="15.961218972554999"><ele>1053.0</ele><time>2026-04-19T10:21:29Z</time></trkpt><trkpt lat="40.02243989227481" lon="15.96129417258109"><ele>1053.0</ele><time>2026-04-19T10:21:30Z</time></trkpt><trkpt lat="40.022416791522296" lon="15.961377759959085"><ele>1053.0</ele><time>2026-04-19T10:21:31Z</time></trkpt><trkpt lat="40.02241072573026" lon="15.961468236244954"><ele>1053.0</ele><time>2026-04-19T10:21:32Z</time></trkpt><trkpt lat="40.02235247054622" lon="15.961576897638365"><ele>1051.6666666666667</ele><time>2026-04-19T10:21:34Z</time></trkpt><trkpt lat="40.022293110125474" lon="15.961670387438431"><ele>1050.3333333333333</ele><time>2026-04-19T10:21:36Z</time></trkpt><trkpt lat="40.02225679025405" lon="15.961802424125937"><ele>1049.0</ele><time>2026-04-19T10:21:38Z</time></trkpt><trkpt lat="40.022250609296634" lon="15.961885083309681"><ele>1047.6666666666665</ele><time>2026-04-19T10:21:39Z</time></trkpt><trkpt lat="40.02221613883242" lon="15.961970812359334"><ele>1046.3333333333333</ele><time>2026-04-19T10:21:40Z</time></trkpt><trkpt lat="40.022157911917915" lon="15.962073256133644"><ele>1045.0</ele><time>2026-04-19T10:21:41Z</time></trkpt><trkpt lat="40.02210748311071" lon="15.96217255597133"><ele>1045.0</ele><time>2026-04-19T10:21:42Z</time></trkpt><trkpt lat="40.02204764884949" lon="15.962251335425112"><ele>1045.0</ele><time>2026-04-19T10:21:43Z</time></trkpt><trkpt lat="40.02196526935049" lon="15.962332034862035"><ele>1045.0</ele><time>2026-04-19T10:21:44Z</time></trkpt><trkpt lat="40.021894256234916" lon="15.962408936564707"><ele>1045.0</ele><time>2026-04-19T10:21:45Z</time></trkpt><trkpt lat="40.02185535205831" lon="15.962491751827924"><ele>1045.0</ele><time>2026-04-19T10:21:46Z</time></trkpt><trkpt lat="40.021828810916666" lon="15.96258318824116"><ele>1045.0</ele><time>2026-04-19T10:21:47Z</time></trkpt><trkpt lat="40.021801161097535" lon="15.96268860114893"><ele>1046.2</ele><time>2026-04-19T10:21:47.999Z</time></trkpt><trkpt lat="40.021765662476675" lon="15.962783475663105"><ele>1047.4</ele><time>2026-04-19T10:21:48.999Z</time></trkpt><trkpt lat="40.021722503715175" lon="15.962858590804284"><ele>1048.6</ele><time>2026-04-19T10:21:49.999Z</time></trkpt><trkpt lat="40.0216398317463" lon="15.962973749133928"><ele>1049.8</ele><time>2026-04-19T10:21:51.999Z</time></trkpt><trkpt lat="40.02157005813103" lon="15.963081003646229"><ele>1051.0</ele><time>2026-04-19T10:21:53.999Z</time></trkpt><trkpt lat="40.02146752362973" lon="15.963149348074271"><ele>1051.0</ele><time>2026-04-19T10:21:55.999Z</time></trkpt><trkpt lat="40.02139817647338" lon="15.963149783113616"><ele>1051.0</ele><time>2026-04-19T10:21:56.999Z</time></trkpt><trkpt lat="40.021300638096825" lon="15.963234765921037"><ele>1051.0</ele><time>2026-04-19T10:21:58.999Z</time></trkpt><trkpt lat="40.021271001406845" lon="15.963341201483987"><ele>1051.0</ele><time>2026-04-19T10:21:59.999Z</time></trkpt><trkpt lat="40.02123552434131" lon="15.963464537133895"><ele>1051.0</ele><time>2026-04-19T10:22:00.999Z</time></trkpt><trkpt lat="40.021186351577725" lon="15.963556276542892"><ele>1046.3999999999999</ele><time>2026-04-19T10:22:01.999Z</time></trkpt><trkpt lat="40.02112990223365" lon="15.963624484150134"><ele>1041.8</ele><time>2026-04-19T10:22:02.999Z</time></trkpt><trkpt lat="40.02107437806878" lon="15.963698779143067"><ele>1037.1999999999998</ele><time>2026-04-19T10:22:03.999Z</time></trkpt><trkpt lat="40.02101130560812" lon="15.963798503011429"><ele>1032.6</ele><time>2026-04-19T10:22:04.999Z</time></trkpt><trkpt lat="40.02095890007702" lon="15.963928543804471"><ele>1028.0</ele><time>2026-04-19T10:22:05.999Z</time></trkpt><trkpt lat="40.020899761070226" lon="15.964058380735342"><ele>1028.0</ele><time>2026-04-19T10:22:06.999Z</time></trkpt><trkpt lat="40.020846212668125" lon="15.964163400837915"><ele>1028.0</ele><time>2026-04-19T10:22:07.999Z</time></trkpt><trkpt lat="40.02078950143638" lon="15.964254583448614"><ele>1028.0</ele><time>2026-04-19T10:22:08.999Z</time></trkpt><trkpt lat="40.02071234536432" lon="15.964330614052011"><ele>1028.0</ele><time>2026-04-19T10:22:09.999Z</time></trkpt><trkpt lat="40.020625170825475" lon="15.964399795229534"><ele>1028.0</ele><time>2026-04-19T10:22:10.999Z</time></trkpt><trkpt lat="40.0205398516662" lon="15.96444984858848"><ele>1029.2</ele><time>2026-04-19T10:22:11.999Z</time></trkpt><trkpt lat="40.02046296078651" lon="15.964482800858576"><ele>1030.4</ele><time>2026-04-19T10:22:12.999Z</time></trkpt><trkpt lat="40.020398770080526" lon="15.964514638304735"><ele>1031.6000000000001</ele><time>2026-04-19T10:22:13.999Z</time></trkpt><trkpt lat="40.02036643822835" lon="15.964697517768496"><ele>1032.8</ele><time>2026-04-19T10:22:15.999Z</time></trkpt><trkpt lat="40.0203583574826" lon="15.964814340252936"><ele>1034.0</ele><time>2026-04-19T10:22:16.999Z</time></trkpt><trkpt lat="40.02032182756157" lon="15.964920339325744"><ele>1031.3333333333335</ele><time>2026-04-19T10:22:17.999Z</time></trkpt><trkpt lat="40.02025824694865" lon="15.965031394150593"><ele>1028.6666666666667</ele><time>2026-04-19T10:22:19Z</time></trkpt><trkpt lat="40.020186439156575" lon="15.965106679937028"><ele>1026.0</ele><time>2026-04-19T10:22:20Z</time></trkpt><trkpt lat="40.020119121177785" lon="15.965174978000336"><ele>1023.3333333333333</ele><time>2026-04-19T10:22:21Z</time></trkpt><trkpt lat="40.02007941244209" lon="15.965247343231228"><ele>1020.6666666666666</ele><time>2026-04-19T10:22:22Z</time></trkpt><trkpt lat="40.02007014401168" lon="15.96535784006774"><ele>1018.0</ele><time>2026-04-19T10:22:23Z</time></trkpt><trkpt lat="40.02009867957469" lon="15.965509099410928"><ele>1018.0</ele><time>2026-04-19T10:22:24Z</time></trkpt><trkpt lat="40.02009883591706" lon="15.96566166199405"><ele>1018.0</ele><time>2026-04-19T10:22:25Z</time></trkpt><trkpt lat="40.020091497003634" lon="15.965824294375192"><ele>1018.0</ele><time>2026-04-19T10:22:26Z</time></trkpt><trkpt lat="40.020094131398636" lon="15.965971639387247"><ele>1018.0</ele><time>2026-04-19T10:22:27Z</time></trkpt><trkpt lat="40.02009923865981" lon="15.966118763419223"><ele>1015.6666666666666</ele><time>2026-04-19T10:22:28Z</time></trkpt><trkpt lat="40.02011676319177" lon="15.966247896367998"><ele>1013.3333333333333</ele><time>2026-04-19T10:22:29Z</time></trkpt><trkpt lat="40.020122490911376" lon="15.966372339084025"><ele>1011.0</ele><time>2026-04-19T10:22:30Z</time></trkpt><trkpt lat="40.02010704040556" lon="15.966476647544187"><ele>1008.6666666666667</ele><time>2026-04-19T10:22:31Z</time></trkpt><trkpt lat="40.02008383479678" lon="15.966564866888463"><ele>1006.3333333333334</ele><time>2026-04-19T10:22:32Z</time></trkpt><trkpt lat="40.02004422905033" lon="15.966658369716823"><ele>1004.0</ele><time>2026-04-19T10:22:33Z</time></trkpt><trkpt lat="40.019990451185144" lon="15.966771559620849"><ele>1004.6666666666667</ele><time>2026-04-19T10:22:34Z</time></trkpt><trkpt lat="40.01996163254471" lon="15.966875198307282"><ele>1005.3333333333334</ele><time>2026-04-19T10:22:35Z</time></trkpt><trkpt lat="40.019954966595385" lon="15.966970930799887"><ele>1006.0</ele><time>2026-04-19T10:22:36Z</time></trkpt><trkpt lat="40.01995078716867" lon="15.967054885978433"><ele>1006.6666666666667</ele><time>2026-04-19T10:22:37Z</time></trkpt><trkpt lat="40.019939433853175" lon="15.96715234267423"><ele>1007.3333333333334</ele><time>2026-04-19T10:22:38Z</time></trkpt><trkpt lat="40.019921842367715" lon="15.967251679222764"><ele>1008.0</ele><time>2026-04-19T10:22:39Z</time></trkpt><trkpt lat="40.019894591636024" lon="15.967343105168089"><ele>1008.0</ele><time>2026-04-19T10:22:40Z</time></trkpt><trkpt lat="40.01986725888666" lon="15.967421878933699"><ele>1008.0</ele><time>2026-04-19T10:22:41Z</time></trkpt><trkpt lat="40.01982971338122" lon="15.967495432489228"><ele>1008.0</ele><time>2026-04-19T10:22:42Z</time></trkpt><trkpt lat="40.01979682828833" lon="15.96757302668948"><ele>1008.0</ele><time>2026-04-19T10:22:43Z</time></trkpt><trkpt lat="40.01977275346702" lon="15.967649649623784"><ele>1008.0</ele><time>2026-04-19T10:22:44Z</time></trkpt><trkpt lat="40.01972773659279" lon="15.967785952350063"><ele>1008.0</ele><time>2026-04-19T10:22:46Z</time></trkpt><trkpt lat="40.01969175794942" lon="15.96786720192357"><ele>1001.4</ele><time>2026-04-19T10:22:47Z</time></trkpt><trkpt lat="40.019648844467184" lon="15.9679349643849"><ele>994.8</ele><time>2026-04-19T10:22:48Z</time></trkpt><trkpt lat="40.01956794049173" lon="15.9680597978775"><ele>988.2</ele><time>2026-04-19T10:22:50Z</time></trkpt><trkpt lat="40.01952994517494" lon="15.968135993688165"><ele>981.6</ele><time>2026-04-19T10:22:51Z</time></trkpt><trkpt lat="40.019490170955585" lon="15.96822438156654"><ele>975.0</ele><time>2026-04-19T10:22:52Z</time></trkpt><trkpt lat="40.019416453639415" lon="15.968347550751922"><ele>976.4</ele><time>2026-04-19T10:22:54Z</time></trkpt><trkpt lat="40.019362154494516" lon="15.968476257421619"><ele>977.8</ele><time>2026-04-19T10:22:56Z</time></trkpt><trkpt lat="40.01931609293507" lon="15.968541803861159"><ele>979.2</ele><time>2026-04-19T10:22:57Z</time></trkpt><trkpt lat="40.01920729613748" lon="15.968631952771002"><ele>980.6</ele><time>2026-04-19T10:22:59Z</time></trkpt><trkpt lat="40.01913418314379" lon="15.96873733459928"><ele>982.0</ele><time>2026-04-19T10:23:01Z</time></trkpt><trkpt lat="40.01912257030441" lon="15.968854118406702"><ele>982.0</ele><time>2026-04-19T10:23:03Z</time></trkpt><trkpt lat="40.01915037236293" lon="15.968949864312723"><ele>982.0</ele><time>2026-04-19T10:23:04Z</time></trkpt><trkpt lat="40.01917771929003" lon="15.969070563034606"><ele>982.0</ele><time>2026-04-19T10:23:05Z</time></trkpt><trkpt lat="40.01918380644657" lon="15.969200466405356"><ele>982.0</ele><time>2026-04-19T10:23:06Z</time></trkpt><trkpt lat="40.01918032268764" lon="15.969318365828954"><ele>982.0</ele><time>2026-04-19T10:23:07Z</time></trkpt><trkpt lat="40.01917573053933" lon="15.969431343211427"><ele>979.0</ele><time>2026-04-19T10:23:08Z</time></trkpt><trkpt lat="40.019163030626835" lon="15.969549808463777"><ele>976.0</ele><time>2026-04-19T10:23:09Z</time></trkpt><trkpt lat="40.01912781063794" lon="15.969680598854373"><ele>973.0</ele><time>2026-04-19T10:23:10Z</time></trkpt><trkpt lat="40.01907602335047" lon="15.96978280481642"><ele>970.0</ele><time>2026-04-19T10:23:11Z</time></trkpt><trkpt lat="40.01903781585873" lon="15.969862353930818"><ele>967.0</ele><time>2026-04-19T10:23:12Z</time></trkpt><trkpt lat="40.01905055755931" lon="15.970054006803235"><ele>961.6666666666666</ele><time>2026-04-19T10:23:14Z</time></trkpt><trkpt lat="40.01905883807275" lon="15.970188451544482"><ele>956.3333333333333</ele><time>2026-04-19T10:23:15Z</time></trkpt><trkpt lat="40.01904609336437" lon="15.970294131291732"><ele>951.0</ele><time>2026-04-19T10:23:16Z</time></trkpt><trkpt lat="40.019026055517855" lon="15.970383847191341"><ele>945.6666666666667</ele><time>2026-04-19T10:23:17Z</time></trkpt><trkpt lat="40.01899528915298" lon="15.970485183566863"><ele>940.3333333333334</ele><time>2026-04-19T10:23:18Z</time></trkpt><trkpt lat="40.01899205388833" lon="15.970608165235367"><ele>935.0</ele><time>2026-04-19T10:23:19Z</time></trkpt><trkpt lat="40.01901057643578" lon="15.970735641487499"><ele>935.0000000000001</ele><time>2026-04-19T10:23:20Z</time></trkpt><trkpt lat="40.01902666433954" lon="15.970827210598017"><ele>935.0</ele><time>2026-04-19T10:23:21Z</time></trkpt><trkpt lat="40.01905142598571" lon="15.970910944801583"><ele>935.0</ele><time>2026-04-19T10:23:22Z</time></trkpt><trkpt lat="40.0190517206615" lon="15.97099324233163"><ele>935.0</ele><time>2026-04-19T10:23:23Z</time></trkpt><trkpt lat="40.01904817975482" lon="15.971102259634323"><ele>935.0000000000001</ele><time>2026-04-19T10:23:24Z</time></trkpt><trkpt lat="40.01904919168177" lon="15.971215903629478"><ele>935.0</ele><time>2026-04-19T10:23:25Z</time></trkpt><trkpt lat="40.01909070840443" lon="15.971334602416427"><ele>931.0000000000001</ele><time>2026-04-19T10:23:27Z</time></trkpt><trkpt lat="40.019092591566945" lon="15.97143831461873"><ele>927.0</ele><time>2026-04-19T10:23:30Z</time></trkpt><trkpt lat="40.01904956181237" lon="15.97150393041872"><ele>923.0000000000001</ele><time>2026-04-19T10:23:33Z</time></trkpt><trkpt lat="40.01899190900702" lon="15.971416527760036"><ele>919.0000000000001</ele><time>2026-04-19T10:23:37Z</time></trkpt><trkpt lat="40.01893293657918" lon="15.971360431070151"><ele>915.0</ele><time>2026-04-19T10:23:39Z</time></trkpt><trkpt lat="40.01887391435757" lon="15.971328625410058"><ele>911.0000000000001</ele><time>2026-04-19T10:23:41Z</time></trkpt><trkpt lat="40.01884643868541" lon="15.971234365848565"><ele>907.0000000000001</ele><time>2026-04-19T10:23:45Z</time></trkpt><trkpt lat="40.018842778730956" lon="15.971139639568818"><ele>906.9999999999999</ele><time>2026-04-19T10:23:47.999Z</time></trkpt><trkpt lat="40.01878158319045" lon="15.971077539527014"><ele>907.0</ele><time>2026-04-19T10:23:52.999Z</time></trkpt><trkpt lat="40.01869329256463" lon="15.971072699567761"><ele>907.0</ele><time>2026-04-19T10:23:55.999Z</time></trkpt><trkpt lat="40.01863879211753" lon="15.971140369029893"><ele>907.0</ele><time>2026-04-19T10:23:58.999Z</time></trkpt><trkpt lat="40.01856854987826" lon="15.97116359564557"><ele>906.9999999999999</ele><time>2026-04-19T10:24:01.999Z</time></trkpt><trkpt lat="40.01849228091137" lon="15.97113348381326"><ele>907.0</ele><time>2026-04-19T10:24:04.999Z</time></trkpt><trkpt lat="40.01842010262458" lon="15.971127404421317"><ele>907.0</ele><time>2026-04-19T10:24:06.999Z</time></trkpt><trkpt lat="40.01833002205953" lon="15.971150963003211"><ele>907.0</ele><time>2026-04-19T10:24:08.999Z</time></trkpt><trkpt lat="40.018187999618576" lon="15.971165585814452"><ele>907.0</ele><time>2026-04-19T10:24:10.999Z</time></trkpt><trkpt lat="40.0180710737248" lon="15.971194291976303"><ele>907.0</ele><time>2026-04-19T10:24:12.999Z</time></trkpt><trkpt lat="40.017995495113674" lon="15.971205561758167"><ele>907.0</ele><time>2026-04-19T10:24:13.999Z</time></trkpt><trkpt lat="40.01792325330758" lon="15.971217204216892"><ele>905.4999999999999</ele><time>2026-04-19T10:24:14.999Z</time></trkpt><trkpt lat="40.0178545608469" lon="15.9712358279489"><ele>904.0</ele><time>2026-04-19T10:24:15.999Z</time></trkpt><trkpt lat="40.01778842356186" lon="15.971267219127638"><ele>902.5</ele><time>2026-04-19T10:24:16.999Z</time></trkpt><trkpt lat="40.0177266556615" lon="15.971317781400506"><ele>901.0</ele><time>2026-04-19T10:24:17.999Z</time></trkpt><trkpt lat="40.01765022251296" lon="15.97128039530028"><ele>899.4999999999999</ele><time>2026-04-19T10:24:19.999Z</time></trkpt><trkpt lat="40.01751985237104" lon="15.971230605780981"><ele>898.0</ele><time>2026-04-19T10:24:21.999Z</time></trkpt><trkpt lat="40.01743292848034" lon="15.971238192962998"><ele>895.1666666666666</ele><time>2026-04-19T10:24:22.999Z</time></trkpt><trkpt lat="40.017381546344495" lon="15.971322160825943"><ele>892.3333333333333</ele><time>2026-04-19T10:24:25Z</time></trkpt><trkpt lat="40.017365428787905" lon="15.971416348873609"><ele>889.5</ele><time>2026-04-19T10:24:27Z</time></trkpt><trkpt lat="40.01730602118455" lon="15.971509212794018"><ele>886.6666666666667</ele><time>2026-04-19T10:24:29Z</time></trkpt><trkpt lat="40.017217241926424" lon="15.971506164171416"><ele>883.8333333333334</ele><time>2026-04-19T10:24:30Z</time></trkpt><trkpt lat="40.01715422219339" lon="15.97157066417648"><ele>881.0</ele><time>2026-04-19T10:24:31Z</time></trkpt><trkpt lat="40.01710103894508" lon="15.97172008560073"><ele>881.0</ele><time>2026-04-19T10:24:33Z</time></trkpt><trkpt lat="40.01703987262029" lon="15.971812445654686"><ele>880.9999999999999</ele><time>2026-04-19T10:24:36Z</time></trkpt><trkpt lat="40.01696319204514" lon="15.971870573294796"><ele>880.9999999999999</ele><time>2026-04-19T10:24:41Z</time></trkpt><trkpt lat="40.016909077355315" lon="15.97195229205531"><ele>881.0</ele><time>2026-04-19T10:24:44Z</time></trkpt><trkpt lat="40.01685228517214" lon="15.972038331055831"><ele>881.0</ele><time>2026-04-19T10:24:47Z</time></trkpt><trkpt lat="40.01687201512773" lon="15.972170203196391"><ele>881.0</ele><time>2026-04-19T10:24:49Z</time></trkpt><trkpt lat="40.01681918940719" lon="15.972279996864076"><ele>880.9999999999999</ele><time>2026-04-19T10:24:50Z</time></trkpt><trkpt lat="40.01674738710303" lon="15.972421351403302"><ele>880.9999999999999</ele><time>2026-04-19T10:24:52Z</time></trkpt><trkpt lat="40.01669695394414" lon="15.972517770202908"><ele>881.0</ele><time>2026-04-19T10:24:53Z</time></trkpt><trkpt lat="40.01663263826542" lon="15.972601947524392"><ele>881.0</ele><time>2026-04-19T10:24:54Z</time></trkpt><trkpt lat="40.0165547938793" lon="15.972671749340455"><ele>877.0</ele><time>2026-04-19T10:24:55Z</time></trkpt><trkpt lat="40.016459913853026" lon="15.972759776031086"><ele>872.9999999999999</ele><time>2026-04-19T10:24:56Z</time></trkpt><trkpt lat="40.016366082626604" lon="15.972819836676775"><ele>868.9999999999999</ele><time>2026-04-19T10:24:57Z</time></trkpt><trkpt lat="40.016284688552176" lon="15.972875153558048"><ele>865.0</ele><time>2026-04-19T10:24:58Z</time></trkpt><trkpt lat="40.01621299432323" lon="15.97290693073575"><ele>861.0</ele><time>2026-04-19T10:24:59Z</time></trkpt><trkpt lat="40.01612022438407" lon="15.972921493758033"><ele>861.0</ele><time>2026-04-19T10:25:00Z</time></trkpt><trkpt lat="40.016049685405726" lon="15.97295186743017"><ele>860.9999999999999</ele><time>2026-04-19T10:25:01Z</time></trkpt><trkpt lat="40.01597003705169" lon="15.973031838916858"><ele>860.9999999999999</ele><time>2026-04-19T10:25:02Z</time></trkpt><trkpt lat="40.01590088339857" lon="15.973157021383456"><ele>861.0</ele><time>2026-04-19T10:25:03Z</time></trkpt><trkpt lat="40.01583666772633" lon="15.973267542348859"><ele>861.0</ele><time>2026-04-19T10:25:04Z</time></trkpt><trkpt lat="40.01575220444788" lon="15.973363466690316"><ele>854.1999999999999</ele><time>2026-04-19T10:25:05Z</time></trkpt><trkpt lat="40.01565415431919" lon="15.9734298140341"><ele>847.3999999999999</ele><time>2026-04-19T10:25:06Z</time></trkpt><trkpt lat="40.015558392790055" lon="15.973496270353314"><ele>840.6</ele><time>2026-04-19T10:25:07Z</time></trkpt><trkpt lat="40.01548812748737" lon="15.973542632062752"><ele>833.8</ele><time>2026-04-19T10:25:08Z</time></trkpt><trkpt lat="40.01539508500127" lon="15.973573600739117"><ele>827.0</ele><time>2026-04-19T10:25:09Z</time></trkpt><trkpt lat="40.015319437628996" lon="15.97357174128837"><ele>827.0000000000001</ele><time>2026-04-19T10:25:10Z</time></trkpt><trkpt lat="40.01521778954782" lon="15.973503424815867"><ele>827.0</ele><time>2026-04-19T10:25:12Z</time></trkpt><trkpt lat="40.0151056255433" lon="15.97350742360821"><ele>827.0</ele><time>2026-04-19T10:25:14Z</time></trkpt><trkpt lat="40.015036021152575" lon="15.973545756707107"><ele>827.0</ele><time>2026-04-19T10:25:15Z</time></trkpt><trkpt lat="40.014971259879445" lon="15.973577249312267"><ele>827.0000000000001</ele><time>2026-04-19T10:25:16Z</time></trkpt><trkpt lat="40.01490360234726" lon="15.973607346582092"><ele>827.0</ele><time>2026-04-19T10:25:17Z</time></trkpt><trkpt lat="40.0148386527727" lon="15.97361048731197"><ele>829.6</ele><time>2026-04-19T10:25:19Z</time></trkpt><trkpt lat="40.014734531029234" lon="15.973581598067462"><ele>832.2</ele><time>2026-04-19T10:25:21Z</time></trkpt><trkpt lat="40.01462740926778" lon="15.973617491648222"><ele>834.8</ele><time>2026-04-19T10:25:23Z</time></trkpt><trkpt lat="40.014562797764945" lon="15.97365682322308"><ele>837.4</ele><time>2026-04-19T10:25:24Z</time></trkpt><trkpt lat="40.01450631534122" lon="15.973765253154431"><ele>840.0</ele><time>2026-04-19T10:25:26Z</time></trkpt><trkpt lat="40.01446521411095" lon="15.973849304494797"><ele>840.0</ele><time>2026-04-19T10:25:29Z</time></trkpt><trkpt lat="40.0144174202977" lon="15.973921853534653"><ele>840.0</ele><time>2026-04-19T10:25:32Z</time></trkpt><trkpt lat="40.01435329943394" lon="15.974123477170984"><ele>840.0</ele><time>2026-04-19T10:25:35Z</time></trkpt><trkpt lat="40.014294051158664" lon="15.974174278935726"><ele>840.0</ele><time>2026-04-19T10:25:37Z</time></trkpt><trkpt lat="40.014281149566735" lon="15.974264119336656"><ele>840.0</ele><time>2026-04-19T10:25:39Z</time></trkpt><trkpt lat="40.01426150976547" lon="15.974399977850416"><ele>836.1666666666666</ele><time>2026-04-19T10:25:41Z</time></trkpt><trkpt lat="40.01418014230367" lon="15.974457137198794"><ele>832.3333333333333</ele><time>2026-04-19T10:25:42.999Z</time></trkpt><trkpt lat="40.01411811623806" lon="15.974506498961167"><ele>828.5</ele><time>2026-04-19T10:25:43.999Z</time></trkpt><trkpt lat="40.01409380320068" lon="15.974583007928503"><ele>824.6666666666666</ele><time>2026-04-19T10:25:44.999Z</time></trkpt><trkpt lat="40.01402651012792" lon="15.974584601210937"><ele>820.8333333333333</ele><time>2026-04-19T10:25:45.999Z</time></trkpt><trkpt lat="40.01391645710147" lon="15.974585822071234"><ele>817.0</ele><time>2026-04-19T10:25:46.999Z</time></trkpt><trkpt lat="40.01383767388545" lon="15.974589796155506"><ele>817.0</ele><time>2026-04-19T10:25:47.999Z</time></trkpt><trkpt lat="40.01372112671775" lon="15.974620723943337"><ele>817.0</ele><time>2026-04-19T10:25:49.999Z</time></trkpt><trkpt lat="40.01365996263784" lon="15.974650394799513"><ele>817.0</ele><time>2026-04-19T10:25:50.999Z</time></trkpt><trkpt lat="40.01360717462157" lon="15.97472371306262"><ele>817.0</ele><time>2026-04-19T10:25:51.999Z</time></trkpt><trkpt lat="40.013573551542194" lon="15.9748500249191"><ele>817.0</ele><time>2026-04-19T10:25:54.999Z</time></trkpt><trkpt lat="40.01348198305624" lon="15.974918642811692"><ele>811.2</ele><time>2026-04-19T10:25:56.999Z</time></trkpt><trkpt lat="40.0133765445189" lon="15.97502183692716"><ele>805.4000000000001</ele><time>2026-04-19T10:25:58.999Z</time></trkpt><trkpt lat="40.01331033692006" lon="15.975065206050356"><ele>799.5999999999999</ele><time>2026-04-19T10:25:59.999Z</time></trkpt><trkpt lat="40.01323700396557" lon="15.975096901328664"><ele>793.8</ele><time>2026-04-19T10:26:00.999Z</time></trkpt><trkpt lat="40.01315744405902" lon="15.975122378644755"><ele>788.0</ele><time>2026-04-19T10:26:01.999Z</time></trkpt><trkpt lat="40.01306862933333" lon="15.975085845877933"><ele>788.0000000000001</ele><time>2026-04-19T10:26:02.999Z</time></trkpt><trkpt lat="40.013004516794204" lon="15.975112515286972"><ele>788.0</ele><time>2026-04-19T10:26:03.999Z</time></trkpt><trkpt lat="40.012924987286404" lon="15.975184208781572"><ele>788.0</ele><time>2026-04-19T10:26:05.999Z</time></trkpt><trkpt lat="40.012885407408696" lon="15.975256213883087"><ele>788.0</ele><time>2026-04-19T10:26:07.999Z</time></trkpt><trkpt lat="40.01282813394903" lon="15.975305732839193"><ele>788.0000000000001</ele><time>2026-04-19T10:26:08.999Z</time></trkpt><trkpt lat="40.012714596243896" lon="15.975392770456137"><ele>788.0</ele><time>2026-04-19T10:26:10.999Z</time></trkpt><trkpt lat="40.012638480061014" lon="15.975489760693465"><ele>788.0000000000001</ele><time>2026-04-19T10:26:12.999Z</time></trkpt><trkpt lat="40.01253876286432" lon="15.975530825679"><ele>788.0</ele><time>2026-04-19T10:26:14.999Z</time></trkpt><trkpt lat="40.01250447846899" lon="15.975622516836806"><ele>788.0</ele><time>2026-04-19T10:26:16.999Z</time></trkpt><trkpt lat="40.0124292734537" lon="15.975687811527683"><ele>788.0</ele><time>2026-04-19T10:26:19.999Z</time></trkpt><trkpt lat="40.01237238835725" lon="15.975740816354298"><ele>788.0000000000001</ele><time>2026-04-19T10:26:21.999Z</time></trkpt><trkpt lat="40.012297581109685" lon="15.975797415444394"><ele>788.0</ele><time>2026-04-19T10:26:23.999Z</time></trkpt><trkpt lat="40.01223706072313" lon="15.975867052711662"><ele>782.8333333333334</ele><time>2026-04-19T10:26:25.999Z</time></trkpt><trkpt lat="40.012177573609854" lon="15.975907959366122"><ele>777.6666666666667</ele><time>2026-04-19T10:26:28.999Z</time></trkpt><trkpt lat="40.012117845691705" lon="15.975854264526868"><ele>772.5</ele><time>2026-04-19T10:26:50Z</time></trkpt><trkpt lat="40.01205502718104" lon="15.97587332065412"><ele>767.3333333333334</ele><time>2026-04-19T10:26:52Z</time></trkpt><trkpt lat="40.01196903894782" lon="15.975909204909025"><ele>762.1666666666667</ele><time>2026-04-19T10:26:54Z</time></trkpt><trkpt lat="40.01186132893879" lon="15.975960182440293"><ele>757.0</ele><time>2026-04-19T10:26:56Z</time></trkpt><trkpt lat="40.01175555047756" lon="15.976005763772346"><ele>755.8333333333334</ele><time>2026-04-19T10:26:58Z</time></trkpt><trkpt lat="40.011634605291974" lon="15.9759728028617"><ele>754.6666666666667</ele><time>2026-04-19T10:27:00Z</time></trkpt><trkpt lat="40.01158315286445" lon="15.97591460217513"><ele>753.5</ele><time>2026-04-19T10:27:01Z</time></trkpt><trkpt lat="40.011530888210544" lon="15.97585518274158"><ele>752.3333333333334</ele><time>2026-04-19T10:27:02Z</time></trkpt><trkpt lat="40.01147491567424" lon="15.97579761949791"><ele>751.1666666666666</ele><time>2026-04-19T10:27:03Z</time></trkpt><trkpt lat="40.011411646090984" lon="15.975743503183665"><ele>750.0</ele><time>2026-04-19T10:27:04Z</time></trkpt><trkpt lat="40.01134544839141" lon="15.975678956352933"><ele>750.0</ele><time>2026-04-19T10:27:05Z</time></trkpt><trkpt lat="40.01128796709212" lon="15.975602847144431"><ele>750.0</ele><time>2026-04-19T10:27:06Z</time></trkpt><trkpt lat="40.01123019944579" lon="15.975517839715094"><ele>750.0</ele><time>2026-04-19T10:27:07Z</time></trkpt><trkpt lat="40.01117742860179" lon="15.975412427674451"><ele>750.0</ele><time>2026-04-19T10:27:08Z</time></trkpt><trkpt lat="40.0111290615543" lon="15.975291764882945"><ele>750.0</ele><time>2026-04-19T10:27:09Z</time></trkpt><trkpt lat="40.01108195095295" lon="15.975171680776608"><ele>750.0</ele><time>2026-04-19T10:27:10Z</time></trkpt><trkpt lat="40.01104293858338" lon="15.975056377534246"><ele>750.0</ele><time>2026-04-19T10:27:11Z</time></trkpt><trkpt lat="40.01102394392673" lon="15.974946940891439"><ele>750.0</ele><time>2026-04-19T10:27:12Z</time></trkpt><trkpt lat="40.01103039727536" lon="15.974840563655444"><ele>750.0</ele><time>2026-04-19T10:27:13Z</time></trkpt><trkpt lat="40.011065681235905" lon="15.974731495025832"><ele>750.0</ele><time>2026-04-19T10:27:14Z</time></trkpt><trkpt lat="40.01111652097593" lon="15.974623778807992"><ele>747.5</ele><time>2026-04-19T10:27:15Z</time></trkpt><trkpt lat="40.01120456975479" lon="15.974525941094234"><ele>745.0</ele><time>2026-04-19T10:27:16Z</time></trkpt><trkpt lat="40.01130036986095" lon="15.9744378371706"><ele>742.5</ele><time>2026-04-19T10:27:17Z</time></trkpt><trkpt lat="40.01139846302698" lon="15.9743709059388"><ele>740.0</ele><time>2026-04-19T10:27:18Z</time></trkpt><trkpt lat="40.0114935543873" lon="15.974296926883039"><ele>740.0</ele><time>2026-04-19T10:27:19Z</time></trkpt><trkpt lat="40.01156853890558" lon="15.97421583901042"><ele>740.0</ele><time>2026-04-19T10:27:20Z</time></trkpt><trkpt lat="40.01163285013052" lon="15.97412848665967"><ele>740.0</ele><time>2026-04-19T10:27:21Z</time></trkpt><trkpt lat="40.01169851067341" lon="15.974048205497779"><ele>740.0</ele><time>2026-04-19T10:27:22Z</time></trkpt><trkpt lat="40.01176124344907" lon="15.973935791183838"><ele>740.0</ele><time>2026-04-19T10:27:23Z</time></trkpt><trkpt lat="40.0118029825514" lon="15.973801697205172"><ele>742.1666666666666</ele><time>2026-04-19T10:27:24Z</time></trkpt><trkpt lat="40.01183311700787" lon="15.973686028962764"><ele>744.3333333333333</ele><time>2026-04-19T10:27:25Z</time></trkpt><trkpt lat="40.01187197657068" lon="15.973601009808593"><ele>746.5</ele><time>2026-04-19T10:27:26Z</time></trkpt><trkpt lat="40.01191869044723" lon="15.973528910182862"><ele>748.6666666666666</ele><time>2026-04-19T10:27:27Z</time></trkpt><trkpt lat="40.01194615745623" lon="15.973448141251787"><ele>750.8333333333334</ele><time>2026-04-19T10:27:28Z</time></trkpt><trkpt lat="40.01190880335803" lon="15.973374631541503"><ele>753.0</ele><time>2026-04-19T10:27:29Z</time></trkpt><trkpt lat="40.01183002785812" lon="15.973322849247209"><ele>753.0</ele><time>2026-04-19T10:27:30Z</time></trkpt><trkpt lat="40.01171982117055" lon="15.973311360336941"><ele>753.0</ele><time>2026-04-19T10:27:31Z</time></trkpt><trkpt lat="40.011595291044934" lon="15.973297715944083"><ele>753.0</ele><time>2026-04-19T10:27:32Z</time></trkpt><trkpt lat="40.011478088357315" lon="15.973278623924315"><ele>753.0</ele><time>2026-04-19T10:27:33Z</time></trkpt><trkpt lat="40.01136798440399" lon="15.973254624583022"><ele>748.1666666666666</ele><time>2026-04-19T10:27:34Z</time></trkpt><trkpt lat="40.01126819061113" lon="15.973232913607205"><ele>743.3333333333334</ele><time>2026-04-19T10:27:35Z</time></trkpt><trkpt lat="40.011181239713586" lon="15.973213997298734"><ele>738.5</ele><time>2026-04-19T10:27:36Z</time></trkpt><trkpt lat="40.01109875321269" lon="15.973211090735571"><ele>733.6666666666667</ele><time>2026-04-19T10:27:37Z</time></trkpt><trkpt lat="40.01101508810624" lon="15.973156076749547"><ele>728.8333333333334</ele><time>2026-04-19T10:27:38Z</time></trkpt><trkpt lat="40.010936549993936" lon="15.973119797303122"><ele>724.0</ele><time>2026-04-19T10:27:39Z</time></trkpt><trkpt lat="40.01086855597864" lon="15.97305135703353"><ele>716.2</ele><time>2026-04-19T10:27:40Z</time></trkpt><trkpt lat="40.010812157610424" lon="15.97297615920488"><ele>708.4000000000001</ele><time>2026-04-19T10:27:41Z</time></trkpt><trkpt lat="40.010756841918074" lon="15.972891514976673"><ele>700.6</ele><time>2026-04-19T10:27:42Z</time></trkpt><trkpt lat="40.01070209682543" lon="15.972792308141994"><ele>692.8</ele><time>2026-04-19T10:27:43Z</time></trkpt><trkpt lat="40.01063678234189" lon="15.972658752910945"><ele>685.0</ele><time>2026-04-19T10:27:43.999Z</time></trkpt><trkpt lat="40.01058942458923" lon="15.972473672202083"><ele>685.0</ele><time>2026-04-19T10:27:44.999Z</time></trkpt><trkpt lat="40.01052651866097" lon="15.972303990739949"><ele>685.0</ele><time>2026-04-19T10:27:45.999Z</time></trkpt><trkpt lat="40.01048852226946" lon="15.97213108973553"><ele>685.0</ele><time>2026-04-19T10:27:46.999Z</time></trkpt><trkpt lat="40.01051173810721" lon="15.971935610059033"><ele>685.0</ele><time>2026-04-19T10:27:47.999Z</time></trkpt><trkpt lat="40.01052420879289" lon="15.971719323659205"><ele>685.75</ele><time>2026-04-19T10:27:48.999Z</time></trkpt><trkpt lat="40.01055297861554" lon="15.971525934609152"><ele>686.5</ele><time>2026-04-19T10:27:49.999Z</time></trkpt><trkpt lat="40.010580916328124" lon="15.971354853059697"><ele>687.25</ele><time>2026-04-19T10:27:50.999Z</time></trkpt><trkpt lat="40.010634982764024" lon="15.97118662261805"><ele>688.0</ele><time>2026-04-19T10:27:51.999Z</time></trkpt><trkpt lat="40.01070847120799" lon="15.971023209506274"><ele>688.0</ele><time>2026-04-19T10:27:52.999Z</time></trkpt><trkpt lat="40.01079426809305" lon="15.970881547048455"><ele>688.0</ele><time>2026-04-19T10:27:53.999Z</time></trkpt><trkpt lat="40.010876664269645" lon="15.970762613752973"><ele>688.0</ele><time>2026-04-19T10:27:54.999Z</time></trkpt><trkpt lat="40.01095341943757" lon="15.9706612759859"><ele>688.0</ele><time>2026-04-19T10:27:55.999Z</time></trkpt><trkpt lat="40.01102993786164" lon="15.970579341951572"><ele>691.3333333333334</ele><time>2026-04-19T10:27:56.999Z</time></trkpt><trkpt lat="40.01108729675986" lon="15.970531449958425"><ele>694.6666666666667</ele><time>2026-04-19T10:27:57.999Z</time></trkpt><trkpt lat="40.01112455328227" lon="15.970439027333898"><ele>698.0</ele><time>2026-04-19T10:27:59.999Z</time></trkpt><trkpt lat="40.011077357829656" lon="15.970377294030463"><ele>701.3333333333334</ele><time>2026-04-19T10:28:00.999Z</time></trkpt><trkpt lat="40.011009416271754" lon="15.970369484386918"><ele>704.6666666666666</ele><time>2026-04-19T10:28:01.999Z</time></trkpt><trkpt lat="40.01094487111175" lon="15.970467326269375"><ele>708.0</ele><time>2026-04-19T10:28:02.999Z</time></trkpt><trkpt lat="40.01087844802961" lon="15.970547992100899"><ele>701.8333333333334</ele><time>2026-04-19T10:28:03.999Z</time></trkpt><trkpt lat="40.01079626946962" lon="15.970585123228798"><ele>695.6666666666666</ele><time>2026-04-19T10:28:04.999Z</time></trkpt><trkpt lat="40.0107326119597" lon="15.970634509694978"><ele>689.5</ele><time>2026-04-19T10:28:05.999Z</time></trkpt><trkpt lat="40.010674803784184" lon="15.970695506968688"><ele>683.3333333333333</ele><time>2026-04-19T10:28:06.999Z</time></trkpt><trkpt lat="40.01062746151769" lon="15.970762031633987"><ele>677.1666666666666</ele><time>2026-04-19T10:28:07.999Z</time></trkpt><trkpt lat="40.01056403136681" lon="15.970838120651946"><ele>671.0</ele><time>2026-04-19T10:28:09.999Z</time></trkpt><trkpt lat="40.01052650372869" lon="15.970757727874368"><ele>671.0</ele><time>2026-04-19T10:28:11.999Z</time></trkpt><trkpt lat="40.01055408054946" lon="15.97067296951963"><ele>671.0</ele><time>2026-04-19T10:28:12.999Z</time></trkpt><trkpt lat="40.010615818386064" lon="15.970584132082838"><ele>671.0</ele><time>2026-04-19T10:28:13.999Z</time></trkpt><trkpt lat="40.010687630596365" lon="15.970505420756611"><ele>671.0</ele><time>2026-04-19T10:28:14.999Z</time></trkpt><trkpt lat="40.010750679079244" lon="15.970441653049603"><ele>671.0</ele><time>2026-04-19T10:28:15.999Z</time></trkpt><trkpt lat="40.0108129957491" lon="15.970384229694883"><ele>671.0</ele><time>2026-04-19T10:28:16.999Z</time></trkpt><trkpt lat="40.0108756925447" lon="15.970330832067482"><ele>671.0</ele><time>2026-04-19T10:28:17.999Z</time></trkpt><trkpt lat="40.01097257370261" lon="15.970272312214659"><ele>671.0</ele><time>2026-04-19T10:28:19.999Z</time></trkpt><trkpt lat="40.01094342791805" lon="15.97015288529719"><ele>671.0</ele><time>2026-04-19T10:28:21.999Z</time></trkpt><trkpt lat="40.01086748940514" lon="15.970150570658852"><ele>671.0</ele><time>2026-04-19T10:28:22.999Z</time></trkpt><trkpt lat="40.01079095605934" lon="15.970176878217533"><ele>671.0</ele><time>2026-04-19T10:28:23.999Z</time></trkpt><trkpt lat="40.01073144128816" lon="15.970235383515986"><ele>671.0</ele><time>2026-04-19T10:28:24.999Z</time></trkpt><trkpt lat="40.01063522339782" lon="15.97031784090094"><ele>671.0</ele><time>2026-04-19T10:28:26.999Z</time></trkpt><trkpt lat="40.010524776605735" lon="15.970385911891073"><ele>671.0</ele><time>2026-04-19T10:28:28.999Z</time></trkpt><trkpt lat="40.01043596753592" lon="15.970452021473212"><ele>671.0</ele><time>2026-04-19T10:28:30.999Z</time></trkpt><trkpt lat="40.01041846223568" lon="15.970316803647753"><ele>671.0</ele><time>2026-04-19T10:28:33.999Z</time></trkpt><trkpt lat="40.010491445121765" lon="15.970261837465685"><ele>671.0</ele><time>2026-04-19T10:28:34.999Z</time></trkpt><trkpt lat="40.010563935714785" lon="15.97021060838324"><ele>671.0</ele><time>2026-04-19T10:28:35.999Z</time></trkpt><trkpt lat="40.01062297363907" lon="15.970147555431495"><ele>671.0</ele><time>2026-04-19T10:28:37Z</time></trkpt><trkpt lat="40.01069355288502" lon="15.970101872437606"><ele>671.0</ele><time>2026-04-19T10:28:38Z</time></trkpt><trkpt lat="40.01075519975942" lon="15.970047786166125"><ele>671.0</ele><time>2026-04-19T10:28:39Z</time></trkpt><trkpt lat="40.01080645503991" lon="15.969994335574542"><ele>671.0</ele><time>2026-04-19T10:28:40Z</time></trkpt><trkpt lat="40.01087139525317" lon="15.969894123743723"><ele>671.0</ele><time>2026-04-19T10:28:42Z</time></trkpt><trkpt lat="40.010843999305905" lon="15.969774235644087"><ele>668.1999999999999</ele><time>2026-04-19T10:28:44Z</time></trkpt><trkpt lat="40.0107620592826" lon="15.969692844271096"><ele>665.4</ele><time>2026-04-19T10:28:46Z</time></trkpt><trkpt lat="40.01068927648061" lon="15.969602064964633"><ele>662.6</ele><time>2026-04-19T10:28:48Z</time></trkpt><trkpt lat="40.01063624879552" lon="15.96952010092365"><ele>659.8</ele><time>2026-04-19T10:28:49Z</time></trkpt><trkpt lat="40.010564145717545" lon="15.96941818320613"><ele>657.0</ele><time>2026-04-19T10:28:50Z</time></trkpt><trkpt lat="40.01050313582904" lon="15.969329450506848"><ele>657.0</ele><time>2026-04-19T10:28:51Z</time></trkpt><trkpt lat="40.010443975554885" lon="15.969259835216155"><ele>657.0</ele><time>2026-04-19T10:28:52Z</time></trkpt><trkpt lat="40.010387775172546" lon="15.969192168523968"><ele>657.0</ele><time>2026-04-19T10:28:53Z</time></trkpt><trkpt lat="40.01033490355891" lon="15.969132720376528"><ele>657.0</ele><time>2026-04-19T10:28:54Z</time></trkpt><trkpt lat="40.01028925620076" lon="15.969062608419929"><ele>657.0</ele><time>2026-04-19T10:28:55Z</time></trkpt><trkpt lat="40.01026093776782" lon="15.968982062814668"><ele>657.0</ele><time>2026-04-19T10:28:56Z</time></trkpt><trkpt lat="40.0102418620659" lon="15.968891020762603"><ele>657.0</ele><time>2026-04-19T10:28:57Z</time></trkpt><trkpt lat="40.010233599707355" lon="15.968797271163698"><ele>655.4285714285714</ele><time>2026-04-19T10:28:58Z</time></trkpt><trkpt lat="40.010233945319904" lon="15.968700924122606"><ele>653.8571428571429</ele><time>2026-04-19T10:28:59Z</time></trkpt><trkpt lat="40.0102441690802" lon="15.968614331336815"><ele>652.2857142857143</ele><time>2026-04-19T10:29:00Z</time></trkpt><trkpt lat="40.01025762236375" lon="15.968529254847173"><ele>650.7142857142858</ele><time>2026-04-19T10:29:01Z</time></trkpt><trkpt lat="40.01028191809039" lon="15.968452535847382"><ele>649.1428571428571</ele><time>2026-04-19T10:29:02Z</time></trkpt><trkpt lat="40.01030540182498" lon="15.968338764540743"><ele>647.5714285714287</ele><time>2026-04-19T10:29:04Z</time></trkpt><trkpt lat="40.010321776625005" lon="15.968254807547346"><ele>646.0</ele><time>2026-04-19T10:29:08Z</time></trkpt><trkpt lat="40.01035872060169" lon="15.968169869113549"><ele>646.0</ele><time>2026-04-19T10:29:13Z</time></trkpt><trkpt lat="40.01024394244209" lon="15.968244174788934"><ele>646.0</ele><time>2026-04-19T10:29:18Z</time></trkpt><trkpt lat="40.01020420271116" lon="15.968316840745207"><ele>646.0</ele><time>2026-04-19T10:29:19Z</time></trkpt><trkpt lat="40.010185685857195" lon="15.968432357654349"><ele>646.0</ele><time>2026-04-19T10:29:20Z</time></trkpt><trkpt lat="40.0101510443686" lon="15.968527328163963"><ele>646.0</ele><time>2026-04-19T10:29:21Z</time></trkpt><trkpt lat="40.01011093044108" lon="15.96862241202462"><ele>646.0</ele><time>2026-04-19T10:29:22Z</time></trkpt><trkpt lat="40.01006749504474" lon="15.968719825173618"><ele>646.0</ele><time>2026-04-19T10:29:23Z</time></trkpt><trkpt lat="40.0100242571137" lon="15.968821868236681"><ele>646.0</ele><time>2026-04-19T10:29:24Z</time></trkpt><trkpt lat="40.00998668952063" lon="15.968918435240116"><ele>646.0</ele><time>2026-04-19T10:29:25Z</time></trkpt><trkpt lat="40.009954524021595" lon="15.969017163282293"><ele>646.0</ele><time>2026-04-19T10:29:26Z</time></trkpt><trkpt lat="40.00992802753401" lon="15.969121373385475"><ele>646.0</ele><time>2026-04-19T10:29:27Z</time></trkpt><trkpt lat="40.009925832956604" lon="15.969236102422046"><ele>640.1999999999999</ele><time>2026-04-19T10:29:28Z</time></trkpt><trkpt lat="40.009905103484314" lon="15.969357567403751"><ele>634.4</ele><time>2026-04-19T10:29:29Z</time></trkpt><trkpt lat="40.009890720757106" lon="15.969463334243706"><ele>628.6</ele><time>2026-04-19T10:29:30Z</time></trkpt><trkpt lat="40.009819497157764" lon="15.969575144779768"><ele>622.8</ele><time>2026-04-19T10:29:32Z</time></trkpt><trkpt lat="40.00991665057706" lon="15.969435673515422"><ele>617.0</ele><time>2026-04-19T10:29:36Z</time></trkpt><trkpt lat="40.009852526963876" lon="15.969409483851695"><ele>617.0</ele><time>2026-04-19T10:29:38Z</time></trkpt><trkpt lat="40.009837601188174" lon="15.969293842032167"><ele>617.0</ele><time>2026-04-19T10:29:39Z</time></trkpt><trkpt lat="40.00978157339408" lon="15.96921532344958"><ele>617.0</ele><time>2026-04-19T10:29:40Z</time></trkpt><trkpt lat="40.00969238201488" lon="15.969194288307392"><ele>617.0</ele><time>2026-04-19T10:29:41Z</time></trkpt><trkpt lat="40.009597827752685" lon="15.969250386427449"><ele>617.0</ele><time>2026-04-19T10:29:42Z</time></trkpt><trkpt lat="40.00953041718356" lon="15.969357023395633"><ele>617.0</ele><time>2026-04-19T10:29:43Z</time></trkpt><trkpt lat="40.00948293845231" lon="15.969511011064666"><ele>617.0</ele><time>2026-04-19T10:29:44Z</time></trkpt><trkpt lat="40.00941959186878" lon="15.96964079262641"><ele>617.0</ele><time>2026-04-19T10:29:45Z</time></trkpt><trkpt lat="40.009379229165354" lon="15.969779451397269"><ele>617.0</ele><time>2026-04-19T10:29:45.999Z</time></trkpt><trkpt lat="40.00930985311106" lon="15.969907994206501"><ele>619.0</ele><time>2026-04-19T10:29:46.999Z</time></trkpt><trkpt lat="40.00925880047871" lon="15.97003456969124"><ele>621.0</ele><time>2026-04-19T10:29:47.999Z</time></trkpt><trkpt lat="40.00921644129772" lon="15.97015925990528"><ele>623.0</ele><time>2026-04-19T10:29:48.999Z</time></trkpt><trkpt lat="40.009166256276785" lon="15.970268288712917"><ele>625.0</ele><time>2026-04-19T10:29:49.999Z</time></trkpt><trkpt lat="40.00910878693741" lon="15.970379028723986"><ele>627.0</ele><time>2026-04-19T10:29:50.999Z</time></trkpt><trkpt lat="40.00905068148019" lon="15.970490049747717"><ele>619.0</ele><time>2026-04-19T10:29:51.999Z</time></trkpt><trkpt lat="40.008993195633664" lon="15.970601217662963"><ele>611.0</ele><time>2026-04-19T10:29:52.999Z</time></trkpt><trkpt lat="40.00892836132856" lon="15.970706429225038"><ele>603.0</ele><time>2026-04-19T10:29:53.999Z</time></trkpt><trkpt lat="40.00885554299543" lon="15.970811067773978"><ele>595.0</ele><time>2026-04-19T10:29:54.999Z</time></trkpt><trkpt lat="40.00877438412351" lon="15.970914246858564"><ele>587.0</ele><time>2026-04-19T10:29:55.999Z</time></trkpt><trkpt lat="40.008696109937" lon="15.971026590664884"><ele>587.0</ele><time>2026-04-19T10:29:56.999Z</time></trkpt><trkpt lat="40.00861911892115" lon="15.971147186335397"><ele>587.0</ele><time>2026-04-19T10:29:57.999Z</time></trkpt><trkpt lat="40.00855044408178" lon="15.97127352441192"><ele>587.0</ele><time>2026-04-19T10:29:58.999Z</time></trkpt><trkpt lat="40.008491461872055" lon="15.971396365822244"><ele>587.0</ele><time>2026-04-19T10:29:59.999Z</time></trkpt><trkpt lat="40.00843622644476" lon="15.971530834340134"><ele>587.0</ele><time>2026-04-19T10:30:00.999Z</time></trkpt><trkpt lat="40.00838263670816" lon="15.971660530340268"><ele>587.0</ele><time>2026-04-19T10:30:01.999Z</time></trkpt><trkpt lat="40.00832878802289" lon="15.97179174555554"><ele>587.0</ele><time>2026-04-19T10:30:02.999Z</time></trkpt><trkpt lat="40.00830766625966" lon="15.97193014546146"><ele>587.0</ele><time>2026-04-19T10:30:03.999Z</time></trkpt><trkpt lat="40.008274628225564" lon="15.972067055420677"><ele>587.0</ele><time>2026-04-19T10:30:04.999Z</time></trkpt><trkpt lat="40.00824257684829" lon="15.972196986231951"><ele>581.6</ele><time>2026-04-19T10:30:05.999Z</time></trkpt><trkpt lat="40.0082065780709" lon="15.972300043942072"><ele>576.2</ele><time>2026-04-19T10:30:06.999Z</time></trkpt><trkpt lat="40.00814608653018" lon="15.972389683858207"><ele>570.8</ele><time>2026-04-19T10:30:07.999Z</time></trkpt><trkpt lat="40.00804459829168" lon="15.972421120743789"><ele>565.4</ele><time>2026-04-19T10:30:08.999Z</time></trkpt><trkpt lat="40.00797652412489" lon="15.972488719104742"><ele>560.0</ele><time>2026-04-19T10:30:09.999Z</time></trkpt><trkpt lat="40.00788322025241" lon="15.972554361775165"><ele>560.0</ele><time>2026-04-19T10:30:10.999Z</time></trkpt><trkpt lat="40.00780096433185" lon="15.97264839425696"><ele>560.0</ele><time>2026-04-19T10:30:11.999Z</time></trkpt><trkpt lat="40.00772233236574" lon="15.972761919830624"><ele>560.0</ele><time>2026-04-19T10:30:12.999Z</time></trkpt><trkpt lat="40.00764047319303" lon="15.972872252933398"><ele>560.0</ele><time>2026-04-19T10:30:13.999Z</time></trkpt><trkpt lat="40.0075672044902" lon="15.972973384360976"><ele>560.0</ele><time>2026-04-19T10:30:14.999Z</time></trkpt><trkpt lat="40.00749610061423" lon="15.973090644393995"><ele>560.0</ele><time>2026-04-19T10:30:15.999Z</time></trkpt><trkpt lat="40.00742545081105" lon="15.97321437120541"><ele>560.0</ele><time>2026-04-19T10:30:16.999Z</time></trkpt><trkpt lat="40.0073694151304" lon="15.973350988817918"><ele>560.0</ele><time>2026-04-19T10:30:17.999Z</time></trkpt><trkpt lat="40.0073318007282" lon="15.973486127566185"><ele>553.4</ele><time>2026-04-19T10:30:18.999Z</time></trkpt><trkpt lat="40.00729356912175" lon="15.973617924021003"><ele>546.8</ele><time>2026-04-19T10:30:19.999Z</time></trkpt><trkpt lat="40.00725732340994" lon="15.973745035489824"><ele>540.2</ele><time>2026-04-19T10:30:20.999Z</time></trkpt><trkpt lat="40.00722053879808" lon="15.973871317106441"><ele>533.6</ele><time>2026-04-19T10:30:21.999Z</time></trkpt><trkpt lat="40.007168931579784" lon="15.97399550079097"><ele>527.0</ele><time>2026-04-19T10:30:22.999Z</time></trkpt><trkpt lat="40.007141323699116" lon="15.974124879134786"><ele>526.2</ele><time>2026-04-19T10:30:23.999Z</time></trkpt><trkpt lat="40.00709292384598" lon="15.974233592794091"><ele>525.4000000000001</ele><time>2026-04-19T10:30:24.999Z</time></trkpt><trkpt lat="40.0070446423117" lon="15.974332249216634"><ele>524.5999999999999</ele><time>2026-04-19T10:30:25.999Z</time></trkpt><trkpt lat="40.00696738170102" lon="15.974410772175766"><ele>523.8</ele><time>2026-04-19T10:30:26.999Z</time></trkpt><trkpt lat="40.00690805838717" lon="15.974505880403626"><ele>523.0</ele><time>2026-04-19T10:30:27.999Z</time></trkpt><trkpt lat="40.00683156579189" lon="15.974584989575298"><ele>523.0</ele><time>2026-04-19T10:30:28.999Z</time></trkpt><trkpt lat="40.00675368252777" lon="15.974663334652604"><ele>523.0</ele><time>2026-04-19T10:30:29.999Z</time></trkpt><trkpt lat="40.00667325354216" lon="15.97472604534887"><ele>523.0</ele><time>2026-04-19T10:30:30.999Z</time></trkpt><trkpt lat="40.00659169442047" lon="15.97477192506081"><ele>523.0</ele><time>2026-04-19T10:30:31.999Z</time></trkpt><trkpt lat="40.00651928360305" lon="15.97481477944786"><ele>523.0</ele><time>2026-04-19T10:30:32.999Z</time></trkpt><trkpt lat="40.006455622835084" lon="15.97485840821664"><ele>523.0</ele><time>2026-04-19T10:30:33.999Z</time></trkpt><trkpt lat="40.00636195285791" lon="15.974919084845224"><ele>520.0</ele><time>2026-04-19T10:30:35.999Z</time></trkpt><trkpt lat="40.006283000293955" lon="15.974954300677297"><ele>517.0</ele><time>2026-04-19T10:30:38.999Z</time></trkpt><trkpt lat="40.006278237828965" lon="15.975038061990034"><ele>514.0</ele><time>2026-04-19T10:30:39.999Z</time></trkpt><trkpt lat="40.0062772394739" lon="15.975128885651095"><ele>511.0</ele><time>2026-04-19T10:30:40.999Z</time></trkpt><trkpt lat="40.00629237902056" lon="15.975253013391239"><ele>508.00000000000006</ele><time>2026-04-19T10:30:41.999Z</time></trkpt><trkpt lat="40.006308507328775" lon="15.975381169860752"><ele>505.0</ele><time>2026-04-19T10:30:43Z</time></trkpt><trkpt lat="40.00631518510369" lon="15.97548687882561"><ele>504.33333333333337</ele><time>2026-04-19T10:30:44Z</time></trkpt><trkpt lat="40.00629991606216" lon="15.975584862089434"><ele>503.6666666666667</ele><time>2026-04-19T10:30:45Z</time></trkpt><trkpt lat="40.00629619831445" lon="15.975672043173219"><ele>503.0</ele><time>2026-04-19T10:30:46Z</time></trkpt><trkpt lat="40.00628789875911" lon="15.97576558568722"><ele>502.33333333333337</ele><time>2026-04-19T10:30:47Z</time></trkpt><trkpt lat="40.00626721728475" lon="15.975846366012245"><ele>501.6666666666667</ele><time>2026-04-19T10:30:48Z</time></trkpt><trkpt lat="40.00622121801816" lon="15.975966105749615"><ele>501.0</ele><time>2026-04-19T10:30:50Z</time></trkpt><trkpt lat="40.00616679328876" lon="15.976081428782448"><ele>500.75</ele><time>2026-04-19T10:30:52Z</time></trkpt><trkpt lat="40.00610669712646" lon="15.976202168003766"><ele>500.5</ele><time>2026-04-19T10:30:54Z</time></trkpt><trkpt lat="40.00602060856682" lon="15.976379087006062"><ele>500.25</ele><time>2026-04-19T10:30:56Z</time></trkpt><trkpt lat="40.00595173438061" lon="15.976520629046735"><ele>500.0</ele><time>2026-04-19T10:30:57Z</time></trkpt><trkpt lat="40.005877701129386" lon="15.976672773403996"><ele>496.8</ele><time>2026-04-19T10:30:58Z</time></trkpt><trkpt lat="40.005815788210285" lon="15.976796485180374"><ele>493.6</ele><time>2026-04-19T10:30:59Z</time></trkpt><trkpt lat="40.00575432693149" lon="15.976906672930895"><ele>490.4</ele><time>2026-04-19T10:31:00Z</time></trkpt><trkpt lat="40.00569004373143" lon="15.977005367199354"><ele>487.2</ele><time>2026-04-19T10:31:01Z</time></trkpt><trkpt lat="40.005630296636284" lon="15.9770888252068"><ele>484.0</ele><time>2026-04-19T10:31:02Z</time></trkpt><trkpt lat="40.005579703556705" lon="15.977157830886595"><ele>484.0</ele><time>2026-04-19T10:31:03Z</time></trkpt><trkpt lat="40.00550290857211" lon="15.977259457893707"><ele>484.0</ele><time>2026-04-19T10:31:05Z</time></trkpt><trkpt lat="40.00536894894022" lon="15.977387047801006"><ele>484.0</ele><time>2026-04-19T10:31:07Z</time></trkpt><trkpt lat="40.00536797297337" lon="15.977059402699272"><ele>484.00000000000006</ele><time>2026-04-19T10:31:08Z</time></trkpt><trkpt lat="40.00530786447873" lon="15.976959031422176"><ele>484.0</ele><time>2026-04-19T10:31:09Z</time></trkpt><trkpt lat="40.00530939058264" lon="15.97684133668777"><ele>484.0</ele><time>2026-04-19T10:31:10Z</time></trkpt><trkpt lat="40.00532791717564" lon="15.976755563693139"><ele>484.0</ele><time>2026-04-19T10:31:11Z</time></trkpt><trkpt lat="40.005392774373036" lon="15.976699256806153"><ele>484.00000000000006</ele><time>2026-04-19T10:31:12Z</time></trkpt><trkpt lat="40.00543689161645" lon="15.976620542822031"><ele>484.0</ele><time>2026-04-19T10:31:13Z</time></trkpt><trkpt lat="40.005447570619246" lon="15.976483917686883"><ele>484.33333333333337</ele><time>2026-04-19T10:31:15Z</time></trkpt><trkpt lat="40.00538090888461" lon="15.976412578569738"><ele>484.6666666666667</ele><time>2026-04-19T10:31:16Z</time></trkpt><trkpt lat="40.00530355461705" lon="15.976379161516395"><ele>485.0</ele><time>2026-04-19T10:31:17Z</time></trkpt><trkpt lat="40.00523951187996" lon="15.976346780905999"><ele>485.33333333333337</ele><time>2026-04-19T10:31:18Z</time></trkpt><trkpt lat="40.00518216013362" lon="15.976287826112166"><ele>485.6666666666667</ele><time>2026-04-19T10:31:20Z</time></trkpt><trkpt lat="40.00514213490293" lon="15.976162510716835"><ele>486.0</ele><time>2026-04-19T10:31:23Z</time></trkpt><trkpt lat="40.005181176042726" lon="15.976066328090578"><ele>486.0</ele><time>2026-04-19T10:31:24Z</time></trkpt><trkpt lat="40.00520620437932" lon="15.975945989087132"><ele>486.0</ele><time>2026-04-19T10:31:25Z</time></trkpt><trkpt lat="40.00522975186304" lon="15.975796839092109"><ele>486.0</ele><time>2026-04-19T10:31:26Z</time></trkpt><trkpt lat="40.00525339430137" lon="15.975631481902198"><ele>486.0</ele><time>2026-04-19T10:31:27Z</time></trkpt><trkpt lat="40.00527886311212" lon="15.975431241003097"><ele>486.66666666666663</ele><time>2026-04-19T10:31:28Z</time></trkpt><trkpt lat="40.00530776697391" lon="15.975214589720535"><ele>487.3333333333333</ele><time>2026-04-19T10:31:29Z</time></trkpt><trkpt lat="40.00531648076737" lon="15.974984317972439"><ele>488.0</ele><time>2026-04-19T10:31:30Z</time></trkpt><trkpt lat="40.00529463363313" lon="15.974755765347407"><ele>489.3333333333333</ele><time>2026-04-19T10:31:31Z</time></trkpt><trkpt lat="40.00525544800799" lon="15.974521706338615"><ele>490.66666666666663</ele><time>2026-04-19T10:31:32Z</time></trkpt><trkpt lat="40.00522339398557" lon="15.97431626496768"><ele>492.0</ele><time>2026-04-19T10:31:33Z</time></trkpt><trkpt lat="40.00519782065999" lon="15.974143848270463"><ele>493.25</ele><time>2026-04-19T10:31:34Z</time></trkpt><trkpt lat="40.005179318452605" lon="15.973981363052145"><ele>494.5</ele><time>2026-04-19T10:31:35Z</time></trkpt><trkpt lat="40.00516504429741" lon="15.973831224786588"><ele>495.75</ele><time>2026-04-19T10:31:36Z</time></trkpt><trkpt lat="40.00515252843243" lon="15.97370020223016"><ele>497.0</ele><time>2026-04-19T10:31:37Z</time></trkpt><trkpt lat="40.00513968534586" lon="15.973555919044246"><ele>496.99999999999994</ele><time>2026-04-19T10:31:38Z</time></trkpt><trkpt lat="40.005150058881064" lon="15.97343525685646"><ele>497.0</ele><time>2026-04-19T10:31:39Z</time></trkpt><trkpt lat="40.00516182283653" lon="15.973331888348335"><ele>497.0</ele><time>2026-04-19T10:31:40Z</time></trkpt><trkpt lat="40.00517774230313" lon="15.973242542289938"><ele>497.0</ele><time>2026-04-19T10:31:41Z</time></trkpt><trkpt lat="40.00519447298659" lon="15.973153425142058"><ele>496.99999999999994</ele><time>2026-04-19T10:31:42Z</time></trkpt><trkpt lat="40.00521739730671" lon="15.973062159404835"><ele>497.0</ele><time>2026-04-19T10:31:43Z</time></trkpt><trkpt lat="40.00524151584522" lon="15.972963898124393"><ele>497.49999999999994</ele><time>2026-04-19T10:31:44Z</time></trkpt><trkpt lat="40.00526686892138" lon="15.97286483798038"><ele>498.0</ele><time>2026-04-19T10:31:45Z</time></trkpt><trkpt lat="40.00528284004835" lon="15.97277804366793"><ele>498.5</ele><time>2026-04-19T10:31:46Z</time></trkpt><trkpt lat="40.00529878517647" lon="15.972663858384657"><ele>499.0</ele><time>2026-04-19T10:31:48Z</time></trkpt><trkpt lat="40.005317463679475" lon="15.972574399150382"><ele>499.49999999999994</ele><time>2026-04-19T10:31:50.999Z</time></trkpt><trkpt lat="40.00539140956099" lon="15.972535648889362"><ele>500.0</ele><time>2026-04-19T10:31:53.999Z</time></trkpt><trkpt lat="40.00539823643255" lon="15.972617654362413"><ele>500.0</ele><time>2026-04-19T10:31:55.999Z</time></trkpt><trkpt lat="40.00541297873013" lon="15.972743975685551"><ele>500.0</ele><time>2026-04-19T10:31:58.999Z</time></trkpt><trkpt lat="40.00540075315113" lon="15.972885252323005"><ele>500.0</ele><time>2026-04-19T10:32:00.999Z</time></trkpt><trkpt lat="40.005370632741254" lon="15.973016501518254"><ele>500.0</ele><time>2026-04-19T10:32:01.999Z</time></trkpt><trkpt lat="40.00540024930692" lon="15.973200049705909"><ele>499.99999999999994</ele><time>2026-04-19T10:32:02.999Z</time></trkpt><trkpt lat="40.00543323855879" lon="15.973306906778877"><ele>500.0</ele><time>2026-04-19T10:32:03.999Z</time></trkpt><trkpt lat="40.00543465959655" lon="15.973401315438036"><ele>500.0</ele><time>2026-04-19T10:32:04.999Z</time></trkpt><trkpt lat="40.005449988295005" lon="15.973490265420866"><ele>500.0</ele><time>2026-04-19T10:32:05.999Z</time></trkpt><trkpt lat="40.005463958555694" lon="15.973571278794122"><ele>499.99999999999994</ele><time>2026-04-19T10:32:06.999Z</time></trkpt><trkpt lat="40.00548728602264" lon="15.97370655449723"><ele>500.0</ele><time>2026-04-19T10:32:08.999Z</time></trkpt><trkpt lat="40.00551908613819" lon="15.973793820774816"><ele>499.57142857142856</ele><time>2026-04-19T10:32:12.999Z</time></trkpt><trkpt lat="40.005536810333155" lon="15.973874507735797"><ele>499.14285714285717</ele><time>2026-04-19T10:32:15.999Z</time></trkpt><trkpt lat="40.00560196786322" lon="15.973876325656557"><ele>498.7142857142857</ele><time>2026-04-19T10:32:17.999Z</time></trkpt><trkpt lat="40.00559531939006" lon="15.973965354076038"><ele>498.2857142857143</ele><time>2026-04-19T10:32:37.999Z</time></trkpt><trkpt lat="40.00560245558467" lon="15.973874110619274"><ele>497.8571428571429</ele><time>2026-04-19T10:33:21Z</time></trkpt><trkpt lat="40.00556000210557" lon="15.973944693082988"><ele>497.42857142857144</ele><time>2026-04-19T10:33:44Z</time></trkpt><trkpt lat="40.00549058431066" lon="15.973889503446058"><ele>497.0</ele><time>2026-04-19T10:33:52.999Z</time></trkpt><trkpt lat="40.00546045856044" lon="15.973799417729586"><ele>497.0</ele><time>2026-04-19T10:33:59.999Z</time></trkpt><trkpt lat="40.00548429214638" lon="15.973885050016053"><ele>497.0</ele><time>2026-04-19T10:34:12.999Z</time></trkpt><trkpt lat="40.005525945285655" lon="15.973955046372199"><ele>497.0</ele><time>2026-04-19T10:34:17.999Z</time></trkpt><trkpt lat="40.00565872076174" lon="15.973815730835495"><ele>497.0</ele><time>2026-04-19T10:34:19.999Z</time></trkpt><trkpt lat="40.005488374410554" lon="15.973911612200387"><ele>497.0</ele><time>2026-04-19T10:39:45.29Z</time></trkpt></trkseg></trk></gpx>